<?xml version='1.0' encoding='UTF-8'?><gpx version="1.1" creator="JPX - https://github.com/jenetics/jpx" xmlns="http://www.topografix.com/GPX/1/1"><trk><trkseg><trkpt lat="44.858142118123965" lon="-1.1117612838830389"><ele>23.0</ele><time>2026-04-12T13:16:39Z</time></trkpt><trkpt lat="44.85822690956838" lon="-1.1116421236923886"><ele>23.0</ele><time>2026-04-12T13:16:40Z</time></trkpt><trkpt lat="44.858281937253274" lon="-1.1115498283460221"><ele>23.0</ele><time>2026-04-12T13:16:41Z</time></trkpt><trkpt lat="44.85833603701885" lon="-1.1114714077383092"><ele>23.0</ele><time>2026-04-12T13:16:42Z</time></trkpt><trkpt lat="44.85839113616196" lon="-1.1114114832816429"><ele>23.0</ele><time>2026-04-12T13:16:43Z</time></trkpt><trkpt lat="44.858482765433855" lon="-1.1114182034975941"><ele>23.0</ele><time>2026-04-12T13:16:45Z</time></trkpt><trkpt lat="44.85855045570856" lon="-1.1114582506950763"><ele>23.0</ele><time>2026-04-12T13:16:46Z</time></trkpt><trkpt lat="44.85866166000325" lon="-1.1115396015865326"><ele>23.0</ele><time>2026-04-12T13:16:47Z</time></trkpt><trkpt lat="44.85875986169543" lon="-1.111595415021547"><ele>23.0</ele><time>2026-04-12T13:16:48Z</time></trkpt><trkpt lat="44.85884881176389" lon="-1.111642392270489"><ele>23.0</ele><time>2026-04-12T13:16:49Z</time></trkpt><trkpt lat="44.858935913356184" lon="-1.1116906344093942"><ele>23.0</ele><time>2026-04-12T13:16:50Z</time></trkpt><trkpt lat="44.85903332395183" lon="-1.1117466463346581"><ele>23.0</ele><time>2026-04-12T13:16:51Z</time></trkpt><trkpt lat="44.85911105859915" lon="-1.1117913086236204"><ele>23.0</ele><time>2026-04-12T13:16:52Z</time></trkpt><trkpt lat="44.859176393036705" lon="-1.1118404570766804"><ele>23.0</ele><time>2026-04-12T13:16:53Z</time></trkpt><trkpt lat="44.85924666888393" lon="-1.1118880468455747"><ele>23.0</ele><time>2026-04-12T13:16:54Z</time></trkpt><trkpt lat="44.859357447528815" lon="-1.1119515273359981"><ele>23.0</ele><time>2026-04-12T13:16:55Z</time></trkpt><trkpt lat="44.8594862212811" lon="-1.1120245882351327"><ele>22.75</ele><time>2026-04-12T13:16:56Z</time></trkpt><trkpt lat="44.859634054569725" lon="-1.1121069510474668"><ele>22.5</ele><time>2026-04-12T13:16:57Z</time></trkpt><trkpt lat="44.85975897838705" lon="-1.1121867717979046"><ele>22.25</ele><time>2026-04-12T13:16:58Z</time></trkpt><trkpt lat="44.85986872886808" lon="-1.1122485399983688"><ele>22.0</ele><time>2026-04-12T13:16:59Z</time></trkpt><trkpt lat="44.859977899127244" lon="-1.1123156579070212"><ele>22.0</ele><time>2026-04-12T13:17:00Z</time></trkpt><trkpt lat="44.8600944554106" lon="-1.1123835094915109"><ele>22.0</ele><time>2026-04-12T13:17:01Z</time></trkpt><trkpt lat="44.86021538072573" lon="-1.1124532747271834"><ele>22.0</ele><time>2026-04-12T13:17:02Z</time></trkpt><trkpt lat="44.86033502463669" lon="-1.1125193192931542"><ele>22.0</ele><time>2026-04-12T13:17:03Z</time></trkpt><trkpt lat="44.86043680141229" lon="-1.1125768267406198"><ele>22.333333333333332</ele><time>2026-04-12T13:17:04Z</time></trkpt><trkpt lat="44.86052509494527" lon="-1.1126252239002525"><ele>22.666666666666664</ele><time>2026-04-12T13:17:05Z</time></trkpt><trkpt lat="44.860612155345116" lon="-1.1126791199197084"><ele>23.0</ele><time>2026-04-12T13:17:06Z</time></trkpt><trkpt lat="44.86069324241201" lon="-1.1127359942982098"><ele>23.333333333333332</ele><time>2026-04-12T13:17:06.999Z</time></trkpt><trkpt lat="44.860765297472646" lon="-1.112775806846671"><ele>23.666666666666668</ele><time>2026-04-12T13:17:07.999Z</time></trkpt><trkpt lat="44.86084674758901" lon="-1.1128177264804289"><ele>24.0</ele><time>2026-04-12T13:17:08.999Z</time></trkpt><trkpt lat="44.8609313289317" lon="-1.1128640735425317"><ele>23.799999999999997</ele><time>2026-04-12T13:17:09.999Z</time></trkpt><trkpt lat="44.86102115975961" lon="-1.1129147083314366"><ele>23.599999999999998</ele><time>2026-04-12T13:17:10.999Z</time></trkpt><trkpt lat="44.861123514586644" lon="-1.112972534579211"><ele>23.4</ele><time>2026-04-12T13:17:11.999Z</time></trkpt><trkpt lat="44.86124030624029" lon="-1.1130328601404524"><ele>23.2</ele><time>2026-04-12T13:17:12.999Z</time></trkpt><trkpt lat="44.86130882257514" lon="-1.1130994511219094"><ele>23.0</ele><time>2026-04-12T13:17:13.999Z</time></trkpt><trkpt lat="44.86139210924118" lon="-1.1131644659860411"><ele>23.0</ele><time>2026-04-12T13:17:14.999Z</time></trkpt><trkpt lat="44.86151164668448" lon="-1.1132018572271867"><ele>23.0</ele><time>2026-04-12T13:17:15.999Z</time></trkpt><trkpt lat="44.86161366476643" lon="-1.1132549934931528"><ele>23.0</ele><time>2026-04-12T13:17:16.999Z</time></trkpt><trkpt lat="44.86169502743274" lon="-1.1133130925171555"><ele>23.0</ele><time>2026-04-12T13:17:17.999Z</time></trkpt><trkpt lat="44.86178505132314" lon="-1.1133597173111243"><ele>23.0</ele><time>2026-04-12T13:17:18.999Z</time></trkpt><trkpt lat="44.86188404113076" lon="-1.1134169207121234"><ele>23.2</ele><time>2026-04-12T13:17:19.999Z</time></trkpt><trkpt lat="44.86198476395311" lon="-1.113471949248589"><ele>23.4</ele><time>2026-04-12T13:17:20.999Z</time></trkpt><trkpt lat="44.86208915969476" lon="-1.1135305522203898"><ele>23.599999999999998</ele><time>2026-04-12T13:17:21.999Z</time></trkpt><trkpt lat="44.86217580048244" lon="-1.1136061554119874"><ele>23.799999999999997</ele><time>2026-04-12T13:17:22.999Z</time></trkpt><trkpt lat="44.862273846597695" lon="-1.11365884041653"><ele>24.0</ele><time>2026-04-12T13:17:23.999Z</time></trkpt><trkpt lat="44.86235819193867" lon="-1.1137147357340513"><ele>24.0</ele><time>2026-04-12T13:17:24.999Z</time></trkpt><trkpt lat="44.86244283601105" lon="-1.1137632447361532"><ele>24.0</ele><time>2026-04-12T13:17:25.999Z</time></trkpt><trkpt lat="44.862532503776805" lon="-1.1138064132388987"><ele>24.0</ele><time>2026-04-12T13:17:26.999Z</time></trkpt><trkpt lat="44.86262084225342" lon="-1.113870831086547"><ele>24.0</ele><time>2026-04-12T13:17:27.999Z</time></trkpt><trkpt lat="44.86268673446979" lon="-1.1139158834676903"><ele>24.0</ele><time>2026-04-12T13:17:28.999Z</time></trkpt><trkpt lat="44.862762660778294" lon="-1.1139776331418934"><ele>24.0</ele><time>2026-04-12T13:17:30.999Z</time></trkpt><trkpt lat="44.86277081656709" lon="-1.1141291132306108"><ele>24.0</ele><time>2026-04-12T13:17:33.999Z</time></trkpt><trkpt lat="44.862734276402854" lon="-1.114207821223938"><ele>24.0</ele><time>2026-04-12T13:17:34.999Z</time></trkpt><trkpt lat="44.862700669686184" lon="-1.1143033708224352"><ele>24.0</ele><time>2026-04-12T13:17:35.999Z</time></trkpt><trkpt lat="44.8626599794327" lon="-1.114436745613885"><ele>24.0</ele><time>2026-04-12T13:17:36.999Z</time></trkpt><trkpt lat="44.862628819684254" lon="-1.1145655062710056"><ele>24.0</ele><time>2026-04-12T13:17:37.999Z</time></trkpt><trkpt lat="44.862580185432236" lon="-1.1146792634267872"><ele>24.0</ele><time>2026-04-12T13:17:38.999Z</time></trkpt><trkpt lat="44.862533139486224" lon="-1.1148288754026563"><ele>24.5</ele><time>2026-04-12T13:17:39.999Z</time></trkpt><trkpt lat="44.86250566553162" lon="-1.1150064563354183"><ele>25.0</ele><time>2026-04-12T13:17:40.999Z</time></trkpt><trkpt lat="44.8624533053193" lon="-1.1151624117596357"><ele>25.5</ele><time>2026-04-12T13:17:41.999Z</time></trkpt><trkpt lat="44.8623986539204" lon="-1.1153317076301281"><ele>26.0</ele><time>2026-04-12T13:17:42.999Z</time></trkpt><trkpt lat="44.862357267267384" lon="-1.115478829988474"><ele>26.0</ele><time>2026-04-12T13:17:43.999Z</time></trkpt><trkpt lat="44.86232039008727" lon="-1.1157209833558386"><ele>26.0</ele><time>2026-04-12T13:17:44.999Z</time></trkpt><trkpt lat="44.86230493805191" lon="-1.115941521539853"><ele>26.0</ele><time>2026-04-12T13:17:45.999Z</time></trkpt><trkpt lat="44.86228155626327" lon="-1.1161646575002129"><ele>25.200000000000003</ele><time>2026-04-12T13:17:46.999Z</time></trkpt><trkpt lat="44.86227569408712" lon="-1.1163566202791946"><ele>24.400000000000002</ele><time>2026-04-12T13:17:47.999Z</time></trkpt><trkpt lat="44.86227272762695" lon="-1.1165112399516657"><ele>23.6</ele><time>2026-04-12T13:17:48.999Z</time></trkpt><trkpt lat="44.86225456966526" lon="-1.1166140892261616"><ele>22.8</ele><time>2026-04-12T13:17:49.999Z</time></trkpt><trkpt lat="44.86219005024652" lon="-1.116733723846568"><ele>22.0</ele><time>2026-04-12T13:17:50.999Z</time></trkpt><trkpt lat="44.862089560583044" lon="-1.1168749790984955"><ele>21.333333333333332</ele><time>2026-04-12T13:17:51.999Z</time></trkpt><trkpt lat="44.86197426578364" lon="-1.1170346127586777"><ele>20.666666666666668</ele><time>2026-04-12T13:17:52.999Z</time></trkpt><trkpt lat="44.86185108939685" lon="-1.1172051219281294"><ele>20.0</ele><time>2026-04-12T13:17:53.998Z</time></trkpt><trkpt lat="44.861748754561354" lon="-1.1173620573446195"><ele>21.0</ele><time>2026-04-12T13:17:54.998Z</time></trkpt><trkpt lat="44.86164350605087" lon="-1.1175339537996116"><ele>22.0</ele><time>2026-04-12T13:17:55.998Z</time></trkpt><trkpt lat="44.861541740333514" lon="-1.1176927767692606"><ele>23.0</ele><time>2026-04-12T13:17:56.998Z</time></trkpt><trkpt lat="44.86145992497136" lon="-1.1178427472392853"><ele>24.0</ele><time>2026-04-12T13:17:57.998Z</time></trkpt><trkpt lat="44.86137458457715" lon="-1.117995374984456"><ele>24.0</ele><time>2026-04-12T13:17:58.998Z</time></trkpt><trkpt lat="44.86127220275139" lon="-1.118137490421304"><ele>24.0</ele><time>2026-04-12T13:17:59.998Z</time></trkpt><trkpt lat="44.86117562667197" lon="-1.1182823958755046"><ele>24.0</ele><time>2026-04-12T13:18:00.998Z</time></trkpt><trkpt lat="44.86106688186586" lon="-1.1184353106200433"><ele>24.0</ele><time>2026-04-12T13:18:01.998Z</time></trkpt><trkpt lat="44.86095511832567" lon="-1.1185791380684145"><ele>24.75</ele><time>2026-04-12T13:18:02.998Z</time></trkpt><trkpt lat="44.860834881421276" lon="-1.1187258862051428"><ele>25.5</ele><time>2026-04-12T13:18:03.998Z</time></trkpt><trkpt lat="44.86075457660418" lon="-1.1188545061692692"><ele>26.25</ele><time>2026-04-12T13:18:04.998Z</time></trkpt><trkpt lat="44.8606589265536" lon="-1.118997325271851"><ele>27.0</ele><time>2026-04-12T13:18:05.998Z</time></trkpt><trkpt lat="44.86054680644769" lon="-1.1191250415221166"><ele>27.0</ele><time>2026-04-12T13:18:06.998Z</time></trkpt><trkpt lat="44.86043906514665" lon="-1.1192561022713075"><ele>27.0</ele><time>2026-04-12T13:18:07.998Z</time></trkpt><trkpt lat="44.860331476388595" lon="-1.1194168475272892"><ele>27.0</ele><time>2026-04-12T13:18:08.998Z</time></trkpt><trkpt lat="44.86024006437852" lon="-1.1195634474615568"><ele>27.0</ele><time>2026-04-12T13:18:09.998Z</time></trkpt><trkpt lat="44.86013344154217" lon="-1.1197374304513044"><ele>27.0</ele><time>2026-04-12T13:18:10.998Z</time></trkpt><trkpt lat="44.86002001756851" lon="-1.1198948246299392"><ele>27.0</ele><time>2026-04-12T13:18:11.998Z</time></trkpt><trkpt lat="44.85991172533583" lon="-1.1200641280801222"><ele>27.0</ele><time>2026-04-12T13:18:12.998Z</time></trkpt><trkpt lat="44.85981908397854" lon="-1.1202278104953673"><ele>27.5</ele><time>2026-04-12T13:18:13.998Z</time></trkpt><trkpt lat="44.85972749144004" lon="-1.1203483857066483"><ele>28.0</ele><time>2026-04-12T13:18:14.998Z</time></trkpt><trkpt lat="44.85963990901357" lon="-1.1205036477914103"><ele>28.5</ele><time>2026-04-12T13:18:16Z</time></trkpt><trkpt lat="44.859570196819966" lon="-1.1206382359599658"><ele>29.0</ele><time>2026-04-12T13:18:17Z</time></trkpt><trkpt lat="44.85951781967325" lon="-1.1207492631507268"><ele>28.2</ele><time>2026-04-12T13:18:18Z</time></trkpt><trkpt lat="44.85949369615282" lon="-1.120888703637238"><ele>27.4</ele><time>2026-04-12T13:18:19Z</time></trkpt><trkpt lat="44.85947814817223" lon="-1.1210616855654327"><ele>26.6</ele><time>2026-04-12T13:18:20Z</time></trkpt><trkpt lat="44.859464738771514" lon="-1.1211963999319332"><ele>25.8</ele><time>2026-04-12T13:18:21Z</time></trkpt><trkpt lat="44.859434236426765" lon="-1.121297733521407"><ele>25.0</ele><time>2026-04-12T13:18:22Z</time></trkpt><trkpt lat="44.859381017783626" lon="-1.1213694626367652"><ele>25.0</ele><time>2026-04-12T13:18:23Z</time></trkpt><trkpt lat="44.859309493674175" lon="-1.121388056577234"><ele>25.0</ele><time>2026-04-12T13:18:24Z</time></trkpt><trkpt lat="44.859201057741835" lon="-1.121405796902897"><ele>25.0</ele><time>2026-04-12T13:18:25Z</time></trkpt><trkpt lat="44.85908388165987" lon="-1.1214314537617756"><ele>25.0</ele><time>2026-04-12T13:18:26Z</time></trkpt><trkpt lat="44.85898750812417" lon="-1.121510841185404"><ele>25.0</ele><time>2026-04-12T13:18:27Z</time></trkpt><trkpt lat="44.858888694214144" lon="-1.1216034197941724"><ele>25.333333333333336</ele><time>2026-04-12T13:18:28Z</time></trkpt><trkpt lat="44.858815103074285" lon="-1.1216647431841513"><ele>25.666666666666668</ele><time>2026-04-12T13:18:29Z</time></trkpt><trkpt lat="44.85874520999271" lon="-1.1217216085064998"><ele>26.0</ele><time>2026-04-12T13:18:30Z</time></trkpt><trkpt lat="44.8586933152441" lon="-1.1217766084054652"><ele>26.333333333333336</ele><time>2026-04-12T13:18:31Z</time></trkpt><trkpt lat="44.85865396392476" lon="-1.1218870928897062"><ele>26.666666666666668</ele><time>2026-04-12T13:18:32Z</time></trkpt><trkpt lat="44.85858401100922" lon="-1.122022614367643"><ele>27.0</ele><time>2026-04-12T13:18:33Z</time></trkpt><trkpt lat="44.85849434767317" lon="-1.1221135792232917"><ele>27.0</ele><time>2026-04-12T13:18:34Z</time></trkpt><trkpt lat="44.858414240335264" lon="-1.1221788080000754"><ele>27.0</ele><time>2026-04-12T13:18:35Z</time></trkpt><trkpt lat="44.858356678367144" lon="-1.1222163462250674"><ele>27.0</ele><time>2026-04-12T13:18:36Z</time></trkpt><trkpt lat="44.858321221949026" lon="-1.1223194523655606"><ele>27.0</ele><time>2026-04-12T13:18:38Z</time></trkpt><trkpt lat="44.85839871150902" lon="-1.1224732325424185"><ele>27.0</ele><time>2026-04-12T13:18:40Z</time></trkpt><trkpt lat="44.85845749651541" lon="-1.1225359418279237"><ele>27.0</ele><time>2026-04-12T13:18:41Z</time></trkpt><trkpt lat="44.858513558173485" lon="-1.122581165543159"><ele>27.400000000000002</ele><time>2026-04-12T13:18:42Z</time></trkpt><trkpt lat="44.858558380201295" lon="-1.1226624827633696"><ele>27.800000000000004</ele><time>2026-04-12T13:18:44Z</time></trkpt><trkpt lat="44.858559928555856" lon="-1.1228245612182068"><ele>28.2</ele><time>2026-04-12T13:18:46Z</time></trkpt><trkpt lat="44.85852861493314" lon="-1.1229391744158006"><ele>28.6</ele><time>2026-04-12T13:18:47Z</time></trkpt><trkpt lat="44.858492638329416" lon="-1.1230745381233973"><ele>29.0</ele><time>2026-04-12T13:18:48Z</time></trkpt><trkpt lat="44.858509480822725" lon="-1.12319205546191"><ele>29.0</ele><time>2026-04-12T13:18:49Z</time></trkpt><trkpt lat="44.858539898384066" lon="-1.1233284579910312"><ele>29.0</ele><time>2026-04-12T13:18:50Z</time></trkpt><trkpt lat="44.858575401061486" lon="-1.1234821607437036"><ele>29.0</ele><time>2026-04-12T13:18:51Z</time></trkpt><trkpt lat="44.85860588083222" lon="-1.1235779453612962"><ele>29.0</ele><time>2026-04-12T13:18:52Z</time></trkpt><trkpt lat="44.85863775523746" lon="-1.1237089800260784"><ele>29.0</ele><time>2026-04-12T13:18:53Z</time></trkpt><trkpt lat="44.85867570239522" lon="-1.1238605478869674"><ele>29.0</ele><time>2026-04-12T13:18:54Z</time></trkpt><trkpt lat="44.85870983617009" lon="-1.1239814708917444"><ele>29.0</ele><time>2026-04-12T13:18:55Z</time></trkpt><trkpt lat="44.85867724712846" lon="-1.1241080289570853"><ele>29.0</ele><time>2026-04-12T13:18:57Z</time></trkpt><trkpt lat="44.85858821745857" lon="-1.1241537482844584"><ele>29.0</ele><time>2026-04-12T13:18:58Z</time></trkpt><trkpt lat="44.8584558313071" lon="-1.1241902147503289"><ele>29.0</ele><time>2026-04-12T13:18:59Z</time></trkpt><trkpt lat="44.85834191770994" lon="-1.124224764618033"><ele>28.0</ele><time>2026-04-12T13:19:00Z</time></trkpt><trkpt lat="44.85824225634921" lon="-1.1242743468934284"><ele>27.0</ele><time>2026-04-12T13:19:01Z</time></trkpt><trkpt lat="44.858116655432745" lon="-1.1243691227229704"><ele>26.0</ele><time>2026-04-12T13:19:02Z</time></trkpt><trkpt lat="44.85799061432803" lon="-1.1244676758767276"><ele>25.0</ele><time>2026-04-12T13:19:03Z</time></trkpt><trkpt lat="44.85790550503211" lon="-1.1245406033109995"><ele>25.0</ele><time>2026-04-12T13:19:04Z</time></trkpt><trkpt lat="44.857822022417935" lon="-1.124593795273799"><ele>25.0</ele><time>2026-04-12T13:19:05Z</time></trkpt><trkpt lat="44.85766478794827" lon="-1.1245820974708924"><ele>25.0</ele><time>2026-04-12T13:19:06Z</time></trkpt><trkpt lat="44.857522867260364" lon="-1.1245875841964843"><ele>25.0</ele><time>2026-04-12T13:19:07Z</time></trkpt><trkpt lat="44.85740722364807" lon="-1.124606933562087"><ele>23.666666666666668</ele><time>2026-04-12T13:19:07.999Z</time></trkpt><trkpt lat="44.857272341702206" lon="-1.1245906422239853"><ele>22.333333333333336</ele><time>2026-04-12T13:19:08.999Z</time></trkpt><trkpt lat="44.85710037624237" lon="-1.1246263149362707"><ele>21.0</ele><time>2026-04-12T13:19:09.999Z</time></trkpt><trkpt lat="44.856929754995086" lon="-1.1246533401985053"><ele>21.0</ele><time>2026-04-12T13:19:10.999Z</time></trkpt><trkpt lat="44.856801106893165" lon="-1.1247151103982782"><ele>21.0</ele><time>2026-04-12T13:19:11.999Z</time></trkpt><trkpt lat="44.85665585045327" lon="-1.1247798294055984"><ele>21.0</ele><time>2026-04-12T13:19:12.999Z</time></trkpt><trkpt lat="44.85648391204939" lon="-1.124829914322377"><ele>19.666666666666668</ele><time>2026-04-12T13:19:13.999Z</time></trkpt><trkpt lat="44.85633303580594" lon="-1.124888541581288"><ele>18.333333333333336</ele><time>2026-04-12T13:19:14.999Z</time></trkpt><trkpt lat="44.85618203384425" lon="-1.1249538416529155"><ele>17.0</ele><time>2026-04-12T13:19:15.999Z</time></trkpt><trkpt lat="44.856025526881325" lon="-1.1250437771736348"><ele>18.666666666666668</ele><time>2026-04-12T13:19:16.999Z</time></trkpt><trkpt lat="44.855859837101086" lon="-1.1251054711427888"><ele>20.333333333333332</ele><time>2026-04-12T13:19:17.999Z</time></trkpt><trkpt lat="44.855688566291384" lon="-1.1251705876993858"><ele>22.0</ele><time>2026-04-12T13:19:18.999Z</time></trkpt><trkpt lat="44.85555549052179" lon="-1.125242852711361"><ele>22.0</ele><time>2026-04-12T13:19:19.999Z</time></trkpt><trkpt lat="44.85542060801346" lon="-1.125324261677005"><ele>22.0</ele><time>2026-04-12T13:19:20.999Z</time></trkpt><trkpt lat="44.85530876358852" lon="-1.1253840582081582"><ele>22.0</ele><time>2026-04-12T13:19:21.999Z</time></trkpt><trkpt lat="44.855203107907634" lon="-1.1254360903136338"><ele>22.0</ele><time>2026-04-12T13:19:22.999Z</time></trkpt><trkpt lat="44.85511804297134" lon="-1.1255144930497147"><ele>22.200000000000003</ele><time>2026-04-12T13:19:23.999Z</time></trkpt><trkpt lat="44.85504716651426" lon="-1.1255982494137133"><ele>22.4</ele><time>2026-04-12T13:19:24.999Z</time></trkpt><trkpt lat="44.85498928202291" lon="-1.125707612646727"><ele>22.6</ele><time>2026-04-12T13:19:25.999Z</time></trkpt><trkpt lat="44.85495364752682" lon="-1.1258637330167993"><ele>22.799999999999997</ele><time>2026-04-12T13:19:26.999Z</time></trkpt><trkpt lat="44.85494127587706" lon="-1.1260599464797925"><ele>23.0</ele><time>2026-04-12T13:19:27.999Z</time></trkpt><trkpt lat="44.85495291868325" lon="-1.126303382210448"><ele>23.5</ele><time>2026-04-12T13:19:28.999Z</time></trkpt><trkpt lat="44.854956243634476" lon="-1.1265070352307762"><ele>24.0</ele><time>2026-04-12T13:19:29.999Z</time></trkpt><trkpt lat="44.85495911378975" lon="-1.1266707514263372"><ele>24.5</ele><time>2026-04-12T13:19:30.999Z</time></trkpt><trkpt lat="44.85496599019489" lon="-1.1268609846415378"><ele>25.0</ele><time>2026-04-12T13:19:31.999Z</time></trkpt><trkpt lat="44.85496369722135" lon="-1.1270768455979203"><ele>25.666666666666668</ele><time>2026-04-12T13:19:32.999Z</time></trkpt><trkpt lat="44.85495630825529" lon="-1.127319413107627"><ele>26.333333333333336</ele><time>2026-04-12T13:19:33.999Z</time></trkpt><trkpt lat="44.854959118608825" lon="-1.1276160124133552"><ele>27.0</ele><time>2026-04-12T13:19:34.999Z</time></trkpt><trkpt lat="44.85496879274357" lon="-1.1279004247334223"><ele>27.0</ele><time>2026-04-12T13:19:35.999Z</time></trkpt><trkpt lat="44.854938994323206" lon="-1.1279855734472313"><ele>27.0</ele><time>2026-04-12T13:19:36.999Z</time></trkpt><trkpt lat="44.85494153621301" lon="-1.1282220335223208"><ele>27.0</ele><time>2026-04-12T13:19:37.999Z</time></trkpt><trkpt lat="44.85493959259383" lon="-1.1284397064530585"><ele>27.0</ele><time>2026-04-12T13:19:38.999Z</time></trkpt><trkpt lat="44.854937750914964" lon="-1.1286236426821246"><ele>26.5</ele><time>2026-04-12T13:19:39.999Z</time></trkpt><trkpt lat="44.854934174602555" lon="-1.1287945254211116"><ele>26.0</ele><time>2026-04-12T13:19:40.999Z</time></trkpt><trkpt lat="44.854944610773174" lon="-1.1289803996407923"><ele>25.5</ele><time>2026-04-12T13:19:41.999Z</time></trkpt><trkpt lat="44.8549403020966" lon="-1.129154407691656"><ele>25.0</ele><time>2026-04-12T13:19:42.999Z</time></trkpt><trkpt lat="44.85493334419432" lon="-1.129303731478095"><ele>24.8</ele><time>2026-04-12T13:19:43.999Z</time></trkpt><trkpt lat="44.85490172350077" lon="-1.1294602548754142"><ele>24.6</ele><time>2026-04-12T13:19:44.999Z</time></trkpt><trkpt lat="44.85486885241687" lon="-1.1296044782608223"><ele>24.4</ele><time>2026-04-12T13:19:45.999Z</time></trkpt><trkpt lat="44.8548632610184" lon="-1.1297320749465205"><ele>24.2</ele><time>2026-04-12T13:19:46.999Z</time></trkpt><trkpt lat="44.85488810409614" lon="-1.1298778979628876"><ele>24.0</ele><time>2026-04-12T13:19:47.999Z</time></trkpt><trkpt lat="44.85493013504311" lon="-1.130043362422173"><ele>24.0</ele><time>2026-04-12T13:19:48.999Z</time></trkpt><trkpt lat="44.854938290169294" lon="-1.1302408204926424"><ele>24.0</ele><time>2026-04-12T13:19:49.999Z</time></trkpt><trkpt lat="44.85492728989072" lon="-1.1304842664955526"><ele>24.0</ele><time>2026-04-12T13:19:50.999Z</time></trkpt><trkpt lat="44.85491302433167" lon="-1.130724311326039"><ele>23.666666666666668</ele><time>2026-04-12T13:19:51.999Z</time></trkpt><trkpt lat="44.85490865043477" lon="-1.130958943853413"><ele>23.333333333333336</ele><time>2026-04-12T13:19:52.999Z</time></trkpt><trkpt lat="44.854899804632886" lon="-1.1312275570028074"><ele>23.0</ele><time>2026-04-12T13:19:53.999Z</time></trkpt><trkpt lat="44.85489007848855" lon="-1.131455455102291"><ele>21.666666666666668</ele><time>2026-04-12T13:19:54.999Z</time></trkpt><trkpt lat="44.8548770752955" lon="-1.1316940342092308"><ele>20.333333333333332</ele><time>2026-04-12T13:19:55.998Z</time></trkpt><trkpt lat="44.85485700991581" lon="-1.1319334407002049"><ele>19.0</ele><time>2026-04-12T13:19:56.998Z</time></trkpt><trkpt lat="44.85484420868424" lon="-1.1321368890550696"><ele>19.0</ele><time>2026-04-12T13:19:57.998Z</time></trkpt><trkpt lat="44.854842721775704" lon="-1.1323346982524123"><ele>19.0</ele><time>2026-04-12T13:19:58.998Z</time></trkpt><trkpt lat="44.85484169713322" lon="-1.1325296575642068"><ele>19.0</ele><time>2026-04-12T13:19:59.998Z</time></trkpt><trkpt lat="44.854831219774766" lon="-1.1327285552195743"><ele>19.0</ele><time>2026-04-12T13:20:00.998Z</time></trkpt><trkpt lat="44.85482802895395" lon="-1.13293630629465"><ele>18.666666666666664</ele><time>2026-04-12T13:20:01.998Z</time></trkpt><trkpt lat="44.85482602383884" lon="-1.1331579215961636"><ele>18.333333333333332</ele><time>2026-04-12T13:20:02.998Z</time></trkpt><trkpt lat="44.85481706642526" lon="-1.1333869997366797"><ele>18.0</ele><time>2026-04-12T13:20:03.998Z</time></trkpt><trkpt lat="44.85480387874254" lon="-1.1336152297474023"><ele>18.0</ele><time>2026-04-12T13:20:04.998Z</time></trkpt><trkpt lat="44.854793821823826" lon="-1.133826564483458"><ele>18.0</ele><time>2026-04-12T13:20:05.998Z</time></trkpt><trkpt lat="44.85478364413088" lon="-1.1340586301540376"><ele>18.0</ele><time>2026-04-12T13:20:06.998Z</time></trkpt><trkpt lat="44.85477570589036" lon="-1.134263860571545"><ele>19.0</ele><time>2026-04-12T13:20:07.998Z</time></trkpt><trkpt lat="44.85476937036298" lon="-1.1344451891645673"><ele>20.0</ele><time>2026-04-12T13:20:08.998Z</time></trkpt><trkpt lat="44.85475147814334" lon="-1.134656012487498"><ele>21.0</ele><time>2026-04-12T13:20:09.998Z</time></trkpt><trkpt lat="44.85473197132869" lon="-1.134839813929337"><ele>22.0</ele><time>2026-04-12T13:20:10.998Z</time></trkpt><trkpt lat="44.85470832147874" lon="-1.1350196026631467"><ele>22.25</ele><time>2026-04-12T13:20:11.998Z</time></trkpt><trkpt lat="44.85468104762737" lon="-1.1351912963229394"><ele>22.5</ele><time>2026-04-12T13:20:12.998Z</time></trkpt><trkpt lat="44.85465936809956" lon="-1.1353379228424618"><ele>22.75</ele><time>2026-04-12T13:20:13.998Z</time></trkpt><trkpt lat="44.85464094688988" lon="-1.1355099318100392"><ele>23.0</ele><time>2026-04-12T13:20:14.998Z</time></trkpt><trkpt lat="44.85461224552755" lon="-1.1356950202441718"><ele>23.0</ele><time>2026-04-12T13:20:15.998Z</time></trkpt><trkpt lat="44.85458206927336" lon="-1.1358937666049087"><ele>23.0</ele><time>2026-04-12T13:20:16.998Z</time></trkpt><trkpt lat="44.85456400679531" lon="-1.1360680723263272"><ele>23.0</ele><time>2026-04-12T13:20:17.998Z</time></trkpt><trkpt lat="44.85455397665283" lon="-1.1362157859903412"><ele>23.0</ele><time>2026-04-12T13:20:18.998Z</time></trkpt><trkpt lat="44.85453655441922" lon="-1.1363290796814334"><ele>23.0</ele><time>2026-04-12T13:20:19.998Z</time></trkpt><trkpt lat="44.85454388476578" lon="-1.1364457049484522"><ele>23.0</ele><time>2026-04-12T13:20:22Z</time></trkpt><trkpt lat="44.85459623625814" lon="-1.13651446447719"><ele>23.0</ele><time>2026-04-12T13:20:24Z</time></trkpt><trkpt lat="44.85469148529333" lon="-1.1365632890619246"><ele>23.0</ele><time>2026-04-12T13:20:25Z</time></trkpt><trkpt lat="44.85476097319881" lon="-1.1366150575395761"><ele>23.0</ele><time>2026-04-12T13:20:26Z</time></trkpt><trkpt lat="44.85481895589208" lon="-1.1366626778004187"><ele>23.0</ele><time>2026-04-12T13:20:27Z</time></trkpt><trkpt lat="44.854899839438716" lon="-1.136746733625661"><ele>23.166666666666668</ele><time>2026-04-12T13:20:28Z</time></trkpt><trkpt lat="44.85498690168291" lon="-1.1368146424063679"><ele>23.333333333333336</ele><time>2026-04-12T13:20:29Z</time></trkpt><trkpt lat="44.85506290486993" lon="-1.1368728612386512"><ele>23.5</ele><time>2026-04-12T13:20:30Z</time></trkpt><trkpt lat="44.85512822541553" lon="-1.1369130799244551"><ele>23.666666666666668</ele><time>2026-04-12T13:20:31Z</time></trkpt><trkpt lat="44.85519510065944" lon="-1.1369727241995549"><ele>23.833333333333332</ele><time>2026-04-12T13:20:32Z</time></trkpt><trkpt lat="44.85529413228728" lon="-1.1370381452491976"><ele>24.0</ele><time>2026-04-12T13:20:34Z</time></trkpt><trkpt lat="44.85537829454486" lon="-1.1370946518008291"><ele>24.166666666666668</ele><time>2026-04-12T13:20:36Z</time></trkpt><trkpt lat="44.85545098643427" lon="-1.1371703316121307"><ele>24.333333333333336</ele><time>2026-04-12T13:20:38Z</time></trkpt><trkpt lat="44.855519786059176" lon="-1.137204259847632"><ele>24.5</ele><time>2026-04-12T13:20:40Z</time></trkpt><trkpt lat="44.855581086259384" lon="-1.1372332037185497"><ele>24.666666666666668</ele><time>2026-04-12T13:20:41Z</time></trkpt><trkpt lat="44.85563621428706" lon="-1.1373531261636183"><ele>24.833333333333336</ele><time>2026-04-12T13:20:43Z</time></trkpt><trkpt lat="44.85566432889801" lon="-1.137465724602679"><ele>25.0</ele><time>2026-04-12T13:20:44Z</time></trkpt><trkpt lat="44.85569729084879" lon="-1.137620431810905"><ele>25.25</ele><time>2026-04-12T13:20:45Z</time></trkpt><trkpt lat="44.85572609744066" lon="-1.1377664169452053"><ele>25.5</ele><time>2026-04-12T13:20:46Z</time></trkpt><trkpt lat="44.85575467328601" lon="-1.1379056285535294"><ele>25.75</ele><time>2026-04-12T13:20:47Z</time></trkpt><trkpt lat="44.85586059421536" lon="-1.1380994456566618"><ele>26.0</ele><time>2026-04-12T13:20:48Z</time></trkpt><trkpt lat="44.85596249512689" lon="-1.1382537577106007"><ele>25.25</ele><time>2026-04-12T13:20:49Z</time></trkpt><trkpt lat="44.85604826141397" lon="-1.1384055195879383"><ele>24.5</ele><time>2026-04-12T13:20:50Z</time></trkpt><trkpt lat="44.85612352262942" lon="-1.138559971759621"><ele>23.75</ele><time>2026-04-12T13:20:51Z</time></trkpt><trkpt lat="44.85621850402712" lon="-1.1387411197405433"><ele>23.0</ele><time>2026-04-12T13:20:52Z</time></trkpt><trkpt lat="44.85632754781535" lon="-1.1389091660992439"><ele>23.0</ele><time>2026-04-12T13:20:53Z</time></trkpt><trkpt lat="44.856446811455264" lon="-1.1390724075522354"><ele>23.0</ele><time>2026-04-12T13:20:54Z</time></trkpt><trkpt lat="44.856558329087214" lon="-1.1392216973124683"><ele>23.0</ele><time>2026-04-12T13:20:55Z</time></trkpt><trkpt lat="44.85668952055861" lon="-1.1394038437154816"><ele>22.666666666666668</ele><time>2026-04-12T13:20:56Z</time></trkpt><trkpt lat="44.85680442871802" lon="-1.1395553703150667"><ele>22.333333333333332</ele><time>2026-04-12T13:20:57Z</time></trkpt><trkpt lat="44.85693863127876" lon="-1.1397172396626818"><ele>22.0</ele><time>2026-04-12T13:20:58Z</time></trkpt><trkpt lat="44.85707749724297" lon="-1.139865165321411"><ele>22.0</ele><time>2026-04-12T13:20:59Z</time></trkpt><trkpt lat="44.857212715109924" lon="-1.1399902101681616"><ele>22.0</ele><time>2026-04-12T13:21:00Z</time></trkpt><trkpt lat="44.857342390291514" lon="-1.1401274495622538"><ele>22.0</ele><time>2026-04-12T13:21:01Z</time></trkpt><trkpt lat="44.85746184672317" lon="-1.1402523864557896"><ele>22.0</ele><time>2026-04-12T13:21:02Z</time></trkpt><trkpt lat="44.857568105540594" lon="-1.1403559571579656"><ele>22.0</ele><time>2026-04-12T13:21:03Z</time></trkpt><trkpt lat="44.85764345768858" lon="-1.140417274649355"><ele>22.0</ele><time>2026-04-12T13:21:04Z</time></trkpt><trkpt lat="44.85772377344075" lon="-1.140432634666215"><ele>22.0</ele><time>2026-04-12T13:21:05Z</time></trkpt><trkpt lat="44.85782658983738" lon="-1.1403986000548711"><ele>22.0</ele><time>2026-04-12T13:21:06Z</time></trkpt><trkpt lat="44.85795252005786" lon="-1.1403407289304397"><ele>21.25</ele><time>2026-04-12T13:21:07Z</time></trkpt><trkpt lat="44.85806001397773" lon="-1.1403340870832985"><ele>20.5</ele><time>2026-04-12T13:21:08Z</time></trkpt><trkpt lat="44.85818242339359" lon="-1.1404082401179527"><ele>19.75</ele><time>2026-04-12T13:21:09Z</time></trkpt><trkpt lat="44.85831785268749" lon="-1.1405167545641939"><ele>19.0</ele><time>2026-04-12T13:21:09.999Z</time></trkpt><trkpt lat="44.85846760060047" lon="-1.1406577518585261"><ele>18.75</ele><time>2026-04-12T13:21:10.999Z</time></trkpt><trkpt lat="44.85860461676939" lon="-1.140815894374194"><ele>18.5</ele><time>2026-04-12T13:21:11.999Z</time></trkpt><trkpt lat="44.85870846643906" lon="-1.1409279649272195"><ele>18.25</ele><time>2026-04-12T13:21:12.999Z</time></trkpt><trkpt lat="44.858828935327374" lon="-1.1410176392052807"><ele>18.0</ele><time>2026-04-12T13:21:13.999Z</time></trkpt><trkpt lat="44.85894070804796" lon="-1.141076475646659"><ele>18.0</ele><time>2026-04-12T13:21:14.999Z</time></trkpt><trkpt lat="44.859038784550904" lon="-1.1411426267325917"><ele>18.0</ele><time>2026-04-12T13:21:15.999Z</time></trkpt><trkpt lat="44.85912675005595" lon="-1.1412603796076388"><ele>18.0</ele><time>2026-04-12T13:21:16.999Z</time></trkpt><trkpt lat="44.859188544164105" lon="-1.1413839304229352"><ele>18.0</ele><time>2026-04-12T13:21:17.999Z</time></trkpt><trkpt lat="44.859219434127404" lon="-1.141500559696609"><ele>18.0</ele><time>2026-04-12T13:21:18.999Z</time></trkpt><trkpt lat="44.85922507031036" lon="-1.1416352112597805"><ele>18.6</ele><time>2026-04-12T13:21:19.999Z</time></trkpt><trkpt lat="44.859190921253756" lon="-1.1417868894349572"><ele>19.200000000000003</ele><time>2026-04-12T13:21:20.999Z</time></trkpt><trkpt lat="44.85913376614645" lon="-1.1419447310054527"><ele>19.8</ele><time>2026-04-12T13:21:21.999Z</time></trkpt><trkpt lat="44.85912173465047" lon="-1.1420829005476951"><ele>20.400000000000002</ele><time>2026-04-12T13:21:22.999Z</time></trkpt><trkpt lat="44.85915439980846" lon="-1.1421750642701856"><ele>21.0</ele><time>2026-04-12T13:21:23.999Z</time></trkpt><trkpt lat="44.859239151837464" lon="-1.1422703343217437"><ele>21.0</ele><time>2026-04-12T13:21:24.999Z</time></trkpt><trkpt lat="44.85927090720348" lon="-1.1424355851391281"><ele>21.0</ele><time>2026-04-12T13:21:25.999Z</time></trkpt><trkpt lat="44.859303070689684" lon="-1.1426157506121652"><ele>21.0</ele><time>2026-04-12T13:21:26.999Z</time></trkpt><trkpt lat="44.859356368682924" lon="-1.1426964180399062"><ele>21.0</ele><time>2026-04-12T13:21:27.999Z</time></trkpt><trkpt lat="44.85943922365911" lon="-1.1427620091831312"><ele>21.0</ele><time>2026-04-12T13:21:28.999Z</time></trkpt><trkpt lat="44.859500304646204" lon="-1.1428874817153718"><ele>20.166666666666668</ele><time>2026-04-12T13:21:30.999Z</time></trkpt><trkpt lat="44.85947453364492" lon="-1.1429873153360555"><ele>19.333333333333332</ele><time>2026-04-12T13:21:31.999Z</time></trkpt><trkpt lat="44.859410269108494" lon="-1.143082592249956"><ele>18.5</ele><time>2026-04-12T13:21:32.999Z</time></trkpt><trkpt lat="44.85933168685309" lon="-1.1431802262506274"><ele>17.666666666666664</ele><time>2026-04-12T13:21:33.999Z</time></trkpt><trkpt lat="44.85928615974828" lon="-1.1432780294098421"><ele>16.833333333333332</ele><time>2026-04-12T13:21:34.999Z</time></trkpt><trkpt lat="44.85928404826598" lon="-1.143400606633546"><ele>16.0</ele><time>2026-04-12T13:21:35.999Z</time></trkpt><trkpt lat="44.85932499569016" lon="-1.143530072635269"><ele>16.0</ele><time>2026-04-12T13:21:36.999Z</time></trkpt><trkpt lat="44.85939596695507" lon="-1.1436739199031352"><ele>16.0</ele><time>2026-04-12T13:21:37.999Z</time></trkpt><trkpt lat="44.85943998542163" lon="-1.1437749782691866"><ele>16.0</ele><time>2026-04-12T13:21:38.999Z</time></trkpt><trkpt lat="44.85944261476183" lon="-1.143869124607404"><ele>16.0</ele><time>2026-04-12T13:21:39.999Z</time></trkpt><trkpt lat="44.85944183951505" lon="-1.1439649844154116"><ele>16.0</ele><time>2026-04-12T13:21:40.999Z</time></trkpt><trkpt lat="44.85937081936637" lon="-1.1441492681492416"><ele>16.6</ele><time>2026-04-12T13:21:41.999Z</time></trkpt><trkpt lat="44.859293070394365" lon="-1.1442889214054957"><ele>17.200000000000003</ele><time>2026-04-12T13:21:42.999Z</time></trkpt><trkpt lat="44.859222548711855" lon="-1.1444308989017966"><ele>17.799999999999997</ele><time>2026-04-12T13:21:43.999Z</time></trkpt><trkpt lat="44.85916693971538" lon="-1.1445607194017045"><ele>18.4</ele><time>2026-04-12T13:21:44.999Z</time></trkpt><trkpt lat="44.85913957842379" lon="-1.1446684074751423"><ele>19.0</ele><time>2026-04-12T13:21:45.999Z</time></trkpt><trkpt lat="44.8591341986571" lon="-1.1448083577536998"><ele>19.0</ele><time>2026-04-12T13:21:46.999Z</time></trkpt><trkpt lat="44.85915669668541" lon="-1.1449740365691727"><ele>19.0</ele><time>2026-04-12T13:21:47.999Z</time></trkpt><trkpt lat="44.85919816077626" lon="-1.1451354162094574"><ele>19.0</ele><time>2026-04-12T13:21:48.999Z</time></trkpt><trkpt lat="44.85927916710683" lon="-1.1453046303491625"><ele>19.0</ele><time>2026-04-12T13:21:49.999Z</time></trkpt><trkpt lat="44.85937095387629" lon="-1.1454969003137965"><ele>19.0</ele><time>2026-04-12T13:21:50.999Z</time></trkpt><trkpt lat="44.85946007919559" lon="-1.1456572090714763"><ele>19.0</ele><time>2026-04-12T13:21:51.999Z</time></trkpt><trkpt lat="44.859528225233895" lon="-1.14579387240604"><ele>19.0</ele><time>2026-04-12T13:21:52.999Z</time></trkpt><trkpt lat="44.85957635493393" lon="-1.145931402101849"><ele>19.0</ele><time>2026-04-12T13:21:53.999Z</time></trkpt><trkpt lat="44.859604338858745" lon="-1.146102692802939"><ele>19.0</ele><time>2026-04-12T13:21:54.999Z</time></trkpt><trkpt lat="44.859609666059335" lon="-1.146284596725341"><ele>19.0</ele><time>2026-04-12T13:21:55.999Z</time></trkpt><trkpt lat="44.85961271127474" lon="-1.1464962957322034"><ele>19.0</ele><time>2026-04-12T13:21:56.998Z</time></trkpt><trkpt lat="44.859627541525896" lon="-1.1467226356879836"><ele>19.0</ele><time>2026-04-12T13:21:57.998Z</time></trkpt><trkpt lat="44.859644869109566" lon="-1.146955427559265"><ele>18.666666666666664</ele><time>2026-04-12T13:21:58.998Z</time></trkpt><trkpt lat="44.85966335108932" lon="-1.1472080031944798"><ele>18.333333333333332</ele><time>2026-04-12T13:21:59.998Z</time></trkpt><trkpt lat="44.85967810535505" lon="-1.1474666784761398"><ele>18.0</ele><time>2026-04-12T13:22:00.998Z</time></trkpt><trkpt lat="44.85969150062998" lon="-1.1476773015731176"><ele>17.0</ele><time>2026-04-12T13:22:01.998Z</time></trkpt><trkpt lat="44.85970642003694" lon="-1.147908881862602"><ele>16.0</ele><time>2026-04-12T13:22:02.998Z</time></trkpt><trkpt lat="44.859723549716875" lon="-1.1481501009908535"><ele>15.0</ele><time>2026-04-12T13:22:03.998Z</time></trkpt><trkpt lat="44.85973902407869" lon="-1.148414536354835"><ele>15.0</ele><time>2026-04-12T13:22:04.998Z</time></trkpt><trkpt lat="44.85976627853649" lon="-1.1487395663071696"><ele>15.0</ele><time>2026-04-12T13:22:05.998Z</time></trkpt><trkpt lat="44.85978178838212" lon="-1.1490058500230964"><ele>15.0</ele><time>2026-04-12T13:22:06.998Z</time></trkpt><trkpt lat="44.85979213996992" lon="-1.1492150357525575"><ele>15.0</ele><time>2026-04-12T13:22:07.998Z</time></trkpt><trkpt lat="44.85980812832863" lon="-1.1493961774344188"><ele>15.0</ele><time>2026-04-12T13:22:08.998Z</time></trkpt><trkpt lat="44.85982557245441" lon="-1.1495506816545444"><ele>15.0</ele><time>2026-04-12T13:22:09.998Z</time></trkpt><trkpt lat="44.859818007809" lon="-1.1496434379363503"><ele>15.0</ele><time>2026-04-12T13:22:10.998Z</time></trkpt><trkpt lat="44.859835197969595" lon="-1.1497741767115228"><ele>15.0</ele><time>2026-04-12T13:22:11.998Z</time></trkpt><trkpt lat="44.85985280980249" lon="-1.1498901795449679"><ele>14.8</ele><time>2026-04-12T13:22:12.998Z</time></trkpt><trkpt lat="44.85986652375746" lon="-1.1499793064152959"><ele>14.6</ele><time>2026-04-12T13:22:13.998Z</time></trkpt><trkpt lat="44.859910911351015" lon="-1.150044825967197"><ele>14.399999999999999</ele><time>2026-04-12T13:22:53Z</time></trkpt><trkpt lat="44.86005001543916" lon="-1.1499827117484493"><ele>14.2</ele><time>2026-04-12T13:22:55Z</time></trkpt><trkpt lat="44.86013092679993" lon="-1.149876070350666"><ele>14.0</ele><time>2026-04-12T13:22:56Z</time></trkpt><trkpt lat="44.86022249626063" lon="-1.1497944152491997"><ele>13.75</ele><time>2026-04-12T13:22:57Z</time></trkpt><trkpt lat="44.860321021835986" lon="-1.1496783069692118"><ele>13.5</ele><time>2026-04-12T13:22:58Z</time></trkpt><trkpt lat="44.860435347819795" lon="-1.1495522073925946"><ele>13.25</ele><time>2026-04-12T13:22:59Z</time></trkpt><trkpt lat="44.86055857974763" lon="-1.1494180958854727"><ele>13.0</ele><time>2026-04-12T13:23:00Z</time></trkpt><trkpt lat="44.860686400777816" lon="-1.1492738736005506"><ele>13.0</ele><time>2026-04-12T13:23:01Z</time></trkpt><trkpt lat="44.86081430580336" lon="-1.1491392071241142"><ele>13.0</ele><time>2026-04-12T13:23:02Z</time></trkpt><trkpt lat="44.860909833585886" lon="-1.1490663620325545"><ele>13.0</ele><time>2026-04-12T13:23:03Z</time></trkpt><trkpt lat="44.8610146054156" lon="-1.1489888868686824"><ele>13.0</ele><time>2026-04-12T13:23:04Z</time></trkpt><trkpt lat="44.861117736653775" lon="-1.1488736056556217"><ele>13.333333333333332</ele><time>2026-04-12T13:23:05Z</time></trkpt><trkpt lat="44.86123933559406" lon="-1.1487308717364222"><ele>13.666666666666668</ele><time>2026-04-12T13:23:06Z</time></trkpt><trkpt lat="44.86137605179887" lon="-1.1485912194581178"><ele>14.0</ele><time>2026-04-12T13:23:07Z</time></trkpt><trkpt lat="44.86150978833499" lon="-1.1484533427091312"><ele>14.0</ele><time>2026-04-12T13:23:08Z</time></trkpt><trkpt lat="44.86165006083258" lon="-1.1483144768226583"><ele>14.0</ele><time>2026-04-12T13:23:09Z</time></trkpt><trkpt lat="44.86177918073698" lon="-1.1481767497608282"><ele>14.0</ele><time>2026-04-12T13:23:09.999Z</time></trkpt><trkpt lat="44.86191972638506" lon="-1.1480272812893078"><ele>13.666666666666668</ele><time>2026-04-12T13:23:10.999Z</time></trkpt><trkpt lat="44.86207018555013" lon="-1.1478700004367552"><ele>13.333333333333332</ele><time>2026-04-12T13:23:11.999Z</time></trkpt><trkpt lat="44.86219969147013" lon="-1.1477363450618878"><ele>13.0</ele><time>2026-04-12T13:23:12.999Z</time></trkpt><trkpt lat="44.86231026477859" lon="-1.1476171812485905"><ele>13.0</ele><time>2026-04-12T13:23:13.999Z</time></trkpt><trkpt lat="44.862423378433235" lon="-1.1475123719206966"><ele>13.0</ele><time>2026-04-12T13:23:14.999Z</time></trkpt><trkpt lat="44.86255390802264" lon="-1.1473894077296187"><ele>13.0</ele><time>2026-04-12T13:23:15.999Z</time></trkpt><trkpt lat="44.86269652410344" lon="-1.1472384856058544"><ele>13.666666666666666</ele><time>2026-04-12T13:23:16.999Z</time></trkpt><trkpt lat="44.86284455017655" lon="-1.14707741877853"><ele>14.333333333333332</ele><time>2026-04-12T13:23:17.999Z</time></trkpt><trkpt lat="44.86300401244276" lon="-1.1468928616135854"><ele>15.0</ele><time>2026-04-12T13:23:18.999Z</time></trkpt><trkpt lat="44.86313398237858" lon="-1.1467394253890655"><ele>15.0</ele><time>2026-04-12T13:23:19.999Z</time></trkpt><trkpt lat="44.86325217328396" lon="-1.1466100329293678"><ele>15.0</ele><time>2026-04-12T13:23:20.999Z</time></trkpt><trkpt lat="44.86337170525499" lon="-1.1464948218837978"><ele>15.0</ele><time>2026-04-12T13:23:21.999Z</time></trkpt><trkpt lat="44.86352859279028" lon="-1.14636707537247"><ele>15.333333333333332</ele><time>2026-04-12T13:23:22.999Z</time></trkpt><trkpt lat="44.86367371513902" lon="-1.1462693879069754"><ele>15.666666666666666</ele><time>2026-04-12T13:23:23.999Z</time></trkpt><trkpt lat="44.863787002514876" lon="-1.1461324460409046"><ele>16.0</ele><time>2026-04-12T13:23:24.999Z</time></trkpt><trkpt lat="44.86392353015116" lon="-1.1459496817331423"><ele>16.0</ele><time>2026-04-12T13:23:25.999Z</time></trkpt><trkpt lat="44.86407602284684" lon="-1.1457703171483602"><ele>16.0</ele><time>2026-04-12T13:23:26.999Z</time></trkpt><trkpt lat="44.864250931300624" lon="-1.1455557070267461"><ele>16.0</ele><time>2026-04-12T13:23:27.999Z</time></trkpt><trkpt lat="44.86442017113229" lon="-1.145365187292802"><ele>15.666666666666666</ele><time>2026-04-12T13:23:28.999Z</time></trkpt><trkpt lat="44.864562822540094" lon="-1.1452499120438295"><ele>15.333333333333332</ele><time>2026-04-12T13:23:29.999Z</time></trkpt><trkpt lat="44.86470763624883" lon="-1.1451439382759303"><ele>15.0</ele><time>2026-04-12T13:23:30.999Z</time></trkpt><trkpt lat="44.86481864885062" lon="-1.1450215274437914"><ele>15.0</ele><time>2026-04-12T13:23:31.999Z</time></trkpt><trkpt lat="44.864935904956475" lon="-1.1448819988443768"><ele>15.0</ele><time>2026-04-12T13:23:32.999Z</time></trkpt><trkpt lat="44.86503887737301" lon="-1.1447582555674274"><ele>15.0</ele><time>2026-04-12T13:23:33.999Z</time></trkpt><trkpt lat="44.86513716689441" lon="-1.1446755193107268"><ele>15.0</ele><time>2026-04-12T13:23:34.999Z</time></trkpt><trkpt lat="44.86525675772133" lon="-1.144602489487916"><ele>15.25</ele><time>2026-04-12T13:23:35.999Z</time></trkpt><trkpt lat="44.86538044408867" lon="-1.144477771138882"><ele>15.5</ele><time>2026-04-12T13:23:36.999Z</time></trkpt><trkpt lat="44.86548918602376" lon="-1.1443571312848997"><ele>15.75</ele><time>2026-04-12T13:23:37.999Z</time></trkpt><trkpt lat="44.86560365686835" lon="-1.1442113321348695"><ele>16.0</ele><time>2026-04-12T13:23:38.999Z</time></trkpt><trkpt lat="44.865691165391404" lon="-1.144085364870529"><ele>16.0</ele><time>2026-04-12T13:23:39.999Z</time></trkpt><trkpt lat="44.865794684161614" lon="-1.1439580535359357"><ele>16.0</ele><time>2026-04-12T13:23:40.999Z</time></trkpt><trkpt lat="44.8659337315165" lon="-1.1438122565814826"><ele>16.0</ele><time>2026-04-12T13:23:41.999Z</time></trkpt><trkpt lat="44.86606639190787" lon="-1.1436797580236835"><ele>16.0</ele><time>2026-04-12T13:23:42.999Z</time></trkpt><trkpt lat="44.86619214602558" lon="-1.1435640968310012"><ele>16.0</ele><time>2026-04-12T13:23:43.999Z</time></trkpt><trkpt lat="44.86630777596051" lon="-1.1434746436851686"><ele>16.0</ele><time>2026-04-12T13:23:44.999Z</time></trkpt><trkpt lat="44.866422125318806" lon="-1.1434048901581755"><ele>16.0</ele><time>2026-04-12T13:23:45.999Z</time></trkpt><trkpt lat="44.86652082310711" lon="-1.1432941492778086"><ele>15.5</ele><time>2026-04-12T13:23:46.999Z</time></trkpt><trkpt lat="44.866618815913135" lon="-1.1431564266127099"><ele>15.0</ele><time>2026-04-12T13:23:47.999Z</time></trkpt><trkpt lat="44.86674811698222" lon="-1.1430231491549316"><ele>14.5</ele><time>2026-04-12T13:23:48.999Z</time></trkpt><trkpt lat="44.8668695052712" lon="-1.1429261590466768"><ele>14.0</ele><time>2026-04-12T13:23:49.999Z</time></trkpt><trkpt lat="44.86697952532932" lon="-1.1428337055332065"><ele>14.0</ele><time>2026-04-12T13:23:50.999Z</time></trkpt><trkpt lat="44.86707861928056" lon="-1.1427323737168307"><ele>14.0</ele><time>2026-04-12T13:23:51.999Z</time></trkpt><trkpt lat="44.867162245249695" lon="-1.1426085682063658"><ele>14.0</ele><time>2026-04-12T13:23:52.999Z</time></trkpt><trkpt lat="44.8672636472609" lon="-1.1424930937470992"><ele>14.0</ele><time>2026-04-12T13:23:53.999Z</time></trkpt><trkpt lat="44.8673874458544" lon="-1.1423548915776025"><ele>14.0</ele><time>2026-04-12T13:23:54.999Z</time></trkpt><trkpt lat="44.86750902331439" lon="-1.142206602004701"><ele>14.0</ele><time>2026-04-12T13:23:55.999Z</time></trkpt><trkpt lat="44.86762935061683" lon="-1.1420893564998644"><ele>14.0</ele><time>2026-04-12T13:23:56.998Z</time></trkpt><trkpt lat="44.86776107631301" lon="-1.141989788962398"><ele>14.0</ele><time>2026-04-12T13:23:57.998Z</time></trkpt><trkpt lat="44.867886148782596" lon="-1.1419003636262688"><ele>14.0</ele><time>2026-04-12T13:23:58.998Z</time></trkpt><trkpt lat="44.868005118406465" lon="-1.1417952331424688"><ele>14.0</ele><time>2026-04-12T13:23:59.998Z</time></trkpt><trkpt lat="44.86811899857496" lon="-1.1416878894169291"><ele>14.0</ele><time>2026-04-12T13:24:00.998Z</time></trkpt><trkpt lat="44.868226488023" lon="-1.1415653570487705"><ele>14.0</ele><time>2026-04-12T13:24:01.998Z</time></trkpt><trkpt lat="44.86834375778653" lon="-1.1414368117067135"><ele>14.0</ele><time>2026-04-12T13:24:02.998Z</time></trkpt><trkpt lat="44.86845383194123" lon="-1.1413266101241615"><ele>14.0</ele><time>2026-04-12T13:24:03.998Z</time></trkpt><trkpt lat="44.86856003119022" lon="-1.1412013413631379"><ele>14.0</ele><time>2026-04-12T13:24:04.998Z</time></trkpt><trkpt lat="44.868668670107574" lon="-1.1410747041453315"><ele>14.0</ele><time>2026-04-12T13:24:05.998Z</time></trkpt><trkpt lat="44.86879705340278" lon="-1.1409689348907548"><ele>14.0</ele><time>2026-04-12T13:24:06.998Z</time></trkpt><trkpt lat="44.86891835753542" lon="-1.1408424572398372"><ele>14.0</ele><time>2026-04-12T13:24:07.998Z</time></trkpt><trkpt lat="44.86903203077396" lon="-1.140717331140755"><ele>14.0</ele><time>2026-04-12T13:24:08.998Z</time></trkpt><trkpt lat="44.86914743921853" lon="-1.140588382593969"><ele>14.25</ele><time>2026-04-12T13:24:09.998Z</time></trkpt><trkpt lat="44.869222270416046" lon="-1.1404763872817638"><ele>14.5</ele><time>2026-04-12T13:24:10.998Z</time></trkpt><trkpt lat="44.86929862511406" lon="-1.140361970019323"><ele>14.75</ele><time>2026-04-12T13:24:11.998Z</time></trkpt><trkpt lat="44.869511482211074" lon="-1.1402691535627258"><ele>15.0</ele><time>2026-04-12T13:24:12.998Z</time></trkpt><trkpt lat="44.869654347453086" lon="-1.1401541502909909"><ele>15.0</ele><time>2026-04-12T13:24:13.998Z</time></trkpt><trkpt lat="44.869770408897544" lon="-1.140031053535651"><ele>15.0</ele><time>2026-04-12T13:24:14.998Z</time></trkpt><trkpt lat="44.86987310063763" lon="-1.139908477098091"><ele>15.0</ele><time>2026-04-12T13:24:15.998Z</time></trkpt><trkpt lat="44.86996154817867" lon="-1.1398126786364189"><ele>15.0</ele><time>2026-04-12T13:24:16.998Z</time></trkpt><trkpt lat="44.87004971794041" lon="-1.1397172727534235"><ele>15.0</ele><time>2026-04-12T13:24:17.998Z</time></trkpt><trkpt lat="44.8701370996623" lon="-1.1396479569706488"><ele>15.0</ele><time>2026-04-12T13:24:18.998Z</time></trkpt><trkpt lat="44.87022762440499" lon="-1.1395960855206368"><ele>15.0</ele><time>2026-04-12T13:24:19.998Z</time></trkpt><trkpt lat="44.87032059610896" lon="-1.1395376319848411"><ele>15.0</ele><time>2026-04-12T13:24:20.998Z</time></trkpt><trkpt lat="44.870404375600366" lon="-1.1394658733269272"><ele>15.0</ele><time>2026-04-12T13:24:21.998Z</time></trkpt><trkpt lat="44.87047782817498" lon="-1.1393602504246503"><ele>15.0</ele><time>2026-04-12T13:24:22.998Z</time></trkpt><trkpt lat="44.87052848503593" lon="-1.1392416966604677"><ele>15.0</ele><time>2026-04-12T13:24:23.998Z</time></trkpt><trkpt lat="44.87060401212501" lon="-1.1391219781049535"><ele>15.0</ele><time>2026-04-12T13:24:24.998Z</time></trkpt><trkpt lat="44.87068518377722" lon="-1.139036901762685"><ele>15.0</ele><time>2026-04-12T13:24:25.998Z</time></trkpt><trkpt lat="44.87080347497802" lon="-1.138940597560751"><ele>15.0</ele><time>2026-04-12T13:24:26.998Z</time></trkpt><trkpt lat="44.87092534872893" lon="-1.1388267714455553"><ele>14.75</ele><time>2026-04-12T13:24:27.998Z</time></trkpt><trkpt lat="44.87104346833064" lon="-1.138702874038728"><ele>14.5</ele><time>2026-04-12T13:24:28.998Z</time></trkpt><trkpt lat="44.87115600391498" lon="-1.1386004314258051"><ele>14.25</ele><time>2026-04-12T13:24:29.998Z</time></trkpt><trkpt lat="44.871276777895055" lon="-1.1384869338882944"><ele>14.0</ele><time>2026-04-12T13:24:30.998Z</time></trkpt><trkpt lat="44.87137708237127" lon="-1.1383991320711262"><ele>14.0</ele><time>2026-04-12T13:24:31.998Z</time></trkpt><trkpt lat="44.87148236041663" lon="-1.1382958907955232"><ele>14.0</ele><time>2026-04-12T13:24:32.998Z</time></trkpt><trkpt lat="44.87158982873543" lon="-1.138164733300612"><ele>14.0</ele><time>2026-04-12T13:24:34Z</time></trkpt><trkpt lat="44.871705871860314" lon="-1.1380263035995284"><ele>14.0</ele><time>2026-04-12T13:24:35Z</time></trkpt><trkpt lat="44.87181823535455" lon="-1.1379140831522458"><ele>14.5</ele><time>2026-04-12T13:24:36Z</time></trkpt><trkpt lat="44.87194844656227" lon="-1.1377946324904118"><ele>15.0</ele><time>2026-04-12T13:24:37Z</time></trkpt><trkpt lat="44.87204730080072" lon="-1.137701660002483"><ele>15.5</ele><time>2026-04-12T13:24:38Z</time></trkpt><trkpt lat="44.87218269096516" lon="-1.1375812355701815"><ele>16.0</ele><time>2026-04-12T13:24:39Z</time></trkpt><trkpt lat="44.872309573367296" lon="-1.1374603427884336"><ele>16.0</ele><time>2026-04-12T13:24:40Z</time></trkpt><trkpt lat="44.872420330625594" lon="-1.1373545622152659"><ele>16.0</ele><time>2026-04-12T13:24:41Z</time></trkpt><trkpt lat="44.8725304025913" lon="-1.1372467302391365"><ele>16.0</ele><time>2026-04-12T13:24:42Z</time></trkpt><trkpt lat="44.87263993271656" lon="-1.1371514234017444"><ele>16.0</ele><time>2026-04-12T13:24:43Z</time></trkpt><trkpt lat="44.87273542088032" lon="-1.1370474152192762"><ele>16.0</ele><time>2026-04-12T13:24:44Z</time></trkpt><trkpt lat="44.87283059367632" lon="-1.1369260094755016"><ele>16.0</ele><time>2026-04-12T13:24:45Z</time></trkpt><trkpt lat="44.87292633317924" lon="-1.136803001752227"><ele>16.0</ele><time>2026-04-12T13:24:46Z</time></trkpt><trkpt lat="44.873010242861696" lon="-1.1366774545350933"><ele>16.0</ele><time>2026-04-12T13:24:47Z</time></trkpt><trkpt lat="44.87309253142857" lon="-1.1365767654218215"><ele>16.333333333333332</ele><time>2026-04-12T13:24:48Z</time></trkpt><trkpt lat="44.87317981370371" lon="-1.1364981716950586"><ele>16.666666666666664</ele><time>2026-04-12T13:24:49Z</time></trkpt><trkpt lat="44.87326556682697" lon="-1.1364207365175072"><ele>17.0</ele><time>2026-04-12T13:24:50Z</time></trkpt><trkpt lat="44.87332176293277" lon="-1.136376665188125"><ele>17.333333333333332</ele><time>2026-04-12T13:24:51Z</time></trkpt><trkpt lat="44.87338638102339" lon="-1.1363383902336068"><ele>17.666666666666668</ele><time>2026-04-12T13:24:52Z</time></trkpt><trkpt lat="44.87343928556704" lon="-1.1362444104251372"><ele>18.0</ele><time>2026-04-12T13:24:54Z</time></trkpt><trkpt lat="44.87346506110952" lon="-1.136128197661962"><ele>17.166666666666668</ele><time>2026-04-12T13:24:57Z</time></trkpt><trkpt lat="44.873519395903216" lon="-1.1360759379497503"><ele>16.333333333333332</ele><time>2026-04-12T13:25:01Z</time></trkpt><trkpt lat="44.873582754458575" lon="-1.1360445120430243"><ele>15.5</ele><time>2026-04-12T13:25:10.999Z</time></trkpt><trkpt lat="44.87366893304739" lon="-1.1360227841144541"><ele>14.666666666666666</ele><time>2026-04-12T13:25:11.999Z</time></trkpt><trkpt lat="44.87376576402884" lon="-1.1360186447341392"><ele>13.833333333333332</ele><time>2026-04-12T13:25:12.999Z</time></trkpt><trkpt lat="44.873849609979025" lon="-1.1359972834313126"><ele>13.0</ele><time>2026-04-12T13:25:13.999Z</time></trkpt><trkpt lat="44.87396217336869" lon="-1.1359277263865504"><ele>12.999999999999998</ele><time>2026-04-12T13:25:14.999Z</time></trkpt><trkpt lat="44.874069229025366" lon="-1.135830049084867"><ele>13.0</ele><time>2026-04-12T13:25:15.999Z</time></trkpt><trkpt lat="44.874134258287" lon="-1.1357518687758872"><ele>13.0</ele><time>2026-04-12T13:25:16.999Z</time></trkpt><trkpt lat="44.87420312217723" lon="-1.1356837507929156"><ele>13.0</ele><time>2026-04-12T13:25:17.999Z</time></trkpt><trkpt lat="44.874265089358026" lon="-1.1356363038191712"><ele>12.999999999999998</ele><time>2026-04-12T13:25:18.999Z</time></trkpt><trkpt lat="44.87431563878684" lon="-1.1355818029346834"><ele>13.0</ele><time>2026-04-12T13:25:19.999Z</time></trkpt><trkpt lat="44.87439566207337" lon="-1.1355140643927377"><ele>13.4</ele><time>2026-04-12T13:25:21.999Z</time></trkpt><trkpt lat="44.874475986315126" lon="-1.1354413776892254"><ele>13.8</ele><time>2026-04-12T13:25:23.999Z</time></trkpt><trkpt lat="44.87455016283059" lon="-1.1353738619161475"><ele>14.2</ele><time>2026-04-12T13:25:24.999Z</time></trkpt><trkpt lat="44.874622855745024" lon="-1.135315142904956"><ele>14.6</ele><time>2026-04-12T13:25:25.999Z</time></trkpt><trkpt lat="44.87473413276044" lon="-1.1352564524414253"><ele>15.0</ele><time>2026-04-12T13:25:26.999Z</time></trkpt><trkpt lat="44.87489261529856" lon="-1.135182601654471"><ele>15.0</ele><time>2026-04-12T13:25:27.999Z</time></trkpt><trkpt lat="44.87502428695525" lon="-1.1351069641528133"><ele>15.0</ele><time>2026-04-12T13:25:28.999Z</time></trkpt><trkpt lat="44.87514013354213" lon="-1.1350339197930666"><ele>15.0</ele><time>2026-04-12T13:25:29.999Z</time></trkpt><trkpt lat="44.875238315989705" lon="-1.1349773484737409"><ele>15.0</ele><time>2026-04-12T13:25:30.999Z</time></trkpt><trkpt lat="44.87532980949497" lon="-1.1349350451395213"><ele>15.0</ele><time>2026-04-12T13:25:31.999Z</time></trkpt><trkpt lat="44.87543628054288" lon="-1.1349492553836231"><ele>15.0</ele><time>2026-04-12T13:25:32.999Z</time></trkpt><trkpt lat="44.87555323208081" lon="-1.135001574913942"><ele>15.0</ele><time>2026-04-12T13:25:33.999Z</time></trkpt><trkpt lat="44.87572454004873" lon="-1.1350318374047543"><ele>15.0</ele><time>2026-04-12T13:25:34.999Z</time></trkpt><trkpt lat="44.87589142432233" lon="-1.1350304471987918"><ele>15.0</ele><time>2026-04-12T13:25:35.999Z</time></trkpt><trkpt lat="44.876079082689884" lon="-1.1350464177290378"><ele>15.0</ele><time>2026-04-12T13:25:36.999Z</time></trkpt><trkpt lat="44.87629143086805" lon="-1.1350680995039542"><ele>15.0</ele><time>2026-04-12T13:25:37.999Z</time></trkpt><trkpt lat="44.87650670915254" lon="-1.1350975029856443"><ele>15.0</ele><time>2026-04-12T13:25:38.999Z</time></trkpt><trkpt lat="44.87674123334044" lon="-1.135136383003051"><ele>15.0</ele><time>2026-04-12T13:25:39.999Z</time></trkpt><trkpt lat="44.87693678048623" lon="-1.135155464059367"><ele>15.0</ele><time>2026-04-12T13:25:40.999Z</time></trkpt><trkpt lat="44.87715236481426" lon="-1.1352155426044408"><ele>15.0</ele><time>2026-04-12T13:25:41.999Z</time></trkpt><trkpt lat="44.87739142924681" lon="-1.1352697095840203"><ele>15.0</ele><time>2026-04-12T13:25:42.999Z</time></trkpt><trkpt lat="44.87759821319869" lon="-1.1352854092913096"><ele>15.0</ele><time>2026-04-12T13:25:43.999Z</time></trkpt><trkpt lat="44.877769422688765" lon="-1.1353271293739742"><ele>15.333333333333332</ele><time>2026-04-12T13:25:44.999Z</time></trkpt><trkpt lat="44.87800107537158" lon="-1.1353727753432628"><ele>15.666666666666666</ele><time>2026-04-12T13:25:45.999Z</time></trkpt><trkpt lat="44.87813628129928" lon="-1.1354095380566671"><ele>16.0</ele><time>2026-04-12T13:25:46.999Z</time></trkpt><trkpt lat="44.87827864026083" lon="-1.1354399201252963"><ele>16.0</ele><time>2026-04-12T13:25:47.999Z</time></trkpt><trkpt lat="44.87840805568318" lon="-1.1354845719793323"><ele>16.0</ele><time>2026-04-12T13:25:48.999Z</time></trkpt><trkpt lat="44.87864445028936" lon="-1.1355058288664057"><ele>16.0</ele><time>2026-04-12T13:25:49.999Z</time></trkpt><trkpt lat="44.87883246953505" lon="-1.1355530132332814"><ele>16.0</ele><time>2026-04-12T13:25:50.999Z</time></trkpt><trkpt lat="44.87899796593699" lon="-1.1355751391426212"><ele>16.0</ele><time>2026-04-12T13:25:51.999Z</time></trkpt><trkpt lat="44.87917206681093" lon="-1.135593195649265"><ele>16.0</ele><time>2026-04-12T13:25:52.999Z</time></trkpt><trkpt lat="44.87936378721941" lon="-1.1355982894916106"><ele>16.333333333333332</ele><time>2026-04-12T13:25:53.999Z</time></trkpt><trkpt lat="44.879531553553534" lon="-1.1356299040508877"><ele>16.666666666666668</ele><time>2026-04-12T13:25:54.999Z</time></trkpt><trkpt lat="44.87965743839215" lon="-1.1356780734481813"><ele>17.0</ele><time>2026-04-12T13:25:55.999Z</time></trkpt><trkpt lat="44.879818538529186" lon="-1.1357059308237305"><ele>16.0</ele><time>2026-04-12T13:25:56.999Z</time></trkpt><trkpt lat="44.879992145387426" lon="-1.1357222756035104"><ele>15.0</ele><time>2026-04-12T13:25:57.998Z</time></trkpt><trkpt lat="44.880173587810205" lon="-1.135768816808596"><ele>14.0</ele><time>2026-04-12T13:25:58.998Z</time></trkpt><trkpt lat="44.88034655264995" lon="-1.1358104662014905"><ele>14.0</ele><time>2026-04-12T13:25:59.998Z</time></trkpt><trkpt lat="44.88054306261383" lon="-1.1358564737725536"><ele>14.0</ele><time>2026-04-12T13:26:00.998Z</time></trkpt><trkpt lat="44.88074687287475" lon="-1.135900175076934"><ele>14.0</ele><time>2026-04-12T13:26:01.998Z</time></trkpt><trkpt lat="44.880925943188615" lon="-1.1359364263381757"><ele>14.333333333333334</ele><time>2026-04-12T13:26:02.998Z</time></trkpt><trkpt lat="44.88108911588358" lon="-1.1359758140188108"><ele>14.666666666666668</ele><time>2026-04-12T13:26:03.998Z</time></trkpt><trkpt lat="44.88123568046497" lon="-1.1360109400796992"><ele>15.0</ele><time>2026-04-12T13:26:04.998Z</time></trkpt><trkpt lat="44.88136784483787" lon="-1.1360691044463553"><ele>15.0</ele><time>2026-04-12T13:26:05.998Z</time></trkpt><trkpt lat="44.88155633829496" lon="-1.136101864743009"><ele>15.0</ele><time>2026-04-12T13:26:06.998Z</time></trkpt><trkpt lat="44.88167653309252" lon="-1.1361290809650744"><ele>15.0</ele><time>2026-04-12T13:26:07.998Z</time></trkpt><trkpt lat="44.881780073016486" lon="-1.1361467831914847"><ele>15.0</ele><time>2026-04-12T13:26:08.998Z</time></trkpt><trkpt lat="44.881890138526835" lon="-1.1361835304681045"><ele>14.75</ele><time>2026-04-12T13:26:09.998Z</time></trkpt><trkpt lat="44.88201458686546" lon="-1.136241297744004"><ele>14.5</ele><time>2026-04-12T13:26:10.998Z</time></trkpt><trkpt lat="44.882155268977684" lon="-1.1363021684309227"><ele>14.25</ele><time>2026-04-12T13:26:11.998Z</time></trkpt><trkpt lat="44.88231851152638" lon="-1.1363538679205725"><ele>14.0</ele><time>2026-04-12T13:26:12.998Z</time></trkpt><trkpt lat="44.88247486413452" lon="-1.1363912836921048"><ele>14.5</ele><time>2026-04-12T13:26:13.998Z</time></trkpt><trkpt lat="44.88261194055677" lon="-1.1364145811553579"><ele>15.0</ele><time>2026-04-12T13:26:14.998Z</time></trkpt><trkpt lat="44.88275484512126" lon="-1.1364215612394701"><ele>15.5</ele><time>2026-04-12T13:26:15.998Z</time></trkpt><trkpt lat="44.88287251506126" lon="-1.1364195559871264"><ele>16.0</ele><time>2026-04-12T13:26:16.998Z</time></trkpt><trkpt lat="44.88299423022151" lon="-1.1364164537184613"><ele>16.0</ele><time>2026-04-12T13:26:17.998Z</time></trkpt><trkpt lat="44.88315487291023" lon="-1.1364096986214227"><ele>16.0</ele><time>2026-04-12T13:26:18.998Z</time></trkpt><trkpt lat="44.883309875532724" lon="-1.136436699273585"><ele>16.0</ele><time>2026-04-12T13:26:19.998Z</time></trkpt><trkpt lat="44.88347027532081" lon="-1.1364797931566026"><ele>16.333333333333332</ele><time>2026-04-12T13:26:20.998Z</time></trkpt><trkpt lat="44.88366576911223" lon="-1.1365104154163335"><ele>16.666666666666668</ele><time>2026-04-12T13:26:21.998Z</time></trkpt><trkpt lat="44.88385620499508" lon="-1.1365513549496598"><ele>17.0</ele><time>2026-04-12T13:26:22.998Z</time></trkpt><trkpt lat="44.88402646583625" lon="-1.1365787114420758"><ele>16.666666666666668</ele><time>2026-04-12T13:26:23.998Z</time></trkpt><trkpt lat="44.8842080694021" lon="-1.1366155879188282"><ele>16.333333333333332</ele><time>2026-04-12T13:26:24.998Z</time></trkpt><trkpt lat="44.88437845181308" lon="-1.1366491639995469"><ele>16.0</ele><time>2026-04-12T13:26:25.998Z</time></trkpt><trkpt lat="44.88452793838526" lon="-1.1366719570234347"><ele>16.0</ele><time>2026-04-12T13:26:26.998Z</time></trkpt><trkpt lat="44.884658345908555" lon="-1.1366989994547776"><ele>16.0</ele><time>2026-04-12T13:26:27.998Z</time></trkpt><trkpt lat="44.884777588137325" lon="-1.136719106531947"><ele>16.0</ele><time>2026-04-12T13:26:28.998Z</time></trkpt><trkpt lat="44.88495884218668" lon="-1.136770974485234"><ele>16.0</ele><time>2026-04-12T13:26:29.998Z</time></trkpt><trkpt lat="44.88509741197376" lon="-1.1367988842417869"><ele>16.333333333333332</ele><time>2026-04-12T13:26:30.998Z</time></trkpt><trkpt lat="44.88526633735248" lon="-1.1368004295678689"><ele>16.666666666666668</ele><time>2026-04-12T13:26:31.998Z</time></trkpt><trkpt lat="44.88542468981093" lon="-1.136795313660731"><ele>17.0</ele><time>2026-04-12T13:26:32.998Z</time></trkpt><trkpt lat="44.885564648979795" lon="-1.1367767131693223"><ele>17.0</ele><time>2026-04-12T13:26:33.998Z</time></trkpt><trkpt lat="44.88572183131166" lon="-1.1367397129714796"><ele>17.0</ele><time>2026-04-12T13:26:34.998Z</time></trkpt><trkpt lat="44.88587915344497" lon="-1.1366928057103736"><ele>17.0</ele><time>2026-04-12T13:26:35.998Z</time></trkpt><trkpt lat="44.88604804215831" lon="-1.1366398745230577"><ele>16.75</ele><time>2026-04-12T13:26:36.998Z</time></trkpt><trkpt lat="44.88618080663757" lon="-1.1365950639573106"><ele>16.5</ele><time>2026-04-12T13:26:37.998Z</time></trkpt><trkpt lat="44.88630840115831" lon="-1.1365220254384374"><ele>16.25</ele><time>2026-04-12T13:26:39Z</time></trkpt><trkpt lat="44.88646345793868" lon="-1.1364181891549512"><ele>16.0</ele><time>2026-04-12T13:26:40Z</time></trkpt><trkpt lat="44.886641316405914" lon="-1.1363070115236422"><ele>16.0</ele><time>2026-04-12T13:26:41Z</time></trkpt><trkpt lat="44.886830256802384" lon="-1.1362007305048472"><ele>16.0</ele><time>2026-04-12T13:26:42Z</time></trkpt><trkpt lat="44.88698935499156" lon="-1.136104348092966"><ele>16.0</ele><time>2026-04-12T13:26:43Z</time></trkpt><trkpt lat="44.88714997450172" lon="-1.1360206065047647"><ele>16.0</ele><time>2026-04-12T13:26:44Z</time></trkpt><trkpt lat="44.88729903331568" lon="-1.1359511773672595"><ele>16.0</ele><time>2026-04-12T13:26:45Z</time></trkpt><trkpt lat="44.887449289698864" lon="-1.1358771412482527"><ele>16.0</ele><time>2026-04-12T13:26:46Z</time></trkpt><trkpt lat="44.88760153429508" lon="-1.135810289277588"><ele>16.0</ele><time>2026-04-12T13:26:47Z</time></trkpt><trkpt lat="44.887739684389445" lon="-1.1357514176412769"><ele>16.0</ele><time>2026-04-12T13:26:48Z</time></trkpt><trkpt lat="44.887852351557285" lon="-1.1357082337828428"><ele>16.0</ele><time>2026-04-12T13:26:49Z</time></trkpt><trkpt lat="44.88795365875335" lon="-1.13567543654925"><ele>16.0</ele><time>2026-04-12T13:26:50Z</time></trkpt><trkpt lat="44.88803852033162" lon="-1.1356262871126133"><ele>16.0</ele><time>2026-04-12T13:26:51Z</time></trkpt><trkpt lat="44.88811801677806" lon="-1.1355742070267534"><ele>16.0</ele><time>2026-04-12T13:26:52Z</time></trkpt><trkpt lat="44.88818104326609" lon="-1.1355429325423232"><ele>16.0</ele><time>2026-04-12T13:26:53Z</time></trkpt><trkpt lat="44.888281340739354" lon="-1.1354747887870378"><ele>16.0</ele><time>2026-04-12T13:26:55Z</time></trkpt><trkpt lat="44.88833906874718" lon="-1.1354234851084695"><ele>16.0</ele><time>2026-04-12T13:26:57Z</time></trkpt><trkpt lat="44.888448840420914" lon="-1.135370606936801"><ele>16.0</ele><time>2026-04-12T13:27:00Z</time></trkpt><trkpt lat="44.88854804615096" lon="-1.1353200460021644"><ele>16.0</ele><time>2026-04-12T13:27:01Z</time></trkpt><trkpt lat="44.88866339411131" lon="-1.1352616686016999"><ele>16.0</ele><time>2026-04-12T13:27:02Z</time></trkpt><trkpt lat="44.88877826073823" lon="-1.1352042699069547"><ele>16.0</ele><time>2026-04-12T13:27:03Z</time></trkpt><trkpt lat="44.88891201710591" lon="-1.135126625586356"><ele>16.0</ele><time>2026-04-12T13:27:04Z</time></trkpt><trkpt lat="44.88909555004013" lon="-1.1350044567094688"><ele>16.0</ele><time>2026-04-12T13:27:05Z</time></trkpt><trkpt lat="44.889256470926384" lon="-1.1349186026541966"><ele>16.0</ele><time>2026-04-12T13:27:06Z</time></trkpt><trkpt lat="44.88937378987685" lon="-1.1348817893243832"><ele>15.333333333333332</ele><time>2026-04-12T13:27:07Z</time></trkpt><trkpt lat="44.889501113756985" lon="-1.1348188795339331"><ele>14.666666666666668</ele><time>2026-04-12T13:27:08Z</time></trkpt><trkpt lat="44.889645858594406" lon="-1.134738876081414"><ele>14.0</ele><time>2026-04-12T13:27:09Z</time></trkpt><trkpt lat="44.88983553254864" lon="-1.134636541290986"><ele>14.0</ele><time>2026-04-12T13:27:10Z</time></trkpt><trkpt lat="44.88999812330043" lon="-1.1345595695139257"><ele>14.0</ele><time>2026-04-12T13:27:10.999Z</time></trkpt><trkpt lat="44.890161247104515" lon="-1.1344698380237928"><ele>14.0</ele><time>2026-04-12T13:27:11.999Z</time></trkpt><trkpt lat="44.8903164935794" lon="-1.1343912949639297"><ele>14.5</ele><time>2026-04-12T13:27:12.999Z</time></trkpt><trkpt lat="44.89043423098458" lon="-1.1343205055955965"><ele>15.0</ele><time>2026-04-12T13:27:13.999Z</time></trkpt><trkpt lat="44.89056925583676" lon="-1.1342472530316867"><ele>15.5</ele><time>2026-04-12T13:27:14.999Z</time></trkpt><trkpt lat="44.89069069132585" lon="-1.1341787636573304"><ele>16.0</ele><time>2026-04-12T13:27:15.999Z</time></trkpt><trkpt lat="44.89080407723174" lon="-1.1341343431399584"><ele>16.0</ele><time>2026-04-12T13:27:16.999Z</time></trkpt><trkpt lat="44.89095959776129" lon="-1.1340727127906873"><ele>16.0</ele><time>2026-04-12T13:27:17.999Z</time></trkpt><trkpt lat="44.89112178130063" lon="-1.1339811529479902"><ele>16.0</ele><time>2026-04-12T13:27:18.999Z</time></trkpt><trkpt lat="44.89126360732467" lon="-1.1338607700019085"><ele>16.0</ele><time>2026-04-12T13:27:19.999Z</time></trkpt><trkpt lat="44.891397201021434" lon="-1.133740682333829"><ele>16.0</ele><time>2026-04-12T13:27:20.999Z</time></trkpt><trkpt lat="44.891560018592926" lon="-1.1337075795431906"><ele>16.0</ele><time>2026-04-12T13:27:21.999Z</time></trkpt><trkpt lat="44.89170354807444" lon="-1.1336280577508437"><ele>15.25</ele><time>2026-04-12T13:27:22.999Z</time></trkpt><trkpt lat="44.89182769785655" lon="-1.1335676455089543"><ele>14.5</ele><time>2026-04-12T13:27:23.999Z</time></trkpt><trkpt lat="44.891965744140535" lon="-1.1335011146031995"><ele>13.75</ele><time>2026-04-12T13:27:24.999Z</time></trkpt><trkpt lat="44.892068735345994" lon="-1.1334563170252392"><ele>13.0</ele><time>2026-04-12T13:27:25.999Z</time></trkpt><trkpt lat="44.89217594187985" lon="-1.1334139563294205"><ele>13.0</ele><time>2026-04-12T13:27:26.999Z</time></trkpt><trkpt lat="44.89227119815712" lon="-1.1333792803786331"><ele>13.0</ele><time>2026-04-12T13:27:27.999Z</time></trkpt><trkpt lat="44.89236075490927" lon="-1.1333531381316826"><ele>13.0</ele><time>2026-04-12T13:27:28.999Z</time></trkpt><trkpt lat="44.89245035767517" lon="-1.1332929026746053"><ele>13.0</ele><time>2026-04-12T13:27:29.999Z</time></trkpt><trkpt lat="44.892566959066535" lon="-1.1331945322618149"><ele>13.0</ele><time>2026-04-12T13:27:30.999Z</time></trkpt><trkpt lat="44.89270326487174" lon="-1.1330958670570175"><ele>13.0</ele><time>2026-04-12T13:27:31.999Z</time></trkpt><trkpt lat="44.892852819979204" lon="-1.133014587070632"><ele>13.0</ele><time>2026-04-12T13:27:32.999Z</time></trkpt><trkpt lat="44.89301682606914" lon="-1.132945856972956"><ele>13.0</ele><time>2026-04-12T13:27:33.999Z</time></trkpt><trkpt lat="44.893156571431966" lon="-1.1328923212926651"><ele>13.0</ele><time>2026-04-12T13:27:34.999Z</time></trkpt><trkpt lat="44.89331526029297" lon="-1.1328294149039964"><ele>13.0</ele><time>2026-04-12T13:27:35.999Z</time></trkpt><trkpt lat="44.893485683514115" lon="-1.1327530777878811"><ele>13.0</ele><time>2026-04-12T13:27:36.999Z</time></trkpt><trkpt lat="44.893642498710705" lon="-1.1326688177258764"><ele>13.333333333333332</ele><time>2026-04-12T13:27:37.999Z</time></trkpt><trkpt lat="44.89379235999721" lon="-1.1325876875302008"><ele>13.666666666666668</ele><time>2026-04-12T13:27:38.999Z</time></trkpt><trkpt lat="44.893959452870995" lon="-1.1324843408783403"><ele>14.0</ele><time>2026-04-12T13:27:39.999Z</time></trkpt><trkpt lat="44.894145409796785" lon="-1.1323814324381223"><ele>14.5</ele><time>2026-04-12T13:27:40.999Z</time></trkpt><trkpt lat="44.89435640240542" lon="-1.1322657701718721"><ele>15.0</ele><time>2026-04-12T13:27:41.999Z</time></trkpt><trkpt lat="44.89456640693044" lon="-1.1321526234778445"><ele>15.0</ele><time>2026-04-12T13:27:42.999Z</time></trkpt><trkpt lat="44.89473584935756" lon="-1.1320575825466725"><ele>15.0</ele><time>2026-04-12T13:27:43.999Z</time></trkpt><trkpt lat="44.8949034035385" lon="-1.1319729397210314"><ele>15.0</ele><time>2026-04-12T13:27:44.999Z</time></trkpt><trkpt lat="44.8950491359548" lon="-1.1319059002670833"><ele>15.0</ele><time>2026-04-12T13:27:45.999Z</time></trkpt><trkpt lat="44.89520999254222" lon="-1.1318304874579235"><ele>15.0</ele><time>2026-04-12T13:27:46.999Z</time></trkpt><trkpt lat="44.89535481620877" lon="-1.1317651157348085"><ele>15.0</ele><time>2026-04-12T13:27:47.999Z</time></trkpt><trkpt lat="44.89548019226799" lon="-1.131697807706715"><ele>15.0</ele><time>2026-04-12T13:27:48.999Z</time></trkpt><trkpt lat="44.895615241540945" lon="-1.131617261791226"><ele>15.0</ele><time>2026-04-12T13:27:49.999Z</time></trkpt><trkpt lat="44.89575217376239" lon="-1.1315332405210763"><ele>15.0</ele><time>2026-04-12T13:27:50.999Z</time></trkpt><trkpt lat="44.895872578384605" lon="-1.1314635396479698"><ele>15.0</ele><time>2026-04-12T13:27:51.999Z</time></trkpt><trkpt lat="44.89600234832841" lon="-1.131392335293921"><ele>15.0</ele><time>2026-04-12T13:27:52.999Z</time></trkpt><trkpt lat="44.896119070178926" lon="-1.1313360349381942"><ele>15.0</ele><time>2026-04-12T13:27:53.999Z</time></trkpt><trkpt lat="44.89622383802731" lon="-1.131287972471246"><ele>15.0</ele><time>2026-04-12T13:27:54.999Z</time></trkpt><trkpt lat="44.89632361287466" lon="-1.1312442102503062"><ele>15.0</ele><time>2026-04-12T13:27:55.999Z</time></trkpt><trkpt lat="44.896414582608536" lon="-1.1311986358791073"><ele>15.0</ele><time>2026-04-12T13:27:56.999Z</time></trkpt><trkpt lat="44.89651002871064" lon="-1.1311381389253496"><ele>15.0</ele><time>2026-04-12T13:27:57.998Z</time></trkpt><trkpt lat="44.89661064507106" lon="-1.1310824162111939"><ele>15.0</ele><time>2026-04-12T13:27:58.998Z</time></trkpt><trkpt lat="44.89671897593758" lon="-1.1309919466297262"><ele>15.0</ele><time>2026-04-12T13:27:59.998Z</time></trkpt><trkpt lat="44.89685001085229" lon="-1.1308942604582832"><ele>15.0</ele><time>2026-04-12T13:28:00.998Z</time></trkpt><trkpt lat="44.896984880270495" lon="-1.1308368164458038"><ele>14.8</ele><time>2026-04-12T13:28:01.998Z</time></trkpt><trkpt lat="44.89709190211167" lon="-1.130804985600834"><ele>14.6</ele><time>2026-04-12T13:28:02.998Z</time></trkpt><trkpt lat="44.89718533618451" lon="-1.130766788050733"><ele>14.399999999999999</ele><time>2026-04-12T13:28:03.998Z</time></trkpt><trkpt lat="44.897268235722144" lon="-1.1307496965551114"><ele>14.2</ele><time>2026-04-12T13:28:04.998Z</time></trkpt><trkpt lat="44.89734415380125" lon="-1.1307342300305685"><ele>14.0</ele><time>2026-04-12T13:28:05.998Z</time></trkpt><trkpt lat="44.89743293855195" lon="-1.1306761331356656"><ele>14.0</ele><time>2026-04-12T13:28:06.998Z</time></trkpt><trkpt lat="44.89754646361356" lon="-1.130567970541595"><ele>14.0</ele><time>2026-04-12T13:28:07.998Z</time></trkpt><trkpt lat="44.897658753504" lon="-1.1304931562979121"><ele>14.0</ele><time>2026-04-12T13:28:08.998Z</time></trkpt><trkpt lat="44.89774877842533" lon="-1.1304419145641267"><ele>14.0</ele><time>2026-04-12T13:28:09.998Z</time></trkpt><trkpt lat="44.89783621524656" lon="-1.1303928929102172"><ele>14.000000000000002</ele><time>2026-04-12T13:28:10.998Z</time></trkpt><trkpt lat="44.8979081466831" lon="-1.1303509271011751"><ele>14.0</ele><time>2026-04-12T13:28:11.998Z</time></trkpt><trkpt lat="44.89800244387119" lon="-1.1302978228758374"><ele>14.0</ele><time>2026-04-12T13:28:13.998Z</time></trkpt><trkpt lat="44.898074708944755" lon="-1.1302629453994146"><ele>14.0</ele><time>2026-04-12T13:28:59Z</time></trkpt><trkpt lat="44.898155088882014" lon="-1.1302373811170952"><ele>14.000000000000002</ele><time>2026-04-12T13:29:00Z</time></trkpt><trkpt lat="44.89823350888694" lon="-1.1302058797290737"><ele>14.0</ele><time>2026-04-12T13:29:01Z</time></trkpt><trkpt lat="44.89830069644585" lon="-1.130164886064861"><ele>14.0</ele><time>2026-04-12T13:29:02Z</time></trkpt><trkpt lat="44.89841497150984" lon="-1.1301258031717105"><ele>14.0</ele><time>2026-04-12T13:29:04Z</time></trkpt><trkpt lat="44.89849697141159" lon="-1.130060561781904"><ele>14.0</ele><time>2026-04-12T13:29:05Z</time></trkpt><trkpt lat="44.89861474335082" lon="-1.1299821822645606"><ele>14.0</ele><time>2026-04-12T13:29:06Z</time></trkpt><trkpt lat="44.89871901730041" lon="-1.1299223711486588"><ele>14.0</ele><time>2026-04-12T13:29:07Z</time></trkpt><trkpt lat="44.898786670733166" lon="-1.1298817370930716"><ele>13.999999999999998</ele><time>2026-04-12T13:29:08Z</time></trkpt><trkpt lat="44.89886221150166" lon="-1.1298341639924145"><ele>13.999999999999998</ele><time>2026-04-12T13:29:09Z</time></trkpt><trkpt lat="44.89894873108096" lon="-1.1297956121488721"><ele>14.0</ele><time>2026-04-12T13:29:10Z</time></trkpt><trkpt lat="44.899044570917155" lon="-1.1297485965414045"><ele>14.0</ele><time>2026-04-12T13:29:11Z</time></trkpt><trkpt lat="44.89917354136236" lon="-1.129683568346165"><ele>14.0</ele><time>2026-04-12T13:29:11.999Z</time></trkpt><trkpt lat="44.89933804904524" lon="-1.1295870607552858"><ele>14.0</ele><time>2026-04-12T13:29:12.999Z</time></trkpt><trkpt lat="44.899495156845056" lon="-1.1295024752184417"><ele>14.0</ele><time>2026-04-12T13:29:13.999Z</time></trkpt><trkpt lat="44.89960525275925" lon="-1.1294443770896672"><ele>14.0</ele><time>2026-04-12T13:29:14.999Z</time></trkpt><trkpt lat="44.899677880207854" lon="-1.12940871475168"><ele>13.999999999999998</ele><time>2026-04-12T13:29:15.999Z</time></trkpt><trkpt lat="44.899745494831066" lon="-1.1293859094293057"><ele>13.999999999999998</ele><time>2026-04-12T13:29:16.999Z</time></trkpt><trkpt lat="44.8998322997198" lon="-1.1293392649691898"><ele>14.0</ele><time>2026-04-12T13:29:17.999Z</time></trkpt><trkpt lat="44.89993267318154" lon="-1.1292642221954197"><ele>14.0</ele><time>2026-04-12T13:29:18.999Z</time></trkpt><trkpt lat="44.90006558158204" lon="-1.1291872293494787"><ele>14.25</ele><time>2026-04-12T13:29:19.999Z</time></trkpt><trkpt lat="44.90020611257317" lon="-1.1291339031831176"><ele>14.5</ele><time>2026-04-12T13:29:20.999Z</time></trkpt><trkpt lat="44.90032864458156" lon="-1.1290714409952805"><ele>14.75</ele><time>2026-04-12T13:29:21.999Z</time></trkpt><trkpt lat="44.90045247789681" lon="-1.1290042839441903"><ele>15.0</ele><time>2026-04-12T13:29:22.999Z</time></trkpt><trkpt lat="44.90055050462342" lon="-1.128928949891301"><ele>15.0</ele><time>2026-04-12T13:29:23.999Z</time></trkpt><trkpt lat="44.90065537436972" lon="-1.128866198416725"><ele>15.0</ele><time>2026-04-12T13:29:24.999Z</time></trkpt><trkpt lat="44.900791900656124" lon="-1.1288162168448665"><ele>15.0</ele><time>2026-04-12T13:29:25.999Z</time></trkpt><trkpt lat="44.900929919550805" lon="-1.128752125687768"><ele>15.0</ele><time>2026-04-12T13:29:26.999Z</time></trkpt><trkpt lat="44.901038477604864" lon="-1.1286632420874256"><ele>15.0</ele><time>2026-04-12T13:29:27.999Z</time></trkpt><trkpt lat="44.901175961817806" lon="-1.1285565057343372"><ele>15.0</ele><time>2026-04-12T13:29:28.999Z</time></trkpt><trkpt lat="44.9013377198176" lon="-1.1284863272797248"><ele>15.0</ele><time>2026-04-12T13:29:29.999Z</time></trkpt><trkpt lat="44.90152169492087" lon="-1.1283927928102482"><ele>15.0</ele><time>2026-04-12T13:29:30.999Z</time></trkpt><trkpt lat="44.90167604890537" lon="-1.1283298275976055"><ele>15.0</ele><time>2026-04-12T13:29:31.999Z</time></trkpt><trkpt lat="44.90182815457237" lon="-1.1282661903458577"><ele>15.0</ele><time>2026-04-12T13:29:32.999Z</time></trkpt><trkpt lat="44.90198884442257" lon="-1.1281961049447298"><ele>15.25</ele><time>2026-04-12T13:29:33.999Z</time></trkpt><trkpt lat="44.90213996018759" lon="-1.128141066666784"><ele>15.5</ele><time>2026-04-12T13:29:34.999Z</time></trkpt><trkpt lat="44.90225902482351" lon="-1.1281040384656653"><ele>15.75</ele><time>2026-04-12T13:29:35.999Z</time></trkpt><trkpt lat="44.902358735847" lon="-1.1280783951781264"><ele>16.0</ele><time>2026-04-12T13:29:36.999Z</time></trkpt><trkpt lat="44.90245789545757" lon="-1.1280559142204027"><ele>16.0</ele><time>2026-04-12T13:29:37.999Z</time></trkpt><trkpt lat="44.902561651692764" lon="-1.128052480041975"><ele>16.0</ele><time>2026-04-12T13:29:38.999Z</time></trkpt><trkpt lat="44.90267922370484" lon="-1.128065017205015"><ele>16.0</ele><time>2026-04-12T13:29:39.999Z</time></trkpt><trkpt lat="44.90280714934316" lon="-1.1281042103418346"><ele>16.0</ele><time>2026-04-12T13:29:40.999Z</time></trkpt><trkpt lat="44.902963040032006" lon="-1.1281422396231033"><ele>15.600000000000001</ele><time>2026-04-12T13:29:41.999Z</time></trkpt><trkpt lat="44.90307496621155" lon="-1.1281553824453932"><ele>15.200000000000001</ele><time>2026-04-12T13:29:42.999Z</time></trkpt><trkpt lat="44.903172336605415" lon="-1.128166295224638"><ele>14.799999999999999</ele><time>2026-04-12T13:29:43.999Z</time></trkpt><trkpt lat="44.9032496039029" lon="-1.128169298912995"><ele>14.399999999999999</ele><time>2026-04-12T13:29:44.999Z</time></trkpt><trkpt lat="44.90332603801024" lon="-1.1281813797146756"><ele>14.0</ele><time>2026-04-12T13:29:46.999Z</time></trkpt><trkpt lat="44.90334757900873" lon="-1.1282988233091793"><ele>14.000000000000002</ele><time>2026-04-12T13:29:57.999Z</time></trkpt><trkpt lat="44.903325151440576" lon="-1.1284039352162363"><ele>14.0</ele><time>2026-04-12T13:29:58.998Z</time></trkpt><trkpt lat="44.903296639615704" lon="-1.1285005693499457"><ele>14.0</ele><time>2026-04-12T13:29:59.998Z</time></trkpt><trkpt lat="44.903289413203254" lon="-1.1286489980948338"><ele>14.0</ele><time>2026-04-12T13:30:01.998Z</time></trkpt><trkpt lat="44.90329154407702" lon="-1.1287483786014958"><ele>14.000000000000002</ele><time>2026-04-12T13:30:03.998Z</time></trkpt><trkpt lat="44.90334480426432" lon="-1.128826865797018"><ele>14.0</ele><time>2026-04-12T13:30:29.998Z</time></trkpt><trkpt lat="44.903421189974914" lon="-1.128791950566723"><ele>14.2</ele><time>2026-04-12T13:30:31.998Z</time></trkpt><trkpt lat="44.9035419245064" lon="-1.1287804717418595"><ele>14.399999999999999</ele><time>2026-04-12T13:30:33.998Z</time></trkpt><trkpt lat="44.903618857248624" lon="-1.1288079225626313"><ele>14.6</ele><time>2026-04-12T13:30:34.998Z</time></trkpt><trkpt lat="44.903711167094436" lon="-1.1288293995031031"><ele>14.8</ele><time>2026-04-12T13:30:35.998Z</time></trkpt><trkpt lat="44.90382251352879" lon="-1.128857185004492"><ele>15.0</ele><time>2026-04-12T13:30:36.998Z</time></trkpt><trkpt lat="44.903932051795564" lon="-1.128873909472376"><ele>15.0</ele><time>2026-04-12T13:30:37.998Z</time></trkpt><trkpt lat="44.90402333064493" lon="-1.1289208484019124"><ele>15.0</ele><time>2026-04-12T13:30:38.998Z</time></trkpt><trkpt lat="44.904136452553686" lon="-1.128950081865907"><ele>15.0</ele><time>2026-04-12T13:30:39.998Z</time></trkpt><trkpt lat="44.90426111767027" lon="-1.1289809849328551"><ele>15.0</ele><time>2026-04-12T13:30:40.998Z</time></trkpt><trkpt lat="44.9044325511564" lon="-1.128997376443984"><ele>15.0</ele><time>2026-04-12T13:30:41.998Z</time></trkpt><trkpt lat="44.90459040267383" lon="-1.129036252488606"><ele>15.0</ele><time>2026-04-12T13:30:42.998Z</time></trkpt><trkpt lat="44.90473090442306" lon="-1.1290855646812052"><ele>15.0</ele><time>2026-04-12T13:30:43.998Z</time></trkpt><trkpt lat="44.90486055102992" lon="-1.1291306299043924"><ele>15.0</ele><time>2026-04-12T13:30:44.998Z</time></trkpt><trkpt lat="44.90503252022516" lon="-1.1291711733604495"><ele>14.666666666666668</ele><time>2026-04-12T13:30:45.997Z</time></trkpt><trkpt lat="44.905182332612114" lon="-1.129203621312902"><ele>14.333333333333334</ele><time>2026-04-12T13:30:46.997Z</time></trkpt><trkpt lat="44.90534601869333" lon="-1.1292283533053527"><ele>14.0</ele><time>2026-04-12T13:30:47.997Z</time></trkpt><trkpt lat="44.90551469459073" lon="-1.1292657834628665"><ele>14.0</ele><time>2026-04-12T13:30:48.997Z</time></trkpt><trkpt lat="44.905699103911786" lon="-1.1293317323039365"><ele>14.0</ele><time>2026-04-12T13:30:49.997Z</time></trkpt><trkpt lat="44.9058783629285" lon="-1.1293768120682395"><ele>14.0</ele><time>2026-04-12T13:30:51Z</time></trkpt><trkpt lat="44.90602188219767" lon="-1.129429747852712"><ele>14.333333333333334</ele><time>2026-04-12T13:30:52Z</time></trkpt><trkpt lat="44.90615455635841" lon="-1.1294596212861667"><ele>14.666666666666668</ele><time>2026-04-12T13:30:53Z</time></trkpt><trkpt lat="44.906318838206374" lon="-1.1294820783477169"><ele>15.0</ele><time>2026-04-12T13:30:54Z</time></trkpt><trkpt lat="44.90650309324921" lon="-1.129536207207316"><ele>15.0</ele><time>2026-04-12T13:30:55Z</time></trkpt><trkpt lat="44.90664867914476" lon="-1.1295725481747785"><ele>15.0</ele><time>2026-04-12T13:30:56Z</time></trkpt><trkpt lat="44.906801566497755" lon="-1.1296118297643647"><ele>15.0</ele><time>2026-04-12T13:30:57Z</time></trkpt><trkpt lat="44.90695937173538" lon="-1.1296498410364875"><ele>14.75</ele><time>2026-04-12T13:30:58Z</time></trkpt><trkpt lat="44.907081728825275" lon="-1.1296788076907365"><ele>14.5</ele><time>2026-04-12T13:30:59Z</time></trkpt><trkpt lat="44.90720664030669" lon="-1.1297093809906942"><ele>14.25</ele><time>2026-04-12T13:31:00Z</time></trkpt><trkpt lat="44.90735031978987" lon="-1.1297574580454615"><ele>14.0</ele><time>2026-04-12T13:31:01Z</time></trkpt><trkpt lat="44.90747951840265" lon="-1.1297886896441056"><ele>14.0</ele><time>2026-04-12T13:31:02Z</time></trkpt><trkpt lat="44.907589173163224" lon="-1.1298222947388823"><ele>14.0</ele><time>2026-04-12T13:31:03Z</time></trkpt><trkpt lat="44.907716037140005" lon="-1.1298277479178722"><ele>14.0</ele><time>2026-04-12T13:31:04Z</time></trkpt><trkpt lat="44.90783952063562" lon="-1.1298253214007192"><ele>14.0</ele><time>2026-04-12T13:31:05Z</time></trkpt><trkpt lat="44.90796127649636" lon="-1.1298304739691958"><ele>14.0</ele><time>2026-04-12T13:31:06Z</time></trkpt><trkpt lat="44.9080985082291" lon="-1.1298259239925135"><ele>14.0</ele><time>2026-04-12T13:31:07Z</time></trkpt><trkpt lat="44.90822204610219" lon="-1.1297915012394073"><ele>14.0</ele><time>2026-04-12T13:31:08Z</time></trkpt><trkpt lat="44.908346060953455" lon="-1.1297515936589813"><ele>14.0</ele><time>2026-04-12T13:31:09Z</time></trkpt><trkpt lat="44.9084818464601" lon="-1.1297089661727713"><ele>13.75</ele><time>2026-04-12T13:31:10Z</time></trkpt><trkpt lat="44.90861342837441" lon="-1.129653310243735"><ele>13.5</ele><time>2026-04-12T13:31:11Z</time></trkpt><trkpt lat="44.90873495298972" lon="-1.1295858026259973"><ele>13.25</ele><time>2026-04-12T13:31:12Z</time></trkpt><trkpt lat="44.90885839627369" lon="-1.1294996302524043"><ele>13.0</ele><time>2026-04-12T13:31:12.999Z</time></trkpt><trkpt lat="44.90896118809331" lon="-1.1294304765651115"><ele>13.0</ele><time>2026-04-12T13:31:13.999Z</time></trkpt><trkpt lat="44.90905451993003" lon="-1.129361486986016"><ele>13.0</ele><time>2026-04-12T13:31:14.999Z</time></trkpt><trkpt lat="44.90912025697036" lon="-1.1292839807654411"><ele>13.0</ele><time>2026-04-12T13:31:15.999Z</time></trkpt><trkpt lat="44.909213408258175" lon="-1.1291886888566174"><ele>13.0</ele><time>2026-04-12T13:31:16.999Z</time></trkpt><trkpt lat="44.90930846832673" lon="-1.1291216496216774"><ele>13.0</ele><time>2026-04-12T13:31:17.999Z</time></trkpt><trkpt lat="44.90942793744948" lon="-1.129067693715383"><ele>13.0</ele><time>2026-04-12T13:31:18.999Z</time></trkpt><trkpt lat="44.909541219339346" lon="-1.1289864826072837"><ele>13.0</ele><time>2026-04-12T13:31:19.999Z</time></trkpt><trkpt lat="44.9096183858309" lon="-1.1289107803549858"><ele>13.0</ele><time>2026-04-12T13:31:20.999Z</time></trkpt><trkpt lat="44.909714453807844" lon="-1.1288238795276473"><ele>13.0</ele><time>2026-04-12T13:31:21.999Z</time></trkpt><trkpt lat="44.90984193067517" lon="-1.1287419372362144"><ele>13.0</ele><time>2026-04-12T13:31:22.999Z</time></trkpt><trkpt lat="44.90996508926503" lon="-1.128658975712884"><ele>13.0</ele><time>2026-04-12T13:31:23.999Z</time></trkpt><trkpt lat="44.910085324432494" lon="-1.1285663354167472"><ele>13.0</ele><time>2026-04-12T13:31:24.999Z</time></trkpt><trkpt lat="44.91017898999781" lon="-1.1284940981808924"><ele>13.0</ele><time>2026-04-12T13:31:25.999Z</time></trkpt><trkpt lat="44.91027847176635" lon="-1.1284088901129563"><ele>13.25</ele><time>2026-04-12T13:31:26.999Z</time></trkpt><trkpt lat="44.9103823094319" lon="-1.1283425079286964"><ele>13.5</ele><time>2026-04-12T13:31:27.999Z</time></trkpt><trkpt lat="44.910491644385594" lon="-1.1282525025665644"><ele>13.75</ele><time>2026-04-12T13:31:28.999Z</time></trkpt><trkpt lat="44.910588125107324" lon="-1.1281947529019682"><ele>14.0</ele><time>2026-04-12T13:31:29.999Z</time></trkpt><trkpt lat="44.910683785402306" lon="-1.1281082757218344"><ele>14.0</ele><time>2026-04-12T13:31:30.999Z</time></trkpt><trkpt lat="44.910768216493146" lon="-1.1280426274909234"><ele>14.0</ele><time>2026-04-12T13:31:31.999Z</time></trkpt><trkpt lat="44.91087616653932" lon="-1.1279607295642036"><ele>14.0</ele><time>2026-04-12T13:31:32.999Z</time></trkpt><trkpt lat="44.910997124575964" lon="-1.1278692576125011"><ele>14.0</ele><time>2026-04-12T13:31:33.999Z</time></trkpt><trkpt lat="44.91111069923904" lon="-1.127776878251426"><ele>14.25</ele><time>2026-04-12T13:31:34.999Z</time></trkpt><trkpt lat="44.91122029320585" lon="-1.1276873759816892"><ele>14.5</ele><time>2026-04-12T13:31:35.999Z</time></trkpt><trkpt lat="44.91134253932961" lon="-1.127596344367002"><ele>14.75</ele><time>2026-04-12T13:31:36.999Z</time></trkpt><trkpt lat="44.911455624870825" lon="-1.1275154705407497"><ele>15.0</ele><time>2026-04-12T13:31:37.999Z</time></trkpt><trkpt lat="44.91154555965106" lon="-1.1274473475444806"><ele>14.75</ele><time>2026-04-12T13:31:38.999Z</time></trkpt><trkpt lat="44.91165285597105" lon="-1.12736851015888"><ele>14.5</ele><time>2026-04-12T13:31:39.999Z</time></trkpt><trkpt lat="44.911770916922436" lon="-1.127267902225431"><ele>14.25</ele><time>2026-04-12T13:31:40.999Z</time></trkpt><trkpt lat="44.91186808640072" lon="-1.1271815285180111"><ele>14.0</ele><time>2026-04-12T13:31:41.999Z</time></trkpt><trkpt lat="44.911976687183" lon="-1.1271196933180128"><ele>13.75</ele><time>2026-04-12T13:31:42.999Z</time></trkpt><trkpt lat="44.91210270503103" lon="-1.12703345564871"><ele>13.5</ele><time>2026-04-12T13:31:43.999Z</time></trkpt><trkpt lat="44.91221211976354" lon="-1.1269437119759194"><ele>13.25</ele><time>2026-04-12T13:31:44.999Z</time></trkpt><trkpt lat="44.912307425440694" lon="-1.1268717596544193"><ele>13.0</ele><time>2026-04-12T13:31:45.999Z</time></trkpt><trkpt lat="44.912438239069" lon="-1.12678970128069"><ele>13.0</ele><time>2026-04-12T13:31:46.999Z</time></trkpt><trkpt lat="44.91259644828329" lon="-1.1266630212286346"><ele>13.0</ele><time>2026-04-12T13:31:47.999Z</time></trkpt><trkpt lat="44.91273912640389" lon="-1.126519485651668"><ele>13.0</ele><time>2026-04-12T13:31:48.999Z</time></trkpt><trkpt lat="44.912889166467835" lon="-1.1263740349805365"><ele>13.25</ele><time>2026-04-12T13:31:49.999Z</time></trkpt><trkpt lat="44.913044622180635" lon="-1.1263141380222976"><ele>13.5</ele><time>2026-04-12T13:31:51.999Z</time></trkpt><trkpt lat="44.91316407474028" lon="-1.1262346312760645"><ele>13.75</ele><time>2026-04-12T13:31:52.999Z</time></trkpt><trkpt lat="44.913286127519775" lon="-1.1261473954101637"><ele>14.0</ele><time>2026-04-12T13:31:53.999Z</time></trkpt><trkpt lat="44.91338915124409" lon="-1.1260806115294897"><ele>14.25</ele><time>2026-04-12T13:31:54.999Z</time></trkpt><trkpt lat="44.913495264429315" lon="-1.1260024746837995"><ele>14.5</ele><time>2026-04-12T13:31:55.999Z</time></trkpt><trkpt lat="44.91360922690483" lon="-1.1259079726966565"><ele>14.75</ele><time>2026-04-12T13:31:56.999Z</time></trkpt><trkpt lat="44.91371982954257" lon="-1.1258208802880296"><ele>15.0</ele><time>2026-04-12T13:31:57.999Z</time></trkpt><trkpt lat="44.913849093459774" lon="-1.1257228471300464"><ele>15.0</ele><time>2026-04-12T13:31:58.999Z</time></trkpt><trkpt lat="44.91397149250503" lon="-1.125637467483169"><ele>15.0</ele><time>2026-04-12T13:31:59.999Z</time></trkpt><trkpt lat="44.91408804179751" lon="-1.1255662742803305"><ele>15.0</ele><time>2026-04-12T13:32:00.998Z</time></trkpt><trkpt lat="44.91420419092134" lon="-1.1254754116289605"><ele>15.0</ele><time>2026-04-12T13:32:01.998Z</time></trkpt><trkpt lat="44.91431676781697" lon="-1.1253633182734126"><ele>15.0</ele><time>2026-04-12T13:32:02.998Z</time></trkpt><trkpt lat="44.91440540512379" lon="-1.125282150891165"><ele>15.0</ele><time>2026-04-12T13:32:03.998Z</time></trkpt><trkpt lat="44.91447801242975" lon="-1.125215885730472"><ele>15.0</ele><time>2026-04-12T13:32:04.998Z</time></trkpt><trkpt lat="44.91453925273133" lon="-1.1251718175437224"><ele>15.0</ele><time>2026-04-12T13:32:05.998Z</time></trkpt><trkpt lat="44.91463671583784" lon="-1.125128035189674"><ele>15.0</ele><time>2026-04-12T13:32:07.998Z</time></trkpt><trkpt lat="44.914712005629035" lon="-1.1250976291471864"><ele>15.0</ele><time>2026-04-12T13:32:09.998Z</time></trkpt><trkpt lat="44.91479398793432" lon="-1.1250296319550743"><ele>15.0</ele><time>2026-04-12T13:32:11.998Z</time></trkpt><trkpt lat="44.91482942279809" lon="-1.125112442080733"><ele>15.0</ele><time>2026-04-12T13:32:15.998Z</time></trkpt><trkpt lat="44.91488076897352" lon="-1.1251691357550146"><ele>15.0</ele><time>2026-04-12T13:32:19.998Z</time></trkpt><trkpt lat="44.91494095864643" lon="-1.1251332418384983"><ele>15.0</ele><time>2026-04-12T13:32:21.998Z</time></trkpt><trkpt lat="44.91492727949996" lon="-1.1250241479611822"><ele>15.0</ele><time>2026-04-12T13:32:24.998Z</time></trkpt><trkpt lat="44.91489335350895" lon="-1.1249481398491017"><ele>15.0</ele><time>2026-04-12T13:32:25.998Z</time></trkpt><trkpt lat="44.914956548013684" lon="-1.124904085015666"><ele>15.0</ele><time>2026-04-12T13:32:30.998Z</time></trkpt><trkpt lat="44.91504252853557" lon="-1.1248121011929493"><ele>15.0</ele><time>2026-04-12T13:32:35.998Z</time></trkpt><trkpt lat="44.915116257459225" lon="-1.124762507176238"><ele>15.0</ele><time>2026-04-12T13:32:37.998Z</time></trkpt><trkpt lat="44.91518308242466" lon="-1.1247074759104396"><ele>15.0</ele><time>2026-04-12T13:32:38.998Z</time></trkpt><trkpt lat="44.91525861969562" lon="-1.124646207255944"><ele>15.0</ele><time>2026-04-12T13:32:39.998Z</time></trkpt><trkpt lat="44.915337563312306" lon="-1.1245685815562017"><ele>15.0</ele><time>2026-04-12T13:32:40.998Z</time></trkpt><trkpt lat="44.91542818772545" lon="-1.124508089079066"><ele>15.0</ele><time>2026-04-12T13:32:41.998Z</time></trkpt><trkpt lat="44.915526048789744" lon="-1.124439427634019"><ele>15.0</ele><time>2026-04-12T13:32:42.998Z</time></trkpt><trkpt lat="44.91563032542093" lon="-1.124360749300977"><ele>15.0</ele><time>2026-04-12T13:32:43.998Z</time></trkpt><trkpt lat="44.915751239802006" lon="-1.1242720345759256"><ele>15.0</ele><time>2026-04-12T13:32:44.998Z</time></trkpt><trkpt lat="44.91588182333524" lon="-1.1241763004581253"><ele>15.0</ele><time>2026-04-12T13:32:45.998Z</time></trkpt><trkpt lat="44.91600984924855" lon="-1.1240696662836605"><ele>15.0</ele><time>2026-04-12T13:32:46.998Z</time></trkpt><trkpt lat="44.916136106425185" lon="-1.1239844871894271"><ele>15.0</ele><time>2026-04-12T13:32:47.997Z</time></trkpt><trkpt lat="44.91627838421026" lon="-1.1238787341429877"><ele>15.0</ele><time>2026-04-12T13:32:48.997Z</time></trkpt><trkpt lat="44.91639357916305" lon="-1.1237951754180087"><ele>15.0</ele><time>2026-04-12T13:32:49.997Z</time></trkpt><trkpt lat="44.91651963775911" lon="-1.1237145124627423"><ele>15.0</ele><time>2026-04-12T13:32:50.997Z</time></trkpt><trkpt lat="44.91663325085154" lon="-1.1236247827120243"><ele>15.0</ele><time>2026-04-12T13:32:51.997Z</time></trkpt><trkpt lat="44.91674887885814" lon="-1.1235386427634118"><ele>15.0</ele><time>2026-04-12T13:32:52.997Z</time></trkpt><trkpt lat="44.916865739171115" lon="-1.123460633476082"><ele>15.0</ele><time>2026-04-12T13:32:53.997Z</time></trkpt><trkpt lat="44.91698131482021" lon="-1.123390897385233"><ele>15.0</ele><time>2026-04-12T13:32:54.997Z</time></trkpt><trkpt lat="44.917083807619846" lon="-1.123312721848518"><ele>15.0</ele><time>2026-04-12T13:32:55.997Z</time></trkpt><trkpt lat="44.91719133826052" lon="-1.1232164206261925"><ele>15.0</ele><time>2026-04-12T13:32:57Z</time></trkpt><trkpt lat="44.91734100073554" lon="-1.123101279012087"><ele>15.0</ele><time>2026-04-12T13:32:58Z</time></trkpt><trkpt lat="44.91749476887792" lon="-1.122978384451058"><ele>15.0</ele><time>2026-04-12T13:32:59Z</time></trkpt><trkpt lat="44.91756064934526" lon="-1.122926646447108"><ele>15.0</ele><time>2026-04-12T13:33:00Z</time></trkpt><trkpt lat="44.917652078555705" lon="-1.122848728520739"><ele>15.0</ele><time>2026-04-12T13:33:01Z</time></trkpt><trkpt lat="44.917763789390776" lon="-1.122752658917554"><ele>15.0</ele><time>2026-04-12T13:33:02Z</time></trkpt><trkpt lat="44.9178742340241" lon="-1.1226686622401578"><ele>15.0</ele><time>2026-04-12T13:33:03Z</time></trkpt><trkpt lat="44.918005038080885" lon="-1.1225802621043346"><ele>15.0</ele><time>2026-04-12T13:33:04Z</time></trkpt><trkpt lat="44.91810998447229" lon="-1.1225067694590702"><ele>15.0</ele><time>2026-04-12T13:33:05Z</time></trkpt><trkpt lat="44.91821483911169" lon="-1.1224282832401538"><ele>15.0</ele><time>2026-04-12T13:33:06Z</time></trkpt><trkpt lat="44.918331433607925" lon="-1.1223375579009078"><ele>15.0</ele><time>2026-04-12T13:33:07Z</time></trkpt><trkpt lat="44.91843079586157" lon="-1.1222633604456367"><ele>15.0</ele><time>2026-04-12T13:33:08Z</time></trkpt><trkpt lat="44.918542791146294" lon="-1.122177872221425"><ele>15.0</ele><time>2026-04-12T13:33:09Z</time></trkpt><trkpt lat="44.91864585986572" lon="-1.1221128275307006"><ele>15.0</ele><time>2026-04-12T13:33:10Z</time></trkpt><trkpt lat="44.91873400844848" lon="-1.1220577833430043"><ele>15.0</ele><time>2026-04-12T13:33:11Z</time></trkpt><trkpt lat="44.918859194903426" lon="-1.1219748046542193"><ele>15.0</ele><time>2026-04-12T13:33:12Z</time></trkpt><trkpt lat="44.918975551147675" lon="-1.1218854369632225"><ele>15.0</ele><time>2026-04-12T13:33:13Z</time></trkpt><trkpt lat="44.91909671422078" lon="-1.1217972231968019"><ele>15.0</ele><time>2026-04-12T13:33:14Z</time></trkpt><trkpt lat="44.919209781919974" lon="-1.121702361833944"><ele>15.0</ele><time>2026-04-12T13:33:15Z</time></trkpt><trkpt lat="44.91930174841967" lon="-1.1216090681611972"><ele>14.75</ele><time>2026-04-12T13:33:15.999Z</time></trkpt><trkpt lat="44.91941065100347" lon="-1.1215224078960042"><ele>14.5</ele><time>2026-04-12T13:33:16.999Z</time></trkpt><trkpt lat="44.91952639571092" lon="-1.1214508290964684"><ele>14.25</ele><time>2026-04-12T13:33:17.999Z</time></trkpt><trkpt lat="44.91964145557934" lon="-1.1213936555910935"><ele>14.0</ele><time>2026-04-12T13:33:18.999Z</time></trkpt><trkpt lat="44.91975586526036" lon="-1.1213318009871787"><ele>14.0</ele><time>2026-04-12T13:33:19.999Z</time></trkpt><trkpt lat="44.91986573614834" lon="-1.1212673648240747"><ele>13.999999999999998</ele><time>2026-04-12T13:33:20.999Z</time></trkpt><trkpt lat="44.91995537628815" lon="-1.121235746435242"><ele>13.999999999999998</ele><time>2026-04-12T13:33:21.999Z</time></trkpt><trkpt lat="44.92006881129066" lon="-1.121208068707187"><ele>14.0</ele><time>2026-04-12T13:33:22.999Z</time></trkpt><trkpt lat="44.92018742881669" lon="-1.1211821345716109"><ele>14.0</ele><time>2026-04-12T13:33:23.999Z</time></trkpt><trkpt lat="44.92029891817479" lon="-1.1211766713689675"><ele>14.0</ele><time>2026-04-12T13:33:24.999Z</time></trkpt><trkpt lat="44.92037783905601" lon="-1.1211787258391404"><ele>13.999999999999998</ele><time>2026-04-12T13:33:25.999Z</time></trkpt><trkpt lat="44.92049235811626" lon="-1.1211766061178432"><ele>13.999999999999998</ele><time>2026-04-12T13:33:26.999Z</time></trkpt><trkpt lat="44.92061768332263" lon="-1.1211696188617917"><ele>14.0</ele><time>2026-04-12T13:33:27.999Z</time></trkpt><trkpt lat="44.92074288080792" lon="-1.1211612320196351"><ele>14.0</ele><time>2026-04-12T13:33:28.999Z</time></trkpt><trkpt lat="44.92086884674976" lon="-1.1211801976519349"><ele>14.0</ele><time>2026-04-12T13:33:29.999Z</time></trkpt><trkpt lat="44.920990247052885" lon="-1.1211996334428165"><ele>14.0</ele><time>2026-04-12T13:33:30.999Z</time></trkpt><trkpt lat="44.92110545444208" lon="-1.1212021029560382"><ele>14.0</ele><time>2026-04-12T13:33:31.999Z</time></trkpt><trkpt lat="44.92123474408525" lon="-1.1212131764744424"><ele>14.0</ele><time>2026-04-12T13:33:32.999Z</time></trkpt><trkpt lat="44.92134261769426" lon="-1.1212412444115762"><ele>14.0</ele><time>2026-04-12T13:33:33.999Z</time></trkpt><trkpt lat="44.921463622065446" lon="-1.121265172870634"><ele>14.0</ele><time>2026-04-12T13:33:34.999Z</time></trkpt><trkpt lat="44.92159497451001" lon="-1.1212771367783563"><ele>14.0</ele><time>2026-04-12T13:33:35.999Z</time></trkpt><trkpt lat="44.92171828920726" lon="-1.1213068556171717"><ele>14.0</ele><time>2026-04-12T13:33:36.999Z</time></trkpt><trkpt lat="44.921848297247855" lon="-1.1213498253244367"><ele>14.0</ele><time>2026-04-12T13:33:37.999Z</time></trkpt><trkpt lat="44.92197921196622" lon="-1.1213656485505232"><ele>13.999999999999998</ele><time>2026-04-12T13:33:38.999Z</time></trkpt><trkpt lat="44.92208863475964" lon="-1.1213836021865267"><ele>13.999999999999998</ele><time>2026-04-12T13:33:39.999Z</time></trkpt><trkpt lat="44.92217501116396" lon="-1.1213922993991716"><ele>14.0</ele><time>2026-04-12T13:33:40.999Z</time></trkpt><trkpt lat="44.92226010248615" lon="-1.1214102483818542"><ele>14.0</ele><time>2026-04-12T13:33:41.999Z</time></trkpt><trkpt lat="44.922352447620035" lon="-1.1214256410930996"><ele>14.000000000000002</ele><time>2026-04-12T13:33:44.999Z</time></trkpt><trkpt lat="44.92246408458098" lon="-1.121465065211335"><ele>14.0</ele><time>2026-04-12T13:33:46.999Z</time></trkpt><trkpt lat="44.92256658774668" lon="-1.121495575913423"><ele>14.0</ele><time>2026-04-12T13:33:48.999Z</time></trkpt><trkpt lat="44.92264559366493" lon="-1.121489969427636"><ele>14.0</ele><time>2026-04-12T13:33:49.999Z</time></trkpt><trkpt lat="44.92271567929451" lon="-1.1214962700768407"><ele>14.000000000000002</ele><time>2026-04-12T13:33:50.999Z</time></trkpt><trkpt lat="44.9227882039" lon="-1.1215055374345286"><ele>14.0</ele><time>2026-04-12T13:33:51.999Z</time></trkpt><trkpt lat="44.922883462325274" lon="-1.1215373862196978"><ele>14.666666666666668</ele><time>2026-04-12T13:33:53.999Z</time></trkpt><trkpt lat="44.92290293076682" lon="-1.121625371131879"><ele>15.333333333333334</ele><time>2026-04-12T13:33:57.999Z</time></trkpt><trkpt lat="44.92291648986733" lon="-1.1217253369057298"><ele>16.0</ele><time>2026-04-12T13:33:58.999Z</time></trkpt><trkpt lat="44.92290719591221" lon="-1.1218439447758575"><ele>16.666666666666668</ele><time>2026-04-12T13:33:59.999Z</time></trkpt><trkpt lat="44.92289309448972" lon="-1.1219719675772757"><ele>17.333333333333332</ele><time>2026-04-12T13:34:00.999Z</time></trkpt><trkpt lat="44.922884372408916" lon="-1.1221069809417636"><ele>18.0</ele><time>2026-04-12T13:34:01.999Z</time></trkpt><trkpt lat="44.92287936425481" lon="-1.1222538506732438"><ele>18.0</ele><time>2026-04-12T13:34:02.998Z</time></trkpt><trkpt lat="44.92287599302569" lon="-1.1223898211559031"><ele>18.0</ele><time>2026-04-12T13:34:03.998Z</time></trkpt><trkpt lat="44.92287573753495" lon="-1.1225069483490524"><ele>18.0</ele><time>2026-04-12T13:34:04.998Z</time></trkpt><trkpt lat="44.92287558924482" lon="-1.1226315698395937"><ele>18.0</ele><time>2026-04-12T13:34:05.998Z</time></trkpt><trkpt lat="44.92286414898085" lon="-1.1227642824853843"><ele>18.0</ele><time>2026-04-12T13:34:06.998Z</time></trkpt><trkpt lat="44.92285031860548" lon="-1.1228980488715055"><ele>18.6</ele><time>2026-04-12T13:34:07.998Z</time></trkpt><trkpt lat="44.922841424786164" lon="-1.1230260339191305"><ele>19.200000000000003</ele><time>2026-04-12T13:34:08.998Z</time></trkpt><trkpt lat="44.922833266060316" lon="-1.123180093287091"><ele>19.8</ele><time>2026-04-12T13:34:09.998Z</time></trkpt><trkpt lat="44.92282468391312" lon="-1.1233494836831037"><ele>20.400000000000002</ele><time>2026-04-12T13:34:10.998Z</time></trkpt><trkpt lat="44.92281899869023" lon="-1.1235119481349685"><ele>21.0</ele><time>2026-04-12T13:34:11.998Z</time></trkpt><trkpt lat="44.92281226208065" lon="-1.123695624783796"><ele>21.75</ele><time>2026-04-12T13:34:12.998Z</time></trkpt><trkpt lat="44.92280257647206" lon="-1.1238965511262384"><ele>22.5</ele><time>2026-04-12T13:34:13.998Z</time></trkpt><trkpt lat="44.92279272151595" lon="-1.1240994805363775"><ele>23.25</ele><time>2026-04-12T13:34:14.998Z</time></trkpt><trkpt lat="44.92278410306986" lon="-1.124263007276858"><ele>24.0</ele><time>2026-04-12T13:34:15.998Z</time></trkpt><trkpt lat="44.9227790284763" lon="-1.1244343730481625"><ele>24.0</ele><time>2026-04-12T13:34:16.998Z</time></trkpt><trkpt lat="44.92276553319241" lon="-1.1246116948402667"><ele>24.0</ele><time>2026-04-12T13:34:17.998Z</time></trkpt><trkpt lat="44.92276778381747" lon="-1.1248049483579488"><ele>24.0</ele><time>2026-04-12T13:34:18.998Z</time></trkpt><trkpt lat="44.92276244060194" lon="-1.1249856459258043"><ele>24.0</ele><time>2026-04-12T13:34:19.998Z</time></trkpt><trkpt lat="44.92275432280156" lon="-1.125149527720421"><ele>24.0</ele><time>2026-04-12T13:34:20.998Z</time></trkpt><trkpt lat="44.92274534112731" lon="-1.12529230161493"><ele>24.0</ele><time>2026-04-12T13:34:21.998Z</time></trkpt><trkpt lat="44.92273063659619" lon="-1.1254449769410515"><ele>24.0</ele><time>2026-04-12T13:34:22.998Z</time></trkpt><trkpt lat="44.922722733839116" lon="-1.1256392503002963"><ele>24.0</ele><time>2026-04-12T13:34:23.998Z</time></trkpt><trkpt lat="44.922710875006544" lon="-1.1258435410812901"><ele>24.25</ele><time>2026-04-12T13:34:24.998Z</time></trkpt><trkpt lat="44.92270022661572" lon="-1.1260700583003092"><ele>24.5</ele><time>2026-04-12T13:34:25.998Z</time></trkpt><trkpt lat="44.92269073828606" lon="-1.1262384333677815"><ele>24.75</ele><time>2026-04-12T13:34:26.998Z</time></trkpt><trkpt lat="44.92268056100966" lon="-1.126402804669023"><ele>25.0</ele><time>2026-04-12T13:34:27.998Z</time></trkpt><trkpt lat="44.92267593436539" lon="-1.126568298906149"><ele>25.4</ele><time>2026-04-12T13:34:28.998Z</time></trkpt><trkpt lat="44.922671273818274" lon="-1.126724854713505"><ele>25.8</ele><time>2026-04-12T13:34:29.998Z</time></trkpt><trkpt lat="44.922670146865975" lon="-1.1268719436586072"><ele>26.200000000000003</ele><time>2026-04-12T13:34:30.998Z</time></trkpt><trkpt lat="44.92266386084732" lon="-1.1269970509395515"><ele>26.6</ele><time>2026-04-12T13:34:31.998Z</time></trkpt><trkpt lat="44.92265725666672" lon="-1.1271327656998553"><ele>27.0</ele><time>2026-04-12T13:34:32.998Z</time></trkpt><trkpt lat="44.922646027626506" lon="-1.1272607314262588"><ele>27.0</ele><time>2026-04-12T13:34:33.998Z</time></trkpt><trkpt lat="44.922641384867134" lon="-1.1273684720257025"><ele>27.0</ele><time>2026-04-12T13:34:34.998Z</time></trkpt><trkpt lat="44.92264760544863" lon="-1.1274643580196555"><ele>27.0</ele><time>2026-04-12T13:34:35.998Z</time></trkpt><trkpt lat="44.92271958083682" lon="-1.1275317701412546"><ele>27.0</ele><time>2026-04-12T13:34:37.998Z</time></trkpt><trkpt lat="44.92278997365547" lon="-1.1275221015780763"><ele>27.0</ele><time>2026-04-12T13:34:38.998Z</time></trkpt><trkpt lat="44.92288333835656" lon="-1.1274961914848909"><ele>27.0</ele><time>2026-04-12T13:34:39.998Z</time></trkpt><trkpt lat="44.92297308861779" lon="-1.1274968955838343"><ele>27.0</ele><time>2026-04-12T13:34:40.998Z</time></trkpt><trkpt lat="44.923105251796976" lon="-1.1275269421038792"><ele>27.000000000000004</ele><time>2026-04-12T13:34:42.998Z</time></trkpt><trkpt lat="44.92317633193862" lon="-1.1275203896820585"><ele>27.000000000000004</ele><time>2026-04-12T13:34:43.998Z</time></trkpt><trkpt lat="44.92327040977501" lon="-1.127489327259836"><ele>27.0</ele><time>2026-04-12T13:34:44.998Z</time></trkpt><trkpt lat="44.92337690601133" lon="-1.127458041261375"><ele>27.0</ele><time>2026-04-12T13:34:45.998Z</time></trkpt><trkpt lat="44.92350366253898" lon="-1.1274324582633457"><ele>27.0</ele><time>2026-04-12T13:34:46.998Z</time></trkpt><trkpt lat="44.92364910978216" lon="-1.1273893559846917"><ele>27.0</ele><time>2026-04-12T13:34:47.998Z</time></trkpt><trkpt lat="44.923799815296405" lon="-1.1273366367083641"><ele>27.0</ele><time>2026-04-12T13:34:48.998Z</time></trkpt><trkpt lat="44.92392680127528" lon="-1.1273073904282631"><ele>27.0</ele><time>2026-04-12T13:34:49.997Z</time></trkpt><trkpt lat="44.92404192278818" lon="-1.1272529834597331"><ele>27.0</ele><time>2026-04-12T13:34:50.997Z</time></trkpt><trkpt lat="44.92413046603197" lon="-1.1272187815440027"><ele>27.000000000000004</ele><time>2026-04-12T13:34:51.997Z</time></trkpt><trkpt lat="44.924212645048335" lon="-1.1271817916056215"><ele>27.000000000000004</ele><time>2026-04-12T13:34:52.997Z</time></trkpt><trkpt lat="44.92431495402192" lon="-1.1271591820283613"><ele>27.0</ele><time>2026-04-12T13:34:53.997Z</time></trkpt><trkpt lat="44.924440569768386" lon="-1.1271177319359018"><ele>27.0</ele><time>2026-04-12T13:34:54.997Z</time></trkpt><trkpt lat="44.924547377474106" lon="-1.1270659643431287"><ele>26.400000000000002</ele><time>2026-04-12T13:34:55.997Z</time></trkpt><trkpt lat="44.9246548538529" lon="-1.1270391095093693"><ele>25.800000000000004</ele><time>2026-04-12T13:34:56.997Z</time></trkpt><trkpt lat="44.924782892811635" lon="-1.126989894942338"><ele>25.2</ele><time>2026-04-12T13:34:57.997Z</time></trkpt><trkpt lat="44.92489196530414" lon="-1.1269522153316147"><ele>24.6</ele><time>2026-04-12T13:34:58.997Z</time></trkpt><trkpt lat="44.924982515803435" lon="-1.1269266490398684"><ele>24.0</ele><time>2026-04-12T13:34:59.997Z</time></trkpt><trkpt lat="44.92504746342277" lon="-1.126900815035824"><ele>23.0</ele><time>2026-04-12T13:35:00.997Z</time></trkpt><trkpt lat="44.92512476795206" lon="-1.1269436140933822"><ele>22.0</ele><time>2026-04-12T13:35:03Z</time></trkpt><trkpt lat="44.92514829628347" lon="-1.1270311567848488"><ele>21.0</ele><time>2026-04-12T13:35:04Z</time></trkpt><trkpt lat="44.92518382923543" lon="-1.127159927364874"><ele>20.0</ele><time>2026-04-12T13:35:05Z</time></trkpt><trkpt lat="44.92523777853246" lon="-1.1273125495368594"><ele>19.0</ele><time>2026-04-12T13:35:05.999Z</time></trkpt><trkpt lat="44.92529264857603" lon="-1.12748085619534"><ele>19.0</ele><time>2026-04-12T13:35:06.999Z</time></trkpt><trkpt lat="44.92534409411866" lon="-1.1276311721377004"><ele>19.0</ele><time>2026-04-12T13:35:07.999Z</time></trkpt><trkpt lat="44.925394165182595" lon="-1.1277660765759179"><ele>19.0</ele><time>2026-04-12T13:35:08.999Z</time></trkpt><trkpt lat="44.925440252263876" lon="-1.1278437847345784"><ele>19.0</ele><time>2026-04-12T13:35:09.999Z</time></trkpt><trkpt lat="44.925535620797206" lon="-1.127876566807268"><ele>19.0</ele><time>2026-04-12T13:35:11.999Z</time></trkpt><trkpt lat="44.925636082837784" lon="-1.127884641271046"><ele>19.0</ele><time>2026-04-12T13:35:12.999Z</time></trkpt><trkpt lat="44.925706031037336" lon="-1.1278875208491494"><ele>19.0</ele><time>2026-04-12T13:35:13.999Z</time></trkpt><trkpt lat="44.92577238792739" lon="-1.1279386402007194"><ele>19.0</ele><time>2026-04-12T13:35:14.999Z</time></trkpt><trkpt lat="44.92584803283407" lon="-1.127981848936987"><ele>19.0</ele><time>2026-04-12T13:35:15.999Z</time></trkpt><trkpt lat="44.9259173135017" lon="-1.127993556910894"><ele>19.0</ele><time>2026-04-12T13:35:16.999Z</time></trkpt><trkpt lat="44.925984549430794" lon="-1.1280076089060052"><ele>19.0</ele><time>2026-04-12T13:35:17.999Z</time></trkpt><trkpt lat="44.926175165741434" lon="-1.127963131393137"><ele>19.2</ele><time>2026-04-12T13:35:18.999Z</time></trkpt><trkpt lat="44.92631234956068" lon="-1.1279396087022606"><ele>19.4</ele><time>2026-04-12T13:35:19.999Z</time></trkpt><trkpt lat="44.92641197225163" lon="-1.1279242230285473"><ele>19.6</ele><time>2026-04-12T13:35:20.999Z</time></trkpt><trkpt lat="44.926507024095926" lon="-1.1279063287598017"><ele>19.8</ele><time>2026-04-12T13:35:21.999Z</time></trkpt><trkpt lat="44.92658998136919" lon="-1.1278959880939385"><ele>20.0</ele><time>2026-04-12T13:35:22.999Z</time></trkpt><trkpt lat="44.92667359424517" lon="-1.1279022967566161"><ele>20.166666666666668</ele><time>2026-04-12T13:35:23.999Z</time></trkpt><trkpt lat="44.926746336712526" lon="-1.1279384243456663"><ele>20.333333333333336</ele><time>2026-04-12T13:35:24.999Z</time></trkpt><trkpt lat="44.92682708264279" lon="-1.1280149753996866"><ele>20.5</ele><time>2026-04-12T13:35:27Z</time></trkpt><trkpt lat="44.926872417808966" lon="-1.1280868934915471"><ele>20.666666666666668</ele><time>2026-04-12T13:35:31Z</time></trkpt><trkpt lat="44.92693858241713" lon="-1.1282001794979208"><ele>20.833333333333332</ele><time>2026-04-12T13:35:33Z</time></trkpt><trkpt lat="44.92699927141557" lon="-1.1282751888314355"><ele>21.0</ele><time>2026-04-12T13:35:34Z</time></trkpt><trkpt lat="44.927065095902776" lon="-1.1283633342728265"><ele>21.5</ele><time>2026-04-12T13:35:35Z</time></trkpt><trkpt lat="44.9271496518671" lon="-1.1284365581325009"><ele>22.0</ele><time>2026-04-12T13:35:36Z</time></trkpt><trkpt lat="44.92726021990443" lon="-1.1285261835794211"><ele>22.5</ele><time>2026-04-12T13:35:37Z</time></trkpt><trkpt lat="44.92737923755359" lon="-1.1286464199490593"><ele>23.0</ele><time>2026-04-12T13:35:38Z</time></trkpt><trkpt lat="44.92747069826814" lon="-1.128752482752245"><ele>23.0</ele><time>2026-04-12T13:35:39Z</time></trkpt><trkpt lat="44.92753696322606" lon="-1.1288333099694265"><ele>23.0</ele><time>2026-04-12T13:35:40Z</time></trkpt><trkpt lat="44.92762902716449" lon="-1.1289381314571267"><ele>23.0</ele><time>2026-04-12T13:35:42Z</time></trkpt><trkpt lat="44.92766365488439" lon="-1.1290219961578294"><ele>23.0</ele><time>2026-04-12T13:35:43Z</time></trkpt><trkpt lat="44.92775767942547" lon="-1.1290891641807081"><ele>23.0</ele><time>2026-04-12T13:35:45Z</time></trkpt><trkpt lat="44.92781327232577" lon="-1.1291491410669783"><ele>22.5</ele><time>2026-04-12T13:35:46Z</time></trkpt><trkpt lat="44.92790961296142" lon="-1.129333023824033"><ele>22.0</ele><time>2026-04-12T13:35:48Z</time></trkpt><trkpt lat="44.92795992309899" lon="-1.1294305016249933"><ele>21.5</ele><time>2026-04-12T13:35:49Z</time></trkpt><trkpt lat="44.92802354856426" lon="-1.1295305650601528"><ele>21.0</ele><time>2026-04-12T13:35:50Z</time></trkpt><trkpt lat="44.928100054830125" lon="-1.1296390260754374"><ele>21.0</ele><time>2026-04-12T13:35:51Z</time></trkpt><trkpt lat="44.928195164451274" lon="-1.1297774076017486"><ele>21.0</ele><time>2026-04-12T13:35:52Z</time></trkpt><trkpt lat="44.92828315263015" lon="-1.1299072161036807"><ele>21.0</ele><time>2026-04-12T13:35:53Z</time></trkpt><trkpt lat="44.92838258297427" lon="-1.1300553314984918"><ele>21.0</ele><time>2026-04-12T13:35:54Z</time></trkpt><trkpt lat="44.92846833294018" lon="-1.1301723864143653"><ele>20.25</ele><time>2026-04-12T13:35:55Z</time></trkpt><trkpt lat="44.9285579543315" lon="-1.1302769437296056"><ele>19.5</ele><time>2026-04-12T13:35:56Z</time></trkpt><trkpt lat="44.928659264745846" lon="-1.130386804392425"><ele>18.75</ele><time>2026-04-12T13:35:57Z</time></trkpt><trkpt lat="44.92875639911554" lon="-1.1304933840524967"><ele>18.0</ele><time>2026-04-12T13:35:58Z</time></trkpt><trkpt lat="44.92881334493006" lon="-1.130593836857775"><ele>19.0</ele><time>2026-04-12T13:35:59Z</time></trkpt><trkpt lat="44.92888291482406" lon="-1.1307277258567254"><ele>20.0</ele><time>2026-04-12T13:36:00Z</time></trkpt><trkpt lat="44.92894545052468" lon="-1.1308613849757565"><ele>21.0</ele><time>2026-04-12T13:36:01Z</time></trkpt><trkpt lat="44.929007786076184" lon="-1.131015633968308"><ele>22.0</ele><time>2026-04-12T13:36:02Z</time></trkpt><trkpt lat="44.929049960202974" lon="-1.1311643901594834"><ele>22.0</ele><time>2026-04-12T13:36:03Z</time></trkpt><trkpt lat="44.92908895170596" lon="-1.1312844016353563"><ele>22.0</ele><time>2026-04-12T13:36:04Z</time></trkpt><trkpt lat="44.92916005471266" lon="-1.1314252263191444"><ele>22.0</ele><time>2026-04-12T13:36:04.999Z</time></trkpt><trkpt lat="44.92921969103033" lon="-1.13155311570021"><ele>22.0</ele><time>2026-04-12T13:36:05.999Z</time></trkpt><trkpt lat="44.92927049055871" lon="-1.1316675111013548"><ele>22.0</ele><time>2026-04-12T13:36:06.999Z</time></trkpt><trkpt lat="44.929347875028455" lon="-1.1318117444365814"><ele>21.400000000000002</ele><time>2026-04-12T13:36:07.999Z</time></trkpt><trkpt lat="44.929423602097955" lon="-1.131935581564367"><ele>20.8</ele><time>2026-04-12T13:36:08.999Z</time></trkpt><trkpt lat="44.92951062217667" lon="-1.1320518171672198"><ele>20.2</ele><time>2026-04-12T13:36:09.999Z</time></trkpt><trkpt lat="44.929565877648585" lon="-1.1321207330100318"><ele>19.6</ele><time>2026-04-12T13:36:10.999Z</time></trkpt><trkpt lat="44.929642056926596" lon="-1.1322107032520095"><ele>19.0</ele><time>2026-04-12T13:36:11.999Z</time></trkpt><trkpt lat="44.92972123886922" lon="-1.1322857937036301"><ele>19.0</ele><time>2026-04-12T13:36:12.999Z</time></trkpt><trkpt lat="44.92981039056856" lon="-1.1323504938060494"><ele>19.0</ele><time>2026-04-12T13:36:13.999Z</time></trkpt><trkpt lat="44.929876068687605" lon="-1.1323929675692632"><ele>19.0</ele><time>2026-04-12T13:36:14.999Z</time></trkpt><trkpt lat="44.92996203491891" lon="-1.1324107293018577"><ele>19.0</ele><time>2026-04-12T13:36:18Z</time></trkpt><trkpt lat="44.93005595714602" lon="-1.132420490332278"><ele>19.0</ele><time>2026-04-12T13:36:19.999Z</time></trkpt><trkpt lat="44.930119195734385" lon="-1.1324148923594903"><ele>19.0</ele><time>2026-04-12T13:36:35.999Z</time></trkpt><trkpt lat="44.930092970415984" lon="-1.132499970625642"><ele>19.5</ele><time>2026-04-12T13:36:41.999Z</time></trkpt><trkpt lat="44.93000468402322" lon="-1.1326186448895916"><ele>20.0</ele><time>2026-04-12T13:36:45.999Z</time></trkpt><trkpt lat="44.92994124741233" lon="-1.1326588718478159"><ele>20.5</ele><time>2026-04-12T13:36:46.999Z</time></trkpt><trkpt lat="44.92987652370994" lon="-1.1326620299327617"><ele>21.0</ele><time>2026-04-12T13:36:47.999Z</time></trkpt><trkpt lat="44.92981142882658" lon="-1.1326736326004818"><ele>21.5</ele><time>2026-04-12T13:36:48.999Z</time></trkpt><trkpt lat="44.929731643224315" lon="-1.1326747830044008"><ele>22.0</ele><time>2026-04-12T13:36:49.999Z</time></trkpt><trkpt lat="44.929648342185374" lon="-1.1326743209042918"><ele>22.0</ele><time>2026-04-12T13:36:50.999Z</time></trkpt><trkpt lat="44.92954845329088" lon="-1.132682422342977"><ele>22.0</ele><time>2026-04-12T13:36:51.998Z</time></trkpt><trkpt lat="44.929466932072046" lon="-1.132687821193816"><ele>22.0</ele><time>2026-04-12T13:36:52.998Z</time></trkpt><trkpt lat="44.92939460234051" lon="-1.132708595774105"><ele>22.0</ele><time>2026-04-12T13:36:53.998Z</time></trkpt><trkpt lat="44.92932169661282" lon="-1.1327613755974326"><ele>22.0</ele><time>2026-04-12T13:36:54.998Z</time></trkpt><trkpt lat="44.929259901189766" lon="-1.1328357170749346"><ele>22.0</ele><time>2026-04-12T13:36:55.998Z</time></trkpt><trkpt lat="44.92917424887947" lon="-1.1329985808539955"><ele>23.0</ele><time>2026-04-12T13:36:56.998Z</time></trkpt><trkpt lat="44.92910629042689" lon="-1.1331470797535437"><ele>24.0</ele><time>2026-04-12T13:36:57.998Z</time></trkpt><trkpt lat="44.92905702405966" lon="-1.1333370303950114"><ele>25.0</ele><time>2026-04-12T13:36:58.998Z</time></trkpt><trkpt lat="44.9290000903441" lon="-1.133520463581001"><ele>26.0</ele><time>2026-04-12T13:36:59.998Z</time></trkpt><trkpt lat="44.92892000542055" lon="-1.1337375922447621"><ele>26.333333333333332</ele><time>2026-04-12T13:37:00.998Z</time></trkpt><trkpt lat="44.928837573701564" lon="-1.1339450626919783"><ele>26.666666666666664</ele><time>2026-04-12T13:37:01.998Z</time></trkpt><trkpt lat="44.92875834747531" lon="-1.134181769134522"><ele>27.0</ele><time>2026-04-12T13:37:02.998Z</time></trkpt><trkpt lat="44.92867423411982" lon="-1.1343878107892724"><ele>27.25</ele><time>2026-04-12T13:37:03.998Z</time></trkpt><trkpt lat="44.928638002310144" lon="-1.1345907920812173"><ele>27.5</ele><time>2026-04-12T13:37:04.998Z</time></trkpt><trkpt lat="44.92858059163736" lon="-1.1347961186965507"><ele>27.75</ele><time>2026-04-12T13:37:05.998Z</time></trkpt><trkpt lat="44.928538869355904" lon="-1.1349376404532288"><ele>28.0</ele><time>2026-04-12T13:37:06.998Z</time></trkpt><trkpt lat="44.928497867963735" lon="-1.1350583393249905"><ele>28.0</ele><time>2026-04-12T13:37:07.998Z</time></trkpt><trkpt lat="44.92847280579393" lon="-1.135197642805013"><ele>28.0</ele><time>2026-04-12T13:37:09Z</time></trkpt><trkpt lat="44.92846416201714" lon="-1.135393395404845"><ele>28.0</ele><time>2026-04-12T13:37:10Z</time></trkpt><trkpt lat="44.928459852524206" lon="-1.1355969315976762"><ele>28.0</ele><time>2026-04-12T13:37:11Z</time></trkpt><trkpt lat="44.92845012774074" lon="-1.1358018205052887"><ele>28.0</ele><time>2026-04-12T13:37:12Z</time></trkpt><trkpt lat="44.92845723541609" lon="-1.1360021538254028"><ele>28.0</ele><time>2026-04-12T13:37:13Z</time></trkpt><trkpt lat="44.92843971682745" lon="-1.1361513526779325"><ele>28.0</ele><time>2026-04-12T13:37:14Z</time></trkpt><trkpt lat="44.928399069695146" lon="-1.13631086283964"><ele>28.0</ele><time>2026-04-12T13:37:15Z</time></trkpt><trkpt lat="44.928335073115065" lon="-1.1364436076588522"><ele>28.000000000000004</ele><time>2026-04-12T13:37:16Z</time></trkpt><trkpt lat="44.92827067698821" lon="-1.1365762037386897"><ele>28.0</ele><time>2026-04-12T13:37:17Z</time></trkpt><trkpt lat="44.92823235015088" lon="-1.136678542448013"><ele>28.0</ele><time>2026-04-12T13:37:18Z</time></trkpt><trkpt lat="44.928200313406535" lon="-1.1367762425601284"><ele>28.0</ele><time>2026-04-12T13:37:19Z</time></trkpt><trkpt lat="44.92823390763313" lon="-1.1368541133148653"><ele>28.000000000000004</ele><time>2026-04-12T13:37:22Z</time></trkpt><trkpt lat="44.9283166285094" lon="-1.1368335408729604"><ele>28.0</ele><time>2026-04-12T13:37:38Z</time></trkpt><trkpt lat="44.928449784676985" lon="-1.1367959399401903"><ele>27.4</ele><time>2026-04-12T13:37:40Z</time></trkpt><trkpt lat="44.92853122488464" lon="-1.1367656623262576"><ele>26.799999999999997</ele><time>2026-04-12T13:37:41Z</time></trkpt><trkpt lat="44.92862914686775" lon="-1.1367610268498127"><ele>26.2</ele><time>2026-04-12T13:37:42Z</time></trkpt><trkpt lat="44.92874912697914" lon="-1.1367311214647058"><ele>25.6</ele><time>2026-04-12T13:37:43Z</time></trkpt><trkpt lat="44.9288715277859" lon="-1.1367169785902214"><ele>25.0</ele><time>2026-04-12T13:37:44Z</time></trkpt><trkpt lat="44.928989251896944" lon="-1.1367026058096132"><ele>25.0</ele><time>2026-04-12T13:37:45Z</time></trkpt><trkpt lat="44.92908729130853" lon="-1.1366879325786072"><ele>25.0</ele><time>2026-04-12T13:37:46Z</time></trkpt><trkpt lat="44.929212413114044" lon="-1.1366826960227896"><ele>25.0</ele><time>2026-04-12T13:37:47Z</time></trkpt><trkpt lat="44.92931644695714" lon="-1.1367002145754115"><ele>25.0</ele><time>2026-04-12T13:37:48Z</time></trkpt><trkpt lat="44.92947085639955" lon="-1.1367091930505486"><ele>25.0</ele><time>2026-04-12T13:37:49Z</time></trkpt><trkpt lat="44.92962169377152" lon="-1.1367237237527708"><ele>25.0</ele><time>2026-04-12T13:37:50Z</time></trkpt><trkpt lat="44.92974576695017" lon="-1.1367282502747529"><ele>25.0</ele><time>2026-04-12T13:37:51Z</time></trkpt><trkpt lat="44.929864239674764" lon="-1.1367167680028691"><ele>25.0</ele><time>2026-04-12T13:37:52Z</time></trkpt><trkpt lat="44.92997470546803" lon="-1.136720574518028"><ele>25.0</ele><time>2026-04-12T13:37:53Z</time></trkpt><trkpt lat="44.93011744281091" lon="-1.1367371761458331"><ele>25.0</ele><time>2026-04-12T13:37:54Z</time></trkpt><trkpt lat="44.93023191470422" lon="-1.1367397114539062"><ele>25.0</ele><time>2026-04-12T13:37:55Z</time></trkpt><trkpt lat="44.93033033940759" lon="-1.1367263745655813"><ele>25.0</ele><time>2026-04-12T13:37:56Z</time></trkpt><trkpt lat="44.9304289157566" lon="-1.1366819034703521"><ele>25.0</ele><time>2026-04-12T13:37:57Z</time></trkpt><trkpt lat="44.930552163201206" lon="-1.1366225691884146"><ele>25.0</ele><time>2026-04-12T13:37:58Z</time></trkpt><trkpt lat="44.93066655410263" lon="-1.1365822743770781"><ele>25.0</ele><time>2026-04-12T13:37:59Z</time></trkpt><trkpt lat="44.930800493506226" lon="-1.1365323032982924"><ele>25.0</ele><time>2026-04-12T13:38:00Z</time></trkpt><trkpt lat="44.93093298945705" lon="-1.1364764702810384"><ele>25.75</ele><time>2026-04-12T13:38:01Z</time></trkpt><trkpt lat="44.931076575248866" lon="-1.13642813538784"><ele>26.5</ele><time>2026-04-12T13:38:02Z</time></trkpt><trkpt lat="44.931203080605854" lon="-1.136394118774574"><ele>27.25</ele><time>2026-04-12T13:38:03Z</time></trkpt><trkpt lat="44.93131588066487" lon="-1.1363434724293504"><ele>28.0</ele><time>2026-04-12T13:38:04Z</time></trkpt><trkpt lat="44.93144565033259" lon="-1.1362757978309481"><ele>28.0</ele><time>2026-04-12T13:38:05Z</time></trkpt><trkpt lat="44.93156610709085" lon="-1.136211707427136"><ele>28.0</ele><time>2026-04-12T13:38:05.999Z</time></trkpt><trkpt lat="44.931690207782935" lon="-1.136175672322264"><ele>28.0</ele><time>2026-04-12T13:38:06.999Z</time></trkpt><trkpt lat="44.931823134492014" lon="-1.1361633013161132"><ele>28.0</ele><time>2026-04-12T13:38:07.999Z</time></trkpt><trkpt lat="44.93196997975718" lon="-1.136132989527637"><ele>29.0</ele><time>2026-04-12T13:38:08.999Z</time></trkpt><trkpt lat="44.93211462739494" lon="-1.1361126061941398"><ele>30.0</ele><time>2026-04-12T13:38:09.999Z</time></trkpt><trkpt lat="44.93229644187138" lon="-1.1360985345601065"><ele>31.0</ele><time>2026-04-12T13:38:10.999Z</time></trkpt><trkpt lat="44.93245996923992" lon="-1.1360741375598995"><ele>30.25</ele><time>2026-04-12T13:38:11.999Z</time></trkpt><trkpt lat="44.93262190951121" lon="-1.136035182454954"><ele>29.5</ele><time>2026-04-12T13:38:12.999Z</time></trkpt><trkpt lat="44.93275988553682" lon="-1.1360011152726122"><ele>28.75</ele><time>2026-04-12T13:38:13.999Z</time></trkpt><trkpt lat="44.93286692590307" lon="-1.1359722124927238"><ele>28.0</ele><time>2026-04-12T13:38:14.999Z</time></trkpt><trkpt lat="44.93295321054708" lon="-1.135953537050025"><ele>28.0</ele><time>2026-04-12T13:38:15.999Z</time></trkpt><trkpt lat="44.93307499548858" lon="-1.135942397625202"><ele>28.0</ele><time>2026-04-12T13:38:16.999Z</time></trkpt><trkpt lat="44.93321827418934" lon="-1.1359737857982468"><ele>28.0</ele><time>2026-04-12T13:38:17.999Z</time></trkpt><trkpt lat="44.933365003507646" lon="-1.1359968700798535"><ele>28.0</ele><time>2026-04-12T13:38:18.999Z</time></trkpt><trkpt lat="44.93349051824033" lon="-1.1360199604637602"><ele>26.5</ele><time>2026-04-12T13:38:19.999Z</time></trkpt><trkpt lat="44.93363698614292" lon="-1.1360314833381893"><ele>25.0</ele><time>2026-04-12T13:38:20.999Z</time></trkpt><trkpt lat="44.93376867312145" lon="-1.1360511658239791"><ele>23.5</ele><time>2026-04-12T13:38:21.999Z</time></trkpt><trkpt lat="44.933902158383596" lon="-1.136075491577225"><ele>22.0</ele><time>2026-04-12T13:38:22.999Z</time></trkpt><trkpt lat="44.933994558546914" lon="-1.1360927170021737"><ele>22.0</ele><time>2026-04-12T13:38:23.999Z</time></trkpt><trkpt lat="44.9340792064088" lon="-1.136150291725897"><ele>22.0</ele><time>2026-04-12T13:38:25.999Z</time></trkpt><trkpt lat="44.934158658292915" lon="-1.136251099344654"><ele>22.0</ele><time>2026-04-12T13:38:26.999Z</time></trkpt><trkpt lat="44.93420477462384" lon="-1.136335571560074"><ele>22.0</ele><time>2026-04-12T13:38:27.999Z</time></trkpt><trkpt lat="44.93427876335525" lon="-1.1364214303831173"><ele>22.0</ele><time>2026-04-12T13:38:29.999Z</time></trkpt><trkpt lat="44.93434269934669" lon="-1.1365849323395105"><ele>22.200000000000003</ele><time>2026-04-12T13:38:31.999Z</time></trkpt><trkpt lat="44.934398160843394" lon="-1.1367293498460063"><ele>22.4</ele><time>2026-04-12T13:38:32.999Z</time></trkpt><trkpt lat="44.9344428553567" lon="-1.136835233119684"><ele>22.6</ele><time>2026-04-12T13:38:33.999Z</time></trkpt><trkpt lat="44.93449535261589" lon="-1.1369535513063243"><ele>22.799999999999997</ele><time>2026-04-12T13:38:34.999Z</time></trkpt><trkpt lat="44.934546280013514" lon="-1.1370609759112298"><ele>23.0</ele><time>2026-04-12T13:38:35.999Z</time></trkpt><trkpt lat="44.93459892608144" lon="-1.1371448663998953"><ele>23.0</ele><time>2026-04-12T13:38:36.999Z</time></trkpt><trkpt lat="44.93465472816582" lon="-1.1372369408383918"><ele>23.0</ele><time>2026-04-12T13:38:38.999Z</time></trkpt><trkpt lat="44.93471117943641" lon="-1.13728171642862"><ele>23.0</ele><time>2026-04-12T13:38:41.999Z</time></trkpt><trkpt lat="44.93464748890852" lon="-1.1373085600732435"><ele>23.0</ele><time>2026-04-12T13:39:12.998Z</time></trkpt><trkpt lat="44.934626186266996" lon="-1.1372142965467638"><ele>23.0</ele><time>2026-04-12T13:39:15Z</time></trkpt><trkpt lat="44.93459523504631" lon="-1.1371260999905652"><ele>23.0</ele><time>2026-04-12T13:39:16Z</time></trkpt><trkpt lat="44.93455957691254" lon="-1.1370505545154452"><ele>23.0</ele><time>2026-04-12T13:39:17Z</time></trkpt><trkpt lat="44.93451038284985" lon="-1.1369735117397046"><ele>23.0</ele><time>2026-04-12T13:39:18Z</time></trkpt><trkpt lat="44.934460310759" lon="-1.136882086814631"><ele>23.0</ele><time>2026-04-12T13:39:19Z</time></trkpt><trkpt lat="44.93441086283434" lon="-1.1367785037768696"><ele>23.0</ele><time>2026-04-12T13:39:20Z</time></trkpt><trkpt lat="44.934338015403334" lon="-1.136638931128232"><ele>23.0</ele><time>2026-04-12T13:39:22Z</time></trkpt><trkpt lat="44.934368993021316" lon="-1.13675927310156"><ele>23.0</ele><time>2026-04-12T13:39:35Z</time></trkpt><trkpt lat="44.93441045060922" lon="-1.1368278609391562"><ele>23.0</ele><time>2026-04-12T13:39:36Z</time></trkpt><trkpt lat="44.93445461422598" lon="-1.1369091835661245"><ele>23.0</ele><time>2026-04-12T13:39:37Z</time></trkpt><trkpt lat="44.93449817680236" lon="-1.1370077363572568"><ele>23.0</ele><time>2026-04-12T13:39:38Z</time></trkpt><trkpt lat="44.934565965439205" lon="-1.1371308336170816"><ele>23.0</ele><time>2026-04-12T13:39:39Z</time></trkpt><trkpt lat="44.93461020086453" lon="-1.1372132583008645"><ele>23.0</ele><time>2026-04-12T13:39:40Z</time></trkpt><trkpt lat="44.93468578775739" lon="-1.1372774791830935"><ele>23.0</ele><time>2026-04-12T13:39:42Z</time></trkpt><trkpt lat="44.93479029194281" lon="-1.1371355676392534"><ele>23.0</ele><time>2026-04-12T13:39:45Z</time></trkpt><trkpt lat="44.934865498172925" lon="-1.13704411788539"><ele>23.0</ele><time>2026-04-12T13:39:46Z</time></trkpt><trkpt lat="44.93495776292014" lon="-1.1369297081739478"><ele>23.0</ele><time>2026-04-12T13:39:47Z</time></trkpt><trkpt lat="44.93506044111894" lon="-1.1367849755581922"><ele>23.0</ele><time>2026-04-12T13:39:48Z</time></trkpt><trkpt lat="44.93515787057197" lon="-1.1366585709377601"><ele>23.75</ele><time>2026-04-12T13:39:49Z</time></trkpt><trkpt lat="44.93526558601107" lon="-1.1365250492117132"><ele>24.5</ele><time>2026-04-12T13:39:50Z</time></trkpt><trkpt lat="44.93537872579021" lon="-1.1363938248623553"><ele>25.25</ele><time>2026-04-12T13:39:51Z</time></trkpt><trkpt lat="44.935478878861595" lon="-1.1362838877811887"><ele>26.0</ele><time>2026-04-12T13:39:52Z</time></trkpt><trkpt lat="44.935586090662106" lon="-1.1361828497386017"><ele>26.0</ele><time>2026-04-12T13:39:53Z</time></trkpt><trkpt lat="44.93569787159818" lon="-1.1361028971924474"><ele>26.0</ele><time>2026-04-12T13:39:54Z</time></trkpt><trkpt lat="44.93580765282833" lon="-1.1360508152197697"><ele>26.0</ele><time>2026-04-12T13:39:55Z</time></trkpt><trkpt lat="44.935943462135604" lon="-1.135978128472722"><ele>26.0</ele><time>2026-04-12T13:39:56Z</time></trkpt><trkpt lat="44.936058068247455" lon="-1.1359269914357744"><ele>25.5</ele><time>2026-04-12T13:39:57Z</time></trkpt><trkpt lat="44.93615534650142" lon="-1.1358753357617613"><ele>25.0</ele><time>2026-04-12T13:39:58Z</time></trkpt><trkpt lat="44.93626335874328" lon="-1.13579455662644"><ele>24.5</ele><time>2026-04-12T13:39:59Z</time></trkpt><trkpt lat="44.93640461959261" lon="-1.1356948421025086"><ele>24.0</ele><time>2026-04-12T13:40:00Z</time></trkpt><trkpt lat="44.93654828982815" lon="-1.1356713252692052"><ele>24.0</ele><time>2026-04-12T13:40:01Z</time></trkpt><trkpt lat="44.936700427947244" lon="-1.1356262699658526"><ele>24.0</ele><time>2026-04-12T13:40:02Z</time></trkpt><trkpt lat="44.9368288259685" lon="-1.1355838196421069"><ele>24.0</ele><time>2026-04-12T13:40:03Z</time></trkpt><trkpt lat="44.9369790785364" lon="-1.1355493923679651"><ele>24.0</ele><time>2026-04-12T13:40:04Z</time></trkpt><trkpt lat="44.93712466031241" lon="-1.1355287192712997"><ele>24.0</ele><time>2026-04-12T13:40:05Z</time></trkpt><trkpt lat="44.93726332729012" lon="-1.1355209266289321"><ele>24.0</ele><time>2026-04-12T13:40:05.999Z</time></trkpt><trkpt lat="44.93738755805574" lon="-1.1355250637834187"><ele>24.0</ele><time>2026-04-12T13:40:06.999Z</time></trkpt><trkpt lat="44.93750565128361" lon="-1.135526252542293"><ele>24.0</ele><time>2026-04-12T13:40:07.999Z</time></trkpt><trkpt lat="44.93762392927157" lon="-1.1355450522180206"><ele>24.5</ele><time>2026-04-12T13:40:08.999Z</time></trkpt><trkpt lat="44.9377645576168" lon="-1.1355547254579346"><ele>25.0</ele><time>2026-04-12T13:40:09.999Z</time></trkpt><trkpt lat="44.93792207977897" lon="-1.1355842643919158"><ele>25.5</ele><time>2026-04-12T13:40:10.999Z</time></trkpt><trkpt lat="44.93805339875046" lon="-1.1356243258974539"><ele>26.0</ele><time>2026-04-12T13:40:11.999Z</time></trkpt><trkpt lat="44.93820714605216" lon="-1.1356637223368653"><ele>26.0</ele><time>2026-04-12T13:40:12.999Z</time></trkpt><trkpt lat="44.93835602696247" lon="-1.135714732297274"><ele>26.0</ele><time>2026-04-12T13:40:13.999Z</time></trkpt><trkpt lat="44.938502055317414" lon="-1.1357722978123335"><ele>26.0</ele><time>2026-04-12T13:40:14.999Z</time></trkpt><trkpt lat="44.93866803648319" lon="-1.1358631437253524"><ele>25.666666666666664</ele><time>2026-04-12T13:40:15.999Z</time></trkpt><trkpt lat="44.93881258888721" lon="-1.1359591879944457"><ele>25.333333333333336</ele><time>2026-04-12T13:40:16.999Z</time></trkpt><trkpt lat="44.93892815672637" lon="-1.1360405583449265"><ele>25.0</ele><time>2026-04-12T13:40:17.999Z</time></trkpt><trkpt lat="44.939076376828034" lon="-1.136129908547711"><ele>25.0</ele><time>2026-04-12T13:40:18.999Z</time></trkpt><trkpt lat="44.93920600049298" lon="-1.1362313401896813"><ele>25.0</ele><time>2026-04-12T13:40:19.999Z</time></trkpt><trkpt lat="44.939333171785016" lon="-1.1363072789584836"><ele>25.0</ele><time>2026-04-12T13:40:20.999Z</time></trkpt><trkpt lat="44.939453277108434" lon="-1.13635321073084"><ele>25.0</ele><time>2026-04-12T13:40:21.999Z</time></trkpt><trkpt lat="44.93957801007881" lon="-1.1364008810408766"><ele>24.75</ele><time>2026-04-12T13:40:22.999Z</time></trkpt><trkpt lat="44.93969843735565" lon="-1.1364542707387029"><ele>24.5</ele><time>2026-04-12T13:40:23.999Z</time></trkpt><trkpt lat="44.93981202218574" lon="-1.1365044941494042"><ele>24.25</ele><time>2026-04-12T13:40:24.999Z</time></trkpt><trkpt lat="44.93992655135532" lon="-1.1365461567814779"><ele>24.0</ele><time>2026-04-12T13:40:25.999Z</time></trkpt><trkpt lat="44.94007611749978" lon="-1.1365774109895903"><ele>24.0</ele><time>2026-04-12T13:40:26.999Z</time></trkpt><trkpt lat="44.94021627591504" lon="-1.136599431833719"><ele>24.0</ele><time>2026-04-12T13:40:27.999Z</time></trkpt><trkpt lat="44.94034408419073" lon="-1.136601662479356"><ele>24.0</ele><time>2026-04-12T13:40:28.999Z</time></trkpt><trkpt lat="44.940449216835276" lon="-1.1366135989887958"><ele>24.0</ele><time>2026-04-12T13:40:29.999Z</time></trkpt><trkpt lat="44.94055431966699" lon="-1.136627994965229"><ele>24.0</ele><time>2026-04-12T13:40:30.999Z</time></trkpt><trkpt lat="44.94067107254473" lon="-1.1366319611540072"><ele>24.0</ele><time>2026-04-12T13:40:31.999Z</time></trkpt><trkpt lat="44.94082999144707" lon="-1.136613170929757"><ele>24.0</ele><time>2026-04-12T13:40:32.999Z</time></trkpt><trkpt lat="44.9409856024357" lon="-1.136590194313022"><ele>24.0</ele><time>2026-04-12T13:40:33.999Z</time></trkpt><trkpt lat="44.94112042284723" lon="-1.136569001099017"><ele>24.333333333333336</ele><time>2026-04-12T13:40:34.999Z</time></trkpt><trkpt lat="44.941254158770356" lon="-1.1365298904311505"><ele>24.666666666666668</ele><time>2026-04-12T13:40:35.999Z</time></trkpt><trkpt lat="44.941410050278" lon="-1.1364706571216217"><ele>25.0</ele><time>2026-04-12T13:40:36.999Z</time></trkpt><trkpt lat="44.94157428981772" lon="-1.136416062703558"><ele>25.0</ele><time>2026-04-12T13:40:37.999Z</time></trkpt><trkpt lat="44.94170279902423" lon="-1.1363790599140444"><ele>25.0</ele><time>2026-04-12T13:40:38.999Z</time></trkpt><trkpt lat="44.94183094372138" lon="-1.1363324523091773"><ele>25.0</ele><time>2026-04-12T13:40:39.999Z</time></trkpt><trkpt lat="44.941946822125345" lon="-1.1362888041135955"><ele>25.0</ele><time>2026-04-12T13:40:40.999Z</time></trkpt><trkpt lat="44.94207541158673" lon="-1.136245117252262"><ele>25.0</ele><time>2026-04-12T13:40:41.999Z</time></trkpt><trkpt lat="44.94217717878584" lon="-1.136218076136771"><ele>25.0</ele><time>2026-04-12T13:40:42.999Z</time></trkpt><trkpt lat="44.94230469781091" lon="-1.1361773239161546"><ele>25.0</ele><time>2026-04-12T13:40:43.999Z</time></trkpt><trkpt lat="44.9424126792885" lon="-1.1361438073059331"><ele>25.0</ele><time>2026-04-12T13:40:44.999Z</time></trkpt><trkpt lat="44.94255334220473" lon="-1.1361049631579831"><ele>24.666666666666668</ele><time>2026-04-12T13:40:45.999Z</time></trkpt><trkpt lat="44.94269163263842" lon="-1.1360670427182156"><ele>24.333333333333336</ele><time>2026-04-12T13:40:46.999Z</time></trkpt><trkpt lat="44.94289285302447" lon="-1.1359791381829873"><ele>24.0</ele><time>2026-04-12T13:40:47.999Z</time></trkpt><trkpt lat="44.94302070167151" lon="-1.1359485681276758"><ele>24.0</ele><time>2026-04-12T13:40:48.999Z</time></trkpt><trkpt lat="44.943136485292776" lon="-1.135916858996459"><ele>24.0</ele><time>2026-04-12T13:40:49.999Z</time></trkpt><trkpt lat="44.94324652607012" lon="-1.135877783251065"><ele>24.0</ele><time>2026-04-12T13:40:50.999Z</time></trkpt><trkpt lat="44.943348982348994" lon="-1.135833829943004"><ele>24.0</ele><time>2026-04-12T13:40:51.999Z</time></trkpt><trkpt lat="44.94346150292639" lon="-1.1357898075853665"><ele>24.25</ele><time>2026-04-12T13:40:52.998Z</time></trkpt><trkpt lat="44.943595259665976" lon="-1.1357463594605792"><ele>24.5</ele><time>2026-04-12T13:40:53.998Z</time></trkpt><trkpt lat="44.943751365881205" lon="-1.1357040873746211"><ele>24.75</ele><time>2026-04-12T13:40:54.998Z</time></trkpt><trkpt lat="44.94388476789141" lon="-1.135656994097336"><ele>25.0</ele><time>2026-04-12T13:40:55.998Z</time></trkpt><trkpt lat="44.94402946092913" lon="-1.135607092649203"><ele>25.0</ele><time>2026-04-12T13:40:56.998Z</time></trkpt><trkpt lat="44.94416751240754" lon="-1.1355726430737425"><ele>25.0</ele><time>2026-04-12T13:40:57.998Z</time></trkpt><trkpt lat="44.94431980633386" lon="-1.1355312820406127"><ele>25.0</ele><time>2026-04-12T13:40:58.998Z</time></trkpt><trkpt lat="44.94444475307869" lon="-1.1354899670973047"><ele>25.0</ele><time>2026-04-12T13:40:59.998Z</time></trkpt><trkpt lat="44.9445578345536" lon="-1.1354649638720316"><ele>25.0</ele><time>2026-04-12T13:41:00.998Z</time></trkpt><trkpt lat="44.9446783476512" lon="-1.1354651447992807"><ele>25.0</ele><time>2026-04-12T13:41:01.998Z</time></trkpt><trkpt lat="44.94479722468099" lon="-1.1354681182728825"><ele>25.0</ele><time>2026-04-12T13:41:02.998Z</time></trkpt><trkpt lat="44.94489976042289" lon="-1.1354476433549476"><ele>25.0</ele><time>2026-04-12T13:41:03.998Z</time></trkpt><trkpt lat="44.94500999945652" lon="-1.1354190279590664"><ele>25.0</ele><time>2026-04-12T13:41:04.998Z</time></trkpt><trkpt lat="44.94512687510502" lon="-1.1354115687607624"><ele>25.0</ele><time>2026-04-12T13:41:05.998Z</time></trkpt><trkpt lat="44.945277649539335" lon="-1.1354189080274284"><ele>25.0</ele><time>2026-04-12T13:41:06.998Z</time></trkpt><trkpt lat="44.94544158029756" lon="-1.135430678352509"><ele>25.0</ele><time>2026-04-12T13:41:07.998Z</time></trkpt><trkpt lat="44.945573966383336" lon="-1.135439178556988"><ele>25.0</ele><time>2026-04-12T13:41:08.998Z</time></trkpt><trkpt lat="44.94570567583775" lon="-1.1354541548832506"><ele>25.0</ele><time>2026-04-12T13:41:09.998Z</time></trkpt><trkpt lat="44.94585799239745" lon="-1.1354876665113163"><ele>25.0</ele><time>2026-04-12T13:41:10.998Z</time></trkpt><trkpt lat="44.94600185354291" lon="-1.1355288316622245"><ele>25.0</ele><time>2026-04-12T13:41:11.998Z</time></trkpt><trkpt lat="44.9461611194581" lon="-1.1355831254864854"><ele>25.0</ele><time>2026-04-12T13:41:12.998Z</time></trkpt><trkpt lat="44.946301883880125" lon="-1.1356250758481072"><ele>25.0</ele><time>2026-04-12T13:41:13.998Z</time></trkpt><trkpt lat="44.94642375910048" lon="-1.1356687149526374"><ele>25.0</ele><time>2026-04-12T13:41:14.998Z</time></trkpt><trkpt lat="44.94657549068537" lon="-1.1357296118633462"><ele>25.0</ele><time>2026-04-12T13:41:15.998Z</time></trkpt><trkpt lat="44.946725875637206" lon="-1.1357918085761909"><ele>24.25</ele><time>2026-04-12T13:41:16.998Z</time></trkpt><trkpt lat="44.94686216018374" lon="-1.1358454422151787"><ele>23.5</ele><time>2026-04-12T13:41:17.998Z</time></trkpt><trkpt lat="44.94700166235108" lon="-1.135894340057433"><ele>22.75</ele><time>2026-04-12T13:41:18.998Z</time></trkpt><trkpt lat="44.947146177062" lon="-1.1359524260683385"><ele>22.0</ele><time>2026-04-12T13:41:19.998Z</time></trkpt><trkpt lat="44.94727506875231" lon="-1.1360023529937366"><ele>22.0</ele><time>2026-04-12T13:41:21Z</time></trkpt><trkpt lat="44.947388249696594" lon="-1.136042541518466"><ele>22.0</ele><time>2026-04-12T13:41:22Z</time></trkpt><trkpt lat="44.94750653844633" lon="-1.1360864669746726"><ele>22.0</ele><time>2026-04-12T13:41:23Z</time></trkpt><trkpt lat="44.94763936927719" lon="-1.1361434459493092"><ele>22.0</ele><time>2026-04-12T13:41:24Z</time></trkpt><trkpt lat="44.94779342376916" lon="-1.1361994402013074"><ele>22.25</ele><time>2026-04-12T13:41:25Z</time></trkpt><trkpt lat="44.94792727567883" lon="-1.1362508204533972"><ele>22.5</ele><time>2026-04-12T13:41:26Z</time></trkpt><trkpt lat="44.94804837681873" lon="-1.1362981418084797"><ele>22.75</ele><time>2026-04-12T13:41:27Z</time></trkpt><trkpt lat="44.948198795227846" lon="-1.1363618508522675"><ele>23.0</ele><time>2026-04-12T13:41:28Z</time></trkpt><trkpt lat="44.94835916041013" lon="-1.136418915831778"><ele>23.4</ele><time>2026-04-12T13:41:29Z</time></trkpt><trkpt lat="44.948485657833075" lon="-1.1364673053357628"><ele>23.799999999999997</ele><time>2026-04-12T13:41:30Z</time></trkpt><trkpt lat="44.94859218434398" lon="-1.1365195677707063"><ele>24.2</ele><time>2026-04-12T13:41:31Z</time></trkpt><trkpt lat="44.94868756596479" lon="-1.136556313051432"><ele>24.6</ele><time>2026-04-12T13:41:32Z</time></trkpt><trkpt lat="44.94877585459588" lon="-1.136593160626723"><ele>25.0</ele><time>2026-04-12T13:41:33Z</time></trkpt><trkpt lat="44.94885948724014" lon="-1.136630216366493"><ele>25.000000000000004</ele><time>2026-04-12T13:41:34Z</time></trkpt><trkpt lat="44.94893433283997" lon="-1.1366665804846436"><ele>25.0</ele><time>2026-04-12T13:41:35Z</time></trkpt><trkpt lat="44.948999828207214" lon="-1.1366881831760942"><ele>25.0</ele><time>2026-04-12T13:41:36Z</time></trkpt><trkpt lat="44.949062006332646" lon="-1.136719511372503"><ele>25.0</ele><time>2026-04-12T13:41:37Z</time></trkpt><trkpt lat="44.94912451360196" lon="-1.1367682102552876"><ele>25.000000000000004</ele><time>2026-04-12T13:41:38Z</time></trkpt><trkpt lat="44.949224542707874" lon="-1.1368252825070988"><ele>25.0</ele><time>2026-04-12T13:41:40Z</time></trkpt><trkpt lat="44.94931720303287" lon="-1.1368679721924941"><ele>25.28571428571429</ele><time>2026-04-12T13:41:42Z</time></trkpt><trkpt lat="44.94937951144918" lon="-1.1369010297292246"><ele>25.571428571428573</ele><time>2026-04-12T13:41:43Z</time></trkpt><trkpt lat="44.94943389348129" lon="-1.136947725289839"><ele>25.857142857142858</ele><time>2026-04-12T13:41:44Z</time></trkpt><trkpt lat="44.94948705865215" lon="-1.1369969526404107"><ele>26.142857142857146</ele><time>2026-04-12T13:41:45Z</time></trkpt><trkpt lat="44.949583679865384" lon="-1.1370527095268412"><ele>26.428571428571427</ele><time>2026-04-12T13:41:47Z</time></trkpt><trkpt lat="44.949659850456044" lon="-1.137094737862742"><ele>26.714285714285715</ele><time>2026-04-12T13:41:49Z</time></trkpt><trkpt lat="44.949720117866626" lon="-1.137129135015544"><ele>27.0</ele><time>2026-04-12T13:41:51Z</time></trkpt><trkpt lat="44.949836662336175" lon="-1.1372142823599167"><ele>27.0</ele><time>2026-04-12T13:41:53Z</time></trkpt><trkpt lat="44.9499097498632" lon="-1.1372639689549966"><ele>27.000000000000004</ele><time>2026-04-12T13:41:54Z</time></trkpt><trkpt lat="44.95000736895021" lon="-1.1373126779521543"><ele>27.000000000000004</ele><time>2026-04-12T13:41:55Z</time></trkpt><trkpt lat="44.95009725596597" lon="-1.1373554954010259"><ele>27.0</ele><time>2026-04-12T13:41:56Z</time></trkpt><trkpt lat="44.95019246994878" lon="-1.137414075676949"><ele>27.0</ele><time>2026-04-12T13:41:57Z</time></trkpt><trkpt lat="44.95029399047517" lon="-1.1374790019492995"><ele>26.25</ele><time>2026-04-12T13:41:58Z</time></trkpt><trkpt lat="44.95040730173918" lon="-1.1375500506084235"><ele>25.5</ele><time>2026-04-12T13:41:59Z</time></trkpt><trkpt lat="44.95052595827282" lon="-1.1376141066329506"><ele>24.75</ele><time>2026-04-12T13:42:00Z</time></trkpt><trkpt lat="44.95062395511765" lon="-1.1376800046100806"><ele>24.0</ele><time>2026-04-12T13:42:01Z</time></trkpt><trkpt lat="44.950719565005464" lon="-1.1377405781964618"><ele>24.0</ele><time>2026-04-12T13:42:02Z</time></trkpt><trkpt lat="44.95082286184769" lon="-1.1378100174418713"><ele>24.0</ele><time>2026-04-12T13:42:03Z</time></trkpt><trkpt lat="44.950925207844364" lon="-1.1378713100504747"><ele>24.0</ele><time>2026-04-12T13:42:04Z</time></trkpt><trkpt lat="44.95102556020217" lon="-1.13792364855424"><ele>24.0</ele><time>2026-04-12T13:42:05Z</time></trkpt><trkpt lat="44.95112347366649" lon="-1.137976794769998"><ele>24.0</ele><time>2026-04-12T13:42:06Z</time></trkpt><trkpt lat="44.951205609863855" lon="-1.1380337885339666"><ele>23.799999999999997</ele><time>2026-04-12T13:42:07Z</time></trkpt><trkpt lat="44.95127183390264" lon="-1.1380747635635893"><ele>23.599999999999998</ele><time>2026-04-12T13:42:08Z</time></trkpt><trkpt lat="44.95138431132564" lon="-1.1381489648228167"><ele>23.4</ele><time>2026-04-12T13:42:08.999Z</time></trkpt><trkpt lat="44.95147309074013" lon="-1.1381861859514595"><ele>23.2</ele><time>2026-04-12T13:42:09.999Z</time></trkpt><trkpt lat="44.95159244265391" lon="-1.138259915639191"><ele>23.0</ele><time>2026-04-12T13:42:10.999Z</time></trkpt><trkpt lat="44.95171205544065" lon="-1.1383277911034153"><ele>22.25</ele><time>2026-04-12T13:42:11.999Z</time></trkpt><trkpt lat="44.95181652572691" lon="-1.1383725476285935"><ele>21.5</ele><time>2026-04-12T13:42:12.999Z</time></trkpt><trkpt lat="44.95192996726201" lon="-1.1384493572222196"><ele>20.75</ele><time>2026-04-12T13:42:13.999Z</time></trkpt><trkpt lat="44.95203526277432" lon="-1.1385106677835897"><ele>20.0</ele><time>2026-04-12T13:42:14.999Z</time></trkpt><trkpt lat="44.95214811060049" lon="-1.1385922417815006"><ele>20.0</ele><time>2026-04-12T13:42:15.999Z</time></trkpt><trkpt lat="44.95224414489082" lon="-1.1386584301539358"><ele>20.0</ele><time>2026-04-12T13:42:16.999Z</time></trkpt><trkpt lat="44.952358057781694" lon="-1.138734066776515"><ele>20.0</ele><time>2026-04-12T13:42:17.999Z</time></trkpt><trkpt lat="44.952476113817795" lon="-1.1388128891329596"><ele>20.0</ele><time>2026-04-12T13:42:18.999Z</time></trkpt><trkpt lat="44.952605423829624" lon="-1.1388972457876845"><ele>19.75</ele><time>2026-04-12T13:42:19.999Z</time></trkpt><trkpt lat="44.95272788702802" lon="-1.13897947034804"><ele>19.5</ele><time>2026-04-12T13:42:20.999Z</time></trkpt><trkpt lat="44.95283186516322" lon="-1.139052154047702"><ele>19.25</ele><time>2026-04-12T13:42:21.999Z</time></trkpt><trkpt lat="44.95292346840215" lon="-1.1391115138902481"><ele>19.0</ele><time>2026-04-12T13:42:22.999Z</time></trkpt><trkpt lat="44.95302192527346" lon="-1.1391841978412445"><ele>18.5</ele><time>2026-04-12T13:42:23.999Z</time></trkpt><trkpt lat="44.9531282478106" lon="-1.13926720172853"><ele>18.0</ele><time>2026-04-12T13:42:24.999Z</time></trkpt><trkpt lat="44.95325786981883" lon="-1.139367521885496"><ele>17.5</ele><time>2026-04-12T13:42:25.999Z</time></trkpt><trkpt lat="44.9534001598365" lon="-1.1394896308245441"><ele>17.0</ele><time>2026-04-12T13:42:26.999Z</time></trkpt><trkpt lat="44.953537305591105" lon="-1.1396031515948122"><ele>17.25</ele><time>2026-04-12T13:42:27.999Z</time></trkpt><trkpt lat="44.95366575030238" lon="-1.1397080514417737"><ele>17.5</ele><time>2026-04-12T13:42:28.999Z</time></trkpt><trkpt lat="44.95377004526588" lon="-1.139810027498974"><ele>17.75</ele><time>2026-04-12T13:42:29.999Z</time></trkpt><trkpt lat="44.95386682319675" lon="-1.139887916114811"><ele>18.0</ele><time>2026-04-12T13:42:30.999Z</time></trkpt><trkpt lat="44.95397769370229" lon="-1.139981595774334"><ele>18.0</ele><time>2026-04-12T13:42:31.999Z</time></trkpt><trkpt lat="44.954087691782156" lon="-1.1400773127280863"><ele>18.0</ele><time>2026-04-12T13:42:32.999Z</time></trkpt><trkpt lat="44.95417788420271" lon="-1.140156615247707"><ele>18.0</ele><time>2026-04-12T13:42:33.999Z</time></trkpt><trkpt lat="44.954260532360934" lon="-1.140238822444825"><ele>18.0</ele><time>2026-04-12T13:42:34.999Z</time></trkpt><trkpt lat="44.95435833735087" lon="-1.1403283574568501"><ele>18.6</ele><time>2026-04-12T13:42:35.999Z</time></trkpt><trkpt lat="44.95446051429567" lon="-1.1404224481198373"><ele>19.200000000000003</ele><time>2026-04-12T13:42:36.999Z</time></trkpt><trkpt lat="44.954539601632156" lon="-1.140499628142705"><ele>19.8</ele><time>2026-04-12T13:42:37.999Z</time></trkpt><trkpt lat="44.954631866454235" lon="-1.1405818545425204"><ele>20.400000000000002</ele><time>2026-04-12T13:42:38.999Z</time></trkpt><trkpt lat="44.95472361368339" lon="-1.1406656421295769"><ele>21.0</ele><time>2026-04-12T13:42:39.999Z</time></trkpt><trkpt lat="44.95483728894996" lon="-1.1407763901477699"><ele>21.0</ele><time>2026-04-12T13:42:40.999Z</time></trkpt><trkpt lat="44.954955149309924" lon="-1.1408968858041593"><ele>21.0</ele><time>2026-04-12T13:42:41.999Z</time></trkpt><trkpt lat="44.95505748915565" lon="-1.1409977868197683"><ele>21.0</ele><time>2026-04-12T13:42:42.999Z</time></trkpt><trkpt lat="44.955160570033776" lon="-1.141112258593311"><ele>21.0</ele><time>2026-04-12T13:42:43.999Z</time></trkpt><trkpt lat="44.95526407984821" lon="-1.1412129943358984"><ele>21.75</ele><time>2026-04-12T13:42:44.999Z</time></trkpt><trkpt lat="44.955367268320984" lon="-1.1413131247064834"><ele>22.5</ele><time>2026-04-12T13:42:45.999Z</time></trkpt><trkpt lat="44.955474437911455" lon="-1.1414295002746722"><ele>23.25</ele><time>2026-04-12T13:42:46.999Z</time></trkpt><trkpt lat="44.9555608493229" lon="-1.1415312767758974"><ele>24.0</ele><time>2026-04-12T13:42:47.999Z</time></trkpt><trkpt lat="44.95565640503101" lon="-1.1416235661058172"><ele>24.25</ele><time>2026-04-12T13:42:48.999Z</time></trkpt><trkpt lat="44.955761613155545" lon="-1.1417183706829248"><ele>24.5</ele><time>2026-04-12T13:42:49.999Z</time></trkpt><trkpt lat="44.955872609736765" lon="-1.1418545068330603"><ele>24.75</ele><time>2026-04-12T13:42:50.999Z</time></trkpt><trkpt lat="44.955957322357236" lon="-1.1419430496245908"><ele>25.0</ele><time>2026-04-12T13:42:51.999Z</time></trkpt><trkpt lat="44.9560231067609" lon="-1.142034918371155"><ele>24.4</ele><time>2026-04-12T13:42:52.999Z</time></trkpt><trkpt lat="44.95609271967727" lon="-1.1421152440137845"><ele>23.8</ele><time>2026-04-12T13:42:53.999Z</time></trkpt><trkpt lat="44.95617583402588" lon="-1.1422155254457953"><ele>23.200000000000003</ele><time>2026-04-12T13:42:55.998Z</time></trkpt><trkpt lat="44.95624331380061" lon="-1.1423004980601323"><ele>22.6</ele><time>2026-04-12T13:42:57.998Z</time></trkpt><trkpt lat="44.95626393922132" lon="-1.1423978776793715"><ele>22.0</ele><time>2026-04-12T13:43:00.998Z</time></trkpt><trkpt lat="44.956346191323796" lon="-1.1424538276113492"><ele>22.0</ele><time>2026-04-12T13:43:04.998Z</time></trkpt><trkpt lat="44.9564512678032" lon="-1.142522130284501"><ele>22.0</ele><time>2026-04-12T13:43:06.998Z</time></trkpt><trkpt lat="44.95650902130412" lon="-1.142575632158912"><ele>22.0</ele><time>2026-04-12T13:43:07.998Z</time></trkpt><trkpt lat="44.95657066863756" lon="-1.1426484229629184"><ele>22.0</ele><time>2026-04-12T13:43:08.998Z</time></trkpt><trkpt lat="44.956617177897" lon="-1.1427172904940521"><ele>22.0</ele><time>2026-04-12T13:43:09.998Z</time></trkpt><trkpt lat="44.95668123977166" lon="-1.142799454771841"><ele>22.0</ele><time>2026-04-12T13:43:11.998Z</time></trkpt><trkpt lat="44.95677222483291" lon="-1.1428248932217056"><ele>22.0</ele><time>2026-04-12T13:43:13.998Z</time></trkpt><trkpt lat="44.95686447190073" lon="-1.142869702394931"><ele>22.0</ele><time>2026-04-12T13:43:15.998Z</time></trkpt><trkpt lat="44.956962370704325" lon="-1.1429119051485428"><ele>22.0</ele><time>2026-04-12T13:43:17.998Z</time></trkpt><trkpt lat="44.95709435920444" lon="-1.1429277227045092"><ele>22.0</ele><time>2026-04-12T13:43:19.998Z</time></trkpt><trkpt lat="44.95715727100552" lon="-1.1429386991880655"><ele>22.0</ele><time>2026-04-12T13:43:20.998Z</time></trkpt><trkpt lat="44.95727480402758" lon="-1.1429565068494563"><ele>22.0</ele><time>2026-04-12T13:43:22.998Z</time></trkpt><trkpt lat="44.957339765224226" lon="-1.1429669300793148"><ele>22.0</ele><time>2026-04-12T13:43:23.998Z</time></trkpt><trkpt lat="44.95746517485124" lon="-1.1429584396126076"><ele>22.0</ele><time>2026-04-12T13:43:26Z</time></trkpt><trkpt lat="44.95752933536301" lon="-1.1429535099599564"><ele>22.0</ele><time>2026-04-12T13:43:27Z</time></trkpt><trkpt lat="44.95760037109559" lon="-1.1429473119944495"><ele>22.0</ele><time>2026-04-12T13:43:28Z</time></trkpt><trkpt lat="44.95770803074162" lon="-1.1429536553838762"><ele>22.0</ele><time>2026-04-12T13:43:30Z</time></trkpt><trkpt lat="44.95778032292096" lon="-1.1429551885148177"><ele>22.0</ele><time>2026-04-12T13:43:31Z</time></trkpt><trkpt lat="44.95785040512715" lon="-1.1429524541109832"><ele>22.0</ele><time>2026-04-12T13:43:32Z</time></trkpt><trkpt lat="44.95792426131017" lon="-1.1429474036240583"><ele>22.0</ele><time>2026-04-12T13:43:33Z</time></trkpt><trkpt lat="44.95805732308744" lon="-1.1429457386319752"><ele>22.0</ele><time>2026-04-12T13:43:35Z</time></trkpt><trkpt lat="44.95814980537011" lon="-1.1429512866976044"><ele>22.0</ele><time>2026-04-12T13:43:36Z</time></trkpt><trkpt lat="44.9582418671705" lon="-1.1429519414507183"><ele>22.0</ele><time>2026-04-12T13:43:37Z</time></trkpt><trkpt lat="44.95836008435213" lon="-1.1429646434939857"><ele>22.0</ele><time>2026-04-12T13:43:39Z</time></trkpt><trkpt lat="44.95844375113769" lon="-1.142977895476495"><ele>22.0</ele><time>2026-04-12T13:43:41Z</time></trkpt><trkpt lat="44.958522543867524" lon="-1.1431027019473665"><ele>22.0</ele><time>2026-04-12T13:43:43Z</time></trkpt><trkpt lat="44.958560371681855" lon="-1.143177865240595"><ele>22.0</ele><time>2026-04-12T13:43:44Z</time></trkpt><trkpt lat="44.95859554298297" lon="-1.1433471974877871"><ele>21.6</ele><time>2026-04-12T13:43:46Z</time></trkpt><trkpt lat="44.95862541505443" lon="-1.1435015584676536"><ele>21.200000000000003</ele><time>2026-04-12T13:43:48Z</time></trkpt><trkpt lat="44.95864576710258" lon="-1.14363664084273"><ele>20.8</ele><time>2026-04-12T13:43:50Z</time></trkpt><trkpt lat="44.95866991687249" lon="-1.1437855124451146"><ele>20.4</ele><time>2026-04-12T13:43:52Z</time></trkpt><trkpt lat="44.958683068166614" lon="-1.143881944905102"><ele>20.0</ele><time>2026-04-12T13:43:53Z</time></trkpt><trkpt lat="44.95869241128226" lon="-1.1439826714994"><ele>20.75</ele><time>2026-04-12T13:43:54Z</time></trkpt><trkpt lat="44.95870772996014" lon="-1.144113788682555"><ele>21.5</ele><time>2026-04-12T13:43:55Z</time></trkpt><trkpt lat="44.95872616290213" lon="-1.1442478492130528"><ele>22.25</ele><time>2026-04-12T13:43:56Z</time></trkpt><trkpt lat="44.958745942748" lon="-1.144414167389334"><ele>23.0</ele><time>2026-04-12T13:43:57Z</time></trkpt><trkpt lat="44.95878621286657" lon="-1.144639819016099"><ele>23.0</ele><time>2026-04-12T13:43:58Z</time></trkpt><trkpt lat="44.95883012049625" lon="-1.1448687262905588"><ele>23.0</ele><time>2026-04-12T13:43:59Z</time></trkpt><trkpt lat="44.95882766374033" lon="-1.145080066873912"><ele>23.0</ele><time>2026-04-12T13:44:01Z</time></trkpt><trkpt lat="44.95883039820516" lon="-1.1451978173325807"><ele>23.0</ele><time>2026-04-12T13:44:02Z</time></trkpt><trkpt lat="44.95883626341314" lon="-1.1452916954510644"><ele>23.0</ele><time>2026-04-12T13:44:03Z</time></trkpt><trkpt lat="44.95883486867159" lon="-1.1454044682980282"><ele>23.0</ele><time>2026-04-12T13:44:04Z</time></trkpt><trkpt lat="44.958827376680524" lon="-1.1455257234421212"><ele>23.0</ele><time>2026-04-12T13:44:05Z</time></trkpt><trkpt lat="44.95881118148159" lon="-1.1456473255326234"><ele>23.0</ele><time>2026-04-12T13:44:06Z</time></trkpt><trkpt lat="44.95878589383075" lon="-1.1457514581276136"><ele>23.0</ele><time>2026-04-12T13:44:07Z</time></trkpt><trkpt lat="44.95875186655293" lon="-1.1458356387585353"><ele>23.0</ele><time>2026-04-12T13:44:08Z</time></trkpt><trkpt lat="44.95871557999127" lon="-1.1459624199608014"><ele>23.0</ele><time>2026-04-12T13:44:52.999Z</time></trkpt><trkpt lat="44.9587202512463" lon="-1.14614242061627"><ele>23.0</ele><time>2026-04-12T13:44:54.999Z</time></trkpt><trkpt lat="44.9587200451813" lon="-1.1462702342965378"><ele>23.0</ele><time>2026-04-12T13:44:55.998Z</time></trkpt><trkpt lat="44.9587123548896" lon="-1.1464177512522953"><ele>23.0</ele><time>2026-04-12T13:44:57.998Z</time></trkpt><trkpt lat="44.95872172532946" lon="-1.1465216391334654"><ele>23.0</ele><time>2026-04-12T13:44:58.998Z</time></trkpt><trkpt lat="44.95873166951701" lon="-1.1466674119836597"><ele>22.833333333333336</ele><time>2026-04-12T13:45:00.998Z</time></trkpt><trkpt lat="44.95873105142051" lon="-1.1467577967553393"><ele>22.666666666666668</ele><time>2026-04-12T13:45:01.998Z</time></trkpt><trkpt lat="44.95874413936202" lon="-1.146851614711116"><ele>22.5</ele><time>2026-04-12T13:45:02.998Z</time></trkpt><trkpt lat="44.95875541032175" lon="-1.1469942448100539"><ele>22.333333333333332</ele><time>2026-04-12T13:45:04.998Z</time></trkpt><trkpt lat="44.95877728286502" lon="-1.1470904949315468"><ele>22.166666666666664</ele><time>2026-04-12T13:45:05.998Z</time></trkpt><trkpt lat="44.95876832670486" lon="-1.1472344761335302"><ele>22.0</ele><time>2026-04-12T13:45:07.998Z</time></trkpt><trkpt lat="44.95876164248157" lon="-1.1473497723304755"><ele>21.8</ele><time>2026-04-12T13:45:09.998Z</time></trkpt><trkpt lat="44.95876597727994" lon="-1.1474998237163876"><ele>21.6</ele><time>2026-04-12T13:45:11.998Z</time></trkpt><trkpt lat="44.958797352263" lon="-1.1475808189858485"><ele>21.400000000000002</ele><time>2026-04-12T13:45:12.998Z</time></trkpt><trkpt lat="44.95883126581157" lon="-1.1477182188059831"><ele>21.200000000000003</ele><time>2026-04-12T13:45:14.998Z</time></trkpt><trkpt lat="44.958821834276414" lon="-1.1478969806283221"><ele>21.0</ele><time>2026-04-12T13:45:16.998Z</time></trkpt><trkpt lat="44.958839152426336" lon="-1.14804440215039"><ele>21.0</ele><time>2026-04-12T13:45:18.998Z</time></trkpt><trkpt lat="44.95885125843918" lon="-1.1481958554468765"><ele>21.0</ele><time>2026-04-12T13:45:20.998Z</time></trkpt><trkpt lat="44.9588353755127" lon="-1.1482889950949826"><ele>21.0</ele><time>2026-04-12T13:45:21.998Z</time></trkpt><trkpt lat="44.958835386853174" lon="-1.1484232220876085"><ele>21.0</ele><time>2026-04-12T13:45:23.998Z</time></trkpt><trkpt lat="44.958870303663645" lon="-1.1485496502793398"><ele>21.0</ele><time>2026-04-12T13:45:25.998Z</time></trkpt><trkpt lat="44.95887570358857" lon="-1.1487023885216945"><ele>21.0</ele><time>2026-04-12T13:45:27.998Z</time></trkpt><trkpt lat="44.95888891293497" lon="-1.1488438385420852"><ele>21.0</ele><time>2026-04-12T13:45:29.998Z</time></trkpt><trkpt lat="44.95890150948917" lon="-1.149011737142416"><ele>21.0</ele><time>2026-04-12T13:45:32Z</time></trkpt><trkpt lat="44.95891490951987" lon="-1.1491762056013466"><ele>21.0</ele><time>2026-04-12T13:45:34Z</time></trkpt><trkpt lat="44.958908041817786" lon="-1.1492740574924682"><ele>21.0</ele><time>2026-04-12T13:45:35Z</time></trkpt><trkpt lat="44.958907024723885" lon="-1.14937358306194"><ele>21.0</ele><time>2026-04-12T13:45:36Z</time></trkpt><trkpt lat="44.95891290304079" lon="-1.1494651880521953"><ele>21.0</ele><time>2026-04-12T13:45:37Z</time></trkpt><trkpt lat="44.9589234965038" lon="-1.1495683415530018"><ele>21.0</ele><time>2026-04-12T13:45:38Z</time></trkpt><trkpt lat="44.95891360967279" lon="-1.149724018397749"><ele>21.0</ele><time>2026-04-12T13:45:40Z</time></trkpt><trkpt lat="44.958929696958066" lon="-1.1498255015748897"><ele>21.0</ele><time>2026-04-12T13:45:41Z</time></trkpt><trkpt lat="44.95894256844497" lon="-1.1499224745733627"><ele>21.0</ele><time>2026-04-12T13:45:42Z</time></trkpt><trkpt lat="44.958950041564975" lon="-1.1500219821335642"><ele>21.0</ele><time>2026-04-12T13:45:43Z</time></trkpt><trkpt lat="44.95895178516556" lon="-1.1501682579163732"><ele>21.0</ele><time>2026-04-12T13:45:45Z</time></trkpt><trkpt lat="44.95900447518898" lon="-1.1503171914492951"><ele>21.0</ele><time>2026-04-12T13:45:54Z</time></trkpt><trkpt lat="44.959024016102354" lon="-1.1505077595458362"><ele>21.0</ele><time>2026-04-12T13:45:56Z</time></trkpt><trkpt lat="44.9590311358867" lon="-1.150625907711286"><ele>21.0</ele><time>2026-04-12T13:45:57Z</time></trkpt><trkpt lat="44.95903639007153" lon="-1.1507486626111603"><ele>21.0</ele><time>2026-04-12T13:45:58Z</time></trkpt><trkpt lat="44.959050203708124" lon="-1.1508915627255383"><ele>21.0</ele><time>2026-04-12T13:46:00Z</time></trkpt><trkpt lat="44.959064165556256" lon="-1.1510802187681224"><ele>21.0</ele><time>2026-04-12T13:46:02Z</time></trkpt><trkpt lat="44.959060790314" lon="-1.1511835777090593"><ele>21.0</ele><time>2026-04-12T13:46:03Z</time></trkpt><trkpt lat="44.9590520934023" lon="-1.1512885783508362"><ele>21.0</ele><time>2026-04-12T13:46:04Z</time></trkpt><trkpt lat="44.95903547460776" lon="-1.15139438630465"><ele>21.0</ele><time>2026-04-12T13:46:05Z</time></trkpt><trkpt lat="44.95906916431734" lon="-1.1514858236325287"><ele>21.0</ele><time>2026-04-12T13:46:07Z</time></trkpt><trkpt lat="44.95915832858284" lon="-1.1514859101222652"><ele>21.0</ele><time>2026-04-12T13:46:09Z</time></trkpt><trkpt lat="44.959175042763505" lon="-1.151395819005006"><ele>21.0</ele><time>2026-04-12T13:46:09.999Z</time></trkpt><trkpt lat="44.95914606284653" lon="-1.1512721225239568"><ele>21.0</ele><time>2026-04-12T13:46:10.999Z</time></trkpt><trkpt lat="44.9591176566547" lon="-1.1511494861335072"><ele>21.0</ele><time>2026-04-12T13:46:11.999Z</time></trkpt><trkpt lat="44.9590755564171" lon="-1.1510553329141051"><ele>21.0</ele><time>2026-04-12T13:46:12.999Z</time></trkpt><trkpt lat="44.95903247420937" lon="-1.1509177752364945"><ele>21.0</ele><time>2026-04-12T13:46:14.999Z</time></trkpt><trkpt lat="44.959034815002994" lon="-1.1508267264639374"><ele>21.0</ele><time>2026-04-12T13:46:15.999Z</time></trkpt><trkpt lat="44.959021995903655" lon="-1.1507167290510487"><ele>21.0</ele><time>2026-04-12T13:46:16.999Z</time></trkpt><trkpt lat="44.959003516864655" lon="-1.1505894433901622"><ele>21.0</ele><time>2026-04-12T13:46:17.999Z</time></trkpt><trkpt lat="44.95900523968623" lon="-1.1504622237498627"><ele>21.0</ele><time>2026-04-12T13:46:18.999Z</time></trkpt><trkpt lat="44.959019630715154" lon="-1.1503406282339943"><ele>21.0</ele><time>2026-04-12T13:46:19.999Z</time></trkpt><trkpt lat="44.95904484202674" lon="-1.1502339928504535"><ele>21.0</ele><time>2026-04-12T13:46:20.999Z</time></trkpt><trkpt lat="44.95907751193499" lon="-1.1501304100977963"><ele>21.0</ele><time>2026-04-12T13:46:21.999Z</time></trkpt><trkpt lat="44.95915414189517" lon="-1.150025193070394"><ele>21.0</ele><time>2026-04-12T13:46:23.999Z</time></trkpt><trkpt lat="44.95923159453852" lon="-1.1500226913160536"><ele>21.0</ele><time>2026-04-12T13:46:25.999Z</time></trkpt><trkpt lat="44.95929475128879" lon="-1.1500699875596234"><ele>21.0</ele><time>2026-04-12T13:46:27.999Z</time></trkpt><trkpt lat="44.95936468543916" lon="-1.1500919573010837"><ele>21.200000000000003</ele><time>2026-04-12T14:01:26.999Z</time></trkpt><trkpt lat="44.959320788635495" lon="-1.1501878517988076"><ele>21.400000000000002</ele><time>2026-04-12T14:01:30.999Z</time></trkpt><trkpt lat="44.95925647370454" lon="-1.1502489705240204"><ele>21.6</ele><time>2026-04-12T14:01:33.999Z</time></trkpt><trkpt lat="44.959308225591116" lon="-1.1503251724364278"><ele>21.8</ele><time>2026-04-12T14:01:34.999Z</time></trkpt><trkpt lat="44.959349573044776" lon="-1.1505117973233054"><ele>22.0</ele><time>2026-04-12T14:01:36.999Z</time></trkpt><trkpt lat="44.95931480732997" lon="-1.1506112293865307"><ele>22.0</ele><time>2026-04-12T14:01:37.999Z</time></trkpt><trkpt lat="44.959353685245205" lon="-1.1507824415027794"><ele>22.0</ele><time>2026-04-12T14:01:39.999Z</time></trkpt><trkpt lat="44.95941672511853" lon="-1.1508631450055933"><ele>22.0</ele><time>2026-04-12T14:01:40.999Z</time></trkpt><trkpt lat="44.95937837092218" lon="-1.1510274436031385"><ele>22.0</ele><time>2026-04-12T14:01:42.999Z</time></trkpt><trkpt lat="44.95941347422617" lon="-1.151168756748669"><ele>22.0</ele><time>2026-04-12T14:01:44.999Z</time></trkpt><trkpt lat="44.95945756286435" lon="-1.1512909868711871"><ele>22.0</ele><time>2026-04-12T14:01:46.999Z</time></trkpt><trkpt lat="44.95947005028875" lon="-1.1514062018214277"><ele>22.0</ele><time>2026-04-12T14:01:48.999Z</time></trkpt><trkpt lat="44.959492760072614" lon="-1.1515268962141696"><ele>22.0</ele><time>2026-04-12T14:01:50.998Z</time></trkpt><trkpt lat="44.95952348774956" lon="-1.1516718503851502"><ele>22.0</ele><time>2026-04-12T14:01:52.998Z</time></trkpt><trkpt lat="44.95952124542191" lon="-1.1518189936518666"><ele>22.0</ele><time>2026-04-12T14:01:54.998Z</time></trkpt><trkpt lat="44.95950688022595" lon="-1.1519607851122828"><ele>22.0</ele><time>2026-04-12T14:01:56.998Z</time></trkpt><trkpt lat="44.95945858363887" lon="-1.1520893957910046"><ele>22.0</ele><time>2026-04-12T14:01:58.998Z</time></trkpt><trkpt lat="44.95943308288448" lon="-1.152220582505156"><ele>22.0</ele><time>2026-04-12T14:02:00.998Z</time></trkpt><trkpt lat="44.9594240038286" lon="-1.1523842295135047"><ele>22.0</ele><time>2026-04-12T14:02:02.998Z</time></trkpt><trkpt lat="44.95942741460452" lon="-1.1524794443215298"><ele>22.0</ele><time>2026-04-12T14:02:03.998Z</time></trkpt><trkpt lat="44.959441787969986" lon="-1.1526002010851166"><ele>22.200000000000003</ele><time>2026-04-12T14:02:04.998Z</time></trkpt><trkpt lat="44.95944573657996" lon="-1.152741443177228"><ele>22.4</ele><time>2026-04-12T14:02:05.998Z</time></trkpt><trkpt lat="44.959447439172095" lon="-1.152923475592285"><ele>22.6</ele><time>2026-04-12T14:02:06.998Z</time></trkpt><trkpt lat="44.95944258577444" lon="-1.153089837968784"><ele>22.799999999999997</ele><time>2026-04-12T14:02:07.998Z</time></trkpt><trkpt lat="44.95943567195124" lon="-1.1532246323272237"><ele>23.0</ele><time>2026-04-12T14:02:08.998Z</time></trkpt><trkpt lat="44.95942307234759" lon="-1.153367307467315"><ele>23.333333333333336</ele><time>2026-04-12T14:02:09.998Z</time></trkpt><trkpt lat="44.95949339863916" lon="-1.153593031313786"><ele>23.666666666666668</ele><time>2026-04-12T14:02:10.998Z</time></trkpt><trkpt lat="44.9595174870831" lon="-1.1537849430764855"><ele>24.0</ele><time>2026-04-12T14:02:11.998Z</time></trkpt><trkpt lat="44.95951715848248" lon="-1.1539871260865655"><ele>24.6</ele><time>2026-04-12T14:02:12.998Z</time></trkpt><trkpt lat="44.95952488880015" lon="-1.1541474970406114"><ele>25.2</ele><time>2026-04-12T14:02:13.998Z</time></trkpt><trkpt lat="44.959532699777675" lon="-1.1542698551431128"><ele>25.800000000000004</ele><time>2026-04-12T14:02:14.998Z</time></trkpt><trkpt lat="44.95954329594593" lon="-1.1544004659889808"><ele>26.400000000000002</ele><time>2026-04-12T14:02:16Z</time></trkpt><trkpt lat="44.95957768557998" lon="-1.1545066842574576"><ele>27.0</ele><time>2026-04-12T14:02:17Z</time></trkpt><trkpt lat="44.95960769046365" lon="-1.1546376211471496"><ele>27.0</ele><time>2026-04-12T14:02:18Z</time></trkpt><trkpt lat="44.959626887903546" lon="-1.1547566646899747"><ele>27.0</ele><time>2026-04-12T14:02:19Z</time></trkpt><trkpt lat="44.959658924857614" lon="-1.1548820958588204"><ele>27.0</ele><time>2026-04-12T14:02:20Z</time></trkpt><trkpt lat="44.959682900303356" lon="-1.1550003780123963"><ele>27.0</ele><time>2026-04-12T14:02:21Z</time></trkpt><trkpt lat="44.95967219013687" lon="-1.1551207036576263"><ele>27.0</ele><time>2026-04-12T14:02:22Z</time></trkpt><trkpt lat="44.95965913508056" lon="-1.1552456811793586"><ele>27.0</ele><time>2026-04-12T14:02:23Z</time></trkpt><trkpt lat="44.959658244405226" lon="-1.1553736336215885"><ele>26.6</ele><time>2026-04-12T14:02:24Z</time></trkpt><trkpt lat="44.959654426867495" lon="-1.155503128894511"><ele>26.200000000000003</ele><time>2026-04-12T14:02:25Z</time></trkpt><trkpt lat="44.95963885510641" lon="-1.1556427184598577"><ele>25.8</ele><time>2026-04-12T14:02:26Z</time></trkpt><trkpt lat="44.9596266307509" lon="-1.155776507906589"><ele>25.4</ele><time>2026-04-12T14:02:27Z</time></trkpt><trkpt lat="44.959624180211684" lon="-1.1559007103088974"><ele>25.0</ele><time>2026-04-12T14:02:28Z</time></trkpt><trkpt lat="44.959635595907415" lon="-1.156039052434626"><ele>24.2</ele><time>2026-04-12T14:02:29Z</time></trkpt><trkpt lat="44.95965622938478" lon="-1.1561894989655523"><ele>23.4</ele><time>2026-04-12T14:02:30Z</time></trkpt><trkpt lat="44.959671410889584" lon="-1.156340813027155"><ele>22.6</ele><time>2026-04-12T14:02:31Z</time></trkpt><trkpt lat="44.95969034652993" lon="-1.1564901363848397"><ele>21.8</ele><time>2026-04-12T14:02:32Z</time></trkpt><trkpt lat="44.959704822474734" lon="-1.1566215820787362"><ele>21.0</ele><time>2026-04-12T14:02:33Z</time></trkpt><trkpt lat="44.95970845518679" lon="-1.1567220027659157"><ele>20.8</ele><time>2026-04-12T14:02:34Z</time></trkpt><trkpt lat="44.95970154831977" lon="-1.1568680190831853"><ele>20.6</ele><time>2026-04-12T14:02:36Z</time></trkpt><trkpt lat="44.95969282702844" lon="-1.1569828604099517"><ele>20.4</ele><time>2026-04-12T14:02:38Z</time></trkpt><trkpt lat="44.95972023873436" lon="-1.1570939057346246"><ele>20.2</ele><time>2026-04-12T14:02:50Z</time></trkpt><trkpt lat="44.95974454063883" lon="-1.1572390286355974"><ele>20.0</ele><time>2026-04-12T14:02:53Z</time></trkpt><trkpt lat="44.95978691705328" lon="-1.157374706679744"><ele>20.0</ele><time>2026-04-12T14:02:55Z</time></trkpt><trkpt lat="44.95989489960842" lon="-1.157425860168132"><ele>20.0</ele><time>2026-04-12T14:02:57Z</time></trkpt><trkpt lat="44.95997220652792" lon="-1.1573941871102427"><ele>20.0</ele><time>2026-04-12T14:02:58Z</time></trkpt><trkpt lat="44.96003543928126" lon="-1.1573409721389951"><ele>20.0</ele><time>2026-04-12T14:02:59Z</time></trkpt><trkpt lat="44.96009407498201" lon="-1.1572556330863617"><ele>20.0</ele><time>2026-04-12T14:03:00Z</time></trkpt><trkpt lat="44.96019070573131" lon="-1.1572024477739904"><ele>21.0</ele><time>2026-04-12T14:03:01Z</time></trkpt><trkpt lat="44.960302595067176" lon="-1.1571393046175518"><ele>22.0</ele><time>2026-04-12T14:03:02Z</time></trkpt><trkpt lat="44.960431630950325" lon="-1.157055281390425"><ele>23.0</ele><time>2026-04-12T14:03:03Z</time></trkpt><trkpt lat="44.960558171149614" lon="-1.1569782940290612"><ele>24.0</ele><time>2026-04-12T14:03:04Z</time></trkpt><trkpt lat="44.96067296517497" lon="-1.156907734545467"><ele>24.0</ele><time>2026-04-12T14:03:05Z</time></trkpt><trkpt lat="44.96075129145929" lon="-1.1568484483291361"><ele>24.0</ele><time>2026-04-12T14:03:06Z</time></trkpt><trkpt lat="44.96083298691842" lon="-1.1567959223536568"><ele>24.0</ele><time>2026-04-12T14:03:06.999Z</time></trkpt><trkpt lat="44.96089950680191" lon="-1.156754505922369"><ele>24.0</ele><time>2026-04-12T14:03:07.999Z</time></trkpt><trkpt lat="44.96096444481951" lon="-1.1567103084576915"><ele>24.0</ele><time>2026-04-12T14:03:08.999Z</time></trkpt><trkpt lat="44.961034080808886" lon="-1.1566626120770267"><ele>24.0</ele><time>2026-04-12T14:03:09.999Z</time></trkpt><trkpt lat="44.961119468368004" lon="-1.1566642654522759"><ele>24.0</ele><time>2026-04-12T14:03:10.999Z</time></trkpt><trkpt lat="44.96120422941578" lon="-1.1566783743073135"><ele>24.0</ele><time>2026-04-12T14:03:11.999Z</time></trkpt><trkpt lat="44.96127490544179" lon="-1.1566685153305813"><ele>24.0</ele><time>2026-04-12T14:03:13.999Z</time></trkpt><trkpt lat="44.961367133047595" lon="-1.1566615869063313"><ele>24.0</ele><time>2026-04-12T14:03:16.999Z</time></trkpt><trkpt lat="44.961426578089586" lon="-1.1566012831993124"><ele>24.0</ele><time>2026-04-12T14:03:17.999Z</time></trkpt><trkpt lat="44.96147039637085" lon="-1.156383934305316"><ele>23.799999999999997</ele><time>2026-04-12T14:03:19.999Z</time></trkpt><trkpt lat="44.961485645362124" lon="-1.1562719857801338"><ele>23.599999999999998</ele><time>2026-04-12T14:03:20.999Z</time></trkpt><trkpt lat="44.96152393083447" lon="-1.1561476290848671"><ele>23.4</ele><time>2026-04-12T14:03:21.999Z</time></trkpt><trkpt lat="44.96159394056825" lon="-1.1560075740154223"><ele>23.2</ele><time>2026-04-12T14:03:22.999Z</time></trkpt><trkpt lat="44.96169314855585" lon="-1.1558555217681254"><ele>23.0</ele><time>2026-04-12T14:03:23.999Z</time></trkpt><trkpt lat="44.96182937112813" lon="-1.1556612788600453"><ele>23.0</ele><time>2026-04-12T14:03:24.999Z</time></trkpt><trkpt lat="44.96196999608387" lon="-1.1554640079710667"><ele>23.0</ele><time>2026-04-12T14:03:25.999Z</time></trkpt><trkpt lat="44.96207152150665" lon="-1.1552988408371294"><ele>23.0</ele><time>2026-04-12T14:03:26.999Z</time></trkpt><trkpt lat="44.96213130422941" lon="-1.1551328525824467"><ele>23.0</ele><time>2026-04-12T14:03:27.999Z</time></trkpt><trkpt lat="44.96220299877943" lon="-1.1550017861166877"><ele>23.0</ele><time>2026-04-12T14:03:28.999Z</time></trkpt><trkpt lat="44.96227985419978" lon="-1.1549082516922058"><ele>23.0</ele><time>2026-04-12T14:03:29.999Z</time></trkpt><trkpt lat="44.962336561283806" lon="-1.154822574885683"><ele>23.0</ele><time>2026-04-12T14:03:30.999Z</time></trkpt><trkpt lat="44.962399372678696" lon="-1.1547216546128387"><ele>23.0</ele><time>2026-04-12T14:03:31.999Z</time></trkpt><trkpt lat="44.96249001304873" lon="-1.154614613620222"><ele>22.799999999999997</ele><time>2026-04-12T14:03:32.999Z</time></trkpt><trkpt lat="44.9625772519686" lon="-1.1545856036844828"><ele>22.6</ele><time>2026-04-12T14:03:33.999Z</time></trkpt><trkpt lat="44.962658566059226" lon="-1.1545471235130604"><ele>22.4</ele><time>2026-04-12T14:03:34.999Z</time></trkpt><trkpt lat="44.96271869528459" lon="-1.1545083166677534"><ele>22.200000000000003</ele><time>2026-04-12T14:03:38.999Z</time></trkpt><trkpt lat="44.96261733187887" lon="-1.1545541901021388"><ele>22.0</ele><time>2026-04-12T14:03:48.999Z</time></trkpt><trkpt lat="44.9625234844985" lon="-1.15461711045175"><ele>22.0</ele><time>2026-04-12T14:03:50.999Z</time></trkpt><trkpt lat="44.96241571168168" lon="-1.1546863895340673"><ele>22.0</ele><time>2026-04-12T14:03:52.999Z</time></trkpt><trkpt lat="44.9623659034005" lon="-1.1547763357275087"><ele>22.0</ele><time>2026-04-12T14:03:54.998Z</time></trkpt><trkpt lat="44.96241808045964" lon="-1.1548907986690948"><ele>22.0</ele><time>2026-04-12T14:03:56.998Z</time></trkpt><trkpt lat="44.962465102666876" lon="-1.154970368730081"><ele>22.0</ele><time>2026-04-12T14:03:57.998Z</time></trkpt><trkpt lat="44.962556392316564" lon="-1.15506289842967"><ele>21.75</ele><time>2026-04-12T14:03:58.998Z</time></trkpt><trkpt lat="44.96264686044017" lon="-1.1551645254854617"><ele>21.5</ele><time>2026-04-12T14:03:59.998Z</time></trkpt><trkpt lat="44.9627526057666" lon="-1.1552798958449122"><ele>21.25</ele><time>2026-04-12T14:04:00.998Z</time></trkpt><trkpt lat="44.962857765708634" lon="-1.15537933608688"><ele>21.0</ele><time>2026-04-12T14:04:01.998Z</time></trkpt><trkpt lat="44.96290584024935" lon="-1.1554918497115665"><ele>21.0</ele><time>2026-04-12T14:04:02.998Z</time></trkpt><trkpt lat="44.96296452285963" lon="-1.1556552662407835"><ele>21.0</ele><time>2026-04-12T14:04:03.998Z</time></trkpt><trkpt lat="44.963016701006175" lon="-1.155785400110891"><ele>21.0</ele><time>2026-04-12T14:04:04.998Z</time></trkpt><trkpt lat="44.96307625859726" lon="-1.1558705495518493"><ele>21.0</ele><time>2026-04-12T14:04:05.998Z</time></trkpt><trkpt lat="44.963151693463175" lon="-1.1559458990078177"><ele>21.0</ele><time>2026-04-12T14:04:06.998Z</time></trkpt><trkpt lat="44.96324903920958" lon="-1.1560124732251624"><ele>21.0</ele><time>2026-04-12T14:04:07.998Z</time></trkpt><trkpt lat="44.9633307512436" lon="-1.1561053339735619"><ele>21.0</ele><time>2026-04-12T14:04:08.998Z</time></trkpt><trkpt lat="44.96336773247649" lon="-1.1562133171917497"><ele>21.0</ele><time>2026-04-12T14:04:09.998Z</time></trkpt><trkpt lat="44.963408566555515" lon="-1.1563210717933576"><ele>21.0</ele><time>2026-04-12T14:04:10.998Z</time></trkpt><trkpt lat="44.96347430914024" lon="-1.1565768940453165"><ele>21.5</ele><time>2026-04-12T14:04:11.998Z</time></trkpt><trkpt lat="44.96349622463981" lon="-1.1567992408783583"><ele>22.0</ele><time>2026-04-12T14:04:12.998Z</time></trkpt><trkpt lat="44.96351215001765" lon="-1.156956259730643"><ele>22.5</ele><time>2026-04-12T14:04:13.998Z</time></trkpt><trkpt lat="44.96352904449658" lon="-1.1571156698601999"><ele>23.0</ele><time>2026-04-12T14:04:14.998Z</time></trkpt><trkpt lat="44.96354285264429" lon="-1.1572505308312504"><ele>23.0</ele><time>2026-04-12T14:04:15.998Z</time></trkpt><trkpt lat="44.96355527670565" lon="-1.157363342976935"><ele>23.0</ele><time>2026-04-12T14:04:16.998Z</time></trkpt><trkpt lat="44.96357579584603" lon="-1.157464843524554"><ele>23.0</ele><time>2026-04-12T14:04:17.998Z</time></trkpt><trkpt lat="44.96362892630335" lon="-1.1575776796221084"><ele>23.0</ele><time>2026-04-12T14:04:18.998Z</time></trkpt><trkpt lat="44.96367829519654" lon="-1.1577284202642295"><ele>23.0</ele><time>2026-04-12T14:04:19.998Z</time></trkpt><trkpt lat="44.96370209494587" lon="-1.1578907800524025"><ele>23.25</ele><time>2026-04-12T14:04:21Z</time></trkpt><trkpt lat="44.96371674782428" lon="-1.1580332008617447"><ele>23.5</ele><time>2026-04-12T14:04:22Z</time></trkpt><trkpt lat="44.963754579263906" lon="-1.1581967851836208"><ele>23.75</ele><time>2026-04-12T14:04:23Z</time></trkpt><trkpt lat="44.96382058507762" lon="-1.1583468938653354"><ele>24.0</ele><time>2026-04-12T14:04:24Z</time></trkpt><trkpt lat="44.96388252927289" lon="-1.1584624394376108"><ele>24.0</ele><time>2026-04-12T14:04:25Z</time></trkpt><trkpt lat="44.963956043208306" lon="-1.1585904423518396"><ele>24.0</ele><time>2026-04-12T14:04:26Z</time></trkpt><trkpt lat="44.96402803515532" lon="-1.1586771126942181"><ele>24.0</ele><time>2026-04-12T14:04:27Z</time></trkpt><trkpt lat="44.96411249367078" lon="-1.1587508561327953"><ele>24.0</ele><time>2026-04-12T14:04:28Z</time></trkpt><trkpt lat="44.96421212377042" lon="-1.1588326233801682"><ele>24.0</ele><time>2026-04-12T14:04:29Z</time></trkpt><trkpt lat="44.96432032455467" lon="-1.158904681943876"><ele>24.2</ele><time>2026-04-12T14:04:30Z</time></trkpt><trkpt lat="44.96441795424902" lon="-1.1589681559706233"><ele>24.4</ele><time>2026-04-12T14:04:31Z</time></trkpt><trkpt lat="44.964510480055274" lon="-1.1590302916106041"><ele>24.6</ele><time>2026-04-12T14:04:32Z</time></trkpt><trkpt lat="44.96459803879381" lon="-1.1590889016486516"><ele>24.8</ele><time>2026-04-12T14:04:33Z</time></trkpt><trkpt lat="44.96469223956912" lon="-1.1591379972648368"><ele>25.0</ele><time>2026-04-12T14:04:34Z</time></trkpt><trkpt lat="44.964788076095886" lon="-1.159183424572896"><ele>24.666666666666668</ele><time>2026-04-12T14:04:35Z</time></trkpt><trkpt lat="44.96487299190571" lon="-1.15923214824538"><ele>24.333333333333336</ele><time>2026-04-12T14:04:36Z</time></trkpt><trkpt lat="44.96494684658497" lon="-1.159282498461657"><ele>24.0</ele><time>2026-04-12T14:04:37Z</time></trkpt><trkpt lat="44.96502267559663" lon="-1.159318830316992"><ele>23.666666666666668</ele><time>2026-04-12T14:04:38Z</time></trkpt><trkpt lat="44.96510936137298" lon="-1.1593553699575965"><ele>23.333333333333336</ele><time>2026-04-12T14:04:39Z</time></trkpt><trkpt lat="44.96519795622081" lon="-1.1594105075580232"><ele>23.0</ele><time>2026-04-12T14:04:40Z</time></trkpt><trkpt lat="44.9652980038261" lon="-1.1594882747919555"><ele>23.0</ele><time>2026-04-12T14:04:41Z</time></trkpt><trkpt lat="44.96540762782503" lon="-1.159589032950109"><ele>23.0</ele><time>2026-04-12T14:04:42Z</time></trkpt><trkpt lat="44.96550774219291" lon="-1.1596987244659989"><ele>23.0</ele><time>2026-04-12T14:04:43Z</time></trkpt><trkpt lat="44.96558383573298" lon="-1.1597771772407843"><ele>23.0</ele><time>2026-04-12T14:04:44Z</time></trkpt><trkpt lat="44.96570669017321" lon="-1.159864187281985"><ele>23.25</ele><time>2026-04-12T14:04:45Z</time></trkpt><trkpt lat="44.9658330737604" lon="-1.1599616796109753"><ele>23.5</ele><time>2026-04-12T14:04:46Z</time></trkpt><trkpt lat="44.96593304009543" lon="-1.1600880984727096"><ele>23.75</ele><time>2026-04-12T14:04:47Z</time></trkpt><trkpt lat="44.96604802406572" lon="-1.1602055300510916"><ele>24.0</ele><time>2026-04-12T14:04:48Z</time></trkpt><trkpt lat="44.9661473923074" lon="-1.1603060747348468"><ele>24.0</ele><time>2026-04-12T14:04:49Z</time></trkpt><trkpt lat="44.96624881512598" lon="-1.1603536852565437"><ele>24.0</ele><time>2026-04-12T14:04:50Z</time></trkpt><trkpt lat="44.966354103335746" lon="-1.1604043787993048"><ele>24.0</ele><time>2026-04-12T14:04:51Z</time></trkpt><trkpt lat="44.96643863213968" lon="-1.1604581793005813"><ele>24.0</ele><time>2026-04-12T14:04:52Z</time></trkpt><trkpt lat="44.96652482896388" lon="-1.160487709870639"><ele>24.0</ele><time>2026-04-12T14:04:53Z</time></trkpt><trkpt lat="44.96664298501975" lon="-1.1604767414986747"><ele>24.0</ele><time>2026-04-12T14:04:54Z</time></trkpt><trkpt lat="44.96679592238995" lon="-1.1604298081830673"><ele>24.0</ele><time>2026-04-12T14:04:55Z</time></trkpt><trkpt lat="44.96695371304069" lon="-1.1604270022316578"><ele>24.0</ele><time>2026-04-12T14:04:56Z</time></trkpt><trkpt lat="44.967072157218475" lon="-1.160446036183801"><ele>24.0</ele><time>2026-04-12T14:04:57Z</time></trkpt><trkpt lat="44.96717143101035" lon="-1.160495191097017"><ele>24.0</ele><time>2026-04-12T14:04:58Z</time></trkpt><trkpt lat="44.96724899504332" lon="-1.1605440457653695"><ele>24.0</ele><time>2026-04-12T14:04:59Z</time></trkpt><trkpt lat="44.96732677053061" lon="-1.160620475814337"><ele>24.0</ele><time>2026-04-12T14:05:00Z</time></trkpt><trkpt lat="44.96739597651417" lon="-1.1607196445061816"><ele>24.0</ele><time>2026-04-12T14:05:01Z</time></trkpt><trkpt lat="44.96749739198076" lon="-1.1608236390880642"><ele>24.0</ele><time>2026-04-12T14:05:02Z</time></trkpt><trkpt lat="44.967598377445164" lon="-1.160872527125131"><ele>24.666666666666664</ele><time>2026-04-12T14:05:03Z</time></trkpt><trkpt lat="44.96772767513437" lon="-1.1609104587009513"><ele>25.333333333333332</ele><time>2026-04-12T14:05:04Z</time></trkpt><trkpt lat="44.967883656243366" lon="-1.1609479499092088"><ele>26.0</ele><time>2026-04-12T14:05:05Z</time></trkpt><trkpt lat="44.96804393670143" lon="-1.161003165114336"><ele>26.0</ele><time>2026-04-12T14:05:06Z</time></trkpt><trkpt lat="44.968226085286815" lon="-1.1610590919625934"><ele>26.0</ele><time>2026-04-12T14:05:07Z</time></trkpt><trkpt lat="44.9683993554944" lon="-1.1611100095717704"><ele>26.0</ele><time>2026-04-12T14:05:07.999Z</time></trkpt><trkpt lat="44.968567471646764" lon="-1.1611606122961688"><ele>26.666666666666664</ele><time>2026-04-12T14:05:08.999Z</time></trkpt><trkpt lat="44.968776049364116" lon="-1.1612500463838014"><ele>27.333333333333336</ele><time>2026-04-12T14:05:09.999Z</time></trkpt><trkpt lat="44.96891961394422" lon="-1.1612935870300818"><ele>28.0</ele><time>2026-04-12T14:05:10.999Z</time></trkpt><trkpt lat="44.96905504998365" lon="-1.161350334014004"><ele>28.25</ele><time>2026-04-12T14:05:11.999Z</time></trkpt><trkpt lat="44.969207041359276" lon="-1.161435100841748"><ele>28.5</ele><time>2026-04-12T14:05:12.999Z</time></trkpt><trkpt lat="44.96932397239142" lon="-1.161513550662738"><ele>28.75</ele><time>2026-04-12T14:05:13.999Z</time></trkpt><trkpt lat="44.969428099855385" lon="-1.1615908613562786"><ele>29.0</ele><time>2026-04-12T14:05:14.999Z</time></trkpt><trkpt lat="44.96951814084283" lon="-1.1616760144432636"><ele>29.0</ele><time>2026-04-12T14:05:15.999Z</time></trkpt><trkpt lat="44.96961540129324" lon="-1.1618166816958009"><ele>29.0</ele><time>2026-04-12T14:05:16.999Z</time></trkpt><trkpt lat="44.969718624198876" lon="-1.1619234850532238"><ele>29.0</ele><time>2026-04-12T14:05:17.999Z</time></trkpt><trkpt lat="44.96981157976583" lon="-1.16198896810971"><ele>29.0</ele><time>2026-04-12T14:05:18.999Z</time></trkpt><trkpt lat="44.96989018645102" lon="-1.1620569145643345"><ele>29.0</ele><time>2026-04-12T14:05:19.999Z</time></trkpt><trkpt lat="44.96998909579873" lon="-1.162101018066671"><ele>29.0</ele><time>2026-04-12T14:05:20.999Z</time></trkpt><trkpt lat="44.970097866744126" lon="-1.1621173433628662"><ele>29.0</ele><time>2026-04-12T14:05:21.999Z</time></trkpt><trkpt lat="44.97018662069639" lon="-1.1621230932919695"><ele>29.0</ele><time>2026-04-12T14:05:22.999Z</time></trkpt><trkpt lat="44.97026605635494" lon="-1.1621332495260934"><ele>29.0</ele><time>2026-04-12T14:05:23.999Z</time></trkpt><trkpt lat="44.97035124553251" lon="-1.1621620235903416"><ele>29.0</ele><time>2026-04-12T14:05:24.999Z</time></trkpt><trkpt lat="44.97045502998177" lon="-1.162241608381457"><ele>29.0</ele><time>2026-04-12T14:05:25.999Z</time></trkpt><trkpt lat="44.97057959256254" lon="-1.162349188442662"><ele>29.0</ele><time>2026-04-12T14:05:26.999Z</time></trkpt><trkpt lat="44.97073185624918" lon="-1.1624645415866899"><ele>29.0</ele><time>2026-04-12T14:05:27.999Z</time></trkpt><trkpt lat="44.97087822475447" lon="-1.1625600859785759"><ele>28.75</ele><time>2026-04-12T14:05:28.999Z</time></trkpt><trkpt lat="44.971029576693674" lon="-1.1626483884041763"><ele>28.5</ele><time>2026-04-12T14:05:29.999Z</time></trkpt><trkpt lat="44.97115824824994" lon="-1.1627118245163632"><ele>28.25</ele><time>2026-04-12T14:05:30.999Z</time></trkpt><trkpt lat="44.97128495012482" lon="-1.1627705975076164"><ele>28.0</ele><time>2026-04-12T14:05:31.999Z</time></trkpt><trkpt lat="44.9714151537626" lon="-1.1628164799439071"><ele>28.0</ele><time>2026-04-12T14:05:32.999Z</time></trkpt><trkpt lat="44.97156991377948" lon="-1.1628689212373666"><ele>28.0</ele><time>2026-04-12T14:05:33.999Z</time></trkpt><trkpt lat="44.97169987049217" lon="-1.1629258595486254"><ele>28.0</ele><time>2026-04-12T14:05:34.999Z</time></trkpt><trkpt lat="44.971811757000744" lon="-1.1629828975369818"><ele>28.0</ele><time>2026-04-12T14:05:35.999Z</time></trkpt><trkpt lat="44.971932923897235" lon="-1.1630197456522744"><ele>28.0</ele><time>2026-04-12T14:05:36.999Z</time></trkpt><trkpt lat="44.97205986946483" lon="-1.1630162976433849"><ele>28.0</ele><time>2026-04-12T14:05:37.999Z</time></trkpt><trkpt lat="44.97220051859177" lon="-1.1629921275491502"><ele>28.0</ele><time>2026-04-12T14:05:38.999Z</time></trkpt><trkpt lat="44.97232749363669" lon="-1.1629527929148156"><ele>28.0</ele><time>2026-04-12T14:05:39.999Z</time></trkpt><trkpt lat="44.972431511898094" lon="-1.162884834123585"><ele>27.75</ele><time>2026-04-12T14:05:40.999Z</time></trkpt><trkpt lat="44.972533630993944" lon="-1.1627835641288302"><ele>27.5</ele><time>2026-04-12T14:05:41.999Z</time></trkpt><trkpt lat="44.97265128401194" lon="-1.1627360726213019"><ele>27.25</ele><time>2026-04-12T14:05:42.999Z</time></trkpt><trkpt lat="44.9727792266374" lon="-1.1626821257636943"><ele>27.0</ele><time>2026-04-12T14:05:43.999Z</time></trkpt><trkpt lat="44.97288786047215" lon="-1.1626198596431678"><ele>27.0</ele><time>2026-04-12T14:05:44.999Z</time></trkpt><trkpt lat="44.972981447094675" lon="-1.162595087823008"><ele>27.0</ele><time>2026-04-12T14:05:45.999Z</time></trkpt><trkpt lat="44.97310058254268" lon="-1.1626074777916329"><ele>27.0</ele><time>2026-04-12T14:05:46.999Z</time></trkpt><trkpt lat="44.97323340777448" lon="-1.1626382412620975"><ele>27.0</ele><time>2026-04-12T14:05:47.999Z</time></trkpt><trkpt lat="44.97334961696887" lon="-1.162652913834169"><ele>27.0</ele><time>2026-04-12T14:05:48.999Z</time></trkpt><trkpt lat="44.97345180150596" lon="-1.1626686073734023"><ele>27.0</ele><time>2026-04-12T14:05:49.999Z</time></trkpt><trkpt lat="44.973549698596855" lon="-1.1626708781278672"><ele>27.0</ele><time>2026-04-12T14:05:50.999Z</time></trkpt><trkpt lat="44.973669528673206" lon="-1.1626234742689694"><ele>27.0</ele><time>2026-04-12T14:05:51.999Z</time></trkpt><trkpt lat="44.97378940698818" lon="-1.1625503809164621"><ele>27.0</ele><time>2026-04-12T14:05:52.999Z</time></trkpt><trkpt lat="44.97390354527542" lon="-1.1624861469203822"><ele>27.0</ele><time>2026-04-12T14:05:53.998Z</time></trkpt><trkpt lat="44.97401236510154" lon="-1.1624521689933287"><ele>27.0</ele><time>2026-04-12T14:05:54.998Z</time></trkpt><trkpt lat="44.97411637019842" lon="-1.1624342196914959"><ele>27.0</ele><time>2026-04-12T14:05:55.998Z</time></trkpt><trkpt lat="44.97425218011173" lon="-1.1624060473726598"><ele>27.0</ele><time>2026-04-12T14:05:56.998Z</time></trkpt><trkpt lat="44.97440983956964" lon="-1.162386661057687"><ele>27.0</ele><time>2026-04-12T14:05:57.998Z</time></trkpt><trkpt lat="44.97453158700346" lon="-1.16236408870845"><ele>27.0</ele><time>2026-04-12T14:05:58.998Z</time></trkpt><trkpt lat="44.97467211189569" lon="-1.1623523393671868"><ele>27.0</ele><time>2026-04-12T14:05:59.998Z</time></trkpt><trkpt lat="44.97478947211562" lon="-1.1623769894086342"><ele>26.5</ele><time>2026-04-12T14:06:00.998Z</time></trkpt><trkpt lat="44.974930625377695" lon="-1.1624150405557632"><ele>26.0</ele><time>2026-04-12T14:06:01.998Z</time></trkpt><trkpt lat="44.97505667772587" lon="-1.1624455349528064"><ele>25.5</ele><time>2026-04-12T14:06:02.998Z</time></trkpt><trkpt lat="44.97515397780368" lon="-1.162484520342123"><ele>25.0</ele><time>2026-04-12T14:06:03.998Z</time></trkpt><trkpt lat="44.97524586313656" lon="-1.1625317357793048"><ele>26.0</ele><time>2026-04-12T14:06:04.998Z</time></trkpt><trkpt lat="44.975320016288585" lon="-1.1626054346109491"><ele>27.0</ele><time>2026-04-12T14:06:05.998Z</time></trkpt><trkpt lat="44.975418626155076" lon="-1.1627216210389517"><ele>28.0</ele><time>2026-04-12T14:06:06.998Z</time></trkpt><trkpt lat="44.975528177680296" lon="-1.1628570105507021"><ele>29.0</ele><time>2026-04-12T14:06:07.998Z</time></trkpt><trkpt lat="44.97560660438708" lon="-1.1629843236751427"><ele>29.0</ele><time>2026-04-12T14:06:08.998Z</time></trkpt><trkpt lat="44.97570078540176" lon="-1.1631289178702104"><ele>29.0</ele><time>2026-04-12T14:06:09.998Z</time></trkpt><trkpt lat="44.97577190356568" lon="-1.1632406811701088"><ele>29.0</ele><time>2026-04-12T14:06:10.998Z</time></trkpt><trkpt lat="44.9758763493253" lon="-1.163326937639697"><ele>29.0</ele><time>2026-04-12T14:06:11.998Z</time></trkpt><trkpt lat="44.97595710580836" lon="-1.1634041342647214"><ele>27.799999999999997</ele><time>2026-04-12T14:06:12.998Z</time></trkpt><trkpt lat="44.976009513714246" lon="-1.1634888672407406"><ele>26.599999999999998</ele><time>2026-04-12T14:06:13.998Z</time></trkpt><trkpt lat="44.9760569328662" lon="-1.1635885248656919"><ele>25.4</ele><time>2026-04-12T14:06:15.998Z</time></trkpt><trkpt lat="44.97610598753468" lon="-1.1637889860223043"><ele>24.2</ele><time>2026-04-12T14:06:17.998Z</time></trkpt><trkpt lat="44.97612058518728" lon="-1.1638908342476642"><ele>23.0</ele><time>2026-04-12T14:06:18.998Z</time></trkpt><trkpt lat="44.976138453491274" lon="-1.1639927669620402"><ele>23.0</ele><time>2026-04-12T14:06:19.998Z</time></trkpt><trkpt lat="44.97621419434572" lon="-1.1640756388625828"><ele>23.0</ele><time>2026-04-12T14:06:20.998Z</time></trkpt><trkpt lat="44.97633267700845" lon="-1.1641621189762716"><ele>23.0</ele><time>2026-04-12T14:06:21.998Z</time></trkpt><trkpt lat="44.97640633030398" lon="-1.1642556302886307"><ele>23.0</ele><time>2026-04-12T14:06:22.998Z</time></trkpt><trkpt lat="44.97643660182903" lon="-1.1643864960897947"><ele>23.0</ele><time>2026-04-12T14:06:23.998Z</time></trkpt><trkpt lat="44.97646829397503" lon="-1.1645300389559958"><ele>23.0</ele><time>2026-04-12T14:06:24.998Z</time></trkpt><trkpt lat="44.9765037870413" lon="-1.1647028873763552"><ele>23.0</ele><time>2026-04-12T14:06:26Z</time></trkpt><trkpt lat="44.976560238855676" lon="-1.1648655494998816"><ele>23.0</ele><time>2026-04-12T14:06:27Z</time></trkpt><trkpt lat="44.97660995749105" lon="-1.1649882285675548"><ele>23.0</ele><time>2026-04-12T14:06:28Z</time></trkpt><trkpt lat="44.97664452260635" lon="-1.1650904624574951"><ele>23.0</ele><time>2026-04-12T14:06:29Z</time></trkpt><trkpt lat="44.976668085454044" lon="-1.1652135105645323"><ele>23.166666666666668</ele><time>2026-04-12T14:06:31Z</time></trkpt><trkpt lat="44.97668947012203" lon="-1.1653307704853817"><ele>23.333333333333336</ele><time>2026-04-12T14:06:44Z</time></trkpt><trkpt lat="44.97668835567057" lon="-1.1654454792087101"><ele>23.5</ele><time>2026-04-12T14:06:45Z</time></trkpt><trkpt lat="44.97668297664414" lon="-1.1655544355257303"><ele>23.666666666666668</ele><time>2026-04-12T14:06:46Z</time></trkpt><trkpt lat="44.97666378371289" lon="-1.1656592882546617"><ele>23.833333333333332</ele><time>2026-04-12T14:06:47Z</time></trkpt><trkpt lat="44.97663612072671" lon="-1.1657437554534014"><ele>24.0</ele><time>2026-04-12T14:06:48Z</time></trkpt><trkpt lat="44.97657866178842" lon="-1.1658387279498101"><ele>24.6</ele><time>2026-04-12T14:06:50Z</time></trkpt><trkpt lat="44.97648429501261" lon="-1.1659454987757725"><ele>25.2</ele><time>2026-04-12T14:06:52Z</time></trkpt><trkpt lat="44.9764232402322" lon="-1.166024412025107"><ele>25.800000000000004</ele><time>2026-04-12T14:06:53Z</time></trkpt><trkpt lat="44.97638500059495" lon="-1.1661261176807853"><ele>26.400000000000002</ele><time>2026-04-12T14:06:54Z</time></trkpt><trkpt lat="44.97634292239771" lon="-1.1662284104677028"><ele>27.0</ele><time>2026-04-12T14:06:55Z</time></trkpt><trkpt lat="44.97626332242774" lon="-1.1663360729404524"><ele>27.0</ele><time>2026-04-12T14:06:57Z</time></trkpt><trkpt lat="44.97618742007509" lon="-1.1664156772325625"><ele>27.0</ele><time>2026-04-12T14:06:59Z</time></trkpt><trkpt lat="44.97612745117885" lon="-1.1664954499883584"><ele>27.0</ele><time>2026-04-12T14:07:01Z</time></trkpt><trkpt lat="44.976072885250844" lon="-1.166540661862308"><ele>27.0</ele><time>2026-04-12T14:07:03Z</time></trkpt><trkpt lat="44.97604208023817" lon="-1.1666207995088305"><ele>27.0</ele><time>2026-04-12T14:07:07Z</time></trkpt><trkpt lat="44.975994686313896" lon="-1.166738424442357"><ele>27.0</ele><time>2026-04-12T14:07:12.999Z</time></trkpt><trkpt lat="44.975937117292986" lon="-1.1668111663299676"><ele>27.8</ele><time>2026-04-12T14:07:13.999Z</time></trkpt><trkpt lat="44.97585976305428" lon="-1.166877688378014"><ele>28.6</ele><time>2026-04-12T14:07:14.999Z</time></trkpt><trkpt lat="44.975768063131724" lon="-1.1669725523798284"><ele>29.400000000000002</ele><time>2026-04-12T14:07:15.999Z</time></trkpt><trkpt lat="44.9756946926199" lon="-1.1670613766621791"><ele>30.200000000000003</ele><time>2026-04-12T14:07:16.999Z</time></trkpt><trkpt lat="44.975617706495875" lon="-1.1671480792938003"><ele>31.0</ele><time>2026-04-12T14:07:17.999Z</time></trkpt><trkpt lat="44.97553571363247" lon="-1.1672427867391968"><ele>30.6</ele><time>2026-04-12T14:07:19.999Z</time></trkpt><trkpt lat="44.97553248741698" lon="-1.167426754115051"><ele>30.200000000000003</ele><time>2026-04-12T14:07:21.999Z</time></trkpt><trkpt lat="44.975526684690045" lon="-1.167546427061633"><ele>29.799999999999997</ele><time>2026-04-12T14:07:22.999Z</time></trkpt><trkpt lat="44.97546720839902" lon="-1.1677046489931726"><ele>29.4</ele><time>2026-04-12T14:07:24.999Z</time></trkpt><trkpt lat="44.975440496962186" lon="-1.1678291174711015"><ele>29.0</ele><time>2026-04-12T14:07:25.999Z</time></trkpt><trkpt lat="44.9754045022902" lon="-1.167955137917125"><ele>29.0</ele><time>2026-04-12T14:07:27.999Z</time></trkpt><trkpt lat="44.97538974055182" lon="-1.1680619340330523"><ele>29.0</ele><time>2026-04-12T14:07:46.999Z</time></trkpt><trkpt lat="44.97536667671332" lon="-1.168152149728086"><ele>29.0</ele><time>2026-04-12T14:07:47.999Z</time></trkpt><trkpt lat="44.975341959282545" lon="-1.1682825989151515"><ele>29.0</ele><time>2026-04-12T14:07:48.999Z</time></trkpt><trkpt lat="44.97531523919584" lon="-1.1684044497840096"><ele>29.0</ele><time>2026-04-12T14:07:49.999Z</time></trkpt><trkpt lat="44.97529848496584" lon="-1.1685888476506991"><ele>29.333333333333332</ele><time>2026-04-12T14:07:50.999Z</time></trkpt><trkpt lat="44.9752853978642" lon="-1.1687824313756165"><ele>29.666666666666664</ele><time>2026-04-12T14:07:51.999Z</time></trkpt><trkpt lat="44.975223028590214" lon="-1.1689993454198335"><ele>30.0</ele><time>2026-04-12T14:07:52.999Z</time></trkpt><trkpt lat="44.97516959056555" lon="-1.1692099012849213"><ele>30.0</ele><time>2026-04-12T14:07:53.999Z</time></trkpt><trkpt lat="44.9751188307908" lon="-1.169416298652165"><ele>30.0</ele><time>2026-04-12T14:07:54.998Z</time></trkpt><trkpt lat="44.975080653503646" lon="-1.1695758165048262"><ele>30.0</ele><time>2026-04-12T14:07:55.998Z</time></trkpt><trkpt lat="44.975049578863675" lon="-1.1696991521959876"><ele>30.0</ele><time>2026-04-12T14:07:56.998Z</time></trkpt><trkpt lat="44.97503555903396" lon="-1.169802858540698"><ele>30.0</ele><time>2026-04-12T14:07:57.998Z</time></trkpt><trkpt lat="44.97500094326506" lon="-1.1699169531681415"><ele>29.2</ele><time>2026-04-12T14:07:59.998Z</time></trkpt><trkpt lat="44.974977047029434" lon="-1.170007338358483"><ele>28.4</ele><time>2026-04-12T14:08:01.998Z</time></trkpt><trkpt lat="44.97496942293681" lon="-1.170109742929774"><ele>27.6</ele><time>2026-04-12T14:08:03.998Z</time></trkpt><trkpt lat="44.97492160220336" lon="-1.1702351053964004"><ele>26.8</ele><time>2026-04-12T14:08:05.998Z</time></trkpt><trkpt lat="44.97481232371921" lon="-1.1703542337564796"><ele>26.0</ele><time>2026-04-12T14:08:07.998Z</time></trkpt><trkpt lat="44.9747446476616" lon="-1.1704191546753666"><ele>26.0</ele><time>2026-04-12T14:08:08.998Z</time></trkpt><trkpt lat="44.974659337003494" lon="-1.170477349869666"><ele>26.0</ele><time>2026-04-12T14:08:09.998Z</time></trkpt><trkpt lat="44.974564929090846" lon="-1.1705118236114278"><ele>26.0</ele><time>2026-04-12T14:08:10.998Z</time></trkpt><trkpt lat="44.97446630599342" lon="-1.1705269435402308"><ele>26.0</ele><time>2026-04-12T14:08:11.998Z</time></trkpt><trkpt lat="44.974358682587535" lon="-1.1705316880078254"><ele>26.0</ele><time>2026-04-12T14:08:12.998Z</time></trkpt><trkpt lat="44.97426069520556" lon="-1.170507551369947"><ele>25.6</ele><time>2026-04-12T14:08:13.998Z</time></trkpt><trkpt lat="44.974150236216495" lon="-1.1704620236929033"><ele>25.200000000000003</ele><time>2026-04-12T14:08:14.998Z</time></trkpt><trkpt lat="44.97406719880191" lon="-1.1704206849138072"><ele>24.799999999999997</ele><time>2026-04-12T14:08:15.998Z</time></trkpt><trkpt lat="44.97398555965177" lon="-1.1704061300487951"><ele>24.4</ele><time>2026-04-12T14:08:16.998Z</time></trkpt><trkpt lat="44.97391449507676" lon="-1.1704145435546274"><ele>24.0</ele><time>2026-04-12T14:08:17.998Z</time></trkpt><trkpt lat="44.973817320452795" lon="-1.1704403130232286"><ele>24.0</ele><time>2026-04-12T14:08:18.998Z</time></trkpt><trkpt lat="44.97373181063796" lon="-1.170480037229036"><ele>24.0</ele><time>2026-04-12T14:08:19.998Z</time></trkpt><trkpt lat="44.97363340706926" lon="-1.1705344432381666"><ele>24.0</ele><time>2026-04-12T14:08:20.998Z</time></trkpt><trkpt lat="44.97352079575229" lon="-1.1705946199419346"><ele>24.0</ele><time>2026-04-12T14:08:21.998Z</time></trkpt><trkpt lat="44.973428035672356" lon="-1.1706466619350202"><ele>24.0</ele><time>2026-04-12T14:08:22.998Z</time></trkpt><trkpt lat="44.97334413668951" lon="-1.1706915668894915"><ele>24.166666666666668</ele><time>2026-04-12T14:08:23.998Z</time></trkpt><trkpt lat="44.973260980683975" lon="-1.1707294745966883"><ele>24.333333333333336</ele><time>2026-04-12T14:08:24.998Z</time></trkpt><trkpt lat="44.973177209535244" lon="-1.170769285313454"><ele>24.5</ele><time>2026-04-12T14:08:25.998Z</time></trkpt><trkpt lat="44.97310293071055" lon="-1.1708196865909177"><ele>24.666666666666668</ele><time>2026-04-12T14:08:26.998Z</time></trkpt><trkpt lat="44.973036660542974" lon="-1.1708642953230184"><ele>24.833333333333336</ele><time>2026-04-12T14:08:27.998Z</time></trkpt><trkpt lat="44.97296524553296" lon="-1.1709260819068839"><ele>25.0</ele><time>2026-04-12T14:08:28.998Z</time></trkpt><trkpt lat="44.97291024929973" lon="-1.1710121136929332"><ele>25.0</ele><time>2026-04-12T14:08:29.998Z</time></trkpt><trkpt lat="44.972840865197995" lon="-1.1711457402611283"><ele>25.0</ele><time>2026-04-12T14:08:31Z</time></trkpt><trkpt lat="44.972793261508976" lon="-1.1712898562312115"><ele>25.0</ele><time>2026-04-12T14:08:32Z</time></trkpt><trkpt lat="44.9727381046205" lon="-1.171455265345458"><ele>25.0</ele><time>2026-04-12T14:08:33Z</time></trkpt><trkpt lat="44.97267195401946" lon="-1.1716333432727328"><ele>25.5</ele><time>2026-04-12T14:08:34Z</time></trkpt><trkpt lat="44.97260603993363" lon="-1.1717996032730618"><ele>26.0</ele><time>2026-04-12T14:08:35Z</time></trkpt><trkpt lat="44.972547460149535" lon="-1.1719478679568283"><ele>26.5</ele><time>2026-04-12T14:08:36Z</time></trkpt><trkpt lat="44.972494492192354" lon="-1.172082483625227"><ele>27.0</ele><time>2026-04-12T14:08:37Z</time></trkpt><trkpt lat="44.97244855392601" lon="-1.1722059788678263"><ele>26.200000000000003</ele><time>2026-04-12T14:08:38Z</time></trkpt><trkpt lat="44.97240082917089" lon="-1.1723164917406232"><ele>25.400000000000002</ele><time>2026-04-12T14:08:39Z</time></trkpt><trkpt lat="44.972353410345846" lon="-1.1724486176034665"><ele>24.6</ele><time>2026-04-12T14:08:40Z</time></trkpt><trkpt lat="44.97230954185058" lon="-1.172561730374959"><ele>23.799999999999997</ele><time>2026-04-12T14:08:41Z</time></trkpt><trkpt lat="44.97225999807286" lon="-1.1726908105663767"><ele>23.0</ele><time>2026-04-12T14:08:42Z</time></trkpt><trkpt lat="44.97221205574816" lon="-1.1728297371723229"><ele>22.833333333333336</ele><time>2026-04-12T14:08:43Z</time></trkpt><trkpt lat="44.97220746377225" lon="-1.1729655790531386"><ele>22.666666666666668</ele><time>2026-04-12T14:08:46Z</time></trkpt><trkpt lat="44.97225153749341" lon="-1.1730348461653375"><ele>22.5</ele><time>2026-04-12T14:08:47Z</time></trkpt><trkpt lat="44.97228607971685" lon="-1.1731131106468768"><ele>22.333333333333332</ele><time>2026-04-12T14:08:48Z</time></trkpt><trkpt lat="44.972295492693526" lon="-1.1732201051630549"><ele>22.166666666666664</ele><time>2026-04-12T14:08:49Z</time></trkpt><trkpt lat="44.972282378700314" lon="-1.1733551442705645"><ele>22.0</ele><time>2026-04-12T14:08:50Z</time></trkpt><trkpt lat="44.97225793042158" lon="-1.1734750140228407"><ele>22.0</ele><time>2026-04-12T14:08:51Z</time></trkpt><trkpt lat="44.972205655821575" lon="-1.1736212611279093"><ele>22.0</ele><time>2026-04-12T14:08:52Z</time></trkpt><trkpt lat="44.972176430395834" lon="-1.1737241214217122"><ele>22.0</ele><time>2026-04-12T14:08:53Z</time></trkpt><trkpt lat="44.97216817733746" lon="-1.1738409800077592"><ele>22.0</ele><time>2026-04-12T14:08:54Z</time></trkpt><trkpt lat="44.97218081582918" lon="-1.1739632044374109"><ele>22.0</ele><time>2026-04-12T14:08:55Z</time></trkpt><trkpt lat="44.97221224398036" lon="-1.1741210638535944"><ele>22.0</ele><time>2026-04-12T14:08:56Z</time></trkpt><trkpt lat="44.972236018527816" lon="-1.1742773307306522"><ele>22.0</ele><time>2026-04-12T14:08:57Z</time></trkpt><trkpt lat="44.97225275788064" lon="-1.1743849558318813"><ele>22.0</ele><time>2026-04-12T14:08:58Z</time></trkpt><trkpt lat="44.97225022815732" lon="-1.174563738840461"><ele>22.0</ele><time>2026-04-12T14:09:00Z</time></trkpt><trkpt lat="44.972225631707694" lon="-1.1746956096633598"><ele>22.0</ele><time>2026-04-12T14:09:02Z</time></trkpt><trkpt lat="44.97218492651284" lon="-1.1747851508730878"><ele>22.333333333333332</ele><time>2026-04-12T14:09:04Z</time></trkpt><trkpt lat="44.97216695778825" lon="-1.174901630024996"><ele>22.666666666666664</ele><time>2026-04-12T14:09:06Z</time></trkpt><trkpt lat="44.97219165362456" lon="-1.1749875708327555"><ele>23.0</ele><time>2026-04-12T14:09:07Z</time></trkpt><trkpt lat="44.97220421483436" lon="-1.175130616843357"><ele>23.333333333333332</ele><time>2026-04-12T14:09:08.999Z</time></trkpt><trkpt lat="44.97221587932554" lon="-1.1752508570120455"><ele>23.666666666666668</ele><time>2026-04-12T14:09:11.999Z</time></trkpt><trkpt lat="44.97224741687683" lon="-1.17533154382536"><ele>24.0</ele><time>2026-04-12T14:09:13.999Z</time></trkpt><trkpt lat="44.97223878976825" lon="-1.1754220476478834"><ele>24.0</ele><time>2026-04-12T14:09:16.999Z</time></trkpt><trkpt lat="44.97215326184535" lon="-1.1755064272551214"><ele>24.0</ele><time>2026-04-12T14:09:19.999Z</time></trkpt><trkpt lat="44.97210577883836" lon="-1.1755695927286212"><ele>24.0</ele><time>2026-04-12T14:09:21.999Z</time></trkpt><trkpt lat="44.9720739726279" lon="-1.1756489634531522"><ele>24.0</ele><time>2026-04-12T14:09:24.999Z</time></trkpt><trkpt lat="44.97203063249616" lon="-1.1757483259961932"><ele>24.0</ele><time>2026-04-12T14:09:27.999Z</time></trkpt><trkpt lat="44.971977735101746" lon="-1.175806636426191"><ele>24.0</ele><time>2026-04-12T14:09:31.999Z</time></trkpt><trkpt lat="44.97188077485662" lon="-1.175883175261857"><ele>25.5</ele><time>2026-04-12T14:09:34.999Z</time></trkpt><trkpt lat="44.97182473758309" lon="-1.1759768362298608"><ele>27.0</ele><time>2026-04-12T14:09:36.999Z</time></trkpt><trkpt lat="44.97176923679281" lon="-1.176094931137588"><ele>28.5</ele><time>2026-04-12T14:09:38.999Z</time></trkpt><trkpt lat="44.971772318300516" lon="-1.1761894729311744"><ele>30.0</ele><time>2026-04-12T14:09:41.999Z</time></trkpt><trkpt lat="44.971743323199746" lon="-1.1762843255348743"><ele>31.5</ele><time>2026-04-12T14:10:16.998Z</time></trkpt><trkpt lat="44.97166723540138" lon="-1.1763476946178926"><ele>33.0</ele><time>2026-04-12T14:10:18.998Z</time></trkpt><trkpt lat="44.97157068177811" lon="-1.1764396216542827"><ele>33.0</ele><time>2026-04-12T14:10:20.998Z</time></trkpt><trkpt lat="44.97152851319645" lon="-1.1765127029820825"><ele>33.0</ele><time>2026-04-12T14:10:21.998Z</time></trkpt><trkpt lat="44.97152009535653" lon="-1.1766149592902497"><ele>33.0</ele><time>2026-04-12T14:10:23.998Z</time></trkpt><trkpt lat="44.97154134932111" lon="-1.1767112209282005"><ele>33.0</ele><time>2026-04-12T14:10:24.998Z</time></trkpt><trkpt lat="44.97155318966765" lon="-1.1768185336459644"><ele>33.0</ele><time>2026-04-12T14:10:25.998Z</time></trkpt><trkpt lat="44.97156624606121" lon="-1.1769807540118196"><ele>33.0</ele><time>2026-04-12T14:10:27.998Z</time></trkpt><trkpt lat="44.97158285376683" lon="-1.1770760348876397"><ele>32.833333333333336</ele><time>2026-04-12T14:10:28.998Z</time></trkpt><trkpt lat="44.97158598411294" lon="-1.1771729905545898"><ele>32.666666666666664</ele><time>2026-04-12T14:10:29.998Z</time></trkpt><trkpt lat="44.97163727151992" lon="-1.1772757889402337"><ele>32.5</ele><time>2026-04-12T14:10:31.998Z</time></trkpt><trkpt lat="44.971701831360384" lon="-1.1773112019180554"><ele>32.33333333333333</ele><time>2026-04-12T14:10:32.998Z</time></trkpt><trkpt lat="44.97175556339084" lon="-1.177387181042567"><ele>32.166666666666664</ele><time>2026-04-12T14:10:33.998Z</time></trkpt><trkpt lat="44.97177816931063" lon="-1.17749369203871"><ele>32.0</ele><time>2026-04-12T14:10:34.998Z</time></trkpt><trkpt lat="44.9718507469508" lon="-1.1776285120006087"><ele>31.999999999999996</ele><time>2026-04-12T14:10:37Z</time></trkpt><trkpt lat="44.97189882878948" lon="-1.177817585210605"><ele>32.0</ele><time>2026-04-12T14:10:39Z</time></trkpt><trkpt lat="44.97192474683131" lon="-1.1779090891457906"><ele>32.0</ele><time>2026-04-12T14:10:40Z</time></trkpt><trkpt lat="44.97194345681374" lon="-1.178004229734749"><ele>32.0</ele><time>2026-04-12T14:10:41Z</time></trkpt><trkpt lat="44.97200294928988" lon="-1.178059213652593"><ele>31.999999999999996</ele><time>2026-04-12T14:10:43Z</time></trkpt><trkpt lat="44.97205014283652" lon="-1.178119817063692"><ele>32.0</ele><time>2026-04-12T14:10:44Z</time></trkpt><trkpt lat="44.97209863232099" lon="-1.1781912187442285"><ele>31.666666666666664</ele><time>2026-04-12T14:10:45Z</time></trkpt><trkpt lat="44.97215952475984" lon="-1.1782154860368976"><ele>31.333333333333332</ele><time>2026-04-12T14:10:46Z</time></trkpt><trkpt lat="44.97222995933762" lon="-1.1782778807963512"><ele>31.0</ele><time>2026-04-12T14:10:47Z</time></trkpt><trkpt lat="44.97226947726009" lon="-1.1783526718182489"><ele>30.666666666666664</ele><time>2026-04-12T14:10:48Z</time></trkpt><trkpt lat="44.97229658720779" lon="-1.1785479745917322"><ele>30.333333333333332</ele><time>2026-04-12T14:10:50Z</time></trkpt><trkpt lat="44.972305559256846" lon="-1.178652983947397"><ele>30.0</ele><time>2026-04-12T14:10:51Z</time></trkpt><trkpt lat="44.97229129454657" lon="-1.1787557073460224"><ele>30.0</ele><time>2026-04-12T14:10:52Z</time></trkpt><trkpt lat="44.97222977697856" lon="-1.1788748334826553"><ele>30.0</ele><time>2026-04-12T14:10:54Z</time></trkpt><trkpt lat="44.97220776843111" lon="-1.178972703600154"><ele>30.0</ele><time>2026-04-12T14:10:55Z</time></trkpt><trkpt lat="44.97218413644089" lon="-1.1790773652213768"><ele>30.0</ele><time>2026-04-12T14:10:56Z</time></trkpt><trkpt lat="44.97213848190079" lon="-1.1791497895718366"><ele>30.0</ele><time>2026-04-12T14:10:57Z</time></trkpt><trkpt lat="44.97209233729361" lon="-1.1792134594831032"><ele>30.0</ele><time>2026-04-12T14:10:58Z</time></trkpt><trkpt lat="44.972120852345675" lon="-1.1793626389354501"><ele>29.8</ele><time>2026-04-12T14:11:00Z</time></trkpt><trkpt lat="44.972144217667854" lon="-1.1794828279245404"><ele>29.6</ele><time>2026-04-12T14:11:01Z</time></trkpt><trkpt lat="44.972174496493565" lon="-1.1795866047889594"><ele>29.4</ele><time>2026-04-12T14:11:02Z</time></trkpt><trkpt lat="44.972201651713185" lon="-1.1797308068781993"><ele>29.2</ele><time>2026-04-12T14:11:03Z</time></trkpt><trkpt lat="44.97220220555388" lon="-1.1798699525322618"><ele>29.0</ele><time>2026-04-12T14:11:04Z</time></trkpt><trkpt lat="44.972222035238595" lon="-1.1800232325696294"><ele>28.499999999999996</ele><time>2026-04-12T14:11:05Z</time></trkpt><trkpt lat="44.972256063939035" lon="-1.1801897033228241"><ele>28.0</ele><time>2026-04-12T14:11:07Z</time></trkpt><trkpt lat="44.9723084133343" lon="-1.1802559487297664"><ele>27.5</ele><time>2026-04-12T14:11:08.999Z</time></trkpt><trkpt lat="44.9723430398832" lon="-1.18033841083013"><ele>27.0</ele><time>2026-04-12T14:11:10.999Z</time></trkpt><trkpt lat="44.972359502535376" lon="-1.180432869043037"><ele>26.499999999999996</ele><time>2026-04-12T14:11:14.999Z</time></trkpt><trkpt lat="44.972335934169266" lon="-1.1805308882395635"><ele>26.0</ele><time>2026-04-12T14:11:18.999Z</time></trkpt><trkpt lat="44.97232208445765" lon="-1.1806278342192928"><ele>25.499999999999996</ele><time>2026-04-12T14:11:37.999Z</time></trkpt><trkpt lat="44.972301442507934" lon="-1.1807142700739255"><ele>25.0</ele><time>2026-04-12T14:11:38.999Z</time></trkpt><trkpt lat="44.972293587120554" lon="-1.1808037403195715"><ele>24.5</ele><time>2026-04-12T14:11:39.999Z</time></trkpt><trkpt lat="44.97231102411153" lon="-1.1809161316094976"><ele>24.0</ele><time>2026-04-12T14:11:40.999Z</time></trkpt><trkpt lat="44.972328376141306" lon="-1.1810215699954283"><ele>23.5</ele><time>2026-04-12T14:11:41.999Z</time></trkpt><trkpt lat="44.972322855455104" lon="-1.1811380462078465"><ele>23.0</ele><time>2026-04-12T14:11:42.999Z</time></trkpt><trkpt lat="44.97231603183519" lon="-1.181257864692843"><ele>23.0</ele><time>2026-04-12T14:11:43.999Z</time></trkpt><trkpt lat="44.97231454637009" lon="-1.1814117625296032"><ele>23.0</ele><time>2026-04-12T14:11:45.999Z</time></trkpt><trkpt lat="44.97221580120225" lon="-1.1815590690190092"><ele>23.0</ele><time>2026-04-12T14:11:47.999Z</time></trkpt><trkpt lat="44.972121911956215" lon="-1.1816343495607224"><ele>23.0</ele><time>2026-04-12T14:11:48.999Z</time></trkpt><trkpt lat="44.97204680154252" lon="-1.1817311951387164"><ele>23.2</ele><time>2026-04-12T14:11:49.999Z</time></trkpt><trkpt lat="44.97201343484265" lon="-1.1818569886257995"><ele>23.4</ele><time>2026-04-12T14:11:50.999Z</time></trkpt><trkpt lat="44.97192483415635" lon="-1.1819568885979688"><ele>23.599999999999998</ele><time>2026-04-12T14:11:52.999Z</time></trkpt><trkpt lat="44.97184849939568" lon="-1.1818941482841245"><ele>23.799999999999997</ele><time>2026-04-12T14:11:54.999Z</time></trkpt><trkpt lat="44.9717821665572" lon="-1.1818251557723116"><ele>24.0</ele><time>2026-04-12T14:11:55.998Z</time></trkpt><trkpt lat="44.97167737929889" lon="-1.1817722224576348"><ele>24.0</ele><time>2026-04-12T14:11:56.998Z</time></trkpt><trkpt lat="44.971583466968916" lon="-1.1816884387262352"><ele>24.0</ele><time>2026-04-12T14:11:57.998Z</time></trkpt><trkpt lat="44.97151566202962" lon="-1.1816684591432756"><ele>24.0</ele><time>2026-04-12T14:11:58.998Z</time></trkpt><trkpt lat="44.97139707727754" lon="-1.181759151016102"><ele>24.0</ele><time>2026-04-12T14:12:00.998Z</time></trkpt><trkpt lat="44.97128148443608" lon="-1.1818078973075907"><ele>24.0</ele><time>2026-04-12T14:12:01.998Z</time></trkpt><trkpt lat="44.971197704029066" lon="-1.1818335020209922"><ele>24.0</ele><time>2026-04-12T14:12:02.998Z</time></trkpt><trkpt lat="44.97113440548147" lon="-1.181816197943582"><ele>24.0</ele><time>2026-04-12T14:12:03.998Z</time></trkpt><trkpt lat="44.97107273592583" lon="-1.1817591655678"><ele>24.0</ele><time>2026-04-12T14:12:04.998Z</time></trkpt><trkpt lat="44.97094834606459" lon="-1.1818254963129513"><ele>24.0</ele><time>2026-04-12T14:12:06.998Z</time></trkpt><trkpt lat="44.97088701280907" lon="-1.1818761741107213"><ele>24.0</ele><time>2026-04-12T14:12:07.998Z</time></trkpt><trkpt lat="44.97086542834519" lon="-1.1819617581593345"><ele>24.0</ele><time>2026-04-12T14:12:09.998Z</time></trkpt><trkpt lat="44.970915737187084" lon="-1.1820604077467851"><ele>24.0</ele><time>2026-04-12T14:12:11.998Z</time></trkpt><trkpt lat="44.97092619527557" lon="-1.182215990707791"><ele>24.0</ele><time>2026-04-12T14:12:13.998Z</time></trkpt><trkpt lat="44.970864139736726" lon="-1.1822430220339994"><ele>24.0</ele><time>2026-04-12T14:12:15.998Z</time></trkpt><trkpt lat="44.970797580963726" lon="-1.1821902437617078"><ele>24.0</ele><time>2026-04-12T14:12:16.998Z</time></trkpt><trkpt lat="44.970726780360344" lon="-1.1822581816996895"><ele>24.0</ele><time>2026-04-12T14:12:18.998Z</time></trkpt><trkpt lat="44.9706215978331" lon="-1.1823758298768638"><ele>26.166666666666668</ele><time>2026-04-12T14:12:20.998Z</time></trkpt><trkpt lat="44.970516092979906" lon="-1.1823764501617458"><ele>28.333333333333336</ele><time>2026-04-12T14:12:22.998Z</time></trkpt><trkpt lat="44.97046145924159" lon="-1.1824724199656378"><ele>30.5</ele><time>2026-04-12T14:12:24.998Z</time></trkpt><trkpt lat="44.970414202081834" lon="-1.182551971183719"><ele>32.66666666666667</ele><time>2026-04-12T14:12:25.998Z</time></trkpt><trkpt lat="44.97035814047387" lon="-1.1826610495381435"><ele>34.833333333333336</ele><time>2026-04-12T14:12:27.998Z</time></trkpt><trkpt lat="44.97031876878583" lon="-1.1827375629922015"><ele>37.0</ele><time>2026-04-12T14:12:29.998Z</time></trkpt><trkpt lat="44.97030340829296" lon="-1.1828851256198192"><ele>37.0</ele><time>2026-04-12T14:12:32.998Z</time></trkpt><trkpt lat="44.9702444114585" lon="-1.18294874440232"><ele>37.0</ele><time>2026-04-12T14:12:33.998Z</time></trkpt><trkpt lat="44.970202969088724" lon="-1.183054852393795"><ele>37.0</ele><time>2026-04-12T14:12:34.998Z</time></trkpt><trkpt lat="44.970146885015815" lon="-1.183111812461145"><ele>37.0</ele><time>2026-04-12T14:12:35.998Z</time></trkpt><trkpt lat="44.97007311670404" lon="-1.1831691847998347"><ele>37.0</ele><time>2026-04-12T14:12:36.998Z</time></trkpt><trkpt lat="44.97002341349229" lon="-1.183363724572168"><ele>36.4</ele><time>2026-04-12T14:12:38.998Z</time></trkpt><trkpt lat="44.969993895848155" lon="-1.1834551575367187"><ele>35.800000000000004</ele><time>2026-04-12T14:12:39.998Z</time></trkpt><trkpt lat="44.969953455077295" lon="-1.1835934763319136"><ele>35.2</ele><time>2026-04-12T14:12:41.998Z</time></trkpt><trkpt lat="44.970013716169674" lon="-1.1836859747773492"><ele>34.6</ele><time>2026-04-12T14:12:45Z</time></trkpt><trkpt lat="44.97005142589663" lon="-1.1837620607609511"><ele>34.0</ele><time>2026-04-12T14:12:50Z</time></trkpt><trkpt lat="44.970059621736475" lon="-1.1839476362364967"><ele>33.0</ele><time>2026-04-12T14:12:52Z</time></trkpt><trkpt lat="44.9700643379012" lon="-1.1840407481939044"><ele>32.0</ele><time>2026-04-12T14:12:53Z</time></trkpt><trkpt lat="44.97004013350269" lon="-1.184147162860814"><ele>31.0</ele><time>2026-04-12T14:12:55Z</time></trkpt><trkpt lat="44.97010059052101" lon="-1.1842237541504512"><ele>30.0</ele><time>2026-04-12T14:12:57Z</time></trkpt><trkpt lat="44.970093672884445" lon="-1.1843952316349993"><ele>29.000000000000004</ele><time>2026-04-12T14:12:59Z</time></trkpt><trkpt lat="44.970097068449704" lon="-1.1845270295675496"><ele>28.0</ele><time>2026-04-12T14:13:01Z</time></trkpt><trkpt lat="44.97010778201829" lon="-1.1846244938629211"><ele>28.0</ele><time>2026-04-12T14:13:03Z</time></trkpt><trkpt lat="44.970113901062064" lon="-1.184741940001715"><ele>27.999999999999996</ele><time>2026-04-12T14:13:05Z</time></trkpt><trkpt lat="44.97011238636601" lon="-1.184887642642"><ele>27.999999999999996</ele><time>2026-04-12T14:13:07Z</time></trkpt><trkpt lat="44.97007902355066" lon="-1.185002913120733"><ele>28.0</ele><time>2026-04-12T14:13:09.999Z</time></trkpt><trkpt lat="44.97008709862922" lon="-1.1851427961356416"><ele>28.0</ele><time>2026-04-12T14:13:11.999Z</time></trkpt><trkpt lat="44.9701590434551" lon="-1.1852305022020029"><ele>26.2</ele><time>2026-04-12T14:13:13.999Z</time></trkpt><trkpt lat="44.97017401623054" lon="-1.1853568071442322"><ele>24.4</ele><time>2026-04-12T14:13:15.999Z</time></trkpt><trkpt lat="44.97019400030073" lon="-1.1855199704803834"><ele>22.599999999999998</ele><time>2026-04-12T14:13:17.999Z</time></trkpt><trkpt lat="44.97026277261975" lon="-1.185624733588654"><ele>20.799999999999997</ele><time>2026-04-12T14:13:19.999Z</time></trkpt><trkpt lat="44.97033445572454" lon="-1.1857432481634758"><ele>19.0</ele><time>2026-04-12T14:13:21.999Z</time></trkpt><trkpt lat="44.970323622822654" lon="-1.1858740138311092"><ele>18.333333333333332</ele><time>2026-04-12T14:13:23.999Z</time></trkpt><trkpt lat="44.97034170475979" lon="-1.1859761528706512"><ele>17.666666666666664</ele><time>2026-04-12T14:13:25.999Z</time></trkpt><trkpt lat="44.970366482838266" lon="-1.1860823884259746"><ele>17.0</ele><time>2026-04-12T14:13:27.999Z</time></trkpt><trkpt lat="44.970418872752084" lon="-1.1861451071283544"><ele>16.333333333333332</ele><time>2026-04-12T14:13:30.999Z</time></trkpt><trkpt lat="44.970481119485434" lon="-1.1862653342770892"><ele>15.666666666666666</ele><time>2026-04-12T14:13:34.999Z</time></trkpt><trkpt lat="44.97048181864646" lon="-1.18638869189875"><ele>15.0</ele><time>2026-04-12T14:13:35.999Z</time></trkpt><trkpt lat="44.97047851087806" lon="-1.1865004169641513"><ele>15.6</ele><time>2026-04-12T14:13:36.999Z</time></trkpt><trkpt lat="44.970504572781614" lon="-1.1865926044145307"><ele>16.2</ele><time>2026-04-12T14:13:37.999Z</time></trkpt><trkpt lat="44.97050480174334" lon="-1.186809769239567"><ele>16.8</ele><time>2026-04-12T14:13:39.999Z</time></trkpt><trkpt lat="44.97051450995425" lon="-1.186915275887421"><ele>17.4</ele><time>2026-04-12T14:13:40.999Z</time></trkpt><trkpt lat="44.970509933401885" lon="-1.187020125890995"><ele>18.0</ele><time>2026-04-12T14:13:41.999Z</time></trkpt><trkpt lat="44.970517481318645" lon="-1.1871340378794046"><ele>18.0</ele><time>2026-04-12T14:13:42.999Z</time></trkpt><trkpt lat="44.97052569330653" lon="-1.1872404823683653"><ele>18.0</ele><time>2026-04-12T14:13:43.999Z</time></trkpt><trkpt lat="44.97053827375125" lon="-1.1873940879506568"><ele>18.0</ele><time>2026-04-12T14:13:45.999Z</time></trkpt><trkpt lat="44.97053389123134" lon="-1.1875392282049646"><ele>18.0</ele><time>2026-04-12T14:13:46.999Z</time></trkpt><trkpt lat="44.97054456321952" lon="-1.1876519945591932"><ele>18.0</ele><time>2026-04-12T14:13:47.999Z</time></trkpt><trkpt lat="44.97055648552046" lon="-1.1877436767697875"><ele>18.0</ele><time>2026-04-12T14:13:48.999Z</time></trkpt><trkpt lat="44.97052340867535" lon="-1.1878233703972114"><ele>17.25</ele><time>2026-04-12T14:13:49.999Z</time></trkpt><trkpt lat="44.970438720793936" lon="-1.187946223675632"><ele>16.5</ele><time>2026-04-12T14:13:50.999Z</time></trkpt><trkpt lat="44.97031939816673" lon="-1.1880698802919636"><ele>15.75</ele><time>2026-04-12T14:13:51.999Z</time></trkpt><trkpt lat="44.97020570602931" lon="-1.1881434161761375"><ele>15.0</ele><time>2026-04-12T14:13:52.999Z</time></trkpt><trkpt lat="44.970074251990454" lon="-1.1882206323674238"><ele>14.0</ele><time>2026-04-12T14:13:53.999Z</time></trkpt><trkpt lat="44.96998046727871" lon="-1.1882991042885116"><ele>13.0</ele><time>2026-04-12T14:13:54.999Z</time></trkpt><trkpt lat="44.96991266975527" lon="-1.1884197361370301"><ele>12.0</ele><time>2026-04-12T14:13:55.999Z</time></trkpt><trkpt lat="44.969845014535416" lon="-1.1885120583710553"><ele>11.0</ele><time>2026-04-12T14:13:56.999Z</time></trkpt><trkpt lat="44.96983401724006" lon="-1.1887054401938657"><ele>10.0</ele><time>2026-04-12T14:13:58.998Z</time></trkpt><trkpt lat="44.96979413939633" lon="-1.1888156992034171"><ele>10.0</ele><time>2026-04-12T14:13:59.998Z</time></trkpt><trkpt lat="44.96971825766496" lon="-1.188926079227453"><ele>10.0</ele><time>2026-04-12T14:14:00.998Z</time></trkpt><trkpt lat="44.96961961744164" lon="-1.1890665301311694"><ele>10.0</ele><time>2026-04-12T14:14:01.998Z</time></trkpt><trkpt lat="44.96953939273922" lon="-1.1892050147683835"><ele>10.0</ele><time>2026-04-12T14:14:02.998Z</time></trkpt><trkpt lat="44.96946895687004" lon="-1.1893236617975016"><ele>10.0</ele><time>2026-04-12T14:14:03.998Z</time></trkpt><trkpt lat="44.96939359606156" lon="-1.1894212443325343"><ele>10.0</ele><time>2026-04-12T14:14:04.998Z</time></trkpt><trkpt lat="44.96932528651103" lon="-1.1894801221340898"><ele>10.0</ele><time>2026-04-12T14:14:05.998Z</time></trkpt><trkpt lat="44.9692851555309" lon="-1.1895684353842961"><ele>10.0</ele><time>2026-04-12T14:14:06.998Z</time></trkpt><trkpt lat="44.96925353270653" lon="-1.18969246300749"><ele>10.0</ele><time>2026-04-12T14:14:07.998Z</time></trkpt><trkpt lat="44.96922150104135" lon="-1.1898145424784459"><ele>10.0</ele><time>2026-04-12T14:14:08.998Z</time></trkpt><trkpt lat="44.96912418923987" lon="-1.1899197921248335"><ele>9.833333333333334</ele><time>2026-04-12T14:14:10.998Z</time></trkpt><trkpt lat="44.96903697046392" lon="-1.1899638999177786"><ele>9.666666666666668</ele><time>2026-04-12T14:14:11.998Z</time></trkpt><trkpt lat="44.96897521566176" lon="-1.189987785557837"><ele>9.5</ele><time>2026-04-12T14:14:12.998Z</time></trkpt><trkpt lat="44.96892187281209" lon="-1.1900432201346458"><ele>9.333333333333334</ele><time>2026-04-12T14:14:14.998Z</time></trkpt><trkpt lat="44.968924512838626" lon="-1.190169813017915"><ele>9.166666666666666</ele><time>2026-04-12T14:14:22.998Z</time></trkpt><trkpt lat="44.96896131786163" lon="-1.1902720717036837"><ele>9.0</ele><time>2026-04-12T14:14:24.998Z</time></trkpt><trkpt lat="44.96896940619181" lon="-1.1904190829344572"><ele>9.0</ele><time>2026-04-12T14:14:26.998Z</time></trkpt><trkpt lat="44.96899565237402" lon="-1.1905444195149666"><ele>9.0</ele><time>2026-04-12T14:14:28.998Z</time></trkpt><trkpt lat="44.96902618765148" lon="-1.1906683409389658"><ele>9.0</ele><time>2026-04-12T14:14:30.998Z</time></trkpt><trkpt lat="44.96913067959755" lon="-1.1907129313985205"><ele>9.0</ele><time>2026-04-12T14:14:33.998Z</time></trkpt><trkpt lat="44.96922332998013" lon="-1.1907270588421457"><ele>9.0</ele><time>2026-04-12T14:14:34.998Z</time></trkpt><trkpt lat="44.969293681349356" lon="-1.1907344286743298"><ele>9.833333333333334</ele><time>2026-04-12T14:14:35.998Z</time></trkpt><trkpt lat="44.96932381002913" lon="-1.1908300016226094"><ele>10.666666666666668</ele><time>2026-04-12T14:14:37.998Z</time></trkpt><trkpt lat="44.969324495483264" lon="-1.190947128692763"><ele>11.5</ele><time>2026-04-12T14:14:38.998Z</time></trkpt><trkpt lat="44.96939014947696" lon="-1.1909730181249505"><ele>12.333333333333334</ele><time>2026-04-12T14:14:40.998Z</time></trkpt><trkpt lat="44.96943407373849" lon="-1.191041685107698"><ele>13.166666666666668</ele><time>2026-04-12T14:14:42.998Z</time></trkpt><trkpt lat="44.96950705436727" lon="-1.1911020509452064"><ele>14.0</ele><time>2026-04-12T14:14:44.997Z</time></trkpt><trkpt lat="44.969616499582294" lon="-1.1910988088719707"><ele>14.0</ele><time>2026-04-12T14:14:46.997Z</time></trkpt><trkpt lat="44.969736891156664" lon="-1.1911083322722116"><ele>14.0</ele><time>2026-04-12T14:14:50Z</time></trkpt><trkpt lat="44.96981670492953" lon="-1.1912423310290499"><ele>14.0</ele><time>2026-04-12T14:14:52Z</time></trkpt><trkpt lat="44.96984681399322" lon="-1.1914454697082315"><ele>14.0</ele><time>2026-04-12T14:14:54Z</time></trkpt><trkpt lat="44.969951743314226" lon="-1.1914760143739438"><ele>15.399999999999999</ele><time>2026-04-12T14:14:57Z</time></trkpt><trkpt lat="44.96999579758622" lon="-1.1915564231609712"><ele>16.799999999999997</ele><time>2026-04-12T14:14:59Z</time></trkpt><trkpt lat="44.97004817763926" lon="-1.191682663148663"><ele>18.200000000000003</ele><time>2026-04-12T14:15:02Z</time></trkpt><trkpt lat="44.970107181587956" lon="-1.1917717117824878"><ele>19.6</ele><time>2026-04-12T14:15:04Z</time></trkpt><trkpt lat="44.97006984358097" lon="-1.1919274952849517"><ele>21.0</ele><time>2026-04-12T14:15:06Z</time></trkpt><trkpt lat="44.970035453482" lon="-1.1920567385030167"><ele>21.0</ele><time>2026-04-12T14:15:08Z</time></trkpt><trkpt lat="44.97003404892469" lon="-1.1922316729383389"><ele>21.0</ele><time>2026-04-12T14:15:10Z</time></trkpt><trkpt lat="44.970025837958424" lon="-1.192330956752654"><ele>21.0</ele><time>2026-04-12T14:15:11Z</time></trkpt><trkpt lat="44.970092484334636" lon="-1.192442212737966"><ele>21.0</ele><time>2026-04-12T14:15:12.999Z</time></trkpt><trkpt lat="44.97013954701594" lon="-1.1925359685522114"><ele>21.0</ele><time>2026-04-12T14:15:13.999Z</time></trkpt><trkpt lat="44.97021881640881" lon="-1.19254768817922"><ele>21.5</ele><time>2026-04-12T14:15:15.999Z</time></trkpt><trkpt lat="44.970231946882414" lon="-1.1926755811574383"><ele>22.0</ele><time>2026-04-12T14:15:18.999Z</time></trkpt><trkpt lat="44.97032440666878" lon="-1.1927602534429542"><ele>22.5</ele><time>2026-04-12T14:15:20.999Z</time></trkpt><trkpt lat="44.97037474579433" lon="-1.1928613158345593"><ele>23.0</ele><time>2026-04-12T14:15:22.999Z</time></trkpt><trkpt lat="44.970415238476775" lon="-1.1929322650800425"><ele>23.5</ele><time>2026-04-12T14:15:23.999Z</time></trkpt><trkpt lat="44.97046201476478" lon="-1.1930224538042975"><ele>24.0</ele><time>2026-04-12T14:15:24.999Z</time></trkpt><trkpt lat="44.97051383544031" lon="-1.1931073089200377"><ele>24.2</ele><time>2026-04-12T14:15:26.999Z</time></trkpt><trkpt lat="44.9705532382989" lon="-1.1932946436060863"><ele>24.4</ele><time>2026-04-12T14:15:28.999Z</time></trkpt><trkpt lat="44.970578531886844" lon="-1.1934397471186011"><ele>24.6</ele><time>2026-04-12T14:15:30.999Z</time></trkpt><trkpt lat="44.97056272465943" lon="-1.1935301995384562"><ele>24.8</ele><time>2026-04-12T14:15:31.999Z</time></trkpt><trkpt lat="44.97060421716833" lon="-1.1936589390320538"><ele>25.0</ele><time>2026-04-12T14:15:33.999Z</time></trkpt><trkpt lat="44.9706318686615" lon="-1.1937938829240882"><ele>25.000000000000004</ele><time>2026-04-12T14:15:34.999Z</time></trkpt><trkpt lat="44.97066958451763" lon="-1.1938812543064008"><ele>25.0</ele><time>2026-04-12T14:15:35.999Z</time></trkpt><trkpt lat="44.97077247861124" lon="-1.1939257898974698"><ele>25.0</ele><time>2026-04-12T14:15:37.999Z</time></trkpt><trkpt lat="44.970850738286686" lon="-1.1939691434674051"><ele>25.0</ele><time>2026-04-12T14:15:38.999Z</time></trkpt><trkpt lat="44.970923238076296" lon="-1.1940282563155926"><ele>25.000000000000004</ele><time>2026-04-12T14:15:39.999Z</time></trkpt><trkpt lat="44.97098972791893" lon="-1.1940631978631875"><ele>25.0</ele><time>2026-04-12T14:15:40.999Z</time></trkpt><trkpt lat="44.97105354801735" lon="-1.1941089314444566"><ele>24.6</ele><time>2026-04-12T14:15:41.999Z</time></trkpt><trkpt lat="44.971108605365124" lon="-1.1942592587703975"><ele>24.2</ele><time>2026-04-12T14:15:43.999Z</time></trkpt><trkpt lat="44.97117196810508" lon="-1.1943033672095607"><ele>23.799999999999997</ele><time>2026-04-12T14:15:44.999Z</time></trkpt><trkpt lat="44.97126908304924" lon="-1.1943165476020545"><ele>23.4</ele><time>2026-04-12T14:15:46.999Z</time></trkpt><trkpt lat="44.97137426916629" lon="-1.1942806058818385"><ele>23.0</ele><time>2026-04-12T14:16:19.998Z</time></trkpt><trkpt lat="44.971494342240675" lon="-1.1942919940499008"><ele>23.0</ele><time>2026-04-12T14:16:21.998Z</time></trkpt><trkpt lat="44.97156592212083" lon="-1.1943395663339866"><ele>23.0</ele><time>2026-04-12T14:16:23.998Z</time></trkpt><trkpt lat="44.97163227688719" lon="-1.1942923987134186"><ele>23.0</ele><time>2026-04-12T14:16:25.998Z</time></trkpt><trkpt lat="44.97169334132091" lon="-1.194331688785586"><ele>23.0</ele><time>2026-04-12T14:16:26.998Z</time></trkpt><trkpt lat="44.97176171776969" lon="-1.1943887811086369"><ele>23.0</ele><time>2026-04-12T14:16:27.998Z</time></trkpt><trkpt lat="44.97178211024572" lon="-1.1945401407758924"><ele>23.0</ele><time>2026-04-12T14:16:29.998Z</time></trkpt><trkpt lat="44.971752944298366" lon="-1.1946353634830222"><ele>23.0</ele><time>2026-04-12T14:16:30.998Z</time></trkpt><trkpt lat="44.971709132072235" lon="-1.194756354680768"><ele>23.0</ele><time>2026-04-12T14:16:32.998Z</time></trkpt><trkpt lat="44.97172212042966" lon="-1.1948531876891315"><ele>23.0</ele><time>2026-04-12T14:16:33.998Z</time></trkpt><trkpt lat="44.97166314013626" lon="-1.1949977286119413"><ele>23.0</ele><time>2026-04-12T14:16:35.998Z</time></trkpt><trkpt lat="44.97161428442374" lon="-1.195080815386772"><ele>23.0</ele><time>2026-04-12T14:16:37.998Z</time></trkpt><trkpt lat="44.97164821715711" lon="-1.1951581354079404"><ele>23.0</ele><time>2026-04-12T14:16:38.998Z</time></trkpt><trkpt lat="44.971707573288555" lon="-1.195219782977933"><ele>23.0</ele><time>2026-04-12T14:16:39.998Z</time></trkpt><trkpt lat="44.971760165534846" lon="-1.1953136037465921"><ele>23.0</ele><time>2026-04-12T14:16:40.998Z</time></trkpt><trkpt lat="44.9718085963473" lon="-1.1953954885337996"><ele>23.0</ele><time>2026-04-12T14:16:41.998Z</time></trkpt><trkpt lat="44.971866091804856" lon="-1.1954439088167907"><ele>23.0</ele><time>2026-04-12T14:16:42.998Z</time></trkpt><trkpt lat="44.971904941765544" lon="-1.1955952734297635"><ele>23.0</ele><time>2026-04-12T14:16:44.998Z</time></trkpt><trkpt lat="44.971913963120606" lon="-1.1956890082574665"><ele>23.0</ele><time>2026-04-12T14:16:45.998Z</time></trkpt><trkpt lat="44.971938379623666" lon="-1.1957711165607556"><ele>22.166666666666668</ele><time>2026-04-12T14:16:46.998Z</time></trkpt><trkpt lat="44.97199707136886" lon="-1.1958206553095565"><ele>21.333333333333336</ele><time>2026-04-12T14:16:47.997Z</time></trkpt><trkpt lat="44.97207151832961" lon="-1.1958804042411413"><ele>20.5</ele><time>2026-04-12T14:16:48.997Z</time></trkpt><trkpt lat="44.972115708129095" lon="-1.1959491528022206"><ele>19.666666666666668</ele><time>2026-04-12T14:16:49.997Z</time></trkpt><trkpt lat="44.9720998687466" lon="-1.1960804480883973"><ele>18.833333333333332</ele><time>2026-04-12T14:16:51.997Z</time></trkpt><trkpt lat="44.97210059634891" lon="-1.1962167409392466"><ele>18.0</ele><time>2026-04-12T14:16:53Z</time></trkpt><trkpt lat="44.9721393666473" lon="-1.196309443269832"><ele>18.0</ele><time>2026-04-12T14:16:54Z</time></trkpt><trkpt lat="44.972210818937015" lon="-1.1964611895179464"><ele>18.0</ele><time>2026-04-12T14:16:56Z</time></trkpt><trkpt lat="44.97225626561143" lon="-1.1965311186637917"><ele>18.0</ele><time>2026-04-12T14:16:57Z</time></trkpt><trkpt lat="44.97237198265172" lon="-1.196594883706437"><ele>18.0</ele><time>2026-04-12T14:16:59Z</time></trkpt><trkpt lat="44.972446212371" lon="-1.196664396477667"><ele>18.0</ele><time>2026-04-12T14:17:00Z</time></trkpt><trkpt lat="44.97244092726663" lon="-1.1967997831415573"><ele>17.333333333333332</ele><time>2026-04-12T14:17:02Z</time></trkpt><trkpt lat="44.97243191626344" lon="-1.1969388107204944"><ele>16.666666666666668</ele><time>2026-04-12T14:17:03Z</time></trkpt><trkpt lat="44.9723999913863" lon="-1.1970391828181526"><ele>16.0</ele><time>2026-04-12T14:17:04Z</time></trkpt><trkpt lat="44.9723549138306" lon="-1.197118907545562"><ele>15.333333333333334</ele><time>2026-04-12T14:17:05Z</time></trkpt><trkpt lat="44.9723186996085" lon="-1.1972083702898841"><ele>14.666666666666668</ele><time>2026-04-12T14:17:06Z</time></trkpt><trkpt lat="44.97229818141468" lon="-1.197295994307075"><ele>14.0</ele><time>2026-04-12T14:17:07Z</time></trkpt><trkpt lat="44.97232403150347" lon="-1.1974524222493272"><ele>13.833333333333334</ele><time>2026-04-12T14:17:09Z</time></trkpt><trkpt lat="44.97236300741981" lon="-1.1975360573638516"><ele>13.666666666666668</ele><time>2026-04-12T14:17:10Z</time></trkpt><trkpt lat="44.97237238115247" lon="-1.1976252947737014"><ele>13.5</ele><time>2026-04-12T14:17:11Z</time></trkpt><trkpt lat="44.97233908406206" lon="-1.1977627374562303"><ele>13.333333333333332</ele><time>2026-04-12T14:17:12.999Z</time></trkpt><trkpt lat="44.97245263737222" lon="-1.1978372557728274"><ele>13.166666666666666</ele><time>2026-04-12T14:17:14.999Z</time></trkpt><trkpt lat="44.97251540171053" lon="-1.1978951080932823"><ele>13.0</ele><time>2026-04-12T14:17:15.999Z</time></trkpt><trkpt lat="44.972572628103975" lon="-1.1979569437506017"><ele>13.0</ele><time>2026-04-12T14:17:16.999Z</time></trkpt><trkpt lat="44.97263215499663" lon="-1.1980046472637031"><ele>13.0</ele><time>2026-04-12T14:17:17.999Z</time></trkpt><trkpt lat="44.97270888629769" lon="-1.198144508515358"><ele>13.0</ele><time>2026-04-12T14:17:19.999Z</time></trkpt><trkpt lat="44.97274007277335" lon="-1.198275967097359"><ele>13.0</ele><time>2026-04-12T14:17:20.999Z</time></trkpt><trkpt lat="44.9727729893301" lon="-1.1983667506955193"><ele>13.0</ele><time>2026-04-12T14:17:22.999Z</time></trkpt><trkpt lat="44.97272960344053" lon="-1.1985358095129286"><ele>12.666666666666666</ele><time>2026-04-12T14:17:24.999Z</time></trkpt><trkpt lat="44.97278810908287" lon="-1.198627483825408"><ele>12.333333333333332</ele><time>2026-04-12T14:18:21.998Z</time></trkpt><trkpt lat="44.97281776839157" lon="-1.1987078809899139"><ele>12.0</ele><time>2026-04-12T14:18:22.998Z</time></trkpt><trkpt lat="44.97282480778342" lon="-1.1988137760240154"><ele>11.666666666666666</ele><time>2026-04-12T14:18:23.998Z</time></trkpt><trkpt lat="44.97280001531916" lon="-1.198940300024821"><ele>11.333333333333332</ele><time>2026-04-12T14:18:24.998Z</time></trkpt><trkpt lat="44.972779808853566" lon="-1.1990662050028678"><ele>11.0</ele><time>2026-04-12T14:18:25.998Z</time></trkpt><trkpt lat="44.972759991660595" lon="-1.1992123917765345"><ele>11.0</ele><time>2026-04-12T14:18:26.998Z</time></trkpt><trkpt lat="44.972729470657164" lon="-1.1993003541898264"><ele>11.0</ele><time>2026-04-12T14:18:27.998Z</time></trkpt><trkpt lat="44.97272310877585" lon="-1.1994036279175044"><ele>11.0</ele><time>2026-04-12T14:18:28.998Z</time></trkpt><trkpt lat="44.97274218423893" lon="-1.1995092780788992"><ele>11.0</ele><time>2026-04-12T14:18:30.998Z</time></trkpt><trkpt lat="44.97286451207736" lon="-1.199533584475097"><ele>11.0</ele><time>2026-04-12T14:18:32.998Z</time></trkpt><trkpt lat="44.97296040647378" lon="-1.1995198901118234"><ele>11.0</ele><time>2026-04-12T14:18:33.998Z</time></trkpt><trkpt lat="44.97303674236175" lon="-1.1995059692135268"><ele>11.0</ele><time>2026-04-12T14:18:34.998Z</time></trkpt><trkpt lat="44.97312401577904" lon="-1.1994984740335866"><ele>11.0</ele><time>2026-04-12T14:18:35.998Z</time></trkpt><trkpt lat="44.97323023055688" lon="-1.1994770025482107"><ele>11.0</ele><time>2026-04-12T14:18:36.998Z</time></trkpt><trkpt lat="44.973318466777215" lon="-1.1994649451391863"><ele>11.0</ele><time>2026-04-12T14:18:37.998Z</time></trkpt><trkpt lat="44.9734519641915" lon="-1.1993888550935603"><ele>11.0</ele><time>2026-04-12T14:18:39.998Z</time></trkpt><trkpt lat="44.97354526153886" lon="-1.1993844243205272"><ele>12.166666666666666</ele><time>2026-04-12T14:18:40.998Z</time></trkpt><trkpt lat="44.9736258447754" lon="-1.1993973566615124"><ele>13.333333333333332</ele><time>2026-04-12T14:18:41.998Z</time></trkpt><trkpt lat="44.97371050458586" lon="-1.1994501142520115"><ele>14.5</ele><time>2026-04-12T14:18:42.998Z</time></trkpt><trkpt lat="44.97379346378767" lon="-1.1995036429534789"><ele>15.666666666666666</ele><time>2026-04-12T14:18:43.998Z</time></trkpt><trkpt lat="44.973858372302416" lon="-1.1995391518771592"><ele>16.833333333333332</ele><time>2026-04-12T14:18:44.998Z</time></trkpt><trkpt lat="44.97394077549863" lon="-1.1995747538296588"><ele>18.0</ele><time>2026-04-12T14:18:46.998Z</time></trkpt><trkpt lat="44.97402153577301" lon="-1.199677720984686"><ele>18.0</ele><time>2026-04-12T14:18:48.997Z</time></trkpt><trkpt lat="44.97411506780911" lon="-1.199710209975684"><ele>18.0</ele><time>2026-04-12T14:18:49.997Z</time></trkpt><trkpt lat="44.97422367252053" lon="-1.1997303242306736"><ele>18.0</ele><time>2026-04-12T14:18:50.997Z</time></trkpt><trkpt lat="44.974307921871564" lon="-1.1996322457875568"><ele>18.0</ele><time>2026-04-12T14:18:53.997Z</time></trkpt><trkpt lat="44.9743637078216" lon="-1.1995471843960395"><ele>18.0</ele><time>2026-04-12T14:18:54.997Z</time></trkpt><trkpt lat="44.97442347575945" lon="-1.1995796569304917"><ele>18.6</ele><time>2026-04-12T14:18:57.997Z</time></trkpt><trkpt lat="44.97448484232176" lon="-1.199700817080332"><ele>19.200000000000003</ele><time>2026-04-12T14:19:00Z</time></trkpt><trkpt lat="44.974568930866596" lon="-1.1997107362059545"><ele>19.8</ele><time>2026-04-12T14:19:02Z</time></trkpt><trkpt lat="44.974637925244984" lon="-1.1996651795823217"><ele>20.400000000000002</ele><time>2026-04-12T14:19:03Z</time></trkpt><trkpt lat="44.97477494967345" lon="-1.199651066400044"><ele>21.0</ele><time>2026-04-12T14:19:05Z</time></trkpt><trkpt lat="44.97483967324083" lon="-1.1996388013175698"><ele>21.0</ele><time>2026-04-12T14:19:06Z</time></trkpt><trkpt lat="44.97495301619432" lon="-1.1996200755712099"><ele>21.0</ele><time>2026-04-12T14:19:08Z</time></trkpt><trkpt lat="44.97493304836978" lon="-1.1997301406658791"><ele>21.0</ele><time>2026-04-12T14:19:12Z</time></trkpt><trkpt lat="44.97486308538672" lon="-1.1997424459308168"><ele>21.0</ele><time>2026-04-12T14:19:44.999Z</time></trkpt><trkpt lat="44.97480624857623" lon="-1.1998477286534597"><ele>21.0</ele><time>2026-04-12T14:19:46.999Z</time></trkpt><trkpt lat="44.9747577977945" lon="-1.1999210720668443"><ele>21.0</ele><time>2026-04-12T14:19:47.999Z</time></trkpt><trkpt lat="44.97471272946944" lon="-1.1999845096313704"><ele>20.5</ele><time>2026-04-12T14:19:48.999Z</time></trkpt><trkpt lat="44.97466278824458" lon="-1.2000570305733593"><ele>20.0</ele><time>2026-04-12T14:19:50.999Z</time></trkpt><trkpt lat="44.97460818232979" lon="-1.2001123738356119"><ele>19.5</ele><time>2026-04-12T14:21:03.998Z</time></trkpt><trkpt lat="44.974577635993626" lon="-1.2001962922133995"><ele>19.0</ele><time>2026-04-12T14:21:07Z</time></trkpt><trkpt lat="44.97450628306073" lon="-1.2000931331671507"><ele>18.5</ele><time>2026-04-12T14:21:09Z</time></trkpt><trkpt lat="44.97446583308078" lon="-1.1999692651329716"><ele>18.0</ele><time>2026-04-12T14:21:10Z</time></trkpt><trkpt lat="44.9744275131008" lon="-1.199856472448158"><ele>18.000000000000004</ele><time>2026-04-12T14:21:12Z</time></trkpt><trkpt lat="44.97442819979713" lon="-1.199763717103365"><ele>18.0</ele><time>2026-04-12T14:21:14Z</time></trkpt><trkpt lat="44.97442577875306" lon="-1.1996665512062097"><ele>18.0</ele><time>2026-04-12T14:21:17Z</time></trkpt><trkpt lat="44.97440387091884" lon="-1.199560931575925"><ele>18.0</ele><time>2026-04-12T14:21:19Z</time></trkpt><trkpt lat="44.974337954213404" lon="-1.1995839185264272"><ele>18.0</ele><time>2026-04-12T14:21:22Z</time></trkpt><trkpt lat="44.974298863737154" lon="-1.1996634072040706"><ele>18.000000000000004</ele><time>2026-04-12T14:21:24Z</time></trkpt><trkpt lat="44.974231103883504" lon="-1.1997472241293734"><ele>18.0</ele><time>2026-04-12T14:21:26Z</time></trkpt><trkpt lat="44.97409149127048" lon="-1.1996664584248848"><ele>18.0</ele><time>2026-04-12T14:21:28Z</time></trkpt><trkpt lat="44.973996581608866" lon="-1.1996335563926483"><ele>18.0</ele><time>2026-04-12T14:21:29Z</time></trkpt><trkpt lat="44.97393953776921" lon="-1.1995834418701044"><ele>18.0</ele><time>2026-04-12T14:21:30Z</time></trkpt><trkpt lat="44.97389228359934" lon="-1.1995002145392075"><ele>18.0</ele><time>2026-04-12T14:21:32Z</time></trkpt><trkpt lat="44.97377605022507" lon="-1.1994720918363087"><ele>18.0</ele><time>2026-04-12T14:21:34Z</time></trkpt><trkpt lat="44.97368618645929" lon="-1.1994106075037505"><ele>18.0</ele><time>2026-04-12T14:21:35Z</time></trkpt><trkpt lat="44.97359232074307" lon="-1.1993860853124172"><ele>18.0</ele><time>2026-04-12T14:21:36Z</time></trkpt><trkpt lat="44.97351725901072" lon="-1.199381318004026"><ele>18.0</ele><time>2026-04-12T14:21:37Z</time></trkpt><trkpt lat="44.973435090783866" lon="-1.1994257297263151"><ele>18.0</ele><time>2026-04-12T14:21:38Z</time></trkpt><trkpt lat="44.973334340443515" lon="-1.1994534601609022"><ele>18.0</ele><time>2026-04-12T14:21:39Z</time></trkpt><trkpt lat="44.97325914058289" lon="-1.1994891793641065"><ele>18.0</ele><time>2026-04-12T14:21:40Z</time></trkpt><trkpt lat="44.97315978292807" lon="-1.199511550403168"><ele>16.833333333333332</ele><time>2026-04-12T14:21:41Z</time></trkpt><trkpt lat="44.97307728229457" lon="-1.1995105478133958"><ele>15.666666666666666</ele><time>2026-04-12T14:21:42Z</time></trkpt><trkpt lat="44.97298566140792" lon="-1.1995144125820107"><ele>14.5</ele><time>2026-04-12T14:21:43Z</time></trkpt><trkpt lat="44.97290058524886" lon="-1.1995423879293157"><ele>13.333333333333332</ele><time>2026-04-12T14:21:44Z</time></trkpt><trkpt lat="44.97282396708923" lon="-1.199528287857809"><ele>12.166666666666666</ele><time>2026-04-12T14:21:45Z</time></trkpt><trkpt lat="44.97273108248681" lon="-1.1994714142175549"><ele>11.0</ele><time>2026-04-12T14:21:47Z</time></trkpt><trkpt lat="44.9727273002326" lon="-1.1993498592347442"><ele>11.0</ele><time>2026-04-12T14:21:49Z</time></trkpt><trkpt lat="44.9727521705027" lon="-1.199228903305501"><ele>11.0</ele><time>2026-04-12T14:21:50Z</time></trkpt><trkpt lat="44.972772431497894" lon="-1.199105977215652"><ele>11.0</ele><time>2026-04-12T14:21:51Z</time></trkpt><trkpt lat="44.97278472352124" lon="-1.1989696603778464"><ele>11.0</ele><time>2026-04-12T14:21:52Z</time></trkpt><trkpt lat="44.972806145474024" lon="-1.198837651569752"><ele>11.0</ele><time>2026-04-12T14:21:53Z</time></trkpt><trkpt lat="44.972811227683046" lon="-1.1986480243827806"><ele>11.0</ele><time>2026-04-12T14:21:55Z</time></trkpt><trkpt lat="44.97274497968899" lon="-1.1985072539696353"><ele>11.0</ele><time>2026-04-12T14:21:57Z</time></trkpt><trkpt lat="44.972770033125734" lon="-1.1983562753470622"><ele>11.0</ele><time>2026-04-12T14:21:59Z</time></trkpt><trkpt lat="44.972764060165964" lon="-1.198235141712188"><ele>11.0</ele><time>2026-04-12T14:22:01Z</time></trkpt><trkpt lat="44.97270986785895" lon="-1.198172337293953"><ele>11.0</ele><time>2026-04-12T14:22:04Z</time></trkpt><trkpt lat="44.972688017338264" lon="-1.1980844518778155"><ele>11.0</ele><time>2026-04-12T14:22:05Z</time></trkpt><trkpt lat="44.97262888038321" lon="-1.1979939363026157"><ele>11.0</ele><time>2026-04-12T14:22:06.999Z</time></trkpt><trkpt lat="44.972566782434285" lon="-1.1979784371626125"><ele>11.0</ele><time>2026-04-12T14:22:09.999Z</time></trkpt><trkpt lat="44.972502253430896" lon="-1.1978794193632505"><ele>11.0</ele><time>2026-04-12T14:22:27.999Z</time></trkpt><trkpt lat="44.972444447043436" lon="-1.197818924579597"><ele>11.0</ele><time>2026-04-12T14:22:28.999Z</time></trkpt><trkpt lat="44.97238332922743" lon="-1.1977696938151887"><ele>11.0</ele><time>2026-04-12T14:22:29.999Z</time></trkpt><trkpt lat="44.97232506250364" lon="-1.1976725836450612"><ele>11.0</ele><time>2026-04-12T14:22:31.999Z</time></trkpt><trkpt lat="44.9723686363749" lon="-1.197539893292585"><ele>11.0</ele><time>2026-04-12T14:22:33.999Z</time></trkpt><trkpt lat="44.97233481204129" lon="-1.197426718105545"><ele>11.0</ele><time>2026-04-12T14:22:35.999Z</time></trkpt><trkpt lat="44.972307535402805" lon="-1.1973121576924959"><ele>11.0</ele><time>2026-04-12T14:22:36.999Z</time></trkpt><trkpt lat="44.97231160464972" lon="-1.1972142089830269"><ele>11.0</ele><time>2026-04-12T14:22:37.999Z</time></trkpt><trkpt lat="44.97235232761511" lon="-1.1971074130202273"><ele>11.0</ele><time>2026-04-12T14:22:38.999Z</time></trkpt><trkpt lat="44.972406261657696" lon="-1.1969929247601763"><ele>11.600000000000001</ele><time>2026-04-12T14:22:39.999Z</time></trkpt><trkpt lat="44.97244370153462" lon="-1.1969001680783657"><ele>12.2</ele><time>2026-04-12T14:22:40.999Z</time></trkpt><trkpt lat="44.97244471879292" lon="-1.1966916779621675"><ele>12.799999999999999</ele><time>2026-04-12T14:22:42.999Z</time></trkpt><trkpt lat="44.97237554667557" lon="-1.1965961041163313"><ele>13.399999999999999</ele><time>2026-04-12T14:22:44.999Z</time></trkpt><trkpt lat="44.97228059387987" lon="-1.196544163675793"><ele>14.0</ele><time>2026-04-12T14:22:45.999Z</time></trkpt><trkpt lat="44.97221547075365" lon="-1.196486420293573"><ele>14.666666666666668</ele><time>2026-04-12T14:22:46.999Z</time></trkpt><trkpt lat="44.97215317679897" lon="-1.196356361515572"><ele>15.333333333333334</ele><time>2026-04-12T14:22:48.999Z</time></trkpt><trkpt lat="44.97211001192703" lon="-1.1962197923602749"><ele>16.0</ele><time>2026-04-12T14:22:49.999Z</time></trkpt><trkpt lat="44.97210193633483" lon="-1.1961082535946048"><ele>16.666666666666668</ele><time>2026-04-12T14:22:50.999Z</time></trkpt><trkpt lat="44.97209625226781" lon="-1.1960189874446148"><ele>17.333333333333332</ele><time>2026-04-12T14:22:51.999Z</time></trkpt><trkpt lat="44.97210649134624" lon="-1.1959140250002358"><ele>18.0</ele><time>2026-04-12T14:22:53.998Z</time></trkpt><trkpt lat="44.97205344985405" lon="-1.1958630317494958"><ele>18.0</ele><time>2026-04-12T14:22:54.998Z</time></trkpt><trkpt lat="44.971991667038104" lon="-1.195796196192435"><ele>18.0</ele><time>2026-04-12T14:22:55.998Z</time></trkpt><trkpt lat="44.971927224036804" lon="-1.1957277913874058"><ele>18.0</ele><time>2026-04-12T14:22:56.998Z</time></trkpt><trkpt lat="44.97189938553342" lon="-1.1955757545173105"><ele>18.0</ele><time>2026-04-12T14:22:58.998Z</time></trkpt><trkpt lat="44.97189348508797" lon="-1.1954796655591224"><ele>18.0</ele><time>2026-04-12T14:22:59.998Z</time></trkpt><trkpt lat="44.97185945989945" lon="-1.195401209508552"><ele>18.0</ele><time>2026-04-12T14:23:00.998Z</time></trkpt><trkpt lat="44.97178923128972" lon="-1.1953491589814291"><ele>18.833333333333332</ele><time>2026-04-12T14:23:01.998Z</time></trkpt><trkpt lat="44.97171887351838" lon="-1.1952884718949155"><ele>19.666666666666668</ele><time>2026-04-12T14:23:02.998Z</time></trkpt><trkpt lat="44.97166897286127" lon="-1.1951672817370478"><ele>20.5</ele><time>2026-04-12T14:23:03.998Z</time></trkpt><trkpt lat="44.971636805936285" lon="-1.195075745793582"><ele>21.333333333333336</ele><time>2026-04-12T14:23:04.998Z</time></trkpt><trkpt lat="44.97168241431762" lon="-1.194976779935903"><ele>22.166666666666668</ele><time>2026-04-12T14:23:06.998Z</time></trkpt><trkpt lat="44.97175892831892" lon="-1.1948812115799137"><ele>23.0</ele><time>2026-04-12T14:23:08.998Z</time></trkpt><trkpt lat="44.971750910119034" lon="-1.194689338277622"><ele>23.0</ele><time>2026-04-12T14:23:11Z</time></trkpt><trkpt lat="44.971779952447164" lon="-1.1945854291381945"><ele>23.0</ele><time>2026-04-12T14:23:13Z</time></trkpt><trkpt lat="44.97178741585415" lon="-1.194441211654727"><ele>23.0</ele><time>2026-04-12T14:23:15Z</time></trkpt><trkpt lat="44.97173427472202" lon="-1.194367172293169"><ele>23.0</ele><time>2026-04-12T14:23:16Z</time></trkpt><trkpt lat="44.971663929631525" lon="-1.1943477694086588"><ele>23.0</ele><time>2026-04-12T14:23:17Z</time></trkpt><trkpt lat="44.97160163602991" lon="-1.194316738303668"><ele>23.0</ele><time>2026-04-12T14:23:18Z</time></trkpt><trkpt lat="44.97153072319034" lon="-1.1943135188388798"><ele>23.0</ele><time>2026-04-12T14:23:22Z</time></trkpt><trkpt lat="44.97146332139835" lon="-1.1943485224769468"><ele>23.0</ele><time>2026-04-12T14:23:25Z</time></trkpt><trkpt lat="44.971398218089014" lon="-1.194304365422945"><ele>23.0</ele><time>2026-04-12T14:23:26Z</time></trkpt><trkpt lat="44.97133180936908" lon="-1.1942916231102385"><ele>23.0</ele><time>2026-04-12T14:23:27Z</time></trkpt><trkpt lat="44.971252614632185" lon="-1.194346544948905"><ele>23.0</ele><time>2026-04-12T14:23:29Z</time></trkpt><trkpt lat="44.971189953358724" lon="-1.1943291611829416"><ele>23.0</ele><time>2026-04-12T14:23:30Z</time></trkpt><trkpt lat="44.97112370811348" lon="-1.1942722539112427"><ele>23.0</ele><time>2026-04-12T14:23:31Z</time></trkpt><trkpt lat="44.97105371056178" lon="-1.1942064460545323"><ele>23.0</ele><time>2026-04-12T14:23:32Z</time></trkpt><trkpt lat="44.9709957236374" lon="-1.1940648531114781"><ele>23.0</ele><time>2026-04-12T14:23:34Z</time></trkpt><trkpt lat="44.97086135517286" lon="-1.1940198511796238"><ele>23.0</ele><time>2026-04-12T14:23:36Z</time></trkpt><trkpt lat="44.970775802912804" lon="-1.1939516348252766"><ele>23.0</ele><time>2026-04-12T14:23:37Z</time></trkpt><trkpt lat="44.9706964791148" lon="-1.193892313005508"><ele>23.0</ele><time>2026-04-12T14:23:38Z</time></trkpt><trkpt lat="44.970640881684304" lon="-1.1937800782377812"><ele>23.2</ele><time>2026-04-12T14:23:40Z</time></trkpt><trkpt lat="44.970612320438676" lon="-1.1936619412134195"><ele>23.4</ele><time>2026-04-12T14:23:41Z</time></trkpt><trkpt lat="44.97058933097464" lon="-1.1935569331791764"><ele>23.599999999999998</ele><time>2026-04-12T14:23:42Z</time></trkpt><trkpt lat="44.97057646200177" lon="-1.1933961256318646"><ele>23.799999999999997</ele><time>2026-04-12T14:23:44Z</time></trkpt><trkpt lat="44.97055050177195" lon="-1.1932568925579512"><ele>24.0</ele><time>2026-04-12T14:23:46Z</time></trkpt><trkpt lat="44.970512404725106" lon="-1.19313946751061"><ele>24.0</ele><time>2026-04-12T14:23:47Z</time></trkpt><trkpt lat="44.97048974125667" lon="-1.1930489136822824"><ele>24.0</ele><time>2026-04-12T14:23:48Z</time></trkpt><trkpt lat="44.9704021932378" lon="-1.1929284026938263"><ele>24.0</ele><time>2026-04-12T14:23:50Z</time></trkpt><trkpt lat="44.97035359939176" lon="-1.1928367187773221"><ele>24.0</ele><time>2026-04-12T14:23:51Z</time></trkpt><trkpt lat="44.9703045383873" lon="-1.1927695808846002"><ele>24.0</ele><time>2026-04-12T14:23:52Z</time></trkpt><trkpt lat="44.97023683072422" lon="-1.1926886190285266"><ele>24.0</ele><time>2026-04-12T14:23:54Z</time></trkpt><trkpt lat="44.970222893027014" lon="-1.1925686702437368"><ele>24.0</ele><time>2026-04-12T14:23:56Z</time></trkpt><trkpt lat="44.97011943749385" lon="-1.192544210335883"><ele>24.0</ele><time>2026-04-12T14:23:59Z</time></trkpt><trkpt lat="44.970062701141835" lon="-1.1923993472663128"><ele>24.0</ele><time>2026-04-12T14:24:01Z</time></trkpt><trkpt lat="44.97003250494946" lon="-1.192299429747241"><ele>24.0</ele><time>2026-04-12T14:24:02Z</time></trkpt><trkpt lat="44.9700355093433" lon="-1.1921969830956731"><ele>24.0</ele><time>2026-04-12T14:24:04Z</time></trkpt><trkpt lat="44.97006027498931" lon="-1.1920897035476774"><ele>23.5</ele><time>2026-04-12T14:24:05Z</time></trkpt><trkpt lat="44.97003844608893" lon="-1.1919483824702688"><ele>23.0</ele><time>2026-04-12T14:24:06.999Z</time></trkpt><trkpt lat="44.970101220988205" lon="-1.1918192041538824"><ele>22.5</ele><time>2026-04-12T14:24:08.999Z</time></trkpt><trkpt lat="44.970099816330304" lon="-1.1917277564400934"><ele>22.0</ele><time>2026-04-12T14:24:09.999Z</time></trkpt><trkpt lat="44.970034631879734" lon="-1.1916611569131117"><ele>21.5</ele><time>2026-04-12T14:24:11.999Z</time></trkpt><trkpt lat="44.96998290468119" lon="-1.1916015936469435"><ele>21.0</ele><time>2026-04-12T14:24:12.999Z</time></trkpt><trkpt lat="44.96994817364848" lon="-1.1915114469269075"><ele>19.833333333333332</ele><time>2026-04-12T14:24:57.998Z</time></trkpt><trkpt lat="44.96989275100625" lon="-1.1914377564456706"><ele>18.666666666666668</ele><time>2026-04-12T14:24:59.998Z</time></trkpt><trkpt lat="44.96982930392504" lon="-1.1914189048493509"><ele>17.5</ele><time>2026-04-12T14:25:00.998Z</time></trkpt><trkpt lat="44.96981293366157" lon="-1.191323224578583"><ele>16.333333333333336</ele><time>2026-04-12T14:25:02.998Z</time></trkpt><trkpt lat="44.96978707977372" lon="-1.1911747847462457"><ele>15.166666666666668</ele><time>2026-04-12T14:25:04.998Z</time></trkpt><trkpt lat="44.969734653833264" lon="-1.1911136669810987"><ele>14.0</ele><time>2026-04-12T14:25:05.998Z</time></trkpt><trkpt lat="44.969648141040885" lon="-1.1910965825833033"><ele>14.000000000000002</ele><time>2026-04-12T14:25:07.998Z</time></trkpt><trkpt lat="44.969573600979416" lon="-1.1911289496721262"><ele>14.0</ele><time>2026-04-12T14:25:09.998Z</time></trkpt><trkpt lat="44.96949121208881" lon="-1.1911275812411077"><ele>14.0</ele><time>2026-04-12T14:25:11.998Z</time></trkpt><trkpt lat="44.969439788484834" lon="-1.191039583018382"><ele>14.0</ele><time>2026-04-12T14:25:13.998Z</time></trkpt><trkpt lat="44.96937483227508" lon="-1.190983667006456"><ele>14.000000000000002</ele><time>2026-04-12T14:25:17Z</time></trkpt><trkpt lat="44.969323465332835" lon="-1.1908850045908317"><ele>14.0</ele><time>2026-04-12T14:25:19Z</time></trkpt><trkpt lat="44.96932368367326" lon="-1.1907913955627916"><ele>14.000000000000002</ele><time>2026-04-12T14:25:20Z</time></trkpt><trkpt lat="44.969262269811125" lon="-1.1907520121750965"><ele>14.0</ele><time>2026-04-12T14:25:22Z</time></trkpt><trkpt lat="44.96915074849445" lon="-1.1907533949473814"><ele>14.0</ele><time>2026-04-12T14:25:24Z</time></trkpt><trkpt lat="44.969074701831275" lon="-1.1907295562777276"><ele>14.0</ele><time>2026-04-12T14:25:25Z</time></trkpt><trkpt lat="44.96901014851197" lon="-1.1906736425709663"><ele>14.000000000000002</ele><time>2026-04-12T14:25:27Z</time></trkpt><trkpt lat="44.96900673531043" lon="-1.190544782261124"><ele>14.0</ele><time>2026-04-12T14:25:29Z</time></trkpt><trkpt lat="44.96897838341684" lon="-1.1904337215793397"><ele>13.166666666666668</ele><time>2026-04-12T14:25:31Z</time></trkpt><trkpt lat="44.96896612823469" lon="-1.1902900108860792"><ele>12.333333333333334</ele><time>2026-04-12T14:25:33Z</time></trkpt><trkpt lat="44.9689402449129" lon="-1.190203479010857"><ele>11.5</ele><time>2026-04-12T14:25:36Z</time></trkpt><trkpt lat="44.96887901554356" lon="-1.1901346917925857"><ele>10.666666666666668</ele><time>2026-04-12T14:25:54Z</time></trkpt><trkpt lat="44.9688085634459" lon="-1.1902184217422291"><ele>9.833333333333334</ele><time>2026-04-12T14:25:58Z</time></trkpt><trkpt lat="44.96877992642137" lon="-1.190309390128429"><ele>9.0</ele><time>2026-04-12T14:25:59Z</time></trkpt><trkpt lat="44.968716929541905" lon="-1.1903796165218283"><ele>9.0</ele><time>2026-04-12T14:26:00Z</time></trkpt><trkpt lat="44.96861755641373" lon="-1.1904565989189322"><ele>9.0</ele><time>2026-04-12T14:26:01Z</time></trkpt><trkpt lat="44.96854170442828" lon="-1.1904580800306641"><ele>9.0</ele><time>2026-04-12T14:26:02Z</time></trkpt><trkpt lat="44.968411368531996" lon="-1.1905290473868064"><ele>9.0</ele><time>2026-04-12T14:26:03Z</time></trkpt><trkpt lat="44.96828226630023" lon="-1.190619356729892"><ele>9.2</ele><time>2026-04-12T14:26:04Z</time></trkpt><trkpt lat="44.9681820833802" lon="-1.190670499846829"><ele>9.4</ele><time>2026-04-12T14:26:05Z</time></trkpt><trkpt lat="44.968109144708464" lon="-1.1907079104422227"><ele>9.6</ele><time>2026-04-12T14:26:05.999Z</time></trkpt><trkpt lat="44.96805482815082" lon="-1.1907868663272112"><ele>9.8</ele><time>2026-04-12T14:26:06.999Z</time></trkpt><trkpt lat="44.96798373890668" lon="-1.1909480291675132"><ele>10.0</ele><time>2026-04-12T14:26:07.999Z</time></trkpt><trkpt lat="44.96792510670753" lon="-1.1911174496500982"><ele>10.0</ele><time>2026-04-12T14:26:08.999Z</time></trkpt><trkpt lat="44.96785568284067" lon="-1.1912599842887377"><ele>10.0</ele><time>2026-04-12T14:26:09.999Z</time></trkpt><trkpt lat="44.967783269871155" lon="-1.1913455502978634"><ele>10.0</ele><time>2026-04-12T14:26:10.999Z</time></trkpt><trkpt lat="44.96767740605088" lon="-1.191445435812487"><ele>10.0</ele><time>2026-04-12T14:26:11.999Z</time></trkpt><trkpt lat="44.9675752654761" lon="-1.1915632021620095"><ele>11.2</ele><time>2026-04-12T14:26:12.999Z</time></trkpt><trkpt lat="44.96748397212433" lon="-1.191674958514241"><ele>12.4</ele><time>2026-04-12T14:26:13.999Z</time></trkpt><trkpt lat="44.96739117687858" lon="-1.1917617247620842"><ele>13.600000000000001</ele><time>2026-04-12T14:26:14.999Z</time></trkpt><trkpt lat="44.96731045873641" lon="-1.1918453899605495"><ele>14.8</ele><time>2026-04-12T14:26:15.999Z</time></trkpt><trkpt lat="44.96722627611924" lon="-1.1919450517127634"><ele>16.0</ele><time>2026-04-12T14:26:16.999Z</time></trkpt><trkpt lat="44.9671268424002" lon="-1.192020199447796"><ele>16.0</ele><time>2026-04-12T14:26:17.999Z</time></trkpt><trkpt lat="44.967004894708936" lon="-1.1920539612877743"><ele>16.0</ele><time>2026-04-12T14:26:18.999Z</time></trkpt><trkpt lat="44.96688113194144" lon="-1.192104810892143"><ele>16.0</ele><time>2026-04-12T14:26:19.999Z</time></trkpt><trkpt lat="44.96677808995351" lon="-1.1921714578736906"><ele>16.0</ele><time>2026-04-12T14:26:20.999Z</time></trkpt><trkpt lat="44.96664969310148" lon="-1.1921990058071552"><ele>17.5</ele><time>2026-04-12T14:26:21.999Z</time></trkpt><trkpt lat="44.96650223552168" lon="-1.1921995131028058"><ele>19.0</ele><time>2026-04-12T14:26:22.999Z</time></trkpt><trkpt lat="44.96635422352788" lon="-1.1922147577677873"><ele>20.5</ele><time>2026-04-12T14:26:23.999Z</time></trkpt><trkpt lat="44.96620226226395" lon="-1.1922409592080874"><ele>22.0</ele><time>2026-04-12T14:26:24.999Z</time></trkpt><trkpt lat="44.96604780087891" lon="-1.1922900932679656"><ele>22.0</ele><time>2026-04-12T14:26:25.999Z</time></trkpt><trkpt lat="44.9659115371046" lon="-1.1923243439715365"><ele>22.0</ele><time>2026-04-12T14:26:26.999Z</time></trkpt><trkpt lat="44.965793774920556" lon="-1.1923508173979767"><ele>22.0</ele><time>2026-04-12T14:26:27.999Z</time></trkpt><trkpt lat="44.96567143813323" lon="-1.1923808642112665"><ele>22.0</ele><time>2026-04-12T14:26:28.999Z</time></trkpt><trkpt lat="44.96557160392796" lon="-1.1923994940648244"><ele>22.0</ele><time>2026-04-12T14:26:29.999Z</time></trkpt><trkpt lat="44.96546890791342" lon="-1.1924389958756534"><ele>22.0</ele><time>2026-04-12T14:26:30.999Z</time></trkpt><trkpt lat="44.96537848375813" lon="-1.192473531770279"><ele>22.0</ele><time>2026-04-12T14:26:31.999Z</time></trkpt><trkpt lat="44.96527947230087" lon="-1.1924964987633397"><ele>22.0</ele><time>2026-04-12T14:26:32.999Z</time></trkpt><trkpt lat="44.96520388200975" lon="-1.1925168544285762"><ele>22.0</ele><time>2026-04-12T14:26:33.999Z</time></trkpt><trkpt lat="44.9650829726047" lon="-1.1925445311092946"><ele>21.25</ele><time>2026-04-12T14:26:34.999Z</time></trkpt><trkpt lat="44.964945834470086" lon="-1.1925958092478357"><ele>20.5</ele><time>2026-04-12T14:26:35.999Z</time></trkpt><trkpt lat="44.964829242807156" lon="-1.1926367659620905"><ele>19.75</ele><time>2026-04-12T14:26:36.999Z</time></trkpt><trkpt lat="44.96471500276393" lon="-1.1926980687530127"><ele>19.0</ele><time>2026-04-12T14:26:37.999Z</time></trkpt><trkpt lat="44.964580086348825" lon="-1.1927665333678912"><ele>19.0</ele><time>2026-04-12T14:26:38.999Z</time></trkpt><trkpt lat="44.96447107358086" lon="-1.1928019909548009"><ele>19.0</ele><time>2026-04-12T14:26:39.999Z</time></trkpt><trkpt lat="44.96438167153973" lon="-1.1928083629151947"><ele>19.0</ele><time>2026-04-12T14:26:40.999Z</time></trkpt><trkpt lat="44.96429506404923" lon="-1.1928462089749337"><ele>19.0</ele><time>2026-04-12T14:26:41.999Z</time></trkpt><trkpt lat="44.96421809548494" lon="-1.1928875285288396"><ele>19.0</ele><time>2026-04-12T14:26:42.999Z</time></trkpt><trkpt lat="44.96412083471313" lon="-1.1929388011456197"><ele>18.5</ele><time>2026-04-12T14:26:43.999Z</time></trkpt><trkpt lat="44.96401810660659" lon="-1.1930130459816919"><ele>18.0</ele><time>2026-04-12T14:26:44.999Z</time></trkpt><trkpt lat="44.963892493666165" lon="-1.1929839878439659"><ele>17.5</ele><time>2026-04-12T14:26:46.999Z</time></trkpt><trkpt lat="44.963788184815584" lon="-1.1929179337209648"><ele>17.0</ele><time>2026-04-12T14:26:47.999Z</time></trkpt><trkpt lat="44.96370282757108" lon="-1.192844698940579"><ele>17.0</ele><time>2026-04-12T14:26:48.999Z</time></trkpt><trkpt lat="44.963612129973534" lon="-1.1927916890305463"><ele>17.0</ele><time>2026-04-12T14:26:49.999Z</time></trkpt><trkpt lat="44.9635001082419" lon="-1.1927814116223283"><ele>17.0</ele><time>2026-04-12T14:26:51.999Z</time></trkpt><trkpt lat="44.96343297330765" lon="-1.1927899591931412"><ele>17.0</ele><time>2026-04-12T14:26:59.998Z</time></trkpt><trkpt lat="44.96334463541853" lon="-1.1927920629242867"><ele>17.0</ele><time>2026-04-12T14:27:01.998Z</time></trkpt><trkpt lat="44.96325644038691" lon="-1.1927417265933677"><ele>17.2</ele><time>2026-04-12T14:27:03.998Z</time></trkpt><trkpt lat="44.96319695330224" lon="-1.192695316331135"><ele>17.4</ele><time>2026-04-12T14:27:06.998Z</time></trkpt><trkpt lat="44.96311895792571" lon="-1.192639516378849"><ele>17.6</ele><time>2026-04-12T14:27:09.998Z</time></trkpt><trkpt lat="44.963042703950535" lon="-1.1925981464309132"><ele>17.8</ele><time>2026-04-12T14:27:12.998Z</time></trkpt><trkpt lat="44.96295190390455" lon="-1.1925935697182892"><ele>18.0</ele><time>2026-04-12T14:27:14.998Z</time></trkpt><trkpt lat="44.962826603959975" lon="-1.1926040009708072"><ele>18.0</ele><time>2026-04-12T14:27:16.998Z</time></trkpt><trkpt lat="44.962754685115684" lon="-1.1925742216197928"><ele>18.0</ele><time>2026-04-12T14:27:18.998Z</time></trkpt><trkpt lat="44.9626990185413" lon="-1.19261811213146"><ele>18.0</ele><time>2026-04-12T14:27:22Z</time></trkpt><trkpt lat="44.962656098493014" lon="-1.1927651714834475"><ele>18.0</ele><time>2026-04-12T14:27:30Z</time></trkpt><trkpt lat="44.962637399942864" lon="-1.1928698552198433"><ele>18.0</ele><time>2026-04-12T14:27:31Z</time></trkpt><trkpt lat="44.96260533531209" lon="-1.1929473135048636"><ele>18.0</ele><time>2026-04-12T14:27:33Z</time></trkpt><trkpt lat="44.96259360188786" lon="-1.1930621435269941"><ele>18.2</ele><time>2026-04-12T14:27:35Z</time></trkpt><trkpt lat="44.962527681386646" lon="-1.1930636970400594"><ele>18.4</ele><time>2026-04-12T14:27:38Z</time></trkpt><trkpt lat="44.96245915651636" lon="-1.1929841913379162"><ele>18.599999999999998</ele><time>2026-04-12T14:27:42Z</time></trkpt><trkpt lat="44.96238639459101" lon="-1.192912080064306"><ele>18.8</ele><time>2026-04-12T14:27:43Z</time></trkpt><trkpt lat="44.96231465172425" lon="-1.192843617983269"><ele>19.0</ele><time>2026-04-12T14:27:44Z</time></trkpt><trkpt lat="44.9622201320393" lon="-1.1926817025078698"><ele>19.0</ele><time>2026-04-12T14:27:46Z</time></trkpt><trkpt lat="44.96217278609776" lon="-1.1925733361226625"><ele>19.0</ele><time>2026-04-12T14:27:47Z</time></trkpt><trkpt lat="44.962124328154744" lon="-1.192435350353813"><ele>19.0</ele><time>2026-04-12T14:27:48Z</time></trkpt><trkpt lat="44.9620327408071" lon="-1.1922946111839248"><ele>19.0</ele><time>2026-04-12T14:27:50Z</time></trkpt><trkpt lat="44.96193861806552" lon="-1.1922190953501703"><ele>19.0</ele><time>2026-04-12T14:27:51Z</time></trkpt><trkpt lat="44.96186974076175" lon="-1.1921725480943952"><ele>18.666666666666664</ele><time>2026-04-12T14:27:52Z</time></trkpt><trkpt lat="44.9617995485673" lon="-1.1921031125138681"><ele>18.333333333333332</ele><time>2026-04-12T14:27:53Z</time></trkpt><trkpt lat="44.96169409010155" lon="-1.1920531573123736"><ele>18.0</ele><time>2026-04-12T14:27:55Z</time></trkpt><trkpt lat="44.96162943293818" lon="-1.1920779592915933"><ele>17.666666666666668</ele><time>2026-04-12T14:27:58Z</time></trkpt><trkpt lat="44.96154378319131" lon="-1.1920492274655372"><ele>17.333333333333336</ele><time>2026-04-12T14:28:05Z</time></trkpt><trkpt lat="44.961457664734496" lon="-1.1919939654477916"><ele>17.0</ele><time>2026-04-12T14:28:06Z</time></trkpt><trkpt lat="44.96138977418214" lon="-1.1919458795367606"><ele>17.0</ele><time>2026-04-12T14:28:07Z</time></trkpt><trkpt lat="44.96130480743458" lon="-1.1918941876923526"><ele>17.0</ele><time>2026-04-12T14:28:08Z</time></trkpt><trkpt lat="44.9612128962312" lon="-1.1918393203068898"><ele>17.0</ele><time>2026-04-12T14:28:09Z</time></trkpt><trkpt lat="44.96109551202446" lon="-1.1917912508923625"><ele>17.0</ele><time>2026-04-12T14:28:10Z</time></trkpt><trkpt lat="44.960970508672645" lon="-1.1917633493623192"><ele>17.0</ele><time>2026-04-12T14:28:10.999Z</time></trkpt><trkpt lat="44.96086770087427" lon="-1.191769536598834"><ele>17.333333333333336</ele><time>2026-04-12T14:28:11.999Z</time></trkpt><trkpt lat="44.96072041782031" lon="-1.191803703171968"><ele>17.666666666666668</ele><time>2026-04-12T14:28:12.999Z</time></trkpt><trkpt lat="44.96055963582917" lon="-1.19179684192202"><ele>18.0</ele><time>2026-04-12T14:28:13.999Z</time></trkpt><trkpt lat="44.96039987082069" lon="-1.191756541970141"><ele>18.0</ele><time>2026-04-12T14:28:14.999Z</time></trkpt><trkpt lat="44.96025883323719" lon="-1.1917419173741268"><ele>18.0</ele><time>2026-04-12T14:28:15.999Z</time></trkpt><trkpt lat="44.960150027603845" lon="-1.1917447959371983"><ele>18.0</ele><time>2026-04-12T14:28:16.999Z</time></trkpt><trkpt lat="44.96003982638955" lon="-1.1917734387582413"><ele>18.0</ele><time>2026-04-12T14:28:17.999Z</time></trkpt><trkpt lat="44.95991593778209" lon="-1.1918223046691825"><ele>18.333333333333332</ele><time>2026-04-12T14:28:18.999Z</time></trkpt><trkpt lat="44.959776624574076" lon="-1.191899883818348"><ele>18.666666666666664</ele><time>2026-04-12T14:28:19.999Z</time></trkpt><trkpt lat="44.95961759312286" lon="-1.1920032494242394"><ele>19.0</ele><time>2026-04-12T14:28:20.999Z</time></trkpt><trkpt lat="44.95946361014471" lon="-1.1921233650660545"><ele>19.0</ele><time>2026-04-12T14:28:21.999Z</time></trkpt><trkpt lat="44.959309950227734" lon="-1.1922116451806346"><ele>19.0</ele><time>2026-04-12T14:28:22.999Z</time></trkpt><trkpt lat="44.95917973113216" lon="-1.192252951828689"><ele>19.0</ele><time>2026-04-12T14:28:23.999Z</time></trkpt><trkpt lat="44.959082851758644" lon="-1.1923070728313778"><ele>19.0</ele><time>2026-04-12T14:28:24.999Z</time></trkpt><trkpt lat="44.9590201998995" lon="-1.192377992661856"><ele>19.0</ele><time>2026-04-12T14:28:25.999Z</time></trkpt><trkpt lat="44.95894557487454" lon="-1.1925359099542028"><ele>19.0</ele><time>2026-04-12T14:28:26.999Z</time></trkpt><trkpt lat="44.958856788389326" lon="-1.1927265371353062"><ele>19.0</ele><time>2026-04-12T14:28:27.999Z</time></trkpt><trkpt lat="44.958761901656686" lon="-1.192887708933585"><ele>19.0</ele><time>2026-04-12T14:28:28.999Z</time></trkpt><trkpt lat="44.95866678057809" lon="-1.1930007413857406"><ele>19.0</ele><time>2026-04-12T14:28:29.999Z</time></trkpt><trkpt lat="44.95855386457146" lon="-1.1930621101311136"><ele>19.0</ele><time>2026-04-12T14:28:30.999Z</time></trkpt><trkpt lat="44.95841968928661" lon="-1.1930825227605082"><ele>19.0</ele><time>2026-04-12T14:28:31.999Z</time></trkpt><trkpt lat="44.95828089082482" lon="-1.193074853341441"><ele>19.0</ele><time>2026-04-12T14:28:32.999Z</time></trkpt><trkpt lat="44.95811344877349" lon="-1.193053103756913"><ele>19.0</ele><time>2026-04-12T14:28:33.999Z</time></trkpt><trkpt lat="44.95793371259589" lon="-1.1930104250245173"><ele>19.0</ele><time>2026-04-12T14:28:34.999Z</time></trkpt><trkpt lat="44.95777742271271" lon="-1.1930016589295216"><ele>19.0</ele><time>2026-04-12T14:28:35.999Z</time></trkpt><trkpt lat="44.957620953154134" lon="-1.1930330486689902"><ele>19.0</ele><time>2026-04-12T14:28:36.999Z</time></trkpt><trkpt lat="44.95744726806049" lon="-1.193048075286175"><ele>19.0</ele><time>2026-04-12T14:28:37.999Z</time></trkpt><trkpt lat="44.957263487362674" lon="-1.1930630794462718"><ele>19.0</ele><time>2026-04-12T14:28:38.999Z</time></trkpt><trkpt lat="44.95709261327304" lon="-1.1930736546985445"><ele>19.0</ele><time>2026-04-12T14:28:39.999Z</time></trkpt><trkpt lat="44.95695220028971" lon="-1.1930823423504124"><ele>19.0</ele><time>2026-04-12T14:28:40.999Z</time></trkpt><trkpt lat="44.95683671786177" lon="-1.1930871251539699"><ele>19.0</ele><time>2026-04-12T14:28:41.999Z</time></trkpt><trkpt lat="44.956721292207874" lon="-1.1930986776298602"><ele>19.0</ele><time>2026-04-12T14:28:42.999Z</time></trkpt><trkpt lat="44.95657272358832" lon="-1.1931530888272193"><ele>19.0</ele><time>2026-04-12T14:28:43.999Z</time></trkpt><trkpt lat="44.95639760696067" lon="-1.1932151854039728"><ele>19.0</ele><time>2026-04-12T14:28:44.999Z</time></trkpt><trkpt lat="44.95623972174481" lon="-1.19328626158927"><ele>19.0</ele><time>2026-04-12T14:28:45.999Z</time></trkpt><trkpt lat="44.956114303268144" lon="-1.1933601245896077"><ele>19.0</ele><time>2026-04-12T14:28:46.999Z</time></trkpt><trkpt lat="44.95601337222901" lon="-1.193410544706387"><ele>19.0</ele><time>2026-04-12T14:28:47.999Z</time></trkpt><trkpt lat="44.95593137491617" lon="-1.1934504176146405"><ele>19.0</ele><time>2026-04-12T14:28:48.999Z</time></trkpt><trkpt lat="44.9558523965414" lon="-1.1935392589196117"><ele>19.0</ele><time>2026-04-12T14:28:49.999Z</time></trkpt><trkpt lat="44.955756869166" lon="-1.1936714991992563"><ele>19.0</ele><time>2026-04-12T14:28:50.999Z</time></trkpt><trkpt lat="44.955646970733106" lon="-1.1937710960654877"><ele>19.0</ele><time>2026-04-12T14:28:51.999Z</time></trkpt><trkpt lat="44.95555317673538" lon="-1.193820822546702"><ele>19.0</ele><time>2026-04-12T14:28:52.999Z</time></trkpt><trkpt lat="44.95547434290911" lon="-1.1938127476749785"><ele>19.0</ele><time>2026-04-12T14:28:53.999Z</time></trkpt><trkpt lat="44.95539795936872" lon="-1.1937915103878192"><ele>19.0</ele><time>2026-04-12T14:28:55.999Z</time></trkpt><trkpt lat="44.95537377779656" lon="-1.1939361932200314"><ele>19.0</ele><time>2026-04-12T14:29:14.998Z</time></trkpt><trkpt lat="44.955396527436044" lon="-1.1941179573982312"><ele>19.0</ele><time>2026-04-12T14:29:16.998Z</time></trkpt><trkpt lat="44.95534507341488" lon="-1.194246156776542"><ele>19.0</ele><time>2026-04-12T14:29:18.998Z</time></trkpt><trkpt lat="44.95528897225254" lon="-1.1943120052662854"><ele>19.0</ele><time>2026-04-12T14:29:19.998Z</time></trkpt><trkpt lat="44.95520887527132" lon="-1.1943423044024992"><ele>19.0</ele><time>2026-04-12T14:29:20.998Z</time></trkpt><trkpt lat="44.955111354333596" lon="-1.1943760416893132"><ele>19.0</ele><time>2026-04-12T14:29:21.998Z</time></trkpt><trkpt lat="44.955000724396726" lon="-1.1944463791505124"><ele>19.25</ele><time>2026-04-12T14:29:22.998Z</time></trkpt><trkpt lat="44.954905761221" lon="-1.1945568722830466"><ele>19.5</ele><time>2026-04-12T14:29:23.998Z</time></trkpt><trkpt lat="44.95476343481617" lon="-1.194678154339197"><ele>19.75</ele><time>2026-04-12T14:29:24.998Z</time></trkpt><trkpt lat="44.954641053720756" lon="-1.1947523365417356"><ele>20.0</ele><time>2026-04-12T14:29:25.998Z</time></trkpt><trkpt lat="44.9545565508855" lon="-1.1948402580814852"><ele>20.0</ele><time>2026-04-12T14:29:27Z</time></trkpt><trkpt lat="44.95450062359342" lon="-1.1949881814514491"><ele>20.0</ele><time>2026-04-12T14:29:28Z</time></trkpt><trkpt lat="44.9544308224142" lon="-1.1951929354779742"><ele>20.0</ele><time>2026-04-12T14:29:29Z</time></trkpt><trkpt lat="44.95433627429127" lon="-1.1953476098732718"><ele>20.0</ele><time>2026-04-12T14:29:30Z</time></trkpt><trkpt lat="44.95425246517414" lon="-1.1954667419720986"><ele>20.25</ele><time>2026-04-12T14:29:31Z</time></trkpt><trkpt lat="44.95420236751524" lon="-1.1956532260010415"><ele>20.5</ele><time>2026-04-12T14:29:32Z</time></trkpt><trkpt lat="44.9541686794472" lon="-1.19582610635155"><ele>20.75</ele><time>2026-04-12T14:29:33Z</time></trkpt><trkpt lat="44.95413906025646" lon="-1.1960368486641964"><ele>21.0</ele><time>2026-04-12T14:29:34Z</time></trkpt><trkpt lat="44.9541063505058" lon="-1.1962439191622911"><ele>21.0</ele><time>2026-04-12T14:29:35Z</time></trkpt><trkpt lat="44.954043283739765" lon="-1.1964330667994576"><ele>21.0</ele><time>2026-04-12T14:29:36Z</time></trkpt><trkpt lat="44.95398870484581" lon="-1.1965905649853978"><ele>21.0</ele><time>2026-04-12T14:29:37Z</time></trkpt><trkpt lat="44.95389907771053" lon="-1.1967455496647985"><ele>21.0</ele><time>2026-04-12T14:29:38Z</time></trkpt><trkpt lat="44.95378964123638" lon="-1.1969246007836782"><ele>21.0</ele><time>2026-04-12T14:29:39Z</time></trkpt><trkpt lat="44.95370288109188" lon="-1.1970858695393625"><ele>21.0</ele><time>2026-04-12T14:29:40Z</time></trkpt><trkpt lat="44.95361823081939" lon="-1.1972224865456738"><ele>21.0</ele><time>2026-04-12T14:29:41Z</time></trkpt><trkpt lat="44.95354411677413" lon="-1.197375248500542"><ele>21.0</ele><time>2026-04-12T14:29:42Z</time></trkpt><trkpt lat="44.95350205161732" lon="-1.197534878097972"><ele>21.0</ele><time>2026-04-12T14:29:43Z</time></trkpt><trkpt lat="44.95347153314125" lon="-1.1976683739110467"><ele>21.0</ele><time>2026-04-12T14:29:44Z</time></trkpt><trkpt lat="44.95344440224783" lon="-1.197758764913685"><ele>21.0</ele><time>2026-04-12T14:29:45Z</time></trkpt><trkpt lat="44.95339913505876" lon="-1.197854153000862"><ele>21.0</ele><time>2026-04-12T14:29:47Z</time></trkpt><trkpt lat="44.95327593516595" lon="-1.1979003725880584"><ele>21.0</ele><time>2026-04-12T14:29:49Z</time></trkpt><trkpt lat="44.95318755236428" lon="-1.1979108297407177"><ele>20.8</ele><time>2026-04-12T14:29:50Z</time></trkpt><trkpt lat="44.95307881719665" lon="-1.197916579460619"><ele>20.6</ele><time>2026-04-12T14:29:51Z</time></trkpt><trkpt lat="44.95297766454125" lon="-1.1979266236807506"><ele>20.4</ele><time>2026-04-12T14:29:52Z</time></trkpt><trkpt lat="44.95286179793718" lon="-1.1979465028072425"><ele>20.2</ele><time>2026-04-12T14:29:53Z</time></trkpt><trkpt lat="44.95276620811527" lon="-1.197964979887616"><ele>20.0</ele><time>2026-04-12T14:29:54Z</time></trkpt><trkpt lat="44.952664779683865" lon="-1.1979880477019977"><ele>20.0</ele><time>2026-04-12T14:29:55Z</time></trkpt><trkpt lat="44.95257807932171" lon="-1.1980032963006473"><ele>20.0</ele><time>2026-04-12T14:29:57Z</time></trkpt><trkpt lat="44.95258782116804" lon="-1.198107693027277"><ele>20.0</ele><time>2026-04-12T14:30:04Z</time></trkpt><trkpt lat="44.95269162239203" lon="-1.1982591116134458"><ele>20.0</ele><time>2026-04-12T14:30:06Z</time></trkpt><trkpt lat="44.95276318429717" lon="-1.1983764035225075"><ele>20.0</ele><time>2026-04-12T14:30:07Z</time></trkpt><trkpt lat="44.95281812639589" lon="-1.1984817161623476"><ele>19.5</ele><time>2026-04-12T14:30:08Z</time></trkpt><trkpt lat="44.95287819324112" lon="-1.1986128008390495"><ele>19.0</ele><time>2026-04-12T14:30:09Z</time></trkpt><trkpt lat="44.9529667146472" lon="-1.198792267244327"><ele>18.5</ele><time>2026-04-12T14:30:09.999Z</time></trkpt><trkpt lat="44.95305912378472" lon="-1.1990040576319096"><ele>18.0</ele><time>2026-04-12T14:30:10.999Z</time></trkpt><trkpt lat="44.95314795472207" lon="-1.199215601664523"><ele>17.75</ele><time>2026-04-12T14:30:11.999Z</time></trkpt><trkpt lat="44.95323012556372" lon="-1.199419607752923"><ele>17.5</ele><time>2026-04-12T14:30:12.999Z</time></trkpt><trkpt lat="44.953302661605704" lon="-1.1995737806491302"><ele>17.25</ele><time>2026-04-12T14:30:13.999Z</time></trkpt><trkpt lat="44.9533822439118" lon="-1.1997207457406787"><ele>17.0</ele><time>2026-04-12T14:30:14.999Z</time></trkpt><trkpt lat="44.9534855226856" lon="-1.1999299171365267"><ele>18.333333333333336</ele><time>2026-04-12T14:30:15.999Z</time></trkpt><trkpt lat="44.95360241521063" lon="-1.2001619306402276"><ele>19.666666666666668</ele><time>2026-04-12T14:30:16.999Z</time></trkpt><trkpt lat="44.95372664817901" lon="-1.2004043239031217"><ele>21.0</ele><time>2026-04-12T14:30:17.999Z</time></trkpt><trkpt lat="44.95380679325006" lon="-1.2005949088357093"><ele>21.333333333333332</ele><time>2026-04-12T14:30:18.999Z</time></trkpt><trkpt lat="44.953896258148546" lon="-1.2007659507276733"><ele>21.666666666666664</ele><time>2026-04-12T14:30:19.999Z</time></trkpt><trkpt lat="44.95398756739589" lon="-1.2009542439281213"><ele>22.0</ele><time>2026-04-12T14:30:20.999Z</time></trkpt><trkpt lat="44.95407965653613" lon="-1.2011447511210307"><ele>22.0</ele><time>2026-04-12T14:30:21.999Z</time></trkpt><trkpt lat="44.95418650625419" lon="-1.201346081832111"><ele>22.0</ele><time>2026-04-12T14:30:22.999Z</time></trkpt><trkpt lat="44.95428283159291" lon="-1.201558324230413"><ele>22.0</ele><time>2026-04-12T14:30:23.999Z</time></trkpt><trkpt lat="44.95435714978427" lon="-1.2017438811329422"><ele>21.666666666666664</ele><time>2026-04-12T14:30:24.999Z</time></trkpt><trkpt lat="44.954430026742465" lon="-1.2019148529783619"><ele>21.333333333333332</ele><time>2026-04-12T14:30:25.999Z</time></trkpt><trkpt lat="44.95452314713253" lon="-1.2021082600151265"><ele>21.0</ele><time>2026-04-12T14:30:26.999Z</time></trkpt><trkpt lat="44.95460820321946" lon="-1.2022831679094728"><ele>20.75</ele><time>2026-04-12T14:30:27.999Z</time></trkpt><trkpt lat="44.9546819845254" lon="-1.2024291479932303"><ele>20.5</ele><time>2026-04-12T14:30:28.999Z</time></trkpt><trkpt lat="44.9547519809853" lon="-1.2025636101942103"><ele>20.25</ele><time>2026-04-12T14:30:29.999Z</time></trkpt><trkpt lat="44.95483266664329" lon="-1.2027240220376594"><ele>20.0</ele><time>2026-04-12T14:30:30.999Z</time></trkpt><trkpt lat="44.95492043998383" lon="-1.2028878638091427"><ele>20.0</ele><time>2026-04-12T14:30:31.999Z</time></trkpt><trkpt lat="44.954934559718644" lon="-1.2029748750651494"><ele>20.0</ele><time>2026-04-12T14:30:32.999Z</time></trkpt><trkpt lat="44.95499509408148" lon="-1.203097684351794"><ele>20.0</ele><time>2026-04-12T14:30:33.999Z</time></trkpt><trkpt lat="44.95505875661386" lon="-1.203223717644436"><ele>20.0</ele><time>2026-04-12T14:30:34.999Z</time></trkpt><trkpt lat="44.95512236654972" lon="-1.203306942717715"><ele>20.0</ele><time>2026-04-12T14:30:35.999Z</time></trkpt><trkpt lat="44.95517909756279" lon="-1.203383654552517"><ele>20.0</ele><time>2026-04-12T14:30:36.999Z</time></trkpt><trkpt lat="44.955242426558215" lon="-1.2034762132450005"><ele>18.6</ele><time>2026-04-12T14:30:38.999Z</time></trkpt><trkpt lat="44.95530684506722" lon="-1.2035293770450768"><ele>17.2</ele><time>2026-04-12T14:30:42.999Z</time></trkpt><trkpt lat="44.955352703773066" lon="-1.2036122891556564"><ele>15.8</ele><time>2026-04-12T14:30:44.999Z</time></trkpt><trkpt lat="44.95532639946814" lon="-1.2037745512582785"><ele>14.4</ele><time>2026-04-12T14:30:50.999Z</time></trkpt><trkpt lat="44.95532299836015" lon="-1.2039381161250278"><ele>13.0</ele><time>2026-04-12T14:30:53.999Z</time></trkpt><trkpt lat="44.955321916528796" lon="-1.2041302485517693"><ele>12.166666666666666</ele><time>2026-04-12T14:30:55.999Z</time></trkpt><trkpt lat="44.95534338535711" lon="-1.2042243294612898"><ele>11.333333333333332</ele><time>2026-04-12T14:30:56.998Z</time></trkpt><trkpt lat="44.9553535610258" lon="-1.204313930109168"><ele>10.5</ele><time>2026-04-12T14:30:57.998Z</time></trkpt><trkpt lat="44.95534083529253" lon="-1.2044010923093684"><ele>9.666666666666666</ele><time>2026-04-12T14:30:58.998Z</time></trkpt><trkpt lat="44.955349343412074" lon="-1.2045062017235573"><ele>8.833333333333332</ele><time>2026-04-12T14:31:01.998Z</time></trkpt><trkpt lat="44.955359629365766" lon="-1.2046084598723537"><ele>8.0</ele><time>2026-04-12T14:31:04.998Z</time></trkpt><trkpt lat="44.95533460360313" lon="-1.2048077317405927"><ele>7.6000000000000005</ele><time>2026-04-12T14:31:06.998Z</time></trkpt><trkpt lat="44.955310249031164" lon="-1.2049006231146504"><ele>7.200000000000001</ele><time>2026-04-12T14:31:07.998Z</time></trkpt><trkpt lat="44.95530261116215" lon="-1.2050260160549922"><ele>6.8</ele><time>2026-04-12T14:31:08.998Z</time></trkpt><trkpt lat="44.95533617503367" lon="-1.2051804523553462"><ele>6.4</ele><time>2026-04-12T14:31:09.998Z</time></trkpt><trkpt lat="44.9553932828191" lon="-1.2053438931663094"><ele>6.0</ele><time>2026-04-12T14:31:10.998Z</time></trkpt><trkpt lat="44.95548418420046" lon="-1.2055313617240941"><ele>6.75</ele><time>2026-04-12T14:31:11.998Z</time></trkpt><trkpt lat="44.95558004644228" lon="-1.2057137230063666"><ele>7.5</ele><time>2026-04-12T14:31:12.998Z</time></trkpt><trkpt lat="44.95564976030416" lon="-1.2058548756958332"><ele>8.25</ele><time>2026-04-12T14:31:14.998Z</time></trkpt><trkpt lat="44.955725499303334" lon="-1.2059077439277868"><ele>9.0</ele><time>2026-04-12T14:31:15.998Z</time></trkpt><trkpt lat="44.955788362813244" lon="-1.2059982333427244"><ele>9.0</ele><time>2026-04-12T14:31:16.998Z</time></trkpt><trkpt lat="44.95583368581051" lon="-1.2061344778594703"><ele>9.0</ele><time>2026-04-12T14:31:17.998Z</time></trkpt><trkpt lat="44.95587162924552" lon="-1.2062850308823552"><ele>9.0</ele><time>2026-04-12T14:31:18.998Z</time></trkpt><trkpt lat="44.955919475975804" lon="-1.2064001193183176"><ele>9.0</ele><time>2026-04-12T14:31:19.998Z</time></trkpt><trkpt lat="44.95597394634119" lon="-1.206447263532349"><ele>9.0</ele><time>2026-04-12T14:31:20.998Z</time></trkpt><trkpt lat="44.95602112681807" lon="-1.2065088043613525"><ele>9.0</ele><time>2026-04-12T14:31:21.998Z</time></trkpt><trkpt lat="44.95603887356217" lon="-1.2066220472770355"><ele>10.0</ele><time>2026-04-12T14:31:22.998Z</time></trkpt><trkpt lat="44.95605887172212" lon="-1.206764517261644"><ele>11.0</ele><time>2026-04-12T14:31:23.998Z</time></trkpt><trkpt lat="44.956057919128156" lon="-1.2069160764488949"><ele>12.0</ele><time>2026-04-12T14:31:24.998Z</time></trkpt><trkpt lat="44.95606630682111" lon="-1.207038319948092"><ele>13.0</ele><time>2026-04-12T14:31:25.998Z</time></trkpt><trkpt lat="44.95608974151893" lon="-1.2071442663283858"><ele>14.0</ele><time>2026-04-12T14:31:26.998Z</time></trkpt><trkpt lat="44.95611799352654" lon="-1.2072318902166557"><ele>15.0</ele><time>2026-04-12T14:31:27.998Z</time></trkpt><trkpt lat="44.956145654726114" lon="-1.207332166782467"><ele>15.0</ele><time>2026-04-12T14:35:49Z</time></trkpt><trkpt lat="44.95618675654296" lon="-1.207431423177085"><ele>15.0</ele><time>2026-04-12T14:35:51Z</time></trkpt><trkpt lat="44.95623254997797" lon="-1.2075830035159254"><ele>15.0</ele><time>2026-04-12T14:35:53Z</time></trkpt><trkpt lat="44.95623274605718" lon="-1.207685631533793"><ele>15.0</ele><time>2026-04-12T14:35:54Z</time></trkpt><trkpt lat="44.956235218529294" lon="-1.2077821102923365"><ele>15.0</ele><time>2026-04-12T14:35:55Z</time></trkpt><trkpt lat="44.95621761922821" lon="-1.207871544283235"><ele>15.0</ele><time>2026-04-12T14:35:56Z</time></trkpt><trkpt lat="44.95621291173318" lon="-1.2079687777172092"><ele>15.0</ele><time>2026-04-12T14:35:57Z</time></trkpt><trkpt lat="44.956198091213516" lon="-1.2081317512452834"><ele>15.0</ele><time>2026-04-12T14:35:59Z</time></trkpt><trkpt lat="44.95618618855174" lon="-1.2082430251290532"><ele>15.0</ele><time>2026-04-12T14:36:00Z</time></trkpt><trkpt lat="44.956102948056476" lon="-1.2083749332115297"><ele>15.0</ele><time>2026-04-12T14:36:02Z</time></trkpt><trkpt lat="44.95601739257245" lon="-1.2084276189345826"><ele>15.0</ele><time>2026-04-12T14:36:03Z</time></trkpt><trkpt lat="44.955916038373395" lon="-1.2084768909307344"><ele>12.0</ele><time>2026-04-12T14:36:04Z</time></trkpt><trkpt lat="44.95575950539271" lon="-1.2085221435610536"><ele>9.0</ele><time>2026-04-12T14:36:05Z</time></trkpt><trkpt lat="44.955558920627844" lon="-1.2085605593250475"><ele>6.0</ele><time>2026-04-12T14:36:06Z</time></trkpt><trkpt lat="44.95534239481887" lon="-1.2085827562040217"><ele>6.0</ele><time>2026-04-12T14:36:07Z</time></trkpt><trkpt lat="44.955096497184286" lon="-1.2085944947240714"><ele>6.0</ele><time>2026-04-12T14:36:08Z</time></trkpt><trkpt lat="44.95484359022621" lon="-1.2086180794742987"><ele>5.5</ele><time>2026-04-12T14:36:09Z</time></trkpt><trkpt lat="44.95457683670708" lon="-1.2086698984066466"><ele>5.0</ele><time>2026-04-12T14:36:10Z</time></trkpt><trkpt lat="44.95429977050596" lon="-1.208736065475038"><ele>6.0</ele><time>2026-04-12T14:36:11Z</time></trkpt><trkpt lat="44.95402384133524" lon="-1.208789816837397"><ele>7.0</ele><time>2026-04-12T14:36:12Z</time></trkpt><trkpt lat="44.953734449777095" lon="-1.2088329989870659"><ele>7.0</ele><time>2026-04-12T14:36:12.999Z</time></trkpt><trkpt lat="44.95344200581847" lon="-1.2088658547964775"><ele>7.0</ele><time>2026-04-12T14:36:13.999Z</time></trkpt><trkpt lat="44.953135877985765" lon="-1.208906666667854"><ele>7.0</ele><time>2026-04-12T14:36:14.999Z</time></trkpt><trkpt lat="44.95283595454594" lon="-1.2089533649465736"><ele>7.0</ele><time>2026-04-12T14:36:15.999Z</time></trkpt><trkpt lat="44.952513573530936" lon="-1.2090011369428406"><ele>4.5</ele><time>2026-04-12T14:36:16.999Z</time></trkpt><trkpt lat="44.952246035473586" lon="-1.2090462998204816"><ele>2.0</ele><time>2026-04-12T14:36:17.999Z</time></trkpt><trkpt lat="44.95201861847339" lon="-1.209077817993843"><ele>2.0</ele><time>2026-04-12T14:36:18.999Z</time></trkpt><trkpt lat="44.951753768713246" lon="-1.2091273195781842"><ele>2.0</ele><time>2026-04-12T14:36:19.999Z</time></trkpt><trkpt lat="44.951567070606195" lon="-1.209159611217581"><ele>3.0</ele><time>2026-04-12T14:36:20.999Z</time></trkpt><trkpt lat="44.95138426655811" lon="-1.2091786639902826"><ele>4.0</ele><time>2026-04-12T14:36:21.999Z</time></trkpt><trkpt lat="44.95119130267363" lon="-1.2091956220576685"><ele>5.0</ele><time>2026-04-12T14:36:22.999Z</time></trkpt><trkpt lat="44.95100356093032" lon="-1.2092159248737808"><ele>5.666666666666667</ele><time>2026-04-12T14:36:23.999Z</time></trkpt><trkpt lat="44.9508198938835" lon="-1.2092500671119413"><ele>6.333333333333334</ele><time>2026-04-12T14:36:24.999Z</time></trkpt><trkpt lat="44.95062531403756" lon="-1.2093046844636106"><ele>7.0</ele><time>2026-04-12T14:36:25.999Z</time></trkpt><trkpt lat="44.95045543572263" lon="-1.2093332787697897"><ele>7.0</ele><time>2026-04-12T14:36:26.999Z</time></trkpt><trkpt lat="44.950281227811566" lon="-1.2093577475278892"><ele>7.0</ele><time>2026-04-12T14:36:27.999Z</time></trkpt><trkpt lat="44.94998257285809" lon="-1.2094145700256873"><ele>6.666666666666667</ele><time>2026-04-12T14:36:28.999Z</time></trkpt><trkpt lat="44.94977802983202" lon="-1.20943308272214"><ele>6.333333333333334</ele><time>2026-04-12T14:36:29.999Z</time></trkpt><trkpt lat="44.949592732860665" lon="-1.209432918720099"><ele>6.0</ele><time>2026-04-12T14:36:30.999Z</time></trkpt><trkpt lat="44.94942949793845" lon="-1.2094341110009128"><ele>6.0</ele><time>2026-04-12T14:36:31.999Z</time></trkpt><trkpt lat="44.94926288260571" lon="-1.2094344234604972"><ele>6.0</ele><time>2026-04-12T14:36:32.999Z</time></trkpt><trkpt lat="44.94911432246588" lon="-1.2094428981399465"><ele>6.0</ele><time>2026-04-12T14:36:33.999Z</time></trkpt><trkpt lat="44.94898132544707" lon="-1.2094532677658953"><ele>6.0</ele><time>2026-04-12T14:36:34.999Z</time></trkpt><trkpt lat="44.94884157589046" lon="-1.2094810861513445"><ele>7.25</ele><time>2026-04-12T14:36:35.999Z</time></trkpt><trkpt lat="44.948743483490276" lon="-1.2094985985839617"><ele>8.5</ele><time>2026-04-12T14:36:36.999Z</time></trkpt><trkpt lat="44.94862547703821" lon="-1.2095101219027333"><ele>9.75</ele><time>2026-04-12T14:36:37.999Z</time></trkpt><trkpt lat="44.94849730406756" lon="-1.2095393640017489"><ele>11.0</ele><time>2026-04-12T14:36:38.999Z</time></trkpt><trkpt lat="44.94836011202519" lon="-1.2096116379626105"><ele>11.0</ele><time>2026-04-12T14:36:39.999Z</time></trkpt><trkpt lat="44.94825736824575" lon="-1.20968487705268"><ele>11.0</ele><time>2026-04-12T14:36:40.999Z</time></trkpt><trkpt lat="44.948149430528765" lon="-1.2097286588562022"><ele>11.0</ele><time>2026-04-12T14:36:41.999Z</time></trkpt><trkpt lat="44.948020845000165" lon="-1.2097406953776533"><ele>11.0</ele><time>2026-04-12T14:36:42.999Z</time></trkpt><trkpt lat="44.947877894715965" lon="-1.209778259848531"><ele>11.0</ele><time>2026-04-12T14:36:43.999Z</time></trkpt><trkpt lat="44.94779349079421" lon="-1.2098004792200017"><ele>11.0</ele><time>2026-04-12T14:36:44.999Z</time></trkpt><trkpt lat="44.94771703138887" lon="-1.2097182079770084"><ele>11.0</ele><time>2026-04-12T14:36:46.999Z</time></trkpt><trkpt lat="44.9477090265086" lon="-1.209617172108948"><ele>11.0</ele><time>2026-04-12T14:36:47.999Z</time></trkpt><trkpt lat="44.94775079308445" lon="-1.2095111688733393"><ele>11.0</ele><time>2026-04-12T14:36:48.999Z</time></trkpt><trkpt lat="44.94783661685229" lon="-1.2094557533612877"><ele>11.0</ele><time>2026-04-12T14:36:49.999Z</time></trkpt><trkpt lat="44.94793421180198" lon="-1.2094651304968427"><ele>11.0</ele><time>2026-04-12T14:36:50.999Z</time></trkpt><trkpt lat="44.948036446727336" lon="-1.2094983675365178"><ele>11.0</ele><time>2026-04-12T14:36:51.999Z</time></trkpt><trkpt lat="44.94815163762723" lon="-1.2095450929177"><ele>11.0</ele><time>2026-04-12T14:36:52.999Z</time></trkpt><trkpt lat="44.94829625316918" lon="-1.2095900217896673"><ele>11.0</ele><time>2026-04-12T14:36:53.999Z</time></trkpt><trkpt lat="44.94847068617633" lon="-1.209610244147794"><ele>11.333333333333332</ele><time>2026-04-12T14:36:54.999Z</time></trkpt><trkpt lat="44.94863459655814" lon="-1.209585682381821"><ele>11.666666666666666</ele><time>2026-04-12T14:36:55.999Z</time></trkpt><trkpt lat="44.94880694629102" lon="-1.209526420891157"><ele>12.0</ele><time>2026-04-12T14:36:56.999Z</time></trkpt><trkpt lat="44.949023584673036" lon="-1.2094797505174189"><ele>10.0</ele><time>2026-04-12T14:36:57.999Z</time></trkpt><trkpt lat="44.9492328695433" lon="-1.2094420432760815"><ele>8.0</ele><time>2026-04-12T14:36:58.999Z</time></trkpt><trkpt lat="44.949450844282026" lon="-1.2094445350191705"><ele>6.0</ele><time>2026-04-12T14:36:59.999Z</time></trkpt><trkpt lat="44.94968665506486" lon="-1.2094384816279908"><ele>6.0</ele><time>2026-04-12T14:37:00.998Z</time></trkpt><trkpt lat="44.949940682293374" lon="-1.2094326959362027"><ele>6.0</ele><time>2026-04-12T14:37:01.998Z</time></trkpt><trkpt lat="44.95020352896389" lon="-1.20941088049929"><ele>6.5</ele><time>2026-04-12T14:37:02.998Z</time></trkpt><trkpt lat="44.950436672787696" lon="-1.209368836864817"><ele>7.0</ele><time>2026-04-12T14:37:03.998Z</time></trkpt><trkpt lat="44.95067578698347" lon="-1.209324394807037"><ele>6.0</ele><time>2026-04-12T14:37:04.998Z</time></trkpt><trkpt lat="44.95091622263246" lon="-1.2092943140035575"><ele>5.0</ele><time>2026-04-12T14:37:05.998Z</time></trkpt><trkpt lat="44.951165798295136" lon="-1.2092577404452738"><ele>5.0</ele><time>2026-04-12T14:37:06.998Z</time></trkpt><trkpt lat="44.95143801824748" lon="-1.2092037940820837"><ele>5.0</ele><time>2026-04-12T14:37:07.998Z</time></trkpt><trkpt lat="44.951673784801315" lon="-1.2091647053219945"><ele>3.5</ele><time>2026-04-12T14:37:08.998Z</time></trkpt><trkpt lat="44.95191593665494" lon="-1.2091402248644412"><ele>2.0</ele><time>2026-04-12T14:37:09.998Z</time></trkpt><trkpt lat="44.95215751455641" lon="-1.209113899921079"><ele>2.0</ele><time>2026-04-12T14:37:10.998Z</time></trkpt><trkpt lat="44.95239448833097" lon="-1.2090776359205984"><ele>2.0</ele><time>2026-04-12T14:37:11.998Z</time></trkpt><trkpt lat="44.95259078061282" lon="-1.2090469957340755"><ele>2.0</ele><time>2026-04-12T14:37:12.998Z</time></trkpt><trkpt lat="44.952804379375735" lon="-1.2090153229991782"><ele>3.666666666666667</ele><time>2026-04-12T14:37:13.998Z</time></trkpt><trkpt lat="44.95301116096031" lon="-1.2089894774585874"><ele>5.333333333333334</ele><time>2026-04-12T14:37:14.998Z</time></trkpt><trkpt lat="44.95320470958905" lon="-1.2089730967566563"><ele>7.0</ele><time>2026-04-12T14:37:15.998Z</time></trkpt><trkpt lat="44.953408518661" lon="-1.2089524764713753"><ele>7.0</ele><time>2026-04-12T14:37:16.998Z</time></trkpt><trkpt lat="44.95362488222454" lon="-1.2089205972344172"><ele>7.0</ele><time>2026-04-12T14:37:17.998Z</time></trkpt><trkpt lat="44.953820720111956" lon="-1.2088798119619892"><ele>7.0</ele><time>2026-04-12T14:37:18.998Z</time></trkpt><trkpt lat="44.954011260430875" lon="-1.2088375244754925"><ele>6.333333333333334</ele><time>2026-04-12T14:37:19.998Z</time></trkpt><trkpt lat="44.95421724741108" lon="-1.2088008845219271"><ele>5.666666666666667</ele><time>2026-04-12T14:37:20.998Z</time></trkpt><trkpt lat="44.95444614150532" lon="-1.208753902202889"><ele>5.0</ele><time>2026-04-12T14:37:21.998Z</time></trkpt><trkpt lat="44.954683004210445" lon="-1.2086925668859134"><ele>5.0</ele><time>2026-04-12T14:37:22.998Z</time></trkpt><trkpt lat="44.95491034990555" lon="-1.208633591381374"><ele>5.0</ele><time>2026-04-12T14:37:23.998Z</time></trkpt><trkpt lat="44.95512266446566" lon="-1.2085953218717473"><ele>5.0</ele><time>2026-04-12T14:37:24.998Z</time></trkpt><trkpt lat="44.95534195292498" lon="-1.2085884161936205"><ele>5.333333333333334</ele><time>2026-04-12T14:37:25.998Z</time></trkpt><trkpt lat="44.95555181163997" lon="-1.208582338175937"><ele>5.666666666666667</ele><time>2026-04-12T14:37:26.998Z</time></trkpt><trkpt lat="44.95572016874633" lon="-1.2085787289233108"><ele>6.0</ele><time>2026-04-12T14:37:27.998Z</time></trkpt><trkpt lat="44.955853940439795" lon="-1.2085765063379743"><ele>5.833333333333333</ele><time>2026-04-12T14:37:28.998Z</time></trkpt><trkpt lat="44.955963786954" lon="-1.2085677778484807"><ele>5.666666666666667</ele><time>2026-04-12T14:37:29.998Z</time></trkpt><trkpt lat="44.95605441891685" lon="-1.2085608142030222"><ele>5.5</ele><time>2026-04-12T14:37:30.998Z</time></trkpt><trkpt lat="44.95612415213265" lon="-1.208555082787002"><ele>5.333333333333334</ele><time>2026-04-12T14:37:31.998Z</time></trkpt><trkpt lat="44.95618647542543" lon="-1.2085313891887255"><ele>5.166666666666667</ele><time>2026-04-12T14:37:32.998Z</time></trkpt><trkpt lat="44.95623039991016" lon="-1.2084571624844371"><ele>5.0</ele><time>2026-04-12T14:37:33.998Z</time></trkpt><trkpt lat="44.95625210815745" lon="-1.2083424721048446"><ele>5.0</ele><time>2026-04-12T14:37:34.998Z</time></trkpt><trkpt lat="44.95624103527704" lon="-1.2082007664785825"><ele>5.0</ele><time>2026-04-12T14:37:35.998Z</time></trkpt><trkpt lat="44.95622707515796" lon="-1.2080525569272214"><ele>5.0</ele><time>2026-04-12T14:37:36.998Z</time></trkpt><trkpt lat="44.95622013027548" lon="-1.2079223967513695"><ele>5.0</ele><time>2026-04-12T14:37:37.998Z</time></trkpt><trkpt lat="44.95621852641837" lon="-1.2078114709094145"><ele>5.0</ele><time>2026-04-12T14:37:38.998Z</time></trkpt><trkpt lat="44.95622488444452" lon="-1.2076792943306658"><ele>6.666666666666667</ele><time>2026-04-12T14:37:39.998Z</time></trkpt><trkpt lat="44.956231712815324" lon="-1.2075023599429715"><ele>8.333333333333334</ele><time>2026-04-12T14:37:40.998Z</time></trkpt><trkpt lat="44.9561897896136" lon="-1.2073778074933712"><ele>10.0</ele><time>2026-04-12T14:37:42.998Z</time></trkpt><trkpt lat="44.95615711545007" lon="-1.2072861666629808"><ele>11.666666666666666</ele><time>2026-04-12T14:37:44.998Z</time></trkpt><trkpt lat="44.95609631782828" lon="-1.2072572154020142"><ele>13.333333333333334</ele><time>2026-04-12T14:59:18.999Z</time></trkpt><trkpt lat="44.956098597442484" lon="-1.2071483907096525"><ele>15.0</ele><time>2026-04-12T14:59:25.999Z</time></trkpt><trkpt lat="44.95607075293756" lon="-1.2070324805442798"><ele>15.0</ele><time>2026-04-12T14:59:28.999Z</time></trkpt><trkpt lat="44.95604046794454" lon="-1.2068746062076745"><ele>15.0</ele><time>2026-04-12T14:59:48.999Z</time></trkpt><trkpt lat="44.95603708054925" lon="-1.2067796812178042"><ele>15.0</ele><time>2026-04-12T14:59:49.999Z</time></trkpt><trkpt lat="44.95602710264941" lon="-1.2066632789504421"><ele>15.0</ele><time>2026-04-12T14:59:50.999Z</time></trkpt><trkpt lat="44.95601674935117" lon="-1.2065227568122714"><ele>15.0</ele><time>2026-04-12T14:59:51.999Z</time></trkpt><trkpt lat="44.95599337422722" lon="-1.206415723213621"><ele>15.0</ele><time>2026-04-12T14:59:52.999Z</time></trkpt><trkpt lat="44.95589771759907" lon="-1.2063129205587266"><ele>14.0</ele><time>2026-04-12T14:59:54.999Z</time></trkpt><trkpt lat="44.955851084572835" lon="-1.2062470041806606"><ele>13.0</ele><time>2026-04-12T14:59:55.999Z</time></trkpt><trkpt lat="44.95580635090612" lon="-1.206141382230236"><ele>12.0</ele><time>2026-04-12T14:59:56.999Z</time></trkpt><trkpt lat="44.95578127833681" lon="-1.2060324808270946"><ele>11.0</ele><time>2026-04-12T14:59:57.999Z</time></trkpt><trkpt lat="44.95571499679259" lon="-1.2058808912561594"><ele>10.0</ele><time>2026-04-12T14:59:59.999Z</time></trkpt><trkpt lat="44.95567114791561" lon="-1.2058130828713158"><ele>9.0</ele><time>2026-04-12T15:00:00.999Z</time></trkpt><trkpt lat="44.95556060017288" lon="-1.2056979290172132"><ele>8.571428571428573</ele><time>2026-04-12T15:00:02.999Z</time></trkpt><trkpt lat="44.95551855662872" lon="-1.2056164479719123"><ele>8.142857142857142</ele><time>2026-04-12T15:00:03.999Z</time></trkpt><trkpt lat="44.955488174977106" lon="-1.2055239502597193"><ele>7.714285714285714</ele><time>2026-04-12T15:00:04.999Z</time></trkpt><trkpt lat="44.95545508024121" lon="-1.2054424201542024"><ele>7.2857142857142865</ele><time>2026-04-12T15:00:05.999Z</time></trkpt><trkpt lat="44.955410656003295" lon="-1.2053607920733242"><ele>6.857142857142858</ele><time>2026-04-12T15:00:06.998Z</time></trkpt><trkpt lat="44.95537429765868" lon="-1.205277753411565"><ele>6.428571428571428</ele><time>2026-04-12T15:00:07.998Z</time></trkpt><trkpt lat="44.95534345826018" lon="-1.2051962851943336"><ele>6.0</ele><time>2026-04-12T15:00:08.998Z</time></trkpt><trkpt lat="44.95530964308636" lon="-1.2050474421829076"><ele>6.0</ele><time>2026-04-12T15:00:10.998Z</time></trkpt><trkpt lat="44.95530850448879" lon="-1.2049418629921949"><ele>6.0</ele><time>2026-04-12T15:00:39.998Z</time></trkpt><trkpt lat="44.95535016941948" lon="-1.2047748908254985"><ele>6.0</ele><time>2026-04-12T15:00:41.998Z</time></trkpt><trkpt lat="44.95538354712953" lon="-1.2046652949285337"><ele>6.0</ele><time>2026-04-12T15:00:42.998Z</time></trkpt><trkpt lat="44.955382711917856" lon="-1.2045685683241012"><ele>6.0</ele><time>2026-04-12T15:00:43.998Z</time></trkpt><trkpt lat="44.95535793490138" lon="-1.2044674175667747"><ele>6.0</ele><time>2026-04-12T15:00:44.998Z</time></trkpt><trkpt lat="44.955332102233314" lon="-1.2043853588220965"><ele>6.4</ele><time>2026-04-12T15:00:45.998Z</time></trkpt><trkpt lat="44.95534638360741" lon="-1.204233601501767"><ele>6.8</ele><time>2026-04-12T15:00:47.998Z</time></trkpt><trkpt lat="44.955345019584136" lon="-1.204093269175082"><ele>7.200000000000001</ele><time>2026-04-12T15:00:49.998Z</time></trkpt><trkpt lat="44.95532087055069" lon="-1.2039499493756005"><ele>7.6000000000000005</ele><time>2026-04-12T15:00:51.998Z</time></trkpt><trkpt lat="44.95532692637234" lon="-1.2038596739483134"><ele>8.0</ele><time>2026-04-12T15:00:57Z</time></trkpt><trkpt lat="44.955303751257134" lon="-1.203743270022077"><ele>9.0</ele><time>2026-04-12T15:02:08.998Z</time></trkpt><trkpt lat="44.95526711143754" lon="-1.2036442789433328"><ele>10.0</ele><time>2026-04-12T15:02:09.998Z</time></trkpt><trkpt lat="44.95523751656905" lon="-1.2035482862131814"><ele>11.0</ele><time>2026-04-12T15:02:10.998Z</time></trkpt><trkpt lat="44.95519867835573" lon="-1.2034508661242"><ele>12.0</ele><time>2026-04-12T15:02:11.998Z</time></trkpt><trkpt lat="44.955140512241535" lon="-1.2033573804129494"><ele>13.0</ele><time>2026-04-12T15:02:12.998Z</time></trkpt><trkpt lat="44.95505171978513" lon="-1.2032195592857418"><ele>14.75</ele><time>2026-04-12T15:02:13.998Z</time></trkpt><trkpt lat="44.95497581454166" lon="-1.2030711468415756"><ele>16.5</ele><time>2026-04-12T15:02:14.998Z</time></trkpt><trkpt lat="44.9548771046985" lon="-1.2028886343344674"><ele>18.25</ele><time>2026-04-12T15:02:15.998Z</time></trkpt><trkpt lat="44.95478858957216" lon="-1.2027187174966447"><ele>20.0</ele><time>2026-04-12T15:02:16.998Z</time></trkpt><trkpt lat="44.954721845975776" lon="-1.2025504712158337"><ele>20.0</ele><time>2026-04-12T15:02:17.998Z</time></trkpt><trkpt lat="44.95465352734108" lon="-1.2023940004085443"><ele>20.0</ele><time>2026-04-12T15:02:18.998Z</time></trkpt><trkpt lat="44.95458271370094" lon="-1.2022419434271037"><ele>20.0</ele><time>2026-04-12T15:02:19.998Z</time></trkpt><trkpt lat="44.954515427955805" lon="-1.2021162772590261"><ele>20.0</ele><time>2026-04-12T15:02:20.998Z</time></trkpt><trkpt lat="44.95445197282192" lon="-1.2019877714458478"><ele>20.25</ele><time>2026-04-12T15:02:21.998Z</time></trkpt><trkpt lat="44.95438580899166" lon="-1.2018513103309307"><ele>20.5</ele><time>2026-04-12T15:02:22.998Z</time></trkpt><trkpt lat="44.95431426838686" lon="-1.2016783726298026"><ele>20.75</ele><time>2026-04-12T15:02:23.998Z</time></trkpt><trkpt lat="44.95424868513031" lon="-1.2015073674928611"><ele>21.0</ele><time>2026-04-12T15:02:24.998Z</time></trkpt><trkpt lat="44.954181668035154" lon="-1.201330810400167"><ele>21.25</ele><time>2026-04-12T15:02:25.998Z</time></trkpt><trkpt lat="44.95411402076126" lon="-1.2011522859663533"><ele>21.5</ele><time>2026-04-12T15:02:26.998Z</time></trkpt><trkpt lat="44.95404950797471" lon="-1.2010105665082682"><ele>21.75</ele><time>2026-04-12T15:02:27.998Z</time></trkpt><trkpt lat="44.9539729056815" lon="-1.200917736161493"><ele>22.0</ele><time>2026-04-12T15:02:28.998Z</time></trkpt><trkpt lat="44.95388809991587" lon="-1.2008081530388792"><ele>22.0</ele><time>2026-04-12T15:02:29.998Z</time></trkpt><trkpt lat="44.9538256201789" lon="-1.200692947275251"><ele>22.0</ele><time>2026-04-12T15:02:30.998Z</time></trkpt><trkpt lat="44.95375931811539" lon="-1.2005403128675065"><ele>22.0</ele><time>2026-04-12T15:02:31.998Z</time></trkpt><trkpt lat="44.95368223015093" lon="-1.200369541049214"><ele>22.0</ele><time>2026-04-12T15:02:32.998Z</time></trkpt><trkpt lat="44.95360772431307" lon="-1.2002290622910519"><ele>21.833333333333332</ele><time>2026-04-12T15:02:33.998Z</time></trkpt><trkpt lat="44.953553709002136" lon="-1.2001272013892819"><ele>21.666666666666664</ele><time>2026-04-12T15:02:34.998Z</time></trkpt><trkpt lat="44.95351007314122" lon="-1.2000445014785759"><ele>21.5</ele><time>2026-04-12T15:02:35.998Z</time></trkpt><trkpt lat="44.953474692617206" lon="-1.1999678209631024"><ele>21.333333333333332</ele><time>2026-04-12T15:02:36.998Z</time></trkpt><trkpt lat="44.953422761818054" lon="-1.1998650926514607"><ele>21.166666666666668</ele><time>2026-04-12T15:02:38.998Z</time></trkpt><trkpt lat="44.953366901639896" lon="-1.1997549919714456"><ele>21.0</ele><time>2026-04-12T15:03:09Z</time></trkpt><trkpt lat="44.95332993773785" lon="-1.199664341115586"><ele>20.400000000000002</ele><time>2026-04-12T15:03:10Z</time></trkpt><trkpt lat="44.95328328007281" lon="-1.1995569998741429"><ele>19.8</ele><time>2026-04-12T15:03:11Z</time></trkpt><trkpt lat="44.95322300481133" lon="-1.1994342803029832"><ele>19.200000000000003</ele><time>2026-04-12T15:03:12Z</time></trkpt><trkpt lat="44.953166345259774" lon="-1.1992912514877914"><ele>18.6</ele><time>2026-04-12T15:03:13Z</time></trkpt><trkpt lat="44.95310582510679" lon="-1.199156319655751"><ele>18.0</ele><time>2026-04-12T15:03:14Z</time></trkpt><trkpt lat="44.9530273939036" lon="-1.198984970543571"><ele>18.0</ele><time>2026-04-12T15:03:15Z</time></trkpt><trkpt lat="44.95295298005928" lon="-1.198824814711455"><ele>18.0</ele><time>2026-04-12T15:03:16Z</time></trkpt><trkpt lat="44.95286970760189" lon="-1.1986830079790283"><ele>18.0</ele><time>2026-04-12T15:03:17Z</time></trkpt><trkpt lat="44.952788163385364" lon="-1.1985201908964858"><ele>18.0</ele><time>2026-04-12T15:03:18Z</time></trkpt><trkpt lat="44.95272556324299" lon="-1.1983610188017337"><ele>18.0</ele><time>2026-04-12T15:03:19Z</time></trkpt><trkpt lat="44.95265980326278" lon="-1.198194708141174"><ele>18.0</ele><time>2026-04-12T15:03:20Z</time></trkpt><trkpt lat="44.95258084852431" lon="-1.1980308607926469"><ele>18.0</ele><time>2026-04-12T15:03:21Z</time></trkpt><trkpt lat="44.952497931802135" lon="-1.1978564434852201"><ele>18.0</ele><time>2026-04-12T15:03:22Z</time></trkpt><trkpt lat="44.95240313999874" lon="-1.1976622031090949"><ele>19.0</ele><time>2026-04-12T15:03:23Z</time></trkpt><trkpt lat="44.952321639291114" lon="-1.197478052457934"><ele>20.0</ele><time>2026-04-12T15:03:23.999Z</time></trkpt><trkpt lat="44.9522303198239" lon="-1.1972968009749057"><ele>21.0</ele><time>2026-04-12T15:03:24.999Z</time></trkpt><trkpt lat="44.95213738633415" lon="-1.1971029341488337"><ele>24.0</ele><time>2026-04-12T15:03:25.999Z</time></trkpt><trkpt lat="44.95204435743171" lon="-1.1969171328727322"><ele>27.0</ele><time>2026-04-12T15:03:26.999Z</time></trkpt><trkpt lat="44.95195307043628" lon="-1.1966896001072882"><ele>30.0</ele><time>2026-04-12T15:03:27.999Z</time></trkpt><trkpt lat="44.95186369163629" lon="-1.1964912660017235"><ele>31.25</ele><time>2026-04-12T15:03:28.999Z</time></trkpt><trkpt lat="44.951796780745354" lon="-1.1963659486706713"><ele>32.5</ele><time>2026-04-12T15:03:29.999Z</time></trkpt><trkpt lat="44.951731068686755" lon="-1.1962164823124448"><ele>33.75</ele><time>2026-04-12T15:03:30.999Z</time></trkpt><trkpt lat="44.95166882050502" lon="-1.196055963303936"><ele>35.0</ele><time>2026-04-12T15:03:31.999Z</time></trkpt><trkpt lat="44.9516111728077" lon="-1.195907045079809"><ele>35.2</ele><time>2026-04-12T15:03:32.999Z</time></trkpt><trkpt lat="44.95153582671335" lon="-1.1957846310487068"><ele>35.4</ele><time>2026-04-12T15:03:33.999Z</time></trkpt><trkpt lat="44.95148017729006" lon="-1.1956859208126733"><ele>35.6</ele><time>2026-04-12T15:03:34.999Z</time></trkpt><trkpt lat="44.95142961194369" lon="-1.1955775363625452"><ele>35.8</ele><time>2026-04-12T15:03:35.999Z</time></trkpt><trkpt lat="44.95138041488301" lon="-1.1954522252924518"><ele>36.0</ele><time>2026-04-12T15:03:36.999Z</time></trkpt><trkpt lat="44.95132696993963" lon="-1.1953302566726907"><ele>36.0</ele><time>2026-04-12T15:03:37.999Z</time></trkpt><trkpt lat="44.95126618172862" lon="-1.1952025984275336"><ele>36.0</ele><time>2026-04-12T15:03:38.999Z</time></trkpt><trkpt lat="44.95121502459748" lon="-1.1950881189766769"><ele>36.0</ele><time>2026-04-12T15:03:39.999Z</time></trkpt><trkpt lat="44.95116232500984" lon="-1.1949465583309404"><ele>36.0</ele><time>2026-04-12T15:03:40.999Z</time></trkpt><trkpt lat="44.95111434201382" lon="-1.1948264269441866"><ele>36.0</ele><time>2026-04-12T15:03:41.999Z</time></trkpt><trkpt lat="44.95107230689293" lon="-1.1947458600697978"><ele>35.2</ele><time>2026-04-12T15:03:42.999Z</time></trkpt><trkpt lat="44.95101251738215" lon="-1.194599805381294"><ele>34.400000000000006</ele><time>2026-04-12T15:03:43.999Z</time></trkpt><trkpt lat="44.9509571913707" lon="-1.1944796189587001"><ele>33.6</ele><time>2026-04-12T15:03:44.999Z</time></trkpt><trkpt lat="44.95090535608882" lon="-1.1943897137019819"><ele>32.800000000000004</ele><time>2026-04-12T15:03:45.999Z</time></trkpt><trkpt lat="44.95084671765061" lon="-1.1943004870646963"><ele>32.0</ele><time>2026-04-12T15:03:46.999Z</time></trkpt><trkpt lat="44.9508041792237" lon="-1.1941843418621312"><ele>29.8</ele><time>2026-04-12T15:03:47.999Z</time></trkpt><trkpt lat="44.950745259875426" lon="-1.1940450351084178"><ele>27.6</ele><time>2026-04-12T15:03:48.999Z</time></trkpt><trkpt lat="44.95068195300451" lon="-1.193910456781455"><ele>25.400000000000002</ele><time>2026-04-12T15:03:49.999Z</time></trkpt><trkpt lat="44.95061589140722" lon="-1.1937891801445115"><ele>23.200000000000003</ele><time>2026-04-12T15:03:50.999Z</time></trkpt><trkpt lat="44.950559990801565" lon="-1.1936754053741674"><ele>21.0</ele><time>2026-04-12T15:03:51.999Z</time></trkpt><trkpt lat="44.950499630979714" lon="-1.193544786166827"><ele>20.75</ele><time>2026-04-12T15:03:52.999Z</time></trkpt><trkpt lat="44.95042964550782" lon="-1.1933998095191627"><ele>20.5</ele><time>2026-04-12T15:03:53.999Z</time></trkpt><trkpt lat="44.950359599783695" lon="-1.1932519207298566"><ele>20.25</ele><time>2026-04-12T15:03:54.999Z</time></trkpt><trkpt lat="44.95029220094469" lon="-1.1930944747483798"><ele>20.0</ele><time>2026-04-12T15:03:55.999Z</time></trkpt><trkpt lat="44.9502199622074" lon="-1.192936828288357"><ele>19.75</ele><time>2026-04-12T15:03:56.999Z</time></trkpt><trkpt lat="44.95014753228235" lon="-1.1927810978292963"><ele>19.5</ele><time>2026-04-12T15:03:57.999Z</time></trkpt><trkpt lat="44.95008068457333" lon="-1.1926100171856122"><ele>19.25</ele><time>2026-04-12T15:03:58.999Z</time></trkpt><trkpt lat="44.950009049384896" lon="-1.1924432214012195"><ele>19.0</ele><time>2026-04-12T15:03:59.999Z</time></trkpt><trkpt lat="44.94992515601771" lon="-1.1922633080049527"><ele>18.666666666666664</ele><time>2026-04-12T15:04:00.999Z</time></trkpt><trkpt lat="44.94981988271037" lon="-1.1920516893139854"><ele>18.333333333333332</ele><time>2026-04-12T15:04:01.999Z</time></trkpt><trkpt lat="44.94972160721317" lon="-1.1918274911928304"><ele>18.0</ele><time>2026-04-12T15:04:02.999Z</time></trkpt><trkpt lat="44.94965702118114" lon="-1.191690691419758"><ele>18.0</ele><time>2026-04-12T15:04:03.999Z</time></trkpt><trkpt lat="44.94960089404708" lon="-1.191584350251532"><ele>18.0</ele><time>2026-04-12T15:04:04.999Z</time></trkpt><trkpt lat="44.94954742003225" lon="-1.1914781532498"><ele>18.0</ele><time>2026-04-12T15:04:05.999Z</time></trkpt><trkpt lat="44.94950130806501" lon="-1.191386219258284"><ele>18.0</ele><time>2026-04-12T15:04:07.999Z</time></trkpt><trkpt lat="44.94951702021671" lon="-1.1912942139227019"><ele>18.0</ele><time>2026-04-12T15:05:28Z</time></trkpt><trkpt lat="44.949587909421275" lon="-1.1912518174513902"><ele>18.0</ele><time>2026-04-12T15:05:30Z</time></trkpt><trkpt lat="44.949715357649666" lon="-1.191151167749752"><ele>18.25</ele><time>2026-04-12T15:05:32Z</time></trkpt><trkpt lat="44.94978851772356" lon="-1.1910443664706802"><ele>18.5</ele><time>2026-04-12T15:05:33Z</time></trkpt><trkpt lat="44.94981948129082" lon="-1.1909289887549717"><ele>18.75</ele><time>2026-04-12T15:05:34Z</time></trkpt><trkpt lat="44.949895695800215" lon="-1.1907880729031703"><ele>19.0</ele><time>2026-04-12T15:05:35Z</time></trkpt><trkpt lat="44.95000479376622" lon="-1.1906003654333763"><ele>18.666666666666664</ele><time>2026-04-12T15:05:36Z</time></trkpt><trkpt lat="44.95013286704748" lon="-1.1904149302005338"><ele>18.333333333333332</ele><time>2026-04-12T15:05:37Z</time></trkpt><trkpt lat="44.95023258695239" lon="-1.1902371996418766"><ele>18.0</ele><time>2026-04-12T15:05:38Z</time></trkpt><trkpt lat="44.95033942752212" lon="-1.1900213513978608"><ele>17.666666666666668</ele><time>2026-04-12T15:05:39Z</time></trkpt><trkpt lat="44.950465908446326" lon="-1.1898149177944053"><ele>17.333333333333336</ele><time>2026-04-12T15:05:40Z</time></trkpt><trkpt lat="44.95055728178096" lon="-1.1896682173813558"><ele>17.0</ele><time>2026-04-12T15:05:41Z</time></trkpt><trkpt lat="44.950664319455754" lon="-1.1894978261695228"><ele>17.0</ele><time>2026-04-12T15:05:42Z</time></trkpt><trkpt lat="44.95075186080022" lon="-1.1893651389396178"><ele>17.0</ele><time>2026-04-12T15:05:43Z</time></trkpt><trkpt lat="44.950865669891556" lon="-1.1891730488320076"><ele>17.0</ele><time>2026-04-12T15:05:44Z</time></trkpt><trkpt lat="44.950934318406425" lon="-1.1890534810205706"><ele>17.0</ele><time>2026-04-12T15:05:45Z</time></trkpt><trkpt lat="44.950980559113425" lon="-1.1889526895301292"><ele>16.166666666666668</ele><time>2026-04-12T15:05:46Z</time></trkpt><trkpt lat="44.95102036140541" lon="-1.1888441211422083"><ele>15.333333333333334</ele><time>2026-04-12T15:05:47Z</time></trkpt><trkpt lat="44.951050010369016" lon="-1.188749457781342"><ele>14.5</ele><time>2026-04-12T15:05:48Z</time></trkpt><trkpt lat="44.951077445484344" lon="-1.1886620543157234"><ele>13.666666666666668</ele><time>2026-04-12T15:05:49Z</time></trkpt><trkpt lat="44.95111045061343" lon="-1.1884968388630472"><ele>12.833333333333334</ele><time>2026-04-12T15:05:51Z</time></trkpt><trkpt lat="44.95113060133248" lon="-1.1883864866135623"><ele>12.0</ele><time>2026-04-12T15:05:52Z</time></trkpt><trkpt lat="44.95115446088744" lon="-1.18824975572361"><ele>11.8</ele><time>2026-04-12T15:05:53Z</time></trkpt><trkpt lat="44.95120982052765" lon="-1.1881066749467082"><ele>11.6</ele><time>2026-04-12T15:05:54Z</time></trkpt><trkpt lat="44.95123385595717" lon="-1.1879666078880786"><ele>11.4</ele><time>2026-04-12T15:05:55Z</time></trkpt><trkpt lat="44.95127208659132" lon="-1.1878262710533873"><ele>11.200000000000001</ele><time>2026-04-12T15:05:56Z</time></trkpt><trkpt lat="44.95132813858571" lon="-1.1877282516235166"><ele>11.0</ele><time>2026-04-12T15:05:57Z</time></trkpt><trkpt lat="44.95140152001492" lon="-1.1876360779750759"><ele>11.0</ele><time>2026-04-12T15:05:58Z</time></trkpt><trkpt lat="44.95146920514169" lon="-1.1875413760406588"><ele>11.0</ele><time>2026-04-12T15:05:59Z</time></trkpt><trkpt lat="44.95154433795836" lon="-1.1874691975805551"><ele>11.0</ele><time>2026-04-12T15:06:01Z</time></trkpt><trkpt lat="44.951630840760885" lon="-1.1873762541340132"><ele>11.0</ele><time>2026-04-12T15:06:03Z</time></trkpt><trkpt lat="44.95170292925014" lon="-1.1873352463412652"><ele>11.0</ele><time>2026-04-12T15:06:04Z</time></trkpt><trkpt lat="44.95178743938868" lon="-1.1872601479582432"><ele>11.333333333333332</ele><time>2026-04-12T15:06:06Z</time></trkpt><trkpt lat="44.95184592575006" lon="-1.1872103820764652"><ele>11.666666666666666</ele><time>2026-04-12T15:06:07Z</time></trkpt><trkpt lat="44.95194407735571" lon="-1.187113697073846"><ele>12.0</ele><time>2026-04-12T15:06:09Z</time></trkpt><trkpt lat="44.95199314014478" lon="-1.1870494879965283"><ele>12.333333333333332</ele><time>2026-04-12T15:06:10Z</time></trkpt><trkpt lat="44.95203340913115" lon="-1.1869586481360854"><ele>12.666666666666666</ele><time>2026-04-12T15:06:11Z</time></trkpt><trkpt lat="44.95209566711606" lon="-1.1868928616538494"><ele>13.0</ele><time>2026-04-12T15:06:11.999Z</time></trkpt><trkpt lat="44.95214011197729" lon="-1.1868082150473254"><ele>13.0</ele><time>2026-04-12T15:06:12.999Z</time></trkpt><trkpt lat="44.952180470712456" lon="-1.1867235384803019"><ele>13.0</ele><time>2026-04-12T15:06:13.999Z</time></trkpt><trkpt lat="44.952229630553006" lon="-1.1866083220773436"><ele>13.0</ele><time>2026-04-12T15:06:14.999Z</time></trkpt><trkpt lat="44.95229311615352" lon="-1.1865066604306727"><ele>13.0</ele><time>2026-04-12T15:06:15.999Z</time></trkpt><trkpt lat="44.95236048319514" lon="-1.1864036257777886"><ele>13.0</ele><time>2026-04-12T15:06:16.999Z</time></trkpt><trkpt lat="44.952422446826624" lon="-1.1862878865746185"><ele>13.2</ele><time>2026-04-12T15:06:17.999Z</time></trkpt><trkpt lat="44.952484268047435" lon="-1.1861697063585623"><ele>13.4</ele><time>2026-04-12T15:06:18.999Z</time></trkpt><trkpt lat="44.95253750714669" lon="-1.186082058162098"><ele>13.599999999999998</ele><time>2026-04-12T15:06:19.999Z</time></trkpt><trkpt lat="44.952588369098564" lon="-1.1859978162138265"><ele>13.799999999999999</ele><time>2026-04-12T15:06:20.999Z</time></trkpt><trkpt lat="44.9526477250046" lon="-1.1858952246789323"><ele>14.0</ele><time>2026-04-12T15:06:21.999Z</time></trkpt><trkpt lat="44.95272172017879" lon="-1.1857718265604422"><ele>13.799999999999999</ele><time>2026-04-12T15:06:22.999Z</time></trkpt><trkpt lat="44.95281258540088" lon="-1.1856808286153908"><ele>13.599999999999998</ele><time>2026-04-12T15:06:23.999Z</time></trkpt><trkpt lat="44.95288410908895" lon="-1.185615002686289"><ele>13.4</ele><time>2026-04-12T15:06:24.999Z</time></trkpt><trkpt lat="44.952956233583365" lon="-1.1855419104148817"><ele>13.2</ele><time>2026-04-12T15:06:25.999Z</time></trkpt><trkpt lat="44.95306337219214" lon="-1.1854375735806792"><ele>13.0</ele><time>2026-04-12T15:06:26.999Z</time></trkpt><trkpt lat="44.95312553081144" lon="-1.1853484066154605"><ele>13.0</ele><time>2026-04-12T15:06:27.999Z</time></trkpt><trkpt lat="44.953183009276856" lon="-1.185255852382133"><ele>13.0</ele><time>2026-04-12T15:06:28.999Z</time></trkpt><trkpt lat="44.95323522648423" lon="-1.185132336381082"><ele>13.0</ele><time>2026-04-12T15:06:29.999Z</time></trkpt><trkpt lat="44.953284458686724" lon="-1.1850016231262765"><ele>13.0</ele><time>2026-04-12T15:06:30.999Z</time></trkpt><trkpt lat="44.95332129121572" lon="-1.1848680076057556"><ele>13.0</ele><time>2026-04-12T15:06:31.999Z</time></trkpt><trkpt lat="44.95337182682811" lon="-1.1846989687174798"><ele>12.8</ele><time>2026-04-12T15:06:32.999Z</time></trkpt><trkpt lat="44.95343228528367" lon="-1.1845380829237064"><ele>12.600000000000001</ele><time>2026-04-12T15:06:33.999Z</time></trkpt><trkpt lat="44.95350222815299" lon="-1.18440021097865"><ele>12.399999999999999</ele><time>2026-04-12T15:06:34.999Z</time></trkpt><trkpt lat="44.95357296802557" lon="-1.1843023213114785"><ele>12.2</ele><time>2026-04-12T15:06:35.999Z</time></trkpt><trkpt lat="44.95364501516006" lon="-1.1842190352522952"><ele>12.0</ele><time>2026-04-12T15:06:36.999Z</time></trkpt><trkpt lat="44.95369322008724" lon="-1.1841535828664829"><ele>12.0</ele><time>2026-04-12T15:06:37.999Z</time></trkpt><trkpt lat="44.953747770718664" lon="-1.1840966758420564"><ele>12.0</ele><time>2026-04-12T15:06:38.999Z</time></trkpt><trkpt lat="44.95380475136788" lon="-1.1840254051960992"><ele>12.0</ele><time>2026-04-12T15:06:40.999Z</time></trkpt><trkpt lat="44.95386242369915" lon="-1.1839141461523666"><ele>12.0</ele><time>2026-04-12T15:06:43.999Z</time></trkpt><trkpt lat="44.95391318885926" lon="-1.1838229421400424"><ele>12.0</ele><time>2026-04-12T15:06:46.999Z</time></trkpt><trkpt lat="44.95394810746124" lon="-1.1837476108407763"><ele>12.0</ele><time>2026-04-12T15:06:48.999Z</time></trkpt><trkpt lat="44.953987186724234" lon="-1.1836528871965786"><ele>12.166666666666666</ele><time>2026-04-12T15:06:50.999Z</time></trkpt><trkpt lat="44.95405163239928" lon="-1.1835349259509835"><ele>12.333333333333332</ele><time>2026-04-12T15:06:52.999Z</time></trkpt><trkpt lat="44.954105568607424" lon="-1.1834637696970238"><ele>12.5</ele><time>2026-04-12T15:06:54.999Z</time></trkpt><trkpt lat="44.95415762572079" lon="-1.183372209391029"><ele>12.666666666666666</ele><time>2026-04-12T15:06:56.999Z</time></trkpt><trkpt lat="44.95421228000571" lon="-1.1832977171961572"><ele>12.833333333333332</ele><time>2026-04-12T15:06:57.999Z</time></trkpt><trkpt lat="44.95429094386642" lon="-1.183187191996636"><ele>13.0</ele><time>2026-04-12T15:06:59.999Z</time></trkpt><trkpt lat="44.95434671705145" lon="-1.1831131041169671"><ele>12.999999999999998</ele><time>2026-04-12T15:07:00.998Z</time></trkpt><trkpt lat="44.95439916408109" lon="-1.1830529191916273"><ele>13.0</ele><time>2026-04-12T15:07:01.998Z</time></trkpt><trkpt lat="44.954454894376354" lon="-1.1829974784582906"><ele>13.0</ele><time>2026-04-12T15:07:02.998Z</time></trkpt><trkpt lat="44.95450567429996" lon="-1.1829320593967267"><ele>13.0</ele><time>2026-04-12T15:07:03.998Z</time></trkpt><trkpt lat="44.95457840118065" lon="-1.182813564226213"><ele>12.999999999999998</ele><time>2026-04-12T15:07:05.998Z</time></trkpt><trkpt lat="44.954638846382316" lon="-1.1827278153992413"><ele>13.0</ele><time>2026-04-12T15:07:07.998Z</time></trkpt><trkpt lat="44.954725247495126" lon="-1.1826178067169852"><ele>13.0</ele><time>2026-04-12T15:07:09.998Z</time></trkpt><trkpt lat="44.95479934851513" lon="-1.1825257127230397"><ele>13.0</ele><time>2026-04-12T15:07:11.998Z</time></trkpt><trkpt lat="44.954887789315414" lon="-1.1824190817622247"><ele>13.0</ele><time>2026-04-12T15:07:14.001Z</time></trkpt><trkpt lat="44.954953729259934" lon="-1.1823297735380935"><ele>13.0</ele><time>2026-04-12T15:07:16.001Z</time></trkpt><trkpt lat="44.95502810076524" lon="-1.1822357043630356"><ele>13.0</ele><time>2026-04-12T15:07:18Z</time></trkpt><trkpt lat="44.955065703307426" lon="-1.18215181043637"><ele>13.499999999999998</ele><time>2026-04-12T15:07:20Z</time></trkpt><trkpt lat="44.95507639851833" lon="-1.1820472342351263"><ele>14.0</ele><time>2026-04-12T15:07:22Z</time></trkpt><trkpt lat="44.955017185576324" lon="-1.181946600559895"><ele>14.5</ele><time>2026-04-12T15:07:24Z</time></trkpt><trkpt lat="44.95494317123242" lon="-1.1819175112614149"><ele>15.0</ele><time>2026-04-12T15:07:25Z</time></trkpt><trkpt lat="44.95485505991986" lon="-1.181915402787052"><ele>15.499999999999998</ele><time>2026-04-12T15:07:27Z</time></trkpt><trkpt lat="44.95479120964861" lon="-1.1819286003502367"><ele>16.0</ele><time>2026-04-12T15:07:28Z</time></trkpt><trkpt lat="44.95470914950264" lon="-1.1819259715658545"><ele>16.0</ele><time>2026-04-12T15:07:29Z</time></trkpt><trkpt lat="44.954571773319714" lon="-1.1819143049643928"><ele>16.0</ele><time>2026-04-12T15:07:31Z</time></trkpt><trkpt lat="44.95441247170674" lon="-1.1819416034465582"><ele>16.0</ele><time>2026-04-12T15:07:33Z</time></trkpt><trkpt lat="44.95428303645727" lon="-1.1819453588483793"><ele>16.0</ele><time>2026-04-12T15:07:34Z</time></trkpt><trkpt lat="44.95410526170389" lon="-1.1819347222959908"><ele>16.666666666666664</ele><time>2026-04-12T15:07:35Z</time></trkpt><trkpt lat="44.953942510359" lon="-1.1819562721851269"><ele>17.333333333333332</ele><time>2026-04-12T15:07:36Z</time></trkpt><trkpt lat="44.95377863203448" lon="-1.1819854154680431"><ele>18.0</ele><time>2026-04-12T15:07:37Z</time></trkpt><trkpt lat="44.95361777650472" lon="-1.1820108299939036"><ele>18.0</ele><time>2026-04-12T15:07:38Z</time></trkpt><trkpt lat="44.95348337147924" lon="-1.1820312904188517"><ele>18.0</ele><time>2026-04-12T15:07:39Z</time></trkpt><trkpt lat="44.953389003103254" lon="-1.1820472082856783"><ele>18.0</ele><time>2026-04-12T15:07:40Z</time></trkpt><trkpt lat="44.953273963034235" lon="-1.1820615610830687"><ele>18.0</ele><time>2026-04-12T15:07:42Z</time></trkpt><trkpt lat="44.953208030998944" lon="-1.1820757249307587"><ele>18.0</ele><time>2026-04-12T15:07:43Z</time></trkpt><trkpt lat="44.95310668687675" lon="-1.1820928529946495"><ele>19.333333333333332</ele><time>2026-04-12T15:07:44Z</time></trkpt><trkpt lat="44.953040572535635" lon="-1.1821031863854206"><ele>20.666666666666664</ele><time>2026-04-12T15:07:45Z</time></trkpt><trkpt lat="44.952963915180156" lon="-1.182170386865513"><ele>22.0</ele><time>2026-04-12T15:07:46Z</time></trkpt><trkpt lat="44.952876449369704" lon="-1.1822158411305685"><ele>23.333333333333332</ele><time>2026-04-12T15:07:47Z</time></trkpt><trkpt lat="44.95278757401313" lon="-1.1822133224946507"><ele>24.666666666666664</ele><time>2026-04-12T15:07:48Z</time></trkpt><trkpt lat="44.95272551410482" lon="-1.1821980569702315"><ele>26.0</ele><time>2026-04-12T15:07:49Z</time></trkpt><trkpt lat="44.95263798024849" lon="-1.1821229251391971"><ele>28.25</ele><time>2026-04-12T15:07:50Z</time></trkpt><trkpt lat="44.95252700984634" lon="-1.1820636763856058"><ele>30.5</ele><time>2026-04-12T15:07:51Z</time></trkpt><trkpt lat="44.95240390042251" lon="-1.182019076203784"><ele>32.75</ele><time>2026-04-12T15:07:52Z</time></trkpt><trkpt lat="44.95231337336313" lon="-1.181972711954245"><ele>35.0</ele><time>2026-04-12T15:07:53Z</time></trkpt><trkpt lat="44.95219186702092" lon="-1.1819857588758877"><ele>35.0</ele><time>2026-04-12T15:07:55Z</time></trkpt><trkpt lat="44.95208668098616" lon="-1.1820515291968492"><ele>35.0</ele><time>2026-04-12T15:07:56Z</time></trkpt><trkpt lat="44.95195965577311" lon="-1.1820793534728764"><ele>35.0</ele><time>2026-04-12T15:07:57Z</time></trkpt><trkpt lat="44.951830159206814" lon="-1.1820946956486604"><ele>35.0</ele><time>2026-04-12T15:07:58Z</time></trkpt><trkpt lat="44.95167949777952" lon="-1.1820697649518186"><ele>35.0</ele><time>2026-04-12T15:07:59Z</time></trkpt><trkpt lat="44.95152618229488" lon="-1.182039755649689"><ele>35.0</ele><time>2026-04-12T15:08:00Z</time></trkpt><trkpt lat="44.951391546617764" lon="-1.1820654880543988"><ele>35.0</ele><time>2026-04-12T15:08:01Z</time></trkpt><trkpt lat="44.95128278635579" lon="-1.182103872909354"><ele>35.0</ele><time>2026-04-12T15:08:02Z</time></trkpt><trkpt lat="44.951179342610125" lon="-1.182125420929739"><ele>35.0</ele><time>2026-04-12T15:08:03Z</time></trkpt><trkpt lat="44.9510679766276" lon="-1.1821378652862193"><ele>35.0</ele><time>2026-04-12T15:08:04Z</time></trkpt><trkpt lat="44.9509587970978" lon="-1.18211827802388"><ele>35.0</ele><time>2026-04-12T15:08:05Z</time></trkpt><trkpt lat="44.95082772298759" lon="-1.1821403394860552"><ele>35.0</ele><time>2026-04-12T15:08:06Z</time></trkpt><trkpt lat="44.95071183520296" lon="-1.1821650179470675"><ele>34.6</ele><time>2026-04-12T15:08:07Z</time></trkpt><trkpt lat="44.95061810843201" lon="-1.182186127425419"><ele>34.2</ele><time>2026-04-12T15:08:08Z</time></trkpt><trkpt lat="44.95052364492138" lon="-1.1821981421660743"><ele>33.8</ele><time>2026-04-12T15:08:09Z</time></trkpt><trkpt lat="44.950425380741684" lon="-1.1821895794542503"><ele>33.4</ele><time>2026-04-12T15:08:10Z</time></trkpt><trkpt lat="44.95032053360761" lon="-1.1821824988213798"><ele>33.0</ele><time>2026-04-12T15:08:11Z</time></trkpt><trkpt lat="44.95022702553017" lon="-1.1821919115682982"><ele>33.0</ele><time>2026-04-12T15:08:12Z</time></trkpt><trkpt lat="44.95015016150242" lon="-1.1822285391886465"><ele>33.0</ele><time>2026-04-12T15:08:12.999Z</time></trkpt><trkpt lat="44.950079279500315" lon="-1.1822435318077669"><ele>33.0</ele><time>2026-04-12T15:08:13.999Z</time></trkpt><trkpt lat="44.94999081256676" lon="-1.1822661928912797"><ele>33.0</ele><time>2026-04-12T15:08:14.999Z</time></trkpt><trkpt lat="44.94990416648378" lon="-1.1822834847332162"><ele>33.0</ele><time>2026-04-12T15:08:15.999Z</time></trkpt><trkpt lat="44.94982320427772" lon="-1.182315785770915"><ele>33.0</ele><time>2026-04-12T15:08:16.999Z</time></trkpt><trkpt lat="44.94971468288874" lon="-1.1823316629548108"><ele>32.4</ele><time>2026-04-12T15:08:18.999Z</time></trkpt><trkpt lat="44.94962098882118" lon="-1.182344062844944"><ele>31.799999999999997</ele><time>2026-04-12T15:08:20.999Z</time></trkpt><trkpt lat="44.949517197573144" lon="-1.1823403492774227"><ele>31.2</ele><time>2026-04-12T15:08:22.999Z</time></trkpt><trkpt lat="44.94941802807989" lon="-1.1823251402057013"><ele>30.6</ele><time>2026-04-12T15:08:23.999Z</time></trkpt><trkpt lat="44.94933500634512" lon="-1.182261888253895"><ele>30.0</ele><time>2026-04-12T15:08:24.999Z</time></trkpt><trkpt lat="44.949264358804804" lon="-1.1821580942734045"><ele>29.2</ele><time>2026-04-12T15:08:25.999Z</time></trkpt><trkpt lat="44.94920219558666" lon="-1.1820210713482506"><ele>28.4</ele><time>2026-04-12T15:08:26.999Z</time></trkpt><trkpt lat="44.949162684696674" lon="-1.1819042419149952"><ele>27.6</ele><time>2026-04-12T15:08:27.999Z</time></trkpt><trkpt lat="44.949120878229046" lon="-1.18178194452341"><ele>26.8</ele><time>2026-04-12T15:08:29.999Z</time></trkpt><trkpt lat="44.949091882815914" lon="-1.1816877160023798"><ele>26.0</ele><time>2026-04-12T15:08:30.999Z</time></trkpt><trkpt lat="44.94896562293438" lon="-1.1814151039732799"><ele>26.0</ele><time>2026-04-12T15:08:32.999Z</time></trkpt><trkpt lat="44.94892922956797" lon="-1.181306080832889"><ele>26.0</ele><time>2026-04-12T15:08:33.999Z</time></trkpt><trkpt lat="44.94887977039959" lon="-1.1811678426825498"><ele>26.0</ele><time>2026-04-12T15:08:34.999Z</time></trkpt><trkpt lat="44.948834812326204" lon="-1.1810744273724116"><ele>26.0</ele><time>2026-04-12T15:08:35.999Z</time></trkpt><trkpt lat="44.948755449991886" lon="-1.1810175938598824"><ele>26.0</ele><time>2026-04-12T15:08:37.999Z</time></trkpt><trkpt lat="44.94866982003364" lon="-1.181003187961551"><ele>26.0</ele><time>2026-04-12T15:08:39.999Z</time></trkpt><trkpt lat="44.94853093637476" lon="-1.181012635027503"><ele>26.0</ele><time>2026-04-12T15:08:53.999Z</time></trkpt><trkpt lat="44.94840673233821" lon="-1.1809941393175496"><ele>26.0</ele><time>2026-04-12T15:08:54.999Z</time></trkpt><trkpt lat="44.94827575222635" lon="-1.1809882424968197"><ele>26.0</ele><time>2026-04-12T15:08:55.999Z</time></trkpt><trkpt lat="44.94812118832403" lon="-1.1809887592561066"><ele>25.25</ele><time>2026-04-12T15:08:56.999Z</time></trkpt><trkpt lat="44.947977458059405" lon="-1.1810093376756319"><ele>24.5</ele><time>2026-04-12T15:08:57.999Z</time></trkpt><trkpt lat="44.9478786696198" lon="-1.1810184493023927"><ele>23.75</ele><time>2026-04-12T15:08:58.999Z</time></trkpt><trkpt lat="44.94777088011216" lon="-1.1810634707655379"><ele>23.0</ele><time>2026-04-12T15:08:59.999Z</time></trkpt><trkpt lat="44.94762264704273" lon="-1.1811799972127592"><ele>23.75</ele><time>2026-04-12T15:09:00.998Z</time></trkpt><trkpt lat="44.94750447385126" lon="-1.181319243743617"><ele>24.5</ele><time>2026-04-12T15:09:01.998Z</time></trkpt><trkpt lat="44.947375905638985" lon="-1.1814411950876615"><ele>25.25</ele><time>2026-04-12T15:09:02.998Z</time></trkpt><trkpt lat="44.947275203395414" lon="-1.1815233922223203"><ele>26.0</ele><time>2026-04-12T15:09:03.998Z</time></trkpt><trkpt lat="44.94720048745786" lon="-1.1815809718956223"><ele>25.0</ele><time>2026-04-12T15:09:04.998Z</time></trkpt><trkpt lat="44.94711692763775" lon="-1.1815987095715583"><ele>24.0</ele><time>2026-04-12T15:09:05.998Z</time></trkpt><trkpt lat="44.94698603645437" lon="-1.1815921363188016"><ele>23.0</ele><time>2026-04-12T15:09:06.998Z</time></trkpt><trkpt lat="44.94679949161641" lon="-1.1815912171652243"><ele>22.0</ele><time>2026-04-12T15:09:07.998Z</time></trkpt><trkpt lat="44.94658947325117" lon="-1.1815837654743138"><ele>22.0</ele><time>2026-04-12T15:09:08.998Z</time></trkpt><trkpt lat="44.946381241831716" lon="-1.1815736501684089"><ele>22.0</ele><time>2026-04-12T15:09:09.998Z</time></trkpt><trkpt lat="44.94620199049833" lon="-1.1815818913149148"><ele>22.0</ele><time>2026-04-12T15:09:10.998Z</time></trkpt><trkpt lat="44.946065476269055" lon="-1.1815905152364345"><ele>22.0</ele><time>2026-04-12T15:09:11.998Z</time></trkpt><trkpt lat="44.94595469065463" lon="-1.1815715935523026"><ele>22.0</ele><time>2026-04-12T15:09:12.998Z</time></trkpt><trkpt lat="44.945885658403036" lon="-1.181491731644185"><ele>22.0</ele><time>2026-04-12T15:09:13.998Z</time></trkpt><trkpt lat="44.94576495680166" lon="-1.1813474305972864"><ele>22.0</ele><time>2026-04-12T15:09:14.998Z</time></trkpt><trkpt lat="44.94564008971932" lon="-1.1811816677785412"><ele>22.25</ele><time>2026-04-12T15:09:15.998Z</time></trkpt><trkpt lat="44.94553622279079" lon="-1.1810727947170099"><ele>22.5</ele><time>2026-04-12T15:09:16.998Z</time></trkpt><trkpt lat="44.945477182476516" lon="-1.1809488953316016"><ele>22.75</ele><time>2026-04-12T15:09:17.998Z</time></trkpt><trkpt lat="44.94543986578902" lon="-1.1807991189198577"><ele>23.0</ele><time>2026-04-12T15:09:19Z</time></trkpt><trkpt lat="44.94540907441196" lon="-1.1805860926172131"><ele>25.666666666666668</ele><time>2026-04-12T15:09:20Z</time></trkpt><trkpt lat="44.94532880431826" lon="-1.180342052573856"><ele>28.333333333333336</ele><time>2026-04-12T15:09:21Z</time></trkpt><trkpt lat="44.945210539976514" lon="-1.180099983489918"><ele>31.0</ele><time>2026-04-12T15:09:22Z</time></trkpt><trkpt lat="44.9450940190645" lon="-1.1798631260146444"><ele>29.0</ele><time>2026-04-12T15:09:23Z</time></trkpt><trkpt lat="44.94500369668929" lon="-1.1796361399954995"><ele>27.0</ele><time>2026-04-12T15:09:24Z</time></trkpt><trkpt lat="44.944964101402604" lon="-1.1794790094642034"><ele>25.0</ele><time>2026-04-12T15:09:25Z</time></trkpt><trkpt lat="44.944939542874565" lon="-1.1793918130996415"><ele>23.0</ele><time>2026-04-12T15:09:26Z</time></trkpt><trkpt lat="44.94487691537032" lon="-1.1792789768190466"><ele>23.0</ele><time>2026-04-12T15:09:27Z</time></trkpt><trkpt lat="44.94483340516022" lon="-1.179162666217518"><ele>23.0</ele><time>2026-04-12T15:09:28Z</time></trkpt><trkpt lat="44.944792910212115" lon="-1.1789965934863573"><ele>23.0</ele><time>2026-04-12T15:09:29Z</time></trkpt><trkpt lat="44.9447510971226" lon="-1.1787847453548133"><ele>23.0</ele><time>2026-04-12T15:09:30Z</time></trkpt><trkpt lat="44.94471713074837" lon="-1.1786067348004616"><ele>23.2</ele><time>2026-04-12T15:09:31Z</time></trkpt><trkpt lat="44.944695284609544" lon="-1.1784868670364064"><ele>23.4</ele><time>2026-04-12T15:09:32Z</time></trkpt><trkpt lat="44.944675961697264" lon="-1.1783288281550426"><ele>23.599999999999998</ele><time>2026-04-12T15:09:33Z</time></trkpt><trkpt lat="44.94467165584022" lon="-1.1781808841426238"><ele>23.799999999999997</ele><time>2026-04-12T15:09:34Z</time></trkpt><trkpt lat="44.94469495610884" lon="-1.1780600025980907"><ele>24.0</ele><time>2026-04-12T15:09:35Z</time></trkpt><trkpt lat="44.9447302477744" lon="-1.1779458522909505"><ele>24.333333333333332</ele><time>2026-04-12T15:09:36Z</time></trkpt><trkpt lat="44.94477481643451" lon="-1.1778178212789674"><ele>24.666666666666664</ele><time>2026-04-12T15:09:37Z</time></trkpt><trkpt lat="44.9448242208006" lon="-1.177679927896519"><ele>25.0</ele><time>2026-04-12T15:09:38Z</time></trkpt><trkpt lat="44.944863165983094" lon="-1.1775944943924819"><ele>25.333333333333332</ele><time>2026-04-12T15:09:39Z</time></trkpt><trkpt lat="44.94482095398664" lon="-1.1776673396290307"><ele>25.666666666666664</ele><time>2026-04-12T15:09:48Z</time></trkpt><trkpt lat="44.94474270328481" lon="-1.1777298805349568"><ele>26.0</ele><time>2026-04-12T15:09:50Z</time></trkpt><trkpt lat="44.944668263712266" lon="-1.1777823801048355"><ele>26.0</ele><time>2026-04-12T15:09:51Z</time></trkpt><trkpt lat="44.94458430575771" lon="-1.1778448673781237"><ele>26.0</ele><time>2026-04-12T15:09:52Z</time></trkpt><trkpt lat="44.94448125032231" lon="-1.1779835799196305"><ele>26.0</ele><time>2026-04-12T15:09:53Z</time></trkpt><trkpt lat="44.944355961962735" lon="-1.178079151729341"><ele>26.0</ele><time>2026-04-12T15:09:54Z</time></trkpt><trkpt lat="44.94426787321071" lon="-1.1781225563690232"><ele>25.8</ele><time>2026-04-12T15:09:55Z</time></trkpt><trkpt lat="44.94417713233991" lon="-1.1781786059426707"><ele>25.6</ele><time>2026-04-12T15:09:56Z</time></trkpt><trkpt lat="44.94407868775104" lon="-1.1781886780043738"><ele>25.4</ele><time>2026-04-12T15:09:57Z</time></trkpt><trkpt lat="44.94398447475689" lon="-1.1781967245127567"><ele>25.2</ele><time>2026-04-12T15:09:58Z</time></trkpt><trkpt lat="44.943860247515396" lon="-1.1781932367204464"><ele>25.0</ele><time>2026-04-12T15:09:59Z</time></trkpt><trkpt lat="44.943721504381095" lon="-1.1781634210330336"><ele>25.000000000000004</ele><time>2026-04-12T15:10:00Z</time></trkpt><trkpt lat="44.943608861500955" lon="-1.178132288389676"><ele>25.0</ele><time>2026-04-12T15:10:01Z</time></trkpt><trkpt lat="44.94351186610705" lon="-1.1781301483668278"><ele>25.0</ele><time>2026-04-12T15:10:02Z</time></trkpt><trkpt lat="44.94344552462526" lon="-1.1781199988129467"><ele>25.0</ele><time>2026-04-12T15:10:05Z</time></trkpt><trkpt lat="44.943361224822716" lon="-1.178072827631486"><ele>25.000000000000004</ele><time>2026-04-12T15:10:08Z</time></trkpt><trkpt lat="44.94332128013359" lon="-1.177999633534419"><ele>25.0</ele><time>2026-04-12T15:10:21.999Z</time></trkpt><trkpt lat="44.94326572019332" lon="-1.1779353128461083"><ele>24.714285714285715</ele><time>2026-04-12T15:10:23.999Z</time></trkpt><trkpt lat="44.943193349297616" lon="-1.1779721936685688"><ele>24.42857142857143</ele><time>2026-04-12T15:10:27.999Z</time></trkpt><trkpt lat="44.94313929966378" lon="-1.178065464416289"><ele>24.142857142857146</ele><time>2026-04-12T15:10:29.999Z</time></trkpt><trkpt lat="44.94309005369362" lon="-1.178123683791512"><ele>23.857142857142858</ele><time>2026-04-12T15:10:30.999Z</time></trkpt><trkpt lat="44.94304008280687" lon="-1.178187842075107"><ele>23.57142857142857</ele><time>2026-04-12T15:10:31.999Z</time></trkpt><trkpt lat="44.94297139055005" lon="-1.1782420886640101"><ele>23.28571428571429</ele><time>2026-04-12T15:10:34.999Z</time></trkpt><trkpt lat="44.942896805063015" lon="-1.1782588572307007"><ele>23.0</ele><time>2026-04-12T15:10:46.999Z</time></trkpt><trkpt lat="44.942813624697685" lon="-1.178324150210837"><ele>23.0</ele><time>2026-04-12T15:10:49.999Z</time></trkpt><trkpt lat="44.94275866979971" lon="-1.178274701242381"><ele>23.0</ele><time>2026-04-12T15:10:52.999Z</time></trkpt><trkpt lat="44.942723706050586" lon="-1.1781844420334475"><ele>23.0</ele><time>2026-04-12T15:12:50.999Z</time></trkpt><trkpt lat="44.942656644691255" lon="-1.1781733400618266"><ele>23.0</ele><time>2026-04-12T15:12:53.999Z</time></trkpt><trkpt lat="44.94261008394239" lon="-1.178234722267856"><ele>23.0</ele><time>2026-04-12T15:13:00.998Z</time></trkpt><trkpt lat="44.9425698676006" lon="-1.1783159847258666"><ele>23.0</ele><time>2026-04-12T15:13:06.998Z</time></trkpt><trkpt lat="44.94251532511674" lon="-1.1783623708635114"><ele>23.0</ele><time>2026-04-12T15:13:37Z</time></trkpt><trkpt lat="44.94257963533059" lon="-1.1783077491833187"><ele>22.42857142857143</ele><time>2026-04-12T15:14:40.999Z</time></trkpt><trkpt lat="44.94265187512663" lon="-1.1782610480118012"><ele>21.857142857142854</ele><time>2026-04-12T15:14:44.999Z</time></trkpt><trkpt lat="44.942727006126304" lon="-1.1782501782727772"><ele>21.285714285714285</ele><time>2026-04-12T15:14:49.999Z</time></trkpt><trkpt lat="44.94278193785769" lon="-1.1783135400514329"><ele>20.714285714285715</ele><time>2026-04-12T15:14:54.999Z</time></trkpt><trkpt lat="44.94284080252911" lon="-1.1783477072652893"><ele>20.142857142857146</ele><time>2026-04-12T15:14:56.999Z</time></trkpt><trkpt lat="44.942891443928595" lon="-1.1782510818244496"><ele>19.57142857142857</ele><time>2026-04-12T15:14:59.999Z</time></trkpt><trkpt lat="44.94295466387386" lon="-1.1782446181709008"><ele>19.0</ele><time>2026-04-12T15:15:02.998Z</time></trkpt><trkpt lat="44.943013742441536" lon="-1.1782055941002323"><ele>19.799999999999997</ele><time>2026-04-12T15:15:04.998Z</time></trkpt><trkpt lat="44.94308947902995" lon="-1.178122084235671"><ele>20.599999999999998</ele><time>2026-04-12T15:15:07.998Z</time></trkpt><trkpt lat="44.943163319295614" lon="-1.1780140884375252"><ele>21.4</ele><time>2026-04-12T15:15:09.998Z</time></trkpt><trkpt lat="44.94317815037589" lon="-1.1778869047652212"><ele>22.2</ele><time>2026-04-12T15:15:26.998Z</time></trkpt><trkpt lat="44.943080143164075" lon="-1.1777611932729302"><ele>23.0</ele><time>2026-04-12T15:15:28.998Z</time></trkpt><trkpt lat="44.94297898746108" lon="-1.1776755594643606"><ele>23.0</ele><time>2026-04-12T15:15:29.998Z</time></trkpt><trkpt lat="44.942866830790905" lon="-1.1775915047799683"><ele>23.0</ele><time>2026-04-12T15:15:30.998Z</time></trkpt><trkpt lat="44.94277366484128" lon="-1.1775065192545149"><ele>23.0</ele><time>2026-04-12T15:15:31.998Z</time></trkpt><trkpt lat="44.94269257411076" lon="-1.1774406490970752"><ele>23.0</ele><time>2026-04-12T15:15:32.998Z</time></trkpt><trkpt lat="44.94263274638768" lon="-1.1774053700079037"><ele>23.0</ele><time>2026-04-12T15:15:33.998Z</time></trkpt><trkpt lat="44.94255322573002" lon="-1.1773580992129549"><ele>22.0</ele><time>2026-04-12T15:15:35Z</time></trkpt><trkpt lat="44.94245527763606" lon="-1.1773042661919084"><ele>21.0</ele><time>2026-04-12T15:15:36Z</time></trkpt><trkpt lat="44.94236775773147" lon="-1.1772661470398869"><ele>20.0</ele><time>2026-04-12T15:15:37Z</time></trkpt><trkpt lat="44.94229066760977" lon="-1.1772465621608554"><ele>19.0</ele><time>2026-04-12T15:15:38Z</time></trkpt><trkpt lat="44.94221899993232" lon="-1.1771916278604715"><ele>18.0</ele><time>2026-04-12T15:15:39Z</time></trkpt><trkpt lat="44.94215881240167" lon="-1.1771592797908723"><ele>17.0</ele><time>2026-04-12T15:15:40Z</time></trkpt><trkpt lat="44.94209663672385" lon="-1.177182038469389"><ele>17.0</ele><time>2026-04-12T15:15:41Z</time></trkpt><trkpt lat="44.942019246327156" lon="-1.1772965042701966"><ele>17.0</ele><time>2026-04-12T15:15:43Z</time></trkpt><trkpt lat="44.94195556306" lon="-1.1773904150617958"><ele>17.0</ele><time>2026-04-12T15:15:44Z</time></trkpt><trkpt lat="44.94188453821188" lon="-1.1774643148128503"><ele>17.0</ele><time>2026-04-12T15:15:45Z</time></trkpt><trkpt lat="44.941791118722236" lon="-1.1775204243211268"><ele>17.0</ele><time>2026-04-12T15:15:46Z</time></trkpt><trkpt lat="44.94169959046814" lon="-1.1775439627794422"><ele>17.166666666666668</ele><time>2026-04-12T15:15:47Z</time></trkpt><trkpt lat="44.941614308406294" lon="-1.1775386393887282"><ele>17.333333333333336</ele><time>2026-04-12T15:15:48Z</time></trkpt><trkpt lat="44.94151706976492" lon="-1.1775145806146583"><ele>17.5</ele><time>2026-04-12T15:15:49Z</time></trkpt><trkpt lat="44.9414620359972" lon="-1.1774556665340363"><ele>17.666666666666668</ele><time>2026-04-12T15:15:50Z</time></trkpt><trkpt lat="44.941397976034004" lon="-1.1773988380823903"><ele>17.833333333333332</ele><time>2026-04-12T15:15:51Z</time></trkpt><trkpt lat="44.941346816975525" lon="-1.177338999416004"><ele>18.0</ele><time>2026-04-12T15:15:54Z</time></trkpt><trkpt lat="44.94126324498499" lon="-1.1773192027116097"><ele>18.0</ele><time>2026-04-12T15:15:58Z</time></trkpt><trkpt lat="44.94122032096836" lon="-1.177398246045682"><ele>18.0</ele><time>2026-04-12T15:16:59.998Z</time></trkpt><trkpt lat="44.94117112158491" lon="-1.1775119445866373"><ele>18.0</ele><time>2026-04-12T15:17:01.998Z</time></trkpt><trkpt lat="44.94110140023842" lon="-1.177615202672464"><ele>18.0</ele><time>2026-04-12T15:17:03.998Z</time></trkpt><trkpt lat="44.94117326755119" lon="-1.1775206598260766"><ele>18.0</ele><time>2026-04-12T15:18:53.999Z</time></trkpt><trkpt lat="44.94121862484089" lon="-1.1774192625484918"><ele>18.0</ele><time>2026-04-12T15:18:55.999Z</time></trkpt><trkpt lat="44.94126192998609" lon="-1.1773488531219227"><ele>17.2</ele><time>2026-04-12T15:18:57.999Z</time></trkpt><trkpt lat="44.94132163491325" lon="-1.1772436672896056"><ele>16.4</ele><time>2026-04-12T15:19:02.998Z</time></trkpt><trkpt lat="44.94128352086178" lon="-1.1773184224348954"><ele>15.599999999999998</ele><time>2026-04-12T15:23:25.998Z</time></trkpt><trkpt lat="44.94120267379752" lon="-1.1773288538303754"><ele>14.799999999999999</ele><time>2026-04-12T15:23:36.998Z</time></trkpt><trkpt lat="44.94114004648578" lon="-1.1772590527826716"><ele>14.0</ele><time>2026-04-12T15:23:38.998Z</time></trkpt><trkpt lat="44.94104369339461" lon="-1.1771384000930092"><ele>14.000000000000002</ele><time>2026-04-12T15:23:40.998Z</time></trkpt><trkpt lat="44.94099785854132" lon="-1.1770732836134272"><ele>14.0</ele><time>2026-04-12T15:23:41.998Z</time></trkpt><trkpt lat="44.94093659614988" lon="-1.1769832664084219"><ele>14.0</ele><time>2026-04-12T15:23:42.998Z</time></trkpt><trkpt lat="44.94087961576751" lon="-1.176908931080574"><ele>14.0</ele><time>2026-04-12T15:23:43.998Z</time></trkpt><trkpt lat="44.94079335468471" lon="-1.1767991824904596"><ele>14.000000000000002</ele><time>2026-04-12T15:23:44.998Z</time></trkpt><trkpt lat="44.94071686741189" lon="-1.1767046104484988"><ele>14.0</ele><time>2026-04-12T15:23:45.998Z</time></trkpt><trkpt lat="44.94066578556285" lon="-1.1766470226066919"><ele>14.166666666666668</ele><time>2026-04-12T15:23:46.998Z</time></trkpt><trkpt lat="44.94061487632131" lon="-1.1765934358180652"><ele>14.333333333333334</ele><time>2026-04-12T15:23:47.998Z</time></trkpt><trkpt lat="44.940551369989365" lon="-1.176521721375856"><ele>14.5</ele><time>2026-04-12T15:23:49.997Z</time></trkpt><trkpt lat="44.94046794548372" lon="-1.1764285343565124"><ele>14.666666666666668</ele><time>2026-04-12T15:23:59Z</time></trkpt><trkpt lat="44.940397830744764" lon="-1.1763390208568716"><ele>14.833333333333334</ele><time>2026-04-12T15:24:01Z</time></trkpt><trkpt lat="44.94034018520208" lon="-1.1762433136496462"><ele>15.0</ele><time>2026-04-12T15:24:03Z</time></trkpt><trkpt lat="44.94026178046366" lon="-1.17613030931547"><ele>15.0</ele><time>2026-04-12T15:24:05Z</time></trkpt><trkpt lat="44.94020309673208" lon="-1.176037286358353"><ele>15.0</ele><time>2026-04-12T15:24:07Z</time></trkpt><trkpt lat="44.94014938603073" lon="-1.175943421512276"><ele>15.0</ele><time>2026-04-12T15:24:09Z</time></trkpt><trkpt lat="44.9400764842109" lon="-1.1758913521560428"><ele>15.0</ele><time>2026-04-12T15:24:11Z</time></trkpt><trkpt lat="44.940017520385396" lon="-1.175817870853241"><ele>15.0</ele><time>2026-04-12T15:24:14Z</time></trkpt><trkpt lat="44.93996657234992" lon="-1.1758895448006563"><ele>15.0</ele><time>2026-04-12T15:24:17.999Z</time></trkpt><trkpt lat="44.93992613836237" lon="-1.1760166082179078"><ele>15.0</ele><time>2026-04-12T15:24:19.999Z</time></trkpt><trkpt lat="44.93987864129065" lon="-1.1760861271201242"><ele>15.0</ele><time>2026-04-12T15:24:20.999Z</time></trkpt><trkpt lat="44.9397968956548" lon="-1.1761095010879965"><ele>15.0</ele><time>2026-04-12T15:24:22.999Z</time></trkpt><trkpt lat="44.93970407226813" lon="-1.1761169364726665"><ele>15.0</ele><time>2026-04-12T15:24:24.999Z</time></trkpt><trkpt lat="44.939650278203075" lon="-1.1761744586891831"><ele>15.0</ele><time>2026-04-12T15:24:26.999Z</time></trkpt><trkpt lat="44.93959636375484" lon="-1.1762487013170104"><ele>15.0</ele><time>2026-04-12T15:24:28.999Z</time></trkpt><trkpt lat="44.939546045691706" lon="-1.176397736603371"><ele>15.6</ele><time>2026-04-12T15:24:30.999Z</time></trkpt><trkpt lat="44.93954986782151" lon="-1.1765231202550013"><ele>16.2</ele><time>2026-04-12T15:24:33.999Z</time></trkpt><trkpt lat="44.93956729911812" lon="-1.17666759146067"><ele>16.8</ele><time>2026-04-12T15:24:35.999Z</time></trkpt><trkpt lat="44.93960399583102" lon="-1.1767456396590126"><ele>17.4</ele><time>2026-04-12T15:24:37.999Z</time></trkpt><trkpt lat="44.93970400189645" lon="-1.1768104157803303"><ele>18.0</ele><time>2026-04-12T15:24:41.999Z</time></trkpt><trkpt lat="44.9397781279396" lon="-1.176856209169728"><ele>18.0</ele><time>2026-04-12T15:24:43.999Z</time></trkpt><trkpt lat="44.93983755769407" lon="-1.176915109276292"><ele>18.0</ele><time>2026-04-12T15:24:46.999Z</time></trkpt><trkpt lat="44.93988952418238" lon="-1.1769892487749951"><ele>18.0</ele><time>2026-04-12T15:24:48.999Z</time></trkpt><trkpt lat="44.9399578809627" lon="-1.1770573010499057"><ele>18.0</ele><time>2026-04-12T15:24:52.999Z</time></trkpt><trkpt lat="44.94001585988162" lon="-1.1771314770329122"><ele>18.0</ele><time>2026-04-12T15:24:55.999Z</time></trkpt><trkpt lat="44.940088415949006" lon="-1.1771788896787059"><ele>18.0</ele><time>2026-04-12T15:25:04.998Z</time></trkpt><trkpt lat="44.94014965792695" lon="-1.177220294645893"><ele>18.0</ele><time>2026-04-12T15:25:07.998Z</time></trkpt><trkpt lat="44.94021093657511" lon="-1.1772703150936306"><ele>18.0</ele><time>2026-04-12T15:25:12.998Z</time></trkpt><trkpt lat="44.94024770681257" lon="-1.1773633111847446"><ele>18.0</ele><time>2026-04-12T15:25:20.998Z</time></trkpt><trkpt lat="44.940176210742464" lon="-1.1773888481766066"><ele>18.0</ele><time>2026-04-12T15:25:25.998Z</time></trkpt><trkpt lat="44.940100321206245" lon="-1.1773418602713013"><ele>18.0</ele><time>2026-04-12T15:25:27.998Z</time></trkpt><trkpt lat="44.94001085554332" lon="-1.1772839726870796"><ele>18.0</ele><time>2026-04-12T15:25:29.998Z</time></trkpt><trkpt lat="44.939957942104094" lon="-1.1772285206278472"><ele>18.0</ele><time>2026-04-12T15:25:31.998Z</time></trkpt><trkpt lat="44.93987294404964" lon="-1.1771680684950956"><ele>18.0</ele><time>2026-04-12T15:25:33.998Z</time></trkpt><trkpt lat="44.939794134238305" lon="-1.1771226034814768"><ele>18.0</ele><time>2026-04-12T15:25:36.998Z</time></trkpt><trkpt lat="44.9397189177459" lon="-1.177089531507374"><ele>18.0</ele><time>2026-04-12T15:25:39.998Z</time></trkpt><trkpt lat="44.939662585321365" lon="-1.1770252785048307"><ele>18.0</ele><time>2026-04-12T15:25:42.998Z</time></trkpt><trkpt lat="44.93965803034236" lon="-1.176926193425064"><ele>18.0</ele><time>2026-04-12T15:25:44.998Z</time></trkpt><trkpt lat="44.939654502190045" lon="-1.1767704566503006"><ele>18.0</ele><time>2026-04-12T15:25:46.998Z</time></trkpt><trkpt lat="44.939609150099805" lon="-1.1766251943113624"><ele>18.0</ele><time>2026-04-12T15:25:48.997Z</time></trkpt><trkpt lat="44.93957767149732" lon="-1.1765313566393174"><ele>18.0</ele><time>2026-04-12T15:25:51.997Z</time></trkpt><trkpt lat="44.9395771605302" lon="-1.176374201923183"><ele>18.0</ele><time>2026-04-12T15:25:53.997Z</time></trkpt><trkpt lat="44.939609849230195" lon="-1.1762559391130625"><ele>18.0</ele><time>2026-04-12T15:25:55.997Z</time></trkpt><trkpt lat="44.93967847812168" lon="-1.176172486541839"><ele>17.6</ele><time>2026-04-12T15:25:58.997Z</time></trkpt><trkpt lat="44.93974541353465" lon="-1.1761337991189025"><ele>17.200000000000003</ele><time>2026-04-12T15:26:00.997Z</time></trkpt><trkpt lat="44.93986415430614" lon="-1.176110517173757"><ele>16.8</ele><time>2026-04-12T15:26:04Z</time></trkpt><trkpt lat="44.93992277743501" lon="-1.175991132697598"><ele>16.400000000000002</ele><time>2026-04-12T15:26:05.999Z</time></trkpt><trkpt lat="44.94001164090715" lon="-1.1758558314409122"><ele>16.0</ele><time>2026-04-12T15:26:08Z</time></trkpt><trkpt lat="44.94008164680824" lon="-1.1758802883453041"><ele>16.0</ele><time>2026-04-12T15:26:11.999Z</time></trkpt><trkpt lat="44.94017790938316" lon="-1.1760035311141939"><ele>16.0</ele><time>2026-04-12T15:26:14.999Z</time></trkpt><trkpt lat="44.94023754912567" lon="-1.1761062512140634"><ele>16.0</ele><time>2026-04-12T15:26:16Z</time></trkpt><trkpt lat="44.940316345112926" lon="-1.176220926687717"><ele>16.0</ele><time>2026-04-12T15:26:17Z</time></trkpt><trkpt lat="44.940422506710235" lon="-1.17636225586814"><ele>16.0</ele><time>2026-04-12T15:26:17.999Z</time></trkpt><trkpt lat="44.94052713493061" lon="-1.1764979683171906"><ele>16.0</ele><time>2026-04-12T15:26:18.999Z</time></trkpt><trkpt lat="44.9406192274191" lon="-1.1766030267422112"><ele>16.0</ele><time>2026-04-12T15:26:19.999Z</time></trkpt><trkpt lat="44.940709485468794" lon="-1.1766908013682293"><ele>16.0</ele><time>2026-04-12T15:26:20.999Z</time></trkpt><trkpt lat="44.940784843028545" lon="-1.1767687687498454"><ele>15.75</ele><time>2026-04-12T15:26:21.999Z</time></trkpt><trkpt lat="44.94087089838705" lon="-1.176862823669434"><ele>15.5</ele><time>2026-04-12T15:26:22.999Z</time></trkpt><trkpt lat="44.940983291251044" lon="-1.1770042975765704"><ele>15.25</ele><time>2026-04-12T15:26:23.999Z</time></trkpt><trkpt lat="44.94107168887973" lon="-1.1771310335113518"><ele>15.0</ele><time>2026-04-12T15:26:24.999Z</time></trkpt><trkpt lat="44.9411393291979" lon="-1.1772324565012708"><ele>14.833333333333334</ele><time>2026-04-12T15:26:25.999Z</time></trkpt><trkpt lat="44.941216296103136" lon="-1.177338331113993"><ele>14.666666666666668</ele><time>2026-04-12T15:26:27.999Z</time></trkpt><trkpt lat="44.941285805142144" lon="-1.1773330735894927"><ele>14.5</ele><time>2026-04-12T15:26:36.999Z</time></trkpt><trkpt lat="44.94122043941167" lon="-1.1773069247424617"><ele>14.333333333333334</ele><time>2026-04-12T15:33:29.999Z</time></trkpt><trkpt lat="44.941161652244645" lon="-1.17726639649698"><ele>14.166666666666668</ele><time>2026-04-12T15:33:30.999Z</time></trkpt><trkpt lat="44.941085658819965" lon="-1.177180945791503"><ele>14.0</ele><time>2026-04-12T15:33:32.999Z</time></trkpt><trkpt lat="44.94103883089304" lon="-1.1771046637135025"><ele>14.0</ele><time>2026-04-12T15:33:33.999Z</time></trkpt><trkpt lat="44.940960151826445" lon="-1.1769990464079838"><ele>14.0</ele><time>2026-04-12T15:33:34.999Z</time></trkpt><trkpt lat="44.94088153910179" lon="-1.176875388356368"><ele>14.0</ele><time>2026-04-12T15:33:35.999Z</time></trkpt><trkpt lat="44.94079388472971" lon="-1.176745085788663"><ele>14.0</ele><time>2026-04-12T15:33:36.999Z</time></trkpt><trkpt lat="44.94069520738522" lon="-1.176638077673187"><ele>14.25</ele><time>2026-04-12T15:33:37.999Z</time></trkpt><trkpt lat="44.94059060206134" lon="-1.1765391008852952"><ele>14.5</ele><time>2026-04-12T15:33:38.999Z</time></trkpt><trkpt lat="44.94049315768771" lon="-1.1764283446180308"><ele>14.75</ele><time>2026-04-12T15:33:39.999Z</time></trkpt><trkpt lat="44.940408773086915" lon="-1.1763278239844073"><ele>15.0</ele><time>2026-04-12T15:33:40.999Z</time></trkpt><trkpt lat="44.940301159154416" lon="-1.176174363026262"><ele>15.0</ele><time>2026-04-12T15:33:41.999Z</time></trkpt><trkpt lat="44.94019724250696" lon="-1.1760115032562164"><ele>15.0</ele><time>2026-04-12T15:33:42.999Z</time></trkpt><trkpt lat="44.940113239260924" lon="-1.1759041937484866"><ele>15.0</ele><time>2026-04-12T15:33:43.999Z</time></trkpt><trkpt lat="44.940041491262015" lon="-1.1758221586534512"><ele>15.0</ele><time>2026-04-12T15:33:44.999Z</time></trkpt><trkpt lat="44.93996825263711" lon="-1.1757131996426928"><ele>15.5</ele><time>2026-04-12T15:33:45.999Z</time></trkpt><trkpt lat="44.93988389626627" lon="-1.1755759070565184"><ele>16.0</ele><time>2026-04-12T15:33:46.999Z</time></trkpt><trkpt lat="44.93977648838559" lon="-1.1754607142117237"><ele>16.5</ele><time>2026-04-12T15:33:47.999Z</time></trkpt><trkpt lat="44.939688634232965" lon="-1.1753637099548844"><ele>17.0</ele><time>2026-04-12T15:33:48.999Z</time></trkpt><trkpt lat="44.93961493125061" lon="-1.1752537956377809"><ele>17.0</ele><time>2026-04-12T15:33:49.999Z</time></trkpt><trkpt lat="44.939550529039295" lon="-1.1751384681500008"><ele>17.0</ele><time>2026-04-12T15:33:50.999Z</time></trkpt><trkpt lat="44.93947793107584" lon="-1.175046252910933"><ele>17.0</ele><time>2026-04-12T15:33:51.999Z</time></trkpt><trkpt lat="44.939401214110674" lon="-1.1749333540267002"><ele>17.0</ele><time>2026-04-12T15:33:52.999Z</time></trkpt><trkpt lat="44.93931913204144" lon="-1.1748497684671086"><ele>17.0</ele><time>2026-04-12T15:33:53.999Z</time></trkpt><trkpt lat="44.939237968423704" lon="-1.174815799392977"><ele>16.833333333333336</ele><time>2026-04-12T15:33:54.999Z</time></trkpt><trkpt lat="44.93920919710208" lon="-1.1747243783646062"><ele>16.666666666666668</ele><time>2026-04-12T15:33:55.999Z</time></trkpt><trkpt lat="44.939153344454276" lon="-1.1746595883496862"><ele>16.5</ele><time>2026-04-12T15:33:56.998Z</time></trkpt><trkpt lat="44.9390960299442" lon="-1.1745761200837372"><ele>16.333333333333332</ele><time>2026-04-12T15:33:57.998Z</time></trkpt><trkpt lat="44.939032923253556" lon="-1.1744833767627867"><ele>16.166666666666664</ele><time>2026-04-12T15:33:59.998Z</time></trkpt><trkpt lat="44.93896360116064" lon="-1.1744344949922207"><ele>16.0</ele><time>2026-04-12T15:34:34Z</time></trkpt><trkpt lat="44.938910006620496" lon="-1.174505115885301"><ele>16.0</ele><time>2026-04-12T15:34:36Z</time></trkpt><trkpt lat="44.938822266250874" lon="-1.1744719588727377"><ele>16.0</ele><time>2026-04-12T15:34:39Z</time></trkpt><trkpt lat="44.93873345193977" lon="-1.1744438143112486"><ele>16.0</ele><time>2026-04-12T15:34:41Z</time></trkpt><trkpt lat="44.938628008813254" lon="-1.1744476899708731"><ele>16.0</ele><time>2026-04-12T15:34:43Z</time></trkpt><trkpt lat="44.938505826668525" lon="-1.1744648355986667"><ele>16.0</ele><time>2026-04-12T15:34:45Z</time></trkpt><trkpt lat="44.93843031387726" lon="-1.1744917638327355"><ele>15.8</ele><time>2026-04-12T15:34:46Z</time></trkpt><trkpt lat="44.93830335474976" lon="-1.1745162418670942"><ele>15.600000000000001</ele><time>2026-04-12T15:34:48Z</time></trkpt><trkpt lat="44.93823065293546" lon="-1.1745315145811237"><ele>15.4</ele><time>2026-04-12T15:34:49Z</time></trkpt><trkpt lat="44.93813802048424" lon="-1.1745613852912336"><ele>15.2</ele><time>2026-04-12T15:34:50Z</time></trkpt><trkpt lat="44.93802374014993" lon="-1.174583963322499"><ele>15.0</ele><time>2026-04-12T15:34:51Z</time></trkpt><trkpt lat="44.93790278497298" lon="-1.174603866550176"><ele>15.0</ele><time>2026-04-12T15:34:52Z</time></trkpt><trkpt lat="44.93771771832729" lon="-1.1746526868094942"><ele>15.0</ele><time>2026-04-12T15:34:53Z</time></trkpt><trkpt lat="44.93751280922906" lon="-1.1746928754553025"><ele>15.0</ele><time>2026-04-12T15:34:54Z</time></trkpt><trkpt lat="44.937343601889445" lon="-1.174736643522142"><ele>15.0</ele><time>2026-04-12T15:34:55Z</time></trkpt><trkpt lat="44.93717500185688" lon="-1.1747804730575078"><ele>15.0</ele><time>2026-04-12T15:34:56Z</time></trkpt><trkpt lat="44.93696173707657" lon="-1.1748372082446594"><ele>15.0</ele><time>2026-04-12T15:34:57Z</time></trkpt><trkpt lat="44.936786653411616" lon="-1.174878860683027"><ele>16.0</ele><time>2026-04-12T15:34:58Z</time></trkpt><trkpt lat="44.936613632241865" lon="-1.1749280278988357"><ele>17.0</ele><time>2026-04-12T15:34:59Z</time></trkpt><trkpt lat="44.93643355732809" lon="-1.1749881589317566"><ele>18.0</ele><time>2026-04-12T15:35:00Z</time></trkpt><trkpt lat="44.93624507332112" lon="-1.1750705513345239"><ele>18.0</ele><time>2026-04-12T15:35:01Z</time></trkpt><trkpt lat="44.936122782786306" lon="-1.175033307859518"><ele>18.0</ele><time>2026-04-12T15:35:02Z</time></trkpt><trkpt lat="44.93599003521933" lon="-1.1750590317924439"><ele>18.0</ele><time>2026-04-12T15:35:03Z</time></trkpt><trkpt lat="44.93585008305373" lon="-1.175118628198872"><ele>18.0</ele><time>2026-04-12T15:35:04Z</time></trkpt><trkpt lat="44.935723076706914" lon="-1.1751434430690548"><ele>17.5</ele><time>2026-04-12T15:35:04.999Z</time></trkpt><trkpt lat="44.93563389899229" lon="-1.1751564230498388"><ele>17.0</ele><time>2026-04-12T15:35:05.999Z</time></trkpt><trkpt lat="44.93556564155819" lon="-1.175173747377435"><ele>16.5</ele><time>2026-04-12T15:35:06.999Z</time></trkpt><trkpt lat="44.93549963523071" lon="-1.1751967985984328"><ele>16.0</ele><time>2026-04-12T15:35:07.999Z</time></trkpt><trkpt lat="44.93543065240791" lon="-1.1752203875885259"><ele>15.5</ele><time>2026-04-12T15:35:08.999Z</time></trkpt><trkpt lat="44.935345694410934" lon="-1.1752916463036458"><ele>15.0</ele><time>2026-04-12T15:35:09.999Z</time></trkpt><trkpt lat="44.935263419395476" lon="-1.1753508074305108"><ele>15.0</ele><time>2026-04-12T15:35:10.999Z</time></trkpt><trkpt lat="44.93519375426881" lon="-1.1753841381106043"><ele>15.0</ele><time>2026-04-12T15:35:11.999Z</time></trkpt><trkpt lat="44.93512459108659" lon="-1.1754262381648466"><ele>15.0</ele><time>2026-04-12T15:35:12.999Z</time></trkpt><trkpt lat="44.93503656376164" lon="-1.1754879009971433"><ele>15.0</ele><time>2026-04-12T15:35:14.999Z</time></trkpt><trkpt lat="44.93497559860669" lon="-1.175617513643466"><ele>15.0</ele><time>2026-04-12T15:35:16.999Z</time></trkpt><trkpt lat="44.934918980224005" lon="-1.1756607391234921"><ele>15.0</ele><time>2026-04-12T15:35:17.999Z</time></trkpt><trkpt lat="44.934837208968766" lon="-1.1756723090818393"><ele>15.2</ele><time>2026-04-12T15:35:19.999Z</time></trkpt><trkpt lat="44.934793365790235" lon="-1.1757438042844177"><ele>15.4</ele><time>2026-04-12T15:35:22.999Z</time></trkpt><trkpt lat="44.934697571302706" lon="-1.1758830973660697"><ele>15.600000000000001</ele><time>2026-04-12T15:35:25.999Z</time></trkpt><trkpt lat="44.934613352351626" lon="-1.1759416547606532"><ele>15.8</ele><time>2026-04-12T15:35:26.999Z</time></trkpt><trkpt lat="44.93453017181229" lon="-1.1760321998175287"><ele>16.0</ele><time>2026-04-12T15:35:27.999Z</time></trkpt><trkpt lat="44.93444902600813" lon="-1.1761541080523779"><ele>16.0</ele><time>2026-04-12T15:35:28.999Z</time></trkpt><trkpt lat="44.93434772464167" lon="-1.1762510222305946"><ele>16.0</ele><time>2026-04-12T15:35:29.999Z</time></trkpt><trkpt lat="44.93424750541697" lon="-1.1763414746594814"><ele>16.0</ele><time>2026-04-12T15:35:30.999Z</time></trkpt><trkpt lat="44.934182787399465" lon="-1.1764116879344662"><ele>16.0</ele><time>2026-04-12T15:35:31.999Z</time></trkpt><trkpt lat="44.93412936411547" lon="-1.176485110924904"><ele>16.0</ele><time>2026-04-12T15:35:32.999Z</time></trkpt><trkpt lat="44.934055949748156" lon="-1.1765538707527037"><ele>15.600000000000001</ele><time>2026-04-12T15:36:03.998Z</time></trkpt><trkpt lat="44.93401051476227" lon="-1.176653968214075"><ele>15.200000000000001</ele><time>2026-04-12T15:36:51Z</time></trkpt><trkpt lat="44.933915483500684" lon="-1.1767826427829644"><ele>14.799999999999999</ele><time>2026-04-12T15:36:53Z</time></trkpt><trkpt lat="44.93385742838757" lon="-1.1768706373183253"><ele>14.399999999999999</ele><time>2026-04-12T15:36:54Z</time></trkpt><trkpt lat="44.933804629493544" lon="-1.1769490117360948"><ele>14.0</ele><time>2026-04-12T15:36:55Z</time></trkpt><trkpt lat="44.933720498007865" lon="-1.1770178910526896"><ele>14.000000000000002</ele><time>2026-04-12T15:36:56Z</time></trkpt><trkpt lat="44.93365375902645" lon="-1.177071914807643"><ele>14.0</ele><time>2026-04-12T15:36:57Z</time></trkpt><trkpt lat="44.9335971568499" lon="-1.177152400301687"><ele>14.0</ele><time>2026-04-12T15:36:58Z</time></trkpt><trkpt lat="44.93354974723786" lon="-1.177262844502364"><ele>14.0</ele><time>2026-04-12T15:36:59Z</time></trkpt><trkpt lat="44.93350127960388" lon="-1.1773471354413647"><ele>14.000000000000002</ele><time>2026-04-12T15:37:00Z</time></trkpt><trkpt lat="44.93344489592653" lon="-1.1773993871776602"><ele>14.0</ele><time>2026-04-12T15:37:01Z</time></trkpt><trkpt lat="44.9333814287038" lon="-1.177430762219918"><ele>14.2</ele><time>2026-04-12T15:37:02Z</time></trkpt><trkpt lat="44.93329670733427" lon="-1.1774980582681902"><ele>14.399999999999999</ele><time>2026-04-12T15:37:03Z</time></trkpt><trkpt lat="44.93321859216507" lon="-1.1775830378101226"><ele>14.6</ele><time>2026-04-12T15:37:05Z</time></trkpt><trkpt lat="44.933166326360045" lon="-1.1776846728795791"><ele>14.8</ele><time>2026-04-12T15:37:06Z</time></trkpt><trkpt lat="44.933068612229995" lon="-1.1777805802400705"><ele>15.0</ele><time>2026-04-12T15:37:07Z</time></trkpt><trkpt lat="44.93296919464692" lon="-1.177852922467864"><ele>15.0</ele><time>2026-04-12T15:37:08Z</time></trkpt><trkpt lat="44.93283966115607" lon="-1.17793200240297"><ele>15.0</ele><time>2026-04-12T15:37:09Z</time></trkpt><trkpt lat="44.93272642708474" lon="-1.1780377645683922"><ele>15.0</ele><time>2026-04-12T15:37:10Z</time></trkpt><trkpt lat="44.9325860296787" lon="-1.1781366541362817"><ele>15.0</ele><time>2026-04-12T15:37:11Z</time></trkpt><trkpt lat="44.932441976640696" lon="-1.1782282928095973"><ele>14.666666666666668</ele><time>2026-04-12T15:37:11.999Z</time></trkpt><trkpt lat="44.93227362595279" lon="-1.1782814020533618"><ele>14.333333333333334</ele><time>2026-04-12T15:37:12.999Z</time></trkpt><trkpt lat="44.932103348716424" lon="-1.1783467165296069"><ele>14.0</ele><time>2026-04-12T15:37:13.999Z</time></trkpt><trkpt lat="44.93192052290989" lon="-1.17842770642035"><ele>14.0</ele><time>2026-04-12T15:37:14.999Z</time></trkpt><trkpt lat="44.93176122623299" lon="-1.178502062399366"><ele>14.0</ele><time>2026-04-12T15:37:15.999Z</time></trkpt><trkpt lat="44.93161241033478" lon="-1.17855067902348"><ele>14.0</ele><time>2026-04-12T15:37:16.999Z</time></trkpt><trkpt lat="44.931483863175615" lon="-1.178604300581318"><ele>13.666666666666668</ele><time>2026-04-12T15:37:17.999Z</time></trkpt><trkpt lat="44.93132009542897" lon="-1.1786558216259737"><ele>13.333333333333332</ele><time>2026-04-12T15:37:18.999Z</time></trkpt><trkpt lat="44.93117188074646" lon="-1.1787123403224387"><ele>13.0</ele><time>2026-04-12T15:37:19.999Z</time></trkpt><trkpt lat="44.93096868800742" lon="-1.1788050845778566"><ele>13.0</ele><time>2026-04-12T15:37:20.999Z</time></trkpt><trkpt lat="44.93078223854755" lon="-1.178915343340161"><ele>13.0</ele><time>2026-04-12T15:37:21.999Z</time></trkpt><trkpt lat="44.930591629072715" lon="-1.1790049804557157"><ele>13.0</ele><time>2026-04-12T15:37:22.999Z</time></trkpt><trkpt lat="44.93040102786526" lon="-1.1790991464451699"><ele>13.0</ele><time>2026-04-12T15:37:23.999Z</time></trkpt><trkpt lat="44.93023136364558" lon="-1.1791691646601363"><ele>13.0</ele><time>2026-04-12T15:37:24.999Z</time></trkpt><trkpt lat="44.930078249206126" lon="-1.1792184306376787"><ele>13.0</ele><time>2026-04-12T15:37:25.999Z</time></trkpt><trkpt lat="44.929958443292904" lon="-1.1792627413775687"><ele>13.166666666666666</ele><time>2026-04-12T15:37:26.999Z</time></trkpt><trkpt lat="44.92984681868107" lon="-1.1793017777441919"><ele>13.333333333333332</ele><time>2026-04-12T15:37:27.999Z</time></trkpt><trkpt lat="44.92977422061086" lon="-1.1793318039001828"><ele>13.5</ele><time>2026-04-12T15:37:28.999Z</time></trkpt><trkpt lat="44.92971883110371" lon="-1.1793924944690815"><ele>13.666666666666668</ele><time>2026-04-12T15:37:29.999Z</time></trkpt><trkpt lat="44.92968278144444" lon="-1.1794700789803434"><ele>13.833333333333334</ele><time>2026-04-12T15:37:30.999Z</time></trkpt><trkpt lat="44.92964107725997" lon="-1.1795560630212911"><ele>14.0</ele><time>2026-04-12T15:37:31.999Z</time></trkpt><trkpt lat="44.92954688071031" lon="-1.1796987158075447"><ele>14.0</ele><time>2026-04-12T15:37:33.999Z</time></trkpt><trkpt lat="44.92947652531124" lon="-1.179794329552056"><ele>13.999999999999998</ele><time>2026-04-12T15:37:34.999Z</time></trkpt><trkpt lat="44.929421396194435" lon="-1.179864688802944"><ele>13.999999999999998</ele><time>2026-04-12T15:37:35.999Z</time></trkpt><trkpt lat="44.92935166106202" lon="-1.1799018611528296"><ele>14.0</ele><time>2026-04-12T15:37:36.999Z</time></trkpt><trkpt lat="44.929255585068134" lon="-1.1799860402924842"><ele>14.0</ele><time>2026-04-12T15:37:38.999Z</time></trkpt><trkpt lat="44.9292054457999" lon="-1.180113723610314"><ele>14.2</ele><time>2026-04-12T15:37:40.999Z</time></trkpt><trkpt lat="44.92911940938031" lon="-1.1802476364151346"><ele>14.399999999999999</ele><time>2026-04-12T15:37:42.999Z</time></trkpt><trkpt lat="44.92904722838594" lon="-1.1803651618230306"><ele>14.6</ele><time>2026-04-12T15:37:43.999Z</time></trkpt><trkpt lat="44.92898600318095" lon="-1.1804710751966292"><ele>14.8</ele><time>2026-04-12T15:37:44.999Z</time></trkpt><trkpt lat="44.92890248291818" lon="-1.1805519832291957"><ele>15.0</ele><time>2026-04-12T15:37:45.999Z</time></trkpt><trkpt lat="44.928795228248624" lon="-1.1806819642744517"><ele>14.8</ele><time>2026-04-12T15:37:46.999Z</time></trkpt><trkpt lat="44.928715765937035" lon="-1.1807998977988003"><ele>14.6</ele><time>2026-04-12T15:37:47.999Z</time></trkpt><trkpt lat="44.928618709029124" lon="-1.1809117378030312"><ele>14.399999999999999</ele><time>2026-04-12T15:37:48.999Z</time></trkpt><trkpt lat="44.928540354892135" lon="-1.1809955591035237"><ele>14.2</ele><time>2026-04-12T15:37:49.999Z</time></trkpt><trkpt lat="44.928461410719244" lon="-1.1810960338522294"><ele>14.0</ele><time>2026-04-12T15:37:50.999Z</time></trkpt><trkpt lat="44.92837738108047" lon="-1.1811765078746268"><ele>14.5</ele><time>2026-04-12T15:37:51.999Z</time></trkpt><trkpt lat="44.92829287359049" lon="-1.1812618354771136"><ele>15.0</ele><time>2026-04-12T15:37:52.999Z</time></trkpt><trkpt lat="44.928215151697756" lon="-1.1813333517990259"><ele>15.5</ele><time>2026-04-12T15:37:53.999Z</time></trkpt><trkpt lat="44.92810314411396" lon="-1.1814081867362392"><ele>16.0</ele><time>2026-04-12T15:37:54.999Z</time></trkpt><trkpt lat="44.9279827706364" lon="-1.1814743397442171"><ele>15.8</ele><time>2026-04-12T15:37:55.999Z</time></trkpt><trkpt lat="44.927866211156015" lon="-1.1815465627529758"><ele>15.600000000000001</ele><time>2026-04-12T15:37:56.999Z</time></trkpt><trkpt lat="44.927752095276375" lon="-1.1816057268202147"><ele>15.4</ele><time>2026-04-12T15:37:57.999Z</time></trkpt><trkpt lat="44.92765724466793" lon="-1.1816273681063583"><ele>15.2</ele><time>2026-04-12T15:37:58.998Z</time></trkpt><trkpt lat="44.927565285176556" lon="-1.1816587906304108"><ele>15.0</ele><time>2026-04-12T15:37:59.998Z</time></trkpt><trkpt lat="44.92747295933116" lon="-1.1816707644476583"><ele>15.0</ele><time>2026-04-12T15:38:00.998Z</time></trkpt><trkpt lat="44.92739014930792" lon="-1.1816791976484349"><ele>15.0</ele><time>2026-04-12T15:38:01.998Z</time></trkpt><trkpt lat="44.92729458369345" lon="-1.18170129124768"><ele>15.0</ele><time>2026-04-12T15:38:02.998Z</time></trkpt><trkpt lat="44.92718907539802" lon="-1.1817266773874975"><ele>15.0</ele><time>2026-04-12T15:38:03.998Z</time></trkpt><trkpt lat="44.927111353706394" lon="-1.1817276647669237"><ele>15.0</ele><time>2026-04-12T15:38:04.998Z</time></trkpt><trkpt lat="44.92704607513284" lon="-1.1817156073590827"><ele>15.0</ele><time>2026-04-12T15:38:05.998Z</time></trkpt><trkpt lat="44.92695281035977" lon="-1.1817057853283646"><ele>15.0</ele><time>2026-04-12T15:38:07.998Z</time></trkpt><trkpt lat="44.92689077599046" lon="-1.1816890525413863"><ele>15.0</ele><time>2026-04-12T15:38:08.998Z</time></trkpt><trkpt lat="44.9268272803105" lon="-1.181666684660842"><ele>15.0</ele><time>2026-04-12T15:38:10.998Z</time></trkpt><trkpt lat="44.926758031085626" lon="-1.1816507588316416"><ele>15.0</ele><time>2026-04-12T15:38:12.998Z</time></trkpt><trkpt lat="44.92669505319894" lon="-1.1816354041065638"><ele>15.0</ele><time>2026-04-12T15:38:13.998Z</time></trkpt><trkpt lat="44.92661910002158" lon="-1.1816035227966024"><ele>15.0</ele><time>2026-04-12T15:38:14.998Z</time></trkpt><trkpt lat="44.92653037447475" lon="-1.1815668102867283"><ele>15.0</ele><time>2026-04-12T15:38:15.998Z</time></trkpt><trkpt lat="44.92642278021665" lon="-1.1815375258452974"><ele>15.0</ele><time>2026-04-12T15:38:16.998Z</time></trkpt><trkpt lat="44.92631034220724" lon="-1.1814864157582192"><ele>15.0</ele><time>2026-04-12T15:38:17.998Z</time></trkpt><trkpt lat="44.92620710981626" lon="-1.1814398552522736"><ele>15.0</ele><time>2026-04-12T15:38:18.998Z</time></trkpt><trkpt lat="44.92610002535811" lon="-1.1814015533945998"><ele>15.0</ele><time>2026-04-12T15:38:19.998Z</time></trkpt><trkpt lat="44.92600088235373" lon="-1.1813547235284776"><ele>15.0</ele><time>2026-04-12T15:38:20.998Z</time></trkpt><trkpt lat="44.92589916349957" lon="-1.1813141209202682"><ele>14.6</ele><time>2026-04-12T15:38:21.998Z</time></trkpt><trkpt lat="44.92581011550299" lon="-1.1812938902809804"><ele>14.2</ele><time>2026-04-12T15:38:22.998Z</time></trkpt><trkpt lat="44.92570283835868" lon="-1.1812437012165078"><ele>13.8</ele><time>2026-04-12T15:38:23.998Z</time></trkpt><trkpt lat="44.92559668560353" lon="-1.1812003977156125"><ele>13.4</ele><time>2026-04-12T15:38:24.998Z</time></trkpt><trkpt lat="44.92549526204047" lon="-1.1811529604515973"><ele>13.0</ele><time>2026-04-12T15:38:25.998Z</time></trkpt><trkpt lat="44.92537503461602" lon="-1.1811043537012464"><ele>13.0</ele><time>2026-04-12T15:38:26.998Z</time></trkpt><trkpt lat="44.925266016533875" lon="-1.1810616130799911"><ele>13.0</ele><time>2026-04-12T15:38:27.998Z</time></trkpt><trkpt lat="44.925150308614626" lon="-1.180999196469931"><ele>13.0</ele><time>2026-04-12T15:38:28.998Z</time></trkpt><trkpt lat="44.92503692454878" lon="-1.180931929980155"><ele>13.0</ele><time>2026-04-12T15:38:29.998Z</time></trkpt><trkpt lat="44.92492841874344" lon="-1.1808701820131486"><ele>13.0</ele><time>2026-04-12T15:38:30.998Z</time></trkpt><trkpt lat="44.92482892189375" lon="-1.1808214302688178"><ele>13.0</ele><time>2026-04-12T15:38:31.998Z</time></trkpt><trkpt lat="44.92472617939493" lon="-1.1807665252149617"><ele>13.0</ele><time>2026-04-12T15:38:32.998Z</time></trkpt><trkpt lat="44.92460218725419" lon="-1.1807021320087803"><ele>13.0</ele><time>2026-04-12T15:38:33.998Z</time></trkpt><trkpt lat="44.924526350085095" lon="-1.180650819642932"><ele>13.0</ele><time>2026-04-12T15:38:34.998Z</time></trkpt><trkpt lat="44.92447775052581" lon="-1.1807209585999674"><ele>12.999999999999998</ele><time>2026-04-12T15:38:37.998Z</time></trkpt><trkpt lat="44.9245395153746" lon="-1.1807844416342719"><ele>13.0</ele><time>2026-04-12T15:38:42Z</time></trkpt><trkpt lat="44.924544883833704" lon="-1.1808926486501636"><ele>13.0</ele><time>2026-04-12T15:38:44Z</time></trkpt><trkpt lat="44.92456259371918" lon="-1.180985177292256"><ele>13.0</ele><time>2026-04-12T15:38:45Z</time></trkpt><trkpt lat="44.92458494621729" lon="-1.1810845964590437"><ele>12.999999999999998</ele><time>2026-04-12T15:38:46Z</time></trkpt><trkpt lat="44.92461450075171" lon="-1.1811945117338736"><ele>13.0</ele><time>2026-04-12T15:38:47Z</time></trkpt><trkpt lat="44.92465899632625" lon="-1.1813362105252128"><ele>13.333333333333332</ele><time>2026-04-12T15:38:48Z</time></trkpt><trkpt lat="44.924710985825385" lon="-1.181529357495687"><ele>13.666666666666668</ele><time>2026-04-12T15:38:49Z</time></trkpt><trkpt lat="44.92477871448863" lon="-1.181775923893"><ele>14.0</ele><time>2026-04-12T15:38:50Z</time></trkpt><trkpt lat="44.92484389290721" lon="-1.1820243842646165"><ele>14.0</ele><time>2026-04-12T15:38:51Z</time></trkpt><trkpt lat="44.924912507623894" lon="-1.182258288260139"><ele>14.0</ele><time>2026-04-12T15:38:52Z</time></trkpt><trkpt lat="44.92498165663812" lon="-1.1825116177503403"><ele>14.0</ele><time>2026-04-12T15:38:53Z</time></trkpt><trkpt lat="44.925060546579374" lon="-1.1827752350865328"><ele>14.0</ele><time>2026-04-12T15:38:54Z</time></trkpt><trkpt lat="44.92512718119062" lon="-1.1830046193451629"><ele>14.0</ele><time>2026-04-12T15:38:55Z</time></trkpt><trkpt lat="44.92520579208899" lon="-1.183243245323974"><ele>14.0</ele><time>2026-04-12T15:38:56Z</time></trkpt><trkpt lat="44.92527914467185" lon="-1.1835020133377352"><ele>13.75</ele><time>2026-04-12T15:38:57Z</time></trkpt><trkpt lat="44.9253613308693" lon="-1.1837741739987075"><ele>13.5</ele><time>2026-04-12T15:38:58Z</time></trkpt><trkpt lat="44.92537301806811" lon="-1.1839045495360443"><ele>13.25</ele><time>2026-04-12T15:38:59Z</time></trkpt><trkpt lat="44.925412843559286" lon="-1.1840808797097047"><ele>13.0</ele><time>2026-04-12T15:39:00Z</time></trkpt><trkpt lat="44.92545462545904" lon="-1.1842816727789909"><ele>14.0</ele><time>2026-04-12T15:39:01Z</time></trkpt><trkpt lat="44.9255089932482" lon="-1.1844862301637908"><ele>15.0</ele><time>2026-04-12T15:39:02Z</time></trkpt><trkpt lat="44.92557130234966" lon="-1.184671962003515"><ele>16.0</ele><time>2026-04-12T15:39:03Z</time></trkpt><trkpt lat="44.92563590868577" lon="-1.1848875647461936"><ele>17.5</ele><time>2026-04-12T15:39:04Z</time></trkpt><trkpt lat="44.92567830286985" lon="-1.1850929241517671"><ele>19.0</ele><time>2026-04-12T15:39:05Z</time></trkpt><trkpt lat="44.925726628263305" lon="-1.1852646333488606"><ele>20.5</ele><time>2026-04-12T15:39:06Z</time></trkpt><trkpt lat="44.92577753061087" lon="-1.1854308002441407"><ele>22.0</ele><time>2026-04-12T15:39:07Z</time></trkpt><trkpt lat="44.92581648004687" lon="-1.1855623157829283"><ele>22.0</ele><time>2026-04-12T15:39:08Z</time></trkpt><trkpt lat="44.925836440787926" lon="-1.1856640162664374"><ele>22.0</ele><time>2026-04-12T15:39:09Z</time></trkpt><trkpt lat="44.925802854042644" lon="-1.1855854375224424"><ele>22.0</ele><time>2026-04-12T15:39:14.999Z</time></trkpt><trkpt lat="44.92584483757818" lon="-1.1854896659059326"><ele>22.0</ele><time>2026-04-12T15:39:16.999Z</time></trkpt><trkpt lat="44.92576382205755" lon="-1.1854351271869572"><ele>22.0</ele><time>2026-04-12T15:40:01.998Z</time></trkpt><trkpt lat="44.92580126749076" lon="-1.1855076425772189"><ele>22.0</ele><time>2026-04-12T15:40:05.998Z</time></trkpt><trkpt lat="44.92584070358173" lon="-1.1856169292485537"><ele>23.200000000000003</ele><time>2026-04-12T15:40:07.998Z</time></trkpt><trkpt lat="44.925809321555185" lon="-1.1857381473650292"><ele>24.4</ele><time>2026-04-12T15:40:09.998Z</time></trkpt><trkpt lat="44.92567720046598" lon="-1.185720795290942"><ele>25.599999999999998</ele><time>2026-04-12T15:40:11.998Z</time></trkpt><trkpt lat="44.92559349635295" lon="-1.185732868223279"><ele>26.799999999999997</ele><time>2026-04-12T15:40:12.998Z</time></trkpt><trkpt lat="44.9255003754261" lon="-1.1857462744076066"><ele>28.0</ele><time>2026-04-12T15:40:13.998Z</time></trkpt><trkpt lat="44.92539543401862" lon="-1.185752170323888"><ele>28.0</ele><time>2026-04-12T15:40:14.998Z</time></trkpt><trkpt lat="44.92529072096617" lon="-1.1857531241781611"><ele>27.999999999999996</ele><time>2026-04-12T15:40:15.998Z</time></trkpt><trkpt lat="44.92517224531684" lon="-1.1857886309415788"><ele>27.999999999999996</ele><time>2026-04-12T15:40:16.998Z</time></trkpt><trkpt lat="44.92508351030818" lon="-1.1857974661099921"><ele>28.0</ele><time>2026-04-12T15:40:17.998Z</time></trkpt><trkpt lat="44.92499610065608" lon="-1.1858077532130122"><ele>28.0</ele><time>2026-04-12T15:40:18.998Z</time></trkpt><trkpt lat="44.92491309570482" lon="-1.1858192165807844"><ele>28.0</ele><time>2026-04-12T15:40:19.998Z</time></trkpt><trkpt lat="44.924834581104584" lon="-1.185818113686676"><ele>27.999999999999996</ele><time>2026-04-12T15:40:20.998Z</time></trkpt><trkpt lat="44.92470802093284" lon="-1.185836430106496"><ele>27.999999999999996</ele><time>2026-04-12T15:40:21.998Z</time></trkpt><trkpt lat="44.924628096560255" lon="-1.185848088611482"><ele>28.0</ele><time>2026-04-12T15:40:22.998Z</time></trkpt><trkpt lat="44.92452944607047" lon="-1.1858573791014488"><ele>28.0</ele><time>2026-04-12T15:40:23.998Z</time></trkpt><trkpt lat="44.924453755265155" lon="-1.1858675421221352"><ele>28.000000000000004</ele><time>2026-04-12T15:40:24.998Z</time></trkpt><trkpt lat="44.9243881166269" lon="-1.185873889928194"><ele>28.0</ele><time>2026-04-12T15:40:25.998Z</time></trkpt><trkpt lat="44.924296234186656" lon="-1.1858841647420693"><ele>28.0</ele><time>2026-04-12T15:40:26.998Z</time></trkpt><trkpt lat="44.924220837989175" lon="-1.185884979712206"><ele>28.0</ele><time>2026-04-12T15:40:27.998Z</time></trkpt><trkpt lat="44.92412193108215" lon="-1.1858900113952255"><ele>28.000000000000004</ele><time>2026-04-12T15:40:28.998Z</time></trkpt><trkpt lat="44.92401673052135" lon="-1.1858909151758428"><ele>28.0</ele><time>2026-04-12T15:40:29.998Z</time></trkpt><trkpt lat="44.92390385815097" lon="-1.185911522190382"><ele>27.5</ele><time>2026-04-12T15:40:30.998Z</time></trkpt><trkpt lat="44.92376265030753" lon="-1.1859330573175464"><ele>27.0</ele><time>2026-04-12T15:40:31.998Z</time></trkpt><trkpt lat="44.9236431868525" lon="-1.1859484019591444"><ele>26.5</ele><time>2026-04-12T15:40:32.998Z</time></trkpt><trkpt lat="44.92355057480665" lon="-1.1859699700930841"><ele>26.0</ele><time>2026-04-12T15:40:33.998Z</time></trkpt><trkpt lat="44.923439000206514" lon="-1.18598174750515"><ele>24.75</ele><time>2026-04-12T15:40:34.998Z</time></trkpt><trkpt lat="44.92332741976867" lon="-1.1859960787090287"><ele>23.5</ele><time>2026-04-12T15:40:35.998Z</time></trkpt><trkpt lat="44.92321152614474" lon="-1.1860082896949546"><ele>22.25</ele><time>2026-04-12T15:40:36.998Z</time></trkpt><trkpt lat="44.92308619801494" lon="-1.1860202116303344"><ele>21.0</ele><time>2026-04-12T15:40:37.998Z</time></trkpt><trkpt lat="44.92295049684463" lon="-1.1860390090144346"><ele>21.0</ele><time>2026-04-12T15:40:38.998Z</time></trkpt><trkpt lat="44.92282966934066" lon="-1.1860439018734126"><ele>21.0</ele><time>2026-04-12T15:40:39.998Z</time></trkpt><trkpt lat="44.92272142903424" lon="-1.186052324662591"><ele>21.0</ele><time>2026-04-12T15:40:40.998Z</time></trkpt><trkpt lat="44.9226181834727" lon="-1.186080078691846"><ele>21.0</ele><time>2026-04-12T15:40:41.998Z</time></trkpt><trkpt lat="44.92250830459956" lon="-1.1861097121569955"><ele>21.0</ele><time>2026-04-12T15:40:42.998Z</time></trkpt><trkpt lat="44.92239611463208" lon="-1.1860959885731397"><ele>20.333333333333332</ele><time>2026-04-12T15:40:45Z</time></trkpt><trkpt lat="44.92231318023693" lon="-1.1861193508496637"><ele>19.666666666666668</ele><time>2026-04-12T15:40:46Z</time></trkpt><trkpt lat="44.92222553872171" lon="-1.1861323267415793"><ele>19.0</ele><time>2026-04-12T15:40:47Z</time></trkpt><trkpt lat="44.92211710183548" lon="-1.1861399987390562"><ele>18.333333333333336</ele><time>2026-04-12T15:40:48Z</time></trkpt><trkpt lat="44.922033848616095" lon="-1.1861417164878858"><ele>17.666666666666668</ele><time>2026-04-12T15:40:49Z</time></trkpt><trkpt lat="44.92195055883866" lon="-1.1861530536611038"><ele>17.0</ele><time>2026-04-12T15:40:50Z</time></trkpt><trkpt lat="44.92182996954605" lon="-1.1861791209400312"><ele>18.0</ele><time>2026-04-12T15:40:51Z</time></trkpt><trkpt lat="44.92170925386949" lon="-1.1861995277082642"><ele>19.0</ele><time>2026-04-12T15:40:52Z</time></trkpt><trkpt lat="44.92159021838436" lon="-1.1862111173056193"><ele>20.0</ele><time>2026-04-12T15:40:53Z</time></trkpt><trkpt lat="44.92149079499714" lon="-1.1862219928238473"><ele>21.0</ele><time>2026-04-12T15:40:54Z</time></trkpt><trkpt lat="44.92140008982814" lon="-1.1862290520516856"><ele>22.0</ele><time>2026-04-12T15:40:55Z</time></trkpt><trkpt lat="44.921337066033146" lon="-1.186239802090475"><ele>22.0</ele><time>2026-04-12T15:40:56Z</time></trkpt><trkpt lat="44.92126838329588" lon="-1.1862546091967792"><ele>22.0</ele><time>2026-04-12T15:40:57Z</time></trkpt><trkpt lat="44.921189179561196" lon="-1.1862570471140534"><ele>22.0</ele><time>2026-04-12T15:40:58Z</time></trkpt><trkpt lat="44.921084303103115" lon="-1.1862677086778441"><ele>22.0</ele><time>2026-04-12T15:40:59Z</time></trkpt><trkpt lat="44.92097095330244" lon="-1.1862914263827742"><ele>22.0</ele><time>2026-04-12T15:41:00Z</time></trkpt><trkpt lat="44.920842400283604" lon="-1.1863024439351557"><ele>23.400000000000002</ele><time>2026-04-12T15:41:01Z</time></trkpt><trkpt lat="44.920741324212436" lon="-1.1863093255111332"><ele>24.8</ele><time>2026-04-12T15:41:02Z</time></trkpt><trkpt lat="44.92062386654936" lon="-1.1863337795419209"><ele>26.2</ele><time>2026-04-12T15:41:03Z</time></trkpt><trkpt lat="44.9205282462507" lon="-1.1863427021447694"><ele>27.6</ele><time>2026-04-12T15:41:04Z</time></trkpt><trkpt lat="44.92061157556909" lon="-1.1863427617849531"><ele>29.0</ele><time>2026-04-12T15:41:14Z</time></trkpt><trkpt lat="44.920657618031484" lon="-1.1862789978845572"><ele>29.0</ele><time>2026-04-12T15:41:17.999Z</time></trkpt><trkpt lat="44.920691201898975" lon="-1.1861968372545186"><ele>29.0</ele><time>2026-04-12T15:42:14.998Z</time></trkpt><trkpt lat="44.920701883837495" lon="-1.1860497657030709"><ele>29.0</ele><time>2026-04-12T15:42:16.998Z</time></trkpt><trkpt lat="44.92071197212456" lon="-1.1859348731312012"><ele>29.0</ele><time>2026-04-12T15:42:17.998Z</time></trkpt><trkpt lat="44.920721771995176" lon="-1.1857824585478487"><ele>29.0</ele><time>2026-04-12T15:42:19.998Z</time></trkpt><trkpt lat="44.920703736667804" lon="-1.1856400694391818"><ele>28.166666666666664</ele><time>2026-04-12T15:42:21.998Z</time></trkpt><trkpt lat="44.92067607537202" lon="-1.1855512810714817"><ele>27.333333333333332</ele><time>2026-04-12T15:42:22.998Z</time></trkpt><trkpt lat="44.920685803452855" lon="-1.1854098912701687"><ele>26.5</ele><time>2026-04-12T15:42:24.998Z</time></trkpt><trkpt lat="44.92071030130002" lon="-1.1853050993850733"><ele>25.666666666666664</ele><time>2026-04-12T15:42:26.998Z</time></trkpt><trkpt lat="44.92069214545096" lon="-1.185194212654853"><ele>24.833333333333332</ele><time>2026-04-12T15:42:30.998Z</time></trkpt><trkpt lat="44.920697493270225" lon="-1.185101564675561"><ele>24.0</ele><time>2026-04-12T15:42:32.998Z</time></trkpt><trkpt lat="44.920690120362444" lon="-1.1850083598856607"><ele>24.0</ele><time>2026-04-12T15:42:34.998Z</time></trkpt><trkpt lat="44.92068626204414" lon="-1.1849129251997885"><ele>24.0</ele><time>2026-04-12T15:42:37.998Z</time></trkpt><trkpt lat="44.920675655141025" lon="-1.1848242196070435"><ele>24.0</ele><time>2026-04-12T15:42:39.998Z</time></trkpt><trkpt lat="44.92066662694041" lon="-1.1847187194800382"><ele>24.0</ele><time>2026-04-12T15:42:40.998Z</time></trkpt><trkpt lat="44.92064648075971" lon="-1.1845832761881623"><ele>24.0</ele><time>2026-04-12T15:42:42.998Z</time></trkpt><trkpt lat="44.92063240505681" lon="-1.1844310112562533"><ele>24.0</ele><time>2026-04-12T15:42:44.998Z</time></trkpt><trkpt lat="44.92072538851621" lon="-1.1843804366402406"><ele>22.833333333333332</ele><time>2026-04-12T15:42:46.998Z</time></trkpt><trkpt lat="44.92081104781945" lon="-1.1844001571184801"><ele>21.666666666666668</ele><time>2026-04-12T15:42:47.998Z</time></trkpt><trkpt lat="44.92081350618916" lon="-1.1842942720588543"><ele>20.5</ele><time>2026-04-12T15:42:51Z</time></trkpt><trkpt lat="44.92075848399201" lon="-1.184210028949923"><ele>19.333333333333336</ele><time>2026-04-12T15:42:55Z</time></trkpt><trkpt lat="44.92072726469986" lon="-1.1840978061634506"><ele>18.166666666666668</ele><time>2026-04-12T15:42:57Z</time></trkpt><trkpt lat="44.92065926773314" lon="-1.1840332116385583"><ele>17.0</ele><time>2026-04-12T15:43:13Z</time></trkpt><trkpt lat="44.92065321958436" lon="-1.1838558354176412"><ele>16.8</ele><time>2026-04-12T15:43:14.999Z</time></trkpt><trkpt lat="44.92066042139056" lon="-1.1837583045960904"><ele>16.6</ele><time>2026-04-12T15:43:16.999Z</time></trkpt><trkpt lat="44.920549818384266" lon="-1.1837893923098508"><ele>16.400000000000002</ele><time>2026-04-12T15:43:19.999Z</time></trkpt><trkpt lat="44.920504961089435" lon="-1.1838636321586211"><ele>16.2</ele><time>2026-04-12T15:43:21.999Z</time></trkpt><trkpt lat="44.92044732841826" lon="-1.1839331438777956"><ele>16.0</ele><time>2026-04-12T15:43:23.999Z</time></trkpt><trkpt lat="44.92030863413524" lon="-1.1839190705811609"><ele>16.0</ele><time>2026-04-12T15:43:25.999Z</time></trkpt><trkpt lat="44.92022650023947" lon="-1.1839851974160256"><ele>16.0</ele><time>2026-04-12T15:43:27.999Z</time></trkpt><trkpt lat="44.92015918006603" lon="-1.1840181616854704"><ele>16.0</ele><time>2026-04-12T15:43:28.999Z</time></trkpt><trkpt lat="44.92005281984365" lon="-1.1839839680387172"><ele>16.0</ele><time>2026-04-12T15:43:29.999Z</time></trkpt><trkpt lat="44.9199372223992" lon="-1.1839686245932657"><ele>16.0</ele><time>2026-04-12T15:43:31.999Z</time></trkpt><trkpt lat="44.91985578972314" lon="-1.1839507919038879"><ele>15.833333333333332</ele><time>2026-04-12T15:43:32.999Z</time></trkpt><trkpt lat="44.91978230983609" lon="-1.1840066550715642"><ele>15.666666666666666</ele><time>2026-04-12T15:43:34.999Z</time></trkpt><trkpt lat="44.91971615895236" lon="-1.1840352750817216"><ele>15.5</ele><time>2026-04-12T15:43:35.999Z</time></trkpt><trkpt lat="44.919648951184506" lon="-1.1840513141046287"><ele>15.333333333333332</ele><time>2026-04-12T15:43:36.999Z</time></trkpt><trkpt lat="44.919587143947396" lon="-1.1841014977929558"><ele>15.166666666666666</ele><time>2026-04-12T15:43:37.999Z</time></trkpt><trkpt lat="44.91949464857131" lon="-1.1841586853197748"><ele>15.0</ele><time>2026-04-12T15:43:39.999Z</time></trkpt><trkpt lat="44.919405984973686" lon="-1.18420121408713"><ele>15.0</ele><time>2026-04-12T15:43:41.999Z</time></trkpt><trkpt lat="44.91931121748908" lon="-1.1842542217871181"><ele>15.0</ele><time>2026-04-12T15:43:43.999Z</time></trkpt><trkpt lat="44.91921446004253" lon="-1.184355923958168"><ele>15.0</ele><time>2026-04-12T15:43:45.999Z</time></trkpt><trkpt lat="44.91912336211124" lon="-1.1844190770269722"><ele>15.0</ele><time>2026-04-12T15:43:47.999Z</time></trkpt><trkpt lat="44.91900743875232" lon="-1.1844191001810582"><ele>15.0</ele><time>2026-04-12T15:43:49.999Z</time></trkpt><trkpt lat="44.918893662382715" lon="-1.1844031021296098"><ele>15.4</ele><time>2026-04-12T15:43:51.999Z</time></trkpt><trkpt lat="44.91882403328522" lon="-1.1844117314943818"><ele>15.8</ele><time>2026-04-12T15:43:53.999Z</time></trkpt><trkpt lat="44.918730885570035" lon="-1.1844787104389316"><ele>16.2</ele><time>2026-04-12T15:43:55.999Z</time></trkpt><trkpt lat="44.91867173709654" lon="-1.1845942836349963"><ele>16.6</ele><time>2026-04-12T15:43:57.999Z</time></trkpt><trkpt lat="44.918567920605994" lon="-1.1846355786796396"><ele>17.0</ele><time>2026-04-12T15:43:59.999Z</time></trkpt><trkpt lat="44.918499993905144" lon="-1.1847351549292207"><ele>17.8</ele><time>2026-04-12T15:44:01.999Z</time></trkpt><trkpt lat="44.91849141744231" lon="-1.1848824104552271"><ele>18.6</ele><time>2026-04-12T15:44:03.998Z</time></trkpt><trkpt lat="44.91844752174282" lon="-1.1849929405930604"><ele>19.400000000000002</ele><time>2026-04-12T15:44:05.998Z</time></trkpt><trkpt lat="44.918369891250116" lon="-1.1850733980123846"><ele>20.2</ele><time>2026-04-12T15:44:07.998Z</time></trkpt><trkpt lat="44.918277137431" lon="-1.18519408692598"><ele>21.0</ele><time>2026-04-12T15:44:09.998Z</time></trkpt><trkpt lat="44.91820432251517" lon="-1.185308456495827"><ele>21.200000000000003</ele><time>2026-04-12T15:44:11.998Z</time></trkpt><trkpt lat="44.91813838613305" lon="-1.185397800811291"><ele>21.400000000000002</ele><time>2026-04-12T15:44:12.998Z</time></trkpt><trkpt lat="44.91808989210022" lon="-1.1854659720467746"><ele>21.6</ele><time>2026-04-12T15:44:13.998Z</time></trkpt><trkpt lat="44.918025626691765" lon="-1.1855947366627264"><ele>21.8</ele><time>2026-04-12T15:44:15.998Z</time></trkpt><trkpt lat="44.91796267151424" lon="-1.1857004883257558"><ele>22.0</ele><time>2026-04-12T15:44:17.998Z</time></trkpt><trkpt lat="44.917967567418735" lon="-1.1858392356213525"><ele>22.0</ele><time>2026-04-12T15:44:19.998Z</time></trkpt><trkpt lat="44.917967880599484" lon="-1.185959293895802"><ele>22.0</ele><time>2026-04-12T15:44:21.998Z</time></trkpt><trkpt lat="44.917922019541265" lon="-1.1860826412479264"><ele>22.0</ele><time>2026-04-12T15:44:23.998Z</time></trkpt><trkpt lat="44.91786835220142" lon="-1.1861691262055811"><ele>22.0</ele><time>2026-04-12T15:44:25.998Z</time></trkpt><trkpt lat="44.91786748836271" lon="-1.1862898146986032"><ele>22.0</ele><time>2026-04-12T15:44:26.998Z</time></trkpt><trkpt lat="44.9178323543956" lon="-1.1863914467608887"><ele>22.0</ele><time>2026-04-12T15:44:27.998Z</time></trkpt><trkpt lat="44.917770354900625" lon="-1.1864668983187128"><ele>22.166666666666664</ele><time>2026-04-12T15:44:28.998Z</time></trkpt><trkpt lat="44.91771823263943" lon="-1.1865427576444607"><ele>22.333333333333332</ele><time>2026-04-12T15:44:29.998Z</time></trkpt><trkpt lat="44.917671777519516" lon="-1.186623835997093"><ele>22.5</ele><time>2026-04-12T15:44:30.998Z</time></trkpt><trkpt lat="44.91758402346269" lon="-1.1866854829259843"><ele>22.666666666666668</ele><time>2026-04-12T15:44:32.998Z</time></trkpt><trkpt lat="44.91749301963459" lon="-1.1866995563721336"><ele>22.833333333333336</ele><time>2026-04-12T15:44:33.998Z</time></trkpt><trkpt lat="44.91738354850246" lon="-1.186695399939874"><ele>23.0</ele><time>2026-04-12T15:44:34.998Z</time></trkpt><trkpt lat="44.91727789653612" lon="-1.1866939678558643"><ele>22.0</ele><time>2026-04-12T15:44:35.998Z</time></trkpt><trkpt lat="44.91718307295828" lon="-1.1866900977536008"><ele>21.0</ele><time>2026-04-12T15:44:36.998Z</time></trkpt><trkpt lat="44.91707376680951" lon="-1.1867018341638416"><ele>20.0</ele><time>2026-04-12T15:44:37.998Z</time></trkpt><trkpt lat="44.91697732694076" lon="-1.1867211170770597"><ele>19.0</ele><time>2026-04-12T15:44:38.998Z</time></trkpt><trkpt lat="44.91689573705656" lon="-1.1867350589131278"><ele>18.0</ele><time>2026-04-12T15:44:39.998Z</time></trkpt><trkpt lat="44.91679573191943" lon="-1.1867544196190785"><ele>18.0</ele><time>2026-04-12T15:44:40.998Z</time></trkpt><trkpt lat="44.916697917943125" lon="-1.1867792404767692"><ele>18.0</ele><time>2026-04-12T15:44:41.998Z</time></trkpt><trkpt lat="44.91660675978267" lon="-1.186781023796391"><ele>18.0</ele><time>2026-04-12T15:44:42.998Z</time></trkpt><trkpt lat="44.91651399866735" lon="-1.1867904901959485"><ele>18.0</ele><time>2026-04-12T15:44:43.998Z</time></trkpt><trkpt lat="44.916408310183144" lon="-1.1868108280299121"><ele>18.0</ele><time>2026-04-12T15:44:44.998Z</time></trkpt><trkpt lat="44.91631085172999" lon="-1.186822129346749"><ele>18.0</ele><time>2026-04-12T15:44:45.998Z</time></trkpt><trkpt lat="44.916236053754595" lon="-1.1868299342515989"><ele>18.0</ele><time>2026-04-12T15:44:46.998Z</time></trkpt><trkpt lat="44.916162684606896" lon="-1.1868390545482994"><ele>18.0</ele><time>2026-04-12T15:44:47.998Z</time></trkpt><trkpt lat="44.91607782777405" lon="-1.1868529852170142"><ele>18.0</ele><time>2026-04-12T15:44:48.998Z</time></trkpt><trkpt lat="44.91599099072406" lon="-1.1868562345299143"><ele>18.0</ele><time>2026-04-12T15:44:49.997Z</time></trkpt><trkpt lat="44.91592437156595" lon="-1.1868583376627855"><ele>18.0</ele><time>2026-04-12T15:44:50.997Z</time></trkpt><trkpt lat="44.915836957052065" lon="-1.1868490385836545"><ele>17.833333333333332</ele><time>2026-04-12T15:44:52.997Z</time></trkpt><trkpt lat="44.91577236184174" lon="-1.1868549472010836"><ele>17.666666666666668</ele><time>2026-04-12T15:44:54.997Z</time></trkpt><trkpt lat="44.91569833558571" lon="-1.1868583320288537"><ele>17.5</ele><time>2026-04-12T15:44:57Z</time></trkpt><trkpt lat="44.915617636675385" lon="-1.1868080554951361"><ele>17.333333333333336</ele><time>2026-04-12T15:45:00Z</time></trkpt><trkpt lat="44.91560242000038" lon="-1.1867021018733062"><ele>17.166666666666668</ele><time>2026-04-12T15:45:02Z</time></trkpt><trkpt lat="44.91561389724328" lon="-1.186586694209447"><ele>17.0</ele><time>2026-04-12T15:45:04Z</time></trkpt><trkpt lat="44.91563208125657" lon="-1.186460450083911"><ele>17.0</ele><time>2026-04-12T15:45:06Z</time></trkpt><trkpt lat="44.9156595375972" lon="-1.1863700894530806"><ele>17.0</ele><time>2026-04-12T15:45:07Z</time></trkpt><trkpt lat="44.915673831087204" lon="-1.186247592497125"><ele>17.0</ele><time>2026-04-12T15:45:08Z</time></trkpt><trkpt lat="44.91567472596644" lon="-1.1861201912137154"><ele>17.0</ele><time>2026-04-12T15:45:09Z</time></trkpt><trkpt lat="44.915648684020304" lon="-1.1859802800509132"><ele>17.0</ele><time>2026-04-12T15:45:10Z</time></trkpt><trkpt lat="44.91563253422958" lon="-1.185829932094523"><ele>17.6</ele><time>2026-04-12T15:45:11Z</time></trkpt><trkpt lat="44.91560241086115" lon="-1.1856696323855305"><ele>18.2</ele><time>2026-04-12T15:45:12Z</time></trkpt><trkpt lat="44.91559346072074" lon="-1.185552401360429"><ele>18.8</ele><time>2026-04-12T15:45:13Z</time></trkpt><trkpt lat="44.91560151156506" lon="-1.1854309105990846"><ele>19.4</ele><time>2026-04-12T15:45:14Z</time></trkpt><trkpt lat="44.91560287515745" lon="-1.1853207681551663"><ele>20.0</ele><time>2026-04-12T15:45:15Z</time></trkpt><trkpt lat="44.915602903141334" lon="-1.1851822202229731"><ele>20.0</ele><time>2026-04-12T15:45:16Z</time></trkpt><trkpt lat="44.915585422602334" lon="-1.1850442984263627"><ele>20.0</ele><time>2026-04-12T15:45:16.999Z</time></trkpt><trkpt lat="44.91557786013505" lon="-1.1849150127071428"><ele>20.0</ele><time>2026-04-12T15:45:17.999Z</time></trkpt><trkpt lat="44.91555287158346" lon="-1.1847973408858272"><ele>20.0</ele><time>2026-04-12T15:45:18.999Z</time></trkpt><trkpt lat="44.91554732312762" lon="-1.184654178821363"><ele>20.0</ele><time>2026-04-12T15:45:19.999Z</time></trkpt><trkpt lat="44.91554420283973" lon="-1.1844851972991488"><ele>19.75</ele><time>2026-04-12T15:45:20.999Z</time></trkpt><trkpt lat="44.9155235734037" lon="-1.1843142368274995"><ele>19.5</ele><time>2026-04-12T15:45:21.999Z</time></trkpt><trkpt lat="44.91551748241507" lon="-1.1841327128034127"><ele>19.25</ele><time>2026-04-12T15:45:22.999Z</time></trkpt><trkpt lat="44.91550462065513" lon="-1.183909913630672"><ele>19.0</ele><time>2026-04-12T15:45:23.999Z</time></trkpt><trkpt lat="44.91548750441847" lon="-1.1837276121338474"><ele>19.0</ele><time>2026-04-12T15:45:24.999Z</time></trkpt><trkpt lat="44.9154642323984" lon="-1.1835543023748478"><ele>19.0</ele><time>2026-04-12T15:45:25.999Z</time></trkpt><trkpt lat="44.915450822481276" lon="-1.1833960254983988"><ele>19.0</ele><time>2026-04-12T15:45:26.999Z</time></trkpt><trkpt lat="44.91544487038943" lon="-1.1832916233037276"><ele>19.0</ele><time>2026-04-12T15:45:27.999Z</time></trkpt><trkpt lat="44.91544009990183" lon="-1.183188135434317"><ele>19.0</ele><time>2026-04-12T15:45:28.999Z</time></trkpt><trkpt lat="44.91542654809979" lon="-1.183064312829101"><ele>19.666666666666664</ele><time>2026-04-12T15:45:30.999Z</time></trkpt><trkpt lat="44.91540073575636" lon="-1.1829221105037788"><ele>20.333333333333332</ele><time>2026-04-12T15:46:42.998Z</time></trkpt><trkpt lat="44.91538864278654" lon="-1.1828016453758674"><ele>21.0</ele><time>2026-04-12T15:46:43.998Z</time></trkpt><trkpt lat="44.91537544162197" lon="-1.18267289255452"><ele>21.666666666666668</ele><time>2026-04-12T15:46:44.998Z</time></trkpt><trkpt lat="44.91536103910491" lon="-1.1825676472943016"><ele>22.333333333333336</ele><time>2026-04-12T15:46:45.998Z</time></trkpt><trkpt lat="44.915364136964094" lon="-1.182452960177883"><ele>23.0</ele><time>2026-04-12T15:46:46.998Z</time></trkpt><trkpt lat="44.915361895386724" lon="-1.182333830047074"><ele>23.599999999999998</ele><time>2026-04-12T15:46:47.998Z</time></trkpt><trkpt lat="44.91536590311423" lon="-1.1821999332189534"><ele>24.2</ele><time>2026-04-12T15:46:48.998Z</time></trkpt><trkpt lat="44.915350982345046" lon="-1.1820613895889514"><ele>24.8</ele><time>2026-04-12T15:46:49.998Z</time></trkpt><trkpt lat="44.91533253365006" lon="-1.1819590826641293"><ele>25.4</ele><time>2026-04-12T15:46:50.998Z</time></trkpt><trkpt lat="44.91532030661397" lon="-1.1817990885097978"><ele>26.0</ele><time>2026-04-12T15:46:51.997Z</time></trkpt><trkpt lat="44.91531283830386" lon="-1.1816690585573306"><ele>25.999999999999996</ele><time>2026-04-12T15:46:52.997Z</time></trkpt><trkpt lat="44.91530051489805" lon="-1.1815704545326953"><ele>26.0</ele><time>2026-04-12T15:46:53.997Z</time></trkpt><trkpt lat="44.91529924127238" lon="-1.1814754502042946"><ele>26.0</ele><time>2026-04-12T15:46:54.997Z</time></trkpt><trkpt lat="44.91528554797731" lon="-1.181319240826717"><ele>26.0</ele><time>2026-04-12T15:46:56.997Z</time></trkpt><trkpt lat="44.915277291322674" lon="-1.1811976320284723"><ele>25.999999999999996</ele><time>2026-04-12T15:46:57.997Z</time></trkpt><trkpt lat="44.91526813054943" lon="-1.1810895611065038"><ele>26.0</ele><time>2026-04-12T15:46:58.997Z</time></trkpt><trkpt lat="44.915255092117285" lon="-1.1809482207789246"><ele>25.666666666666664</ele><time>2026-04-12T15:46:59.997Z</time></trkpt><trkpt lat="44.915252960492474" lon="-1.1808442582956749"><ele>25.333333333333332</ele><time>2026-04-12T15:47:00.997Z</time></trkpt><trkpt lat="44.91524325264298" lon="-1.1807103084906534"><ele>25.0</ele><time>2026-04-12T15:47:02Z</time></trkpt><trkpt lat="44.91524057515339" lon="-1.1806150707714302"><ele>24.666666666666664</ele><time>2026-04-12T15:47:03Z</time></trkpt><trkpt lat="44.915238201755514" lon="-1.180519094736711"><ele>24.333333333333332</ele><time>2026-04-12T15:47:04Z</time></trkpt><trkpt lat="44.91522877075736" lon="-1.180391646505211"><ele>24.0</ele><time>2026-04-12T15:47:06Z</time></trkpt><trkpt lat="44.915218521028" lon="-1.1802380777751535"><ele>22.8</ele><time>2026-04-12T15:47:08Z</time></trkpt><trkpt lat="44.915209852624145" lon="-1.18012846688466"><ele>21.599999999999998</ele><time>2026-04-12T15:47:09Z</time></trkpt><trkpt lat="44.915198863622415" lon="-1.180020313453604"><ele>20.4</ele><time>2026-04-12T15:47:10Z</time></trkpt><trkpt lat="44.91519467404653" lon="-1.1798968461727388"><ele>19.2</ele><time>2026-04-12T15:47:12Z</time></trkpt><trkpt lat="44.91518728246704" lon="-1.1797777899808446"><ele>18.0</ele><time>2026-04-12T15:47:14Z</time></trkpt><trkpt lat="44.91516823332235" lon="-1.1796036205294644"><ele>17.75</ele><time>2026-04-12T15:47:15.999Z</time></trkpt><trkpt lat="44.91514698062265" lon="-1.1794119606171296"><ele>17.5</ele><time>2026-04-12T15:47:17.999Z</time></trkpt><trkpt lat="44.915134545850755" lon="-1.1792755551817253"><ele>17.25</ele><time>2026-04-12T15:47:18.999Z</time></trkpt><trkpt lat="44.91511647204853" lon="-1.1791024126310954"><ele>17.0</ele><time>2026-04-12T15:47:19.999Z</time></trkpt><trkpt lat="44.9151165276443" lon="-1.1789671078735033"><ele>16.833333333333336</ele><time>2026-04-12T15:47:20.999Z</time></trkpt><trkpt lat="44.91509996215466" lon="-1.178864392469153"><ele>16.666666666666668</ele><time>2026-04-12T15:47:21.999Z</time></trkpt><trkpt lat="44.9150706894966" lon="-1.1787590476968999"><ele>16.5</ele><time>2026-04-12T15:47:23.999Z</time></trkpt><trkpt lat="44.91501190067606" lon="-1.1787102028134466"><ele>16.333333333333332</ele><time>2026-04-12T15:47:24.999Z</time></trkpt><trkpt lat="44.914930037643096" lon="-1.178718890073527"><ele>16.166666666666664</ele><time>2026-04-12T15:47:26.999Z</time></trkpt><trkpt lat="44.914858458910054" lon="-1.178767202065967"><ele>16.0</ele><time>2026-04-12T15:47:30.999Z</time></trkpt><trkpt lat="44.91478694127075" lon="-1.178779572947245"><ele>16.5</ele><time>2026-04-12T15:47:31.999Z</time></trkpt><trkpt lat="44.91472352444324" lon="-1.1787846303571503"><ele>17.0</ele><time>2026-04-12T15:47:32.999Z</time></trkpt><trkpt lat="44.914622719557414" lon="-1.1787440868809766"><ele>17.5</ele><time>2026-04-12T15:47:34.999Z</time></trkpt><trkpt lat="44.91455472187046" lon="-1.1787649760467276"><ele>18.0</ele><time>2026-04-12T15:47:37.999Z</time></trkpt><trkpt lat="44.914601649501044" lon="-1.1788980652595449"><ele>18.5</ele><time>2026-04-12T15:47:40.999Z</time></trkpt><trkpt lat="44.91462280313629" lon="-1.1789990505521388"><ele>19.0</ele><time>2026-04-12T15:47:41.999Z</time></trkpt><trkpt lat="44.91463124988678" lon="-1.1791248786085047"><ele>19.0</ele><time>2026-04-12T15:47:42.999Z</time></trkpt><trkpt lat="44.91464367417633" lon="-1.1793115726334296"><ele>19.0</ele><time>2026-04-12T15:47:43.999Z</time></trkpt><trkpt lat="44.91464411660174" lon="-1.179425145764029"><ele>19.0</ele><time>2026-04-12T15:47:44.999Z</time></trkpt><trkpt lat="44.91464884534117" lon="-1.1795235351007227"><ele>19.0</ele><time>2026-04-12T15:47:46.999Z</time></trkpt><trkpt lat="44.91464258950731" lon="-1.1796370743353857"><ele>19.0</ele><time>2026-04-12T15:47:48.999Z</time></trkpt><trkpt lat="44.91464283300571" lon="-1.1797525214476203"><ele>19.0</ele><time>2026-04-12T15:47:50.999Z</time></trkpt><trkpt lat="44.914656467272685" lon="-1.179908905994074"><ele>18.8</ele><time>2026-04-12T15:47:52.999Z</time></trkpt><trkpt lat="44.914662194389294" lon="-1.180063707700039"><ele>18.599999999999998</ele><time>2026-04-12T15:47:53.999Z</time></trkpt><trkpt lat="44.91466574662124" lon="-1.1801828052843657"><ele>18.4</ele><time>2026-04-12T15:47:54.999Z</time></trkpt><trkpt lat="44.91466767581381" lon="-1.1803498338055174"><ele>18.2</ele><time>2026-04-12T15:47:55.999Z</time></trkpt><trkpt lat="44.91467477574834" lon="-1.1805189099670712"><ele>18.0</ele><time>2026-04-12T15:47:56.999Z</time></trkpt><trkpt lat="44.914695115540404" lon="-1.18070204847479"><ele>17.833333333333332</ele><time>2026-04-12T15:47:58.999Z</time></trkpt><trkpt lat="44.91469752564794" lon="-1.1807914907440948"><ele>17.666666666666668</ele><time>2026-04-12T15:47:59.999Z</time></trkpt><trkpt lat="44.914695535977124" lon="-1.1809365313200675"><ele>17.5</ele><time>2026-04-12T15:48:01.998Z</time></trkpt><trkpt lat="44.91470599488895" lon="-1.1810433584133844"><ele>17.333333333333336</ele><time>2026-04-12T15:48:03.998Z</time></trkpt><trkpt lat="44.914626296612326" lon="-1.181115422006376"><ele>17.166666666666668</ele><time>2026-04-12T15:48:18.998Z</time></trkpt><trkpt lat="44.914538527494784" lon="-1.181214416092528"><ele>17.0</ele><time>2026-04-12T15:48:20.998Z</time></trkpt><trkpt lat="44.91449449463234" lon="-1.1813214623491832"><ele>17.0</ele><time>2026-04-12T15:48:21.998Z</time></trkpt><trkpt lat="44.91444824227682" lon="-1.1814485118474216"><ele>17.0</ele><time>2026-04-12T15:48:22.998Z</time></trkpt><trkpt lat="44.9143873277184" lon="-1.181575274159478"><ele>17.0</ele><time>2026-04-12T15:48:23.998Z</time></trkpt><trkpt lat="44.91429651290565" lon="-1.1816921792929753"><ele>17.0</ele><time>2026-04-12T15:48:25.998Z</time></trkpt><trkpt lat="44.914263916797275" lon="-1.1818533403767524"><ele>16.833333333333336</ele><time>2026-04-12T15:48:28.998Z</time></trkpt><trkpt lat="44.9142080909309" lon="-1.1819231026948371"><ele>16.666666666666668</ele><time>2026-04-12T15:48:29.998Z</time></trkpt><trkpt lat="44.91413376218962" lon="-1.1820358112699607"><ele>16.5</ele><time>2026-04-12T15:48:31.998Z</time></trkpt><trkpt lat="44.91405677743292" lon="-1.1820625576356854"><ele>16.333333333333332</ele><time>2026-04-12T15:48:33.998Z</time></trkpt><trkpt lat="44.913991928344615" lon="-1.1820258846774279"><ele>16.166666666666664</ele><time>2026-04-12T15:48:36.998Z</time></trkpt><trkpt lat="44.91391612696444" lon="-1.1819891102582634"><ele>16.0</ele><time>2026-04-12T15:48:39.998Z</time></trkpt><trkpt lat="44.91382899747844" lon="-1.1821279169903198"><ele>16.0</ele><time>2026-04-12T15:48:42.998Z</time></trkpt><trkpt lat="44.913765690668036" lon="-1.1822092970715201"><ele>16.0</ele><time>2026-04-12T15:48:43.998Z</time></trkpt><trkpt lat="44.91370016093299" lon="-1.1823440198515565"><ele>16.0</ele><time>2026-04-12T15:48:44.998Z</time></trkpt><trkpt lat="44.91361528911111" lon="-1.1825082557583764"><ele>16.0</ele><time>2026-04-12T15:48:45.998Z</time></trkpt><trkpt lat="44.9135239137515" lon="-1.1826540311271514"><ele>16.6</ele><time>2026-04-12T15:48:46.998Z</time></trkpt><trkpt lat="44.913462901772945" lon="-1.1827657428742298"><ele>17.200000000000003</ele><time>2026-04-12T15:48:47.998Z</time></trkpt><trkpt lat="44.91339116395902" lon="-1.1829056204593238"><ele>17.799999999999997</ele><time>2026-04-12T15:48:48.997Z</time></trkpt><trkpt lat="44.91331554160384" lon="-1.1830089474397707"><ele>18.4</ele><time>2026-04-12T15:48:49.997Z</time></trkpt><trkpt lat="44.91322223710755" lon="-1.1830665294144913"><ele>19.0</ele><time>2026-04-12T15:48:50.997Z</time></trkpt><trkpt lat="44.91311679365597" lon="-1.1831520801345567"><ele>18.25</ele><time>2026-04-12T15:48:51.997Z</time></trkpt><trkpt lat="44.91299782804626" lon="-1.183247809123667"><ele>17.5</ele><time>2026-04-12T15:48:52.997Z</time></trkpt><trkpt lat="44.91288146759762" lon="-1.1833542275957283"><ele>16.75</ele><time>2026-04-12T15:48:53.997Z</time></trkpt><trkpt lat="44.91277505993588" lon="-1.1834606070838638"><ele>16.0</ele><time>2026-04-12T15:48:54.997Z</time></trkpt><trkpt lat="44.91263762150249" lon="-1.183571100712284"><ele>16.0</ele><time>2026-04-12T15:48:55.997Z</time></trkpt><trkpt lat="44.91252865311289" lon="-1.1836654348035223"><ele>16.0</ele><time>2026-04-12T15:48:56.997Z</time></trkpt><trkpt lat="44.9124228962101" lon="-1.1837409493551072"><ele>16.0</ele><time>2026-04-12T15:48:57.997Z</time></trkpt><trkpt lat="44.91232927127174" lon="-1.183759740304106"><ele>16.0</ele><time>2026-04-12T15:48:58.997Z</time></trkpt><trkpt lat="44.912256563098666" lon="-1.1837765191087055"><ele>16.0</ele><time>2026-04-12T15:48:59.997Z</time></trkpt><trkpt lat="44.91219028276884" lon="-1.1838394678939734"><ele>15.999999999999998</ele><time>2026-04-12T15:49:01.997Z</time></trkpt><trkpt lat="44.912157570644226" lon="-1.1839190794960626"><ele>16.0</ele><time>2026-04-12T15:49:04.997Z</time></trkpt><trkpt lat="44.91212048608553" lon="-1.1840027445314858"><ele>16.0</ele><time>2026-04-12T15:49:05.997Z</time></trkpt><trkpt lat="44.91205586497841" lon="-1.1841049094366503"><ele>16.0</ele><time>2026-04-12T15:49:06.997Z</time></trkpt><trkpt lat="44.91197196866486" lon="-1.184232126410286"><ele>15.999999999999998</ele><time>2026-04-12T15:49:07.999Z</time></trkpt><trkpt lat="44.9119249973443" lon="-1.18432726592232"><ele>16.0</ele><time>2026-04-12T15:49:08.999Z</time></trkpt><trkpt lat="44.91189033695688" lon="-1.1844056738093203"><ele>15.999999999999998</ele><time>2026-04-12T15:49:11Z</time></trkpt><trkpt lat="44.91193013321361" lon="-1.1844825510377757"><ele>16.0</ele><time>2026-04-12T15:49:15Z</time></trkpt><trkpt lat="44.91197163072893" lon="-1.184616764395471"><ele>16.0</ele><time>2026-04-12T15:49:18Z</time></trkpt><trkpt lat="44.91197504156899" lon="-1.1847592244619543"><ele>16.0</ele><time>2026-04-12T15:49:19Z</time></trkpt><trkpt lat="44.91197549289024" lon="-1.1848548444232956"><ele>15.999999999999998</ele><time>2026-04-12T15:49:20Z</time></trkpt><trkpt lat="44.91198955509246" lon="-1.1849632602448426"><ele>16.0</ele><time>2026-04-12T15:49:22Z</time></trkpt><trkpt lat="44.9120239589848" lon="-1.18509025646006"><ele>16.400000000000002</ele><time>2026-04-12T15:49:24Z</time></trkpt><trkpt lat="44.91202450180931" lon="-1.185213615452097"><ele>16.8</ele><time>2026-04-12T15:49:25Z</time></trkpt><trkpt lat="44.91202813748679" lon="-1.1853546172813356"><ele>17.200000000000003</ele><time>2026-04-12T15:49:27Z</time></trkpt><trkpt lat="44.91203772965061" lon="-1.1855100459479744"><ele>17.6</ele><time>2026-04-12T15:49:29Z</time></trkpt><trkpt lat="44.91203753239995" lon="-1.1856709815211244"><ele>18.0</ele><time>2026-04-12T15:49:31Z</time></trkpt><trkpt lat="44.91203792044262" lon="-1.1857637416645177"><ele>18.0</ele><time>2026-04-12T15:49:32Z</time></trkpt><trkpt lat="44.91204944764654" lon="-1.1858599338402382"><ele>18.0</ele><time>2026-04-12T15:49:34Z</time></trkpt><trkpt lat="44.91205493453462" lon="-1.1860136810520112"><ele>18.0</ele><time>2026-04-12T15:49:36Z</time></trkpt><trkpt lat="44.91205730822701" lon="-1.18611700701946"><ele>18.0</ele><time>2026-04-12T15:49:37Z</time></trkpt><trkpt lat="44.912087430166146" lon="-1.1862886425735162"><ele>18.0</ele><time>2026-04-12T15:49:39Z</time></trkpt><trkpt lat="44.912111378889115" lon="-1.1864073834762365"><ele>17.5</ele><time>2026-04-12T15:49:40Z</time></trkpt><trkpt lat="44.912113647076154" lon="-1.1865501188562784"><ele>17.0</ele><time>2026-04-12T15:49:41Z</time></trkpt><trkpt lat="44.91211697865457" lon="-1.186654909561995"><ele>16.5</ele><time>2026-04-12T15:49:42Z</time></trkpt><trkpt lat="44.91212197562641" lon="-1.1867774257581998"><ele>16.0</ele><time>2026-04-12T15:49:44Z</time></trkpt><trkpt lat="44.91214324326835" lon="-1.1868948790955263"><ele>15.5</ele><time>2026-04-12T15:49:46Z</time></trkpt><trkpt lat="44.91213844989034" lon="-1.186987573366948"><ele>15.0</ele><time>2026-04-12T15:49:47Z</time></trkpt><trkpt lat="44.912128351196394" lon="-1.1871396878909306"><ele>15.0</ele><time>2026-04-12T15:49:49Z</time></trkpt><trkpt lat="44.912108983187515" lon="-1.1872377402315588"><ele>15.0</ele><time>2026-04-12T15:50:07Z</time></trkpt><trkpt lat="44.91199844689921" lon="-1.1871613845036177"><ele>15.0</ele><time>2026-04-12T15:50:09.999Z</time></trkpt><trkpt lat="44.911876698234984" lon="-1.1871690294750756"><ele>15.0</ele><time>2026-04-12T15:50:11.999Z</time></trkpt><trkpt lat="44.91181313079166" lon="-1.1871879945074941"><ele>15.0</ele><time>2026-04-12T15:50:12.999Z</time></trkpt><trkpt lat="44.91174628506836" lon="-1.1872171296695424"><ele>15.0</ele><time>2026-04-12T15:50:13.999Z</time></trkpt><trkpt lat="44.91166807662732" lon="-1.1872196410232703"><ele>15.0</ele><time>2026-04-12T15:50:15.999Z</time></trkpt><trkpt lat="44.91159171427743" lon="-1.1871870502797477"><ele>15.0</ele><time>2026-04-12T15:50:16.999Z</time></trkpt><trkpt lat="44.91152865413765" lon="-1.187131146134642"><ele>15.0</ele><time>2026-04-12T15:50:17.999Z</time></trkpt><trkpt lat="44.911461704730115" lon="-1.1871013698782822"><ele>15.0</ele><time>2026-04-12T15:50:19.999Z</time></trkpt><trkpt lat="44.911336776318926" lon="-1.1870398642649518"><ele>15.0</ele><time>2026-04-12T15:50:43.999Z</time></trkpt><trkpt lat="44.91121753261827" lon="-1.186960027522236"><ele>15.0</ele><time>2026-04-12T15:50:45.999Z</time></trkpt><trkpt lat="44.91112719863441" lon="-1.1869006205440034"><ele>15.0</ele><time>2026-04-12T15:50:47.999Z</time></trkpt><trkpt lat="44.91107417367093" lon="-1.1867669171421336"><ele>15.0</ele><time>2026-04-12T15:50:49.999Z</time></trkpt><trkpt lat="44.9110267037821" lon="-1.1866824978913049"><ele>15.0</ele><time>2026-04-12T15:50:51.999Z</time></trkpt><trkpt lat="44.911041173456645" lon="-1.1864746457448663"><ele>15.0</ele><time>2026-04-12T15:50:53.999Z</time></trkpt><trkpt lat="44.91102966256898" lon="-1.1863678181124993"><ele>14.8</ele><time>2026-04-12T15:50:54.998Z</time></trkpt><trkpt lat="44.91102825173175" lon="-1.186276189639923"><ele>14.6</ele><time>2026-04-12T15:50:55.998Z</time></trkpt><trkpt lat="44.91098831630429" lon="-1.1861643693687585"><ele>14.399999999999999</ele><time>2026-04-12T15:50:57.998Z</time></trkpt><trkpt lat="44.911013878535094" lon="-1.185979715721559"><ele>14.2</ele><time>2026-04-12T15:50:59.998Z</time></trkpt><trkpt lat="44.910981982649076" lon="-1.1858277913029565"><ele>14.0</ele><time>2026-04-12T15:51:01.998Z</time></trkpt><trkpt lat="44.91097492039961" lon="-1.1857134367525086"><ele>14.0</ele><time>2026-04-12T15:51:03.998Z</time></trkpt><trkpt lat="44.91096687761842" lon="-1.1856179493533052"><ele>13.999999999999998</ele><time>2026-04-12T15:51:04.998Z</time></trkpt><trkpt lat="44.91096909744962" lon="-1.1854984500657368"><ele>13.999999999999998</ele><time>2026-04-12T15:51:05.998Z</time></trkpt><trkpt lat="44.91096898628039" lon="-1.1853946624787879"><ele>14.0</ele><time>2026-04-12T15:51:06.998Z</time></trkpt><trkpt lat="44.91096077184007" lon="-1.1852789336601715"><ele>14.0</ele><time>2026-04-12T15:51:08.998Z</time></trkpt><trkpt lat="44.910939184623416" lon="-1.185037316093021"><ele>14.0</ele><time>2026-04-12T15:51:10.998Z</time></trkpt><trkpt lat="44.91093587225773" lon="-1.184861046896429"><ele>13.999999999999998</ele><time>2026-04-12T15:51:12.998Z</time></trkpt><trkpt lat="44.91093819375528" lon="-1.1847639289004404"><ele>13.999999999999998</ele><time>2026-04-12T15:51:14Z</time></trkpt><trkpt lat="44.91092016665727" lon="-1.1846489105657438"><ele>14.0</ele><time>2026-04-12T15:51:15Z</time></trkpt><trkpt lat="44.910892947744316" lon="-1.184428750885355"><ele>14.0</ele><time>2026-04-12T15:51:17Z</time></trkpt><trkpt lat="44.9108791428627" lon="-1.1843210705004286"><ele>14.0</ele><time>2026-04-12T15:51:18Z</time></trkpt><trkpt lat="44.910891915766605" lon="-1.1841990199987058"><ele>13.999999999999998</ele><time>2026-04-12T15:51:20Z</time></trkpt><trkpt lat="44.91093581649605" lon="-1.1840682896058181"><ele>13.999999999999998</ele><time>2026-04-12T15:51:30Z</time></trkpt><trkpt lat="44.91090277614462" lon="-1.183949422777787"><ele>14.0</ele><time>2026-04-12T15:51:34Z</time></trkpt><trkpt lat="44.91086639901644" lon="-1.183815710243082"><ele>14.0</ele><time>2026-04-12T15:51:37Z</time></trkpt><trkpt lat="44.91084309541376" lon="-1.183706976836029"><ele>14.500000000000002</ele><time>2026-04-12T15:51:38Z</time></trkpt><trkpt lat="44.91082836616319" lon="-1.1835401499471485"><ele>15.0</ele><time>2026-04-12T15:51:39Z</time></trkpt><trkpt lat="44.91077561760678" lon="-1.183478777817175"><ele>15.5</ele><time>2026-04-12T15:51:40Z</time></trkpt><trkpt lat="44.91070934158729" lon="-1.183441945325025"><ele>16.0</ele><time>2026-04-12T15:51:41Z</time></trkpt><trkpt lat="44.91064158317932" lon="-1.1833777421720295"><ele>16.5</ele><time>2026-04-12T15:51:42Z</time></trkpt><trkpt lat="44.91055811656895" lon="-1.1833427977499162"><ele>17.0</ele><time>2026-04-12T15:51:43Z</time></trkpt><trkpt lat="44.91051036599552" lon="-1.183280504762447"><ele>17.0</ele><time>2026-04-12T15:51:44Z</time></trkpt><trkpt lat="44.910458035660646" lon="-1.1832092508048602"><ele>17.0</ele><time>2026-04-12T15:51:45Z</time></trkpt><trkpt lat="44.91038939356451" lon="-1.1831052053037219"><ele>17.0</ele><time>2026-04-12T15:51:47Z</time></trkpt><trkpt lat="44.910325228182344" lon="-1.1830835594009201"><ele>17.0</ele><time>2026-04-12T15:51:50Z</time></trkpt><trkpt lat="44.91033962347758" lon="-1.1829688708459682"><ele>17.0</ele><time>2026-04-12T15:51:53Z</time></trkpt><trkpt lat="44.91022977298199" lon="-1.1829345213505296"><ele>17.0</ele><time>2026-04-12T15:51:56Z</time></trkpt><trkpt lat="44.91014077202187" lon="-1.1829366666730474"><ele>17.4</ele><time>2026-04-12T15:51:59Z</time></trkpt><trkpt lat="44.91005928504276" lon="-1.1829291898813097"><ele>17.799999999999997</ele><time>2026-04-12T15:52:02Z</time></trkpt><trkpt lat="44.90997136866521" lon="-1.1829269414024817"><ele>18.2</ele><time>2026-04-12T15:52:04Z</time></trkpt><trkpt lat="44.90988139507644" lon="-1.1829505760374857"><ele>18.599999999999998</ele><time>2026-04-12T15:52:06Z</time></trkpt><trkpt lat="44.90977217372746" lon="-1.1829721164252907"><ele>19.0</ele><time>2026-04-12T15:52:09Z</time></trkpt><trkpt lat="44.909685372383166" lon="-1.1830229731365571"><ele>19.0</ele><time>2026-04-12T15:52:10.999Z</time></trkpt><trkpt lat="44.9096147402432" lon="-1.1830646522490524"><ele>19.0</ele><time>2026-04-12T15:52:13.999Z</time></trkpt><trkpt lat="44.909572318260246" lon="-1.183138027853528"><ele>19.0</ele><time>2026-04-12T15:52:16.999Z</time></trkpt><trkpt lat="44.90954862305915" lon="-1.1832446922774116"><ele>19.0</ele><time>2026-04-12T15:52:18.999Z</time></trkpt><trkpt lat="44.90954907296673" lon="-1.1833515862330808"><ele>19.0</ele><time>2026-04-12T15:52:19.999Z</time></trkpt><trkpt lat="44.90952891253386" lon="-1.1834679935897288"><ele>19.0</ele><time>2026-04-12T15:52:20.999Z</time></trkpt><trkpt lat="44.909503512760125" lon="-1.1836038576193189"><ele>19.166666666666664</ele><time>2026-04-12T15:52:21.999Z</time></trkpt><trkpt lat="44.90948959220093" lon="-1.1837056468431686"><ele>19.333333333333332</ele><time>2026-04-12T15:52:22.999Z</time></trkpt><trkpt lat="44.90945968523122" lon="-1.183812855513806"><ele>19.5</ele><time>2026-04-12T15:52:23.999Z</time></trkpt><trkpt lat="44.90945174959952" lon="-1.1839161080479266"><ele>19.666666666666668</ele><time>2026-04-12T15:52:24.999Z</time></trkpt><trkpt lat="44.90946507503096" lon="-1.184011056706767"><ele>19.833333333333336</ele><time>2026-04-12T15:52:28.999Z</time></trkpt><trkpt lat="44.909465476187805" lon="-1.1841665203310885"><ele>20.0</ele><time>2026-04-12T15:52:30.999Z</time></trkpt><trkpt lat="44.90946547742105" lon="-1.1842936938819923"><ele>20.0</ele><time>2026-04-12T15:52:53.999Z</time></trkpt><trkpt lat="44.90946493847281" lon="-1.184478031290714"><ele>20.0</ele><time>2026-04-12T15:52:55.999Z</time></trkpt><trkpt lat="44.909435970201436" lon="-1.18458366324807"><ele>20.0</ele><time>2026-04-12T15:52:56.998Z</time></trkpt><trkpt lat="44.90944553818143" lon="-1.1847218163210833"><ele>20.0</ele><time>2026-04-12T15:52:58.998Z</time></trkpt><trkpt lat="44.909469234082664" lon="-1.1848093695504687"><ele>20.0</ele><time>2026-04-12T15:52:59.998Z</time></trkpt><trkpt lat="44.9094836502342" lon="-1.1849148324775982"><ele>20.0</ele><time>2026-04-12T15:53:00.998Z</time></trkpt><trkpt lat="44.90947010922718" lon="-1.1850044789876466"><ele>20.0</ele><time>2026-04-12T15:53:01.998Z</time></trkpt><trkpt lat="44.9094651474878" lon="-1.185105017792513"><ele>20.0</ele><time>2026-04-12T15:53:03.998Z</time></trkpt><trkpt lat="44.909445657747064" lon="-1.1852848376893086"><ele>20.0</ele><time>2026-04-12T15:53:05.998Z</time></trkpt><trkpt lat="44.909453910560785" lon="-1.1853991639999357"><ele>20.0</ele><time>2026-04-12T15:53:06.998Z</time></trkpt><trkpt lat="44.9094466627188" lon="-1.1855550902889995"><ele>20.0</ele><time>2026-04-12T15:53:08.998Z</time></trkpt><trkpt lat="44.909453020438825" lon="-1.1856779284552315"><ele>20.0</ele><time>2026-04-12T15:53:09.998Z</time></trkpt><trkpt lat="44.909453423191586" lon="-1.1857765014261736"><ele>20.0</ele><time>2026-04-12T15:53:10.998Z</time></trkpt><trkpt lat="44.909466479420686" lon="-1.1859761895519756"><ele>20.0</ele><time>2026-04-12T15:53:12.998Z</time></trkpt><trkpt lat="44.909461567034135" lon="-1.186112519891399"><ele>20.0</ele><time>2026-04-12T15:53:13.998Z</time></trkpt><trkpt lat="44.90946357622832" lon="-1.1862672103818184"><ele>18.8</ele><time>2026-04-12T15:53:14.998Z</time></trkpt><trkpt lat="44.90946592845009" lon="-1.186374589347946"><ele>17.6</ele><time>2026-04-12T15:53:15.998Z</time></trkpt><trkpt lat="44.909459829765844" lon="-1.1865469807016589"><ele>16.4</ele><time>2026-04-12T15:53:16.998Z</time></trkpt><trkpt lat="44.90945070172213" lon="-1.1867040509559659"><ele>15.2</ele><time>2026-04-12T15:53:17.998Z</time></trkpt><trkpt lat="44.90945361055231" lon="-1.1868452317163756"><ele>14.0</ele><time>2026-04-12T15:53:18.998Z</time></trkpt><trkpt lat="44.90945356256794" lon="-1.1869785171144427"><ele>13.833333333333334</ele><time>2026-04-12T15:53:20Z</time></trkpt><trkpt lat="44.90944645050505" lon="-1.187079497949483"><ele>13.666666666666668</ele><time>2026-04-12T15:53:21Z</time></trkpt><trkpt lat="44.90943213092914" lon="-1.1872112581997152"><ele>13.5</ele><time>2026-04-12T15:53:23Z</time></trkpt><trkpt lat="44.90944094844598" lon="-1.1873039064849054"><ele>13.333333333333332</ele><time>2026-04-12T15:53:24Z</time></trkpt><trkpt lat="44.90945028815613" lon="-1.1874709480202739"><ele>13.166666666666666</ele><time>2026-04-12T15:53:26Z</time></trkpt><trkpt lat="44.90945101268058" lon="-1.1875993643511178"><ele>13.0</ele><time>2026-04-12T15:53:28Z</time></trkpt><trkpt lat="44.90939405564142" lon="-1.1876444940528097"><ele>12.833333333333332</ele><time>2026-04-12T15:53:31Z</time></trkpt><trkpt lat="44.90928689770817" lon="-1.187640319085866"><ele>12.666666666666666</ele><time>2026-04-12T15:53:40Z</time></trkpt><trkpt lat="44.90921224081785" lon="-1.187639843026938"><ele>12.5</ele><time>2026-04-12T15:53:41Z</time></trkpt><trkpt lat="44.90912321155901" lon="-1.1876491155474713"><ele>12.333333333333332</ele><time>2026-04-12T15:53:42Z</time></trkpt><trkpt lat="44.90903639251918" lon="-1.1876672330986264"><ele>12.166666666666666</ele><time>2026-04-12T15:53:43Z</time></trkpt><trkpt lat="44.908962840763735" lon="-1.1876740767222596"><ele>12.0</ele><time>2026-04-12T15:53:44Z</time></trkpt><trkpt lat="44.9088686442984" lon="-1.1876789383966297"><ele>12.0</ele><time>2026-04-12T15:53:45Z</time></trkpt><trkpt lat="44.908776718915014" lon="-1.1876840359394347"><ele>12.0</ele><time>2026-04-12T15:53:46Z</time></trkpt><trkpt lat="44.908682570871676" lon="-1.1876939250082388"><ele>12.0</ele><time>2026-04-12T15:53:47Z</time></trkpt><trkpt lat="44.90857139319479" lon="-1.1877128145055142"><ele>12.0</ele><time>2026-04-12T15:53:48Z</time></trkpt><trkpt lat="44.908454845463005" lon="-1.187728887873008"><ele>12.0</ele><time>2026-04-12T15:53:49Z</time></trkpt><trkpt lat="44.908374733749" lon="-1.18773520508148"><ele>12.666666666666666</ele><time>2026-04-12T15:53:50Z</time></trkpt><trkpt lat="44.908299335605406" lon="-1.1877460284300854"><ele>13.333333333333332</ele><time>2026-04-12T15:53:51Z</time></trkpt><trkpt lat="44.90823005444546" lon="-1.1877507530401104"><ele>14.0</ele><time>2026-04-12T15:53:52Z</time></trkpt><trkpt lat="44.908142763463395" lon="-1.1877606300158245"><ele>14.666666666666666</ele><time>2026-04-12T15:53:53Z</time></trkpt><trkpt lat="44.90806123741384" lon="-1.1877735676840648"><ele>15.333333333333332</ele><time>2026-04-12T15:53:54Z</time></trkpt><trkpt lat="44.90796576766819" lon="-1.1877932065410792"><ele>16.0</ele><time>2026-04-12T15:53:55Z</time></trkpt><trkpt lat="44.907903845507356" lon="-1.1877717213097096"><ele>16.0</ele><time>2026-04-12T15:53:57Z</time></trkpt><trkpt lat="44.907941261573676" lon="-1.1876415029149072"><ele>16.0</ele><time>2026-04-12T15:54:02Z</time></trkpt><trkpt lat="44.90793972589167" lon="-1.1874935524076442"><ele>16.0</ele><time>2026-04-12T15:54:04Z</time></trkpt><trkpt lat="44.907946044110396" lon="-1.1873573791005563"><ele>16.0</ele><time>2026-04-12T15:54:06Z</time></trkpt><trkpt lat="44.907961536694806" lon="-1.187250782598501"><ele>16.0</ele><time>2026-04-12T15:54:08Z</time></trkpt><trkpt lat="44.907966356457706" lon="-1.187145331562513"><ele>15.666666666666666</ele><time>2026-04-12T15:54:10Z</time></trkpt><trkpt lat="44.90795860867566" lon="-1.1870475602354031"><ele>15.333333333333332</ele><time>2026-04-12T15:54:11.999Z</time></trkpt><trkpt lat="44.9079594674076" lon="-1.1869400237613803"><ele>15.0</ele><time>2026-04-12T15:54:13.999Z</time></trkpt><trkpt lat="44.90795714782254" lon="-1.1868307884778333"><ele>14.666666666666668</ele><time>2026-04-12T15:54:15.999Z</time></trkpt><trkpt lat="44.90796645893494" lon="-1.1867318319561102"><ele>14.333333333333334</ele><time>2026-04-12T15:54:17.999Z</time></trkpt><trkpt lat="44.907962462064795" lon="-1.1866113540051193"><ele>14.0</ele><time>2026-04-12T15:54:19.999Z</time></trkpt><trkpt lat="44.907971488450436" lon="-1.1865117988674139"><ele>14.0</ele><time>2026-04-12T15:54:22.999Z</time></trkpt><trkpt lat="44.90797868263293" lon="-1.186403442945798"><ele>14.0</ele><time>2026-04-12T15:54:41.999Z</time></trkpt><trkpt lat="44.907986652337414" lon="-1.1863131234014903"><ele>14.0</ele><time>2026-04-12T15:54:43.999Z</time></trkpt><trkpt lat="44.90798113962664" lon="-1.1862170770492868"><ele>14.0</ele><time>2026-04-12T15:54:46.999Z</time></trkpt><trkpt lat="44.907962219203746" lon="-1.1861194766449605"><ele>14.0</ele><time>2026-04-12T15:56:17.999Z</time></trkpt><trkpt lat="44.90789065967144" lon="-1.1861071191743835"><ele>14.0</ele><time>2026-04-12T15:56:26.999Z</time></trkpt><trkpt lat="44.907825189052055" lon="-1.1861396855555253"><ele>14.0</ele><time>2026-04-12T15:56:27.999Z</time></trkpt><trkpt lat="44.907758463947154" lon="-1.1861973453540544"><ele>14.000000000000002</ele><time>2026-04-12T15:56:28.999Z</time></trkpt><trkpt lat="44.90768893502656" lon="-1.1862824339052453"><ele>14.0</ele><time>2026-04-12T15:56:30.999Z</time></trkpt><trkpt lat="44.90762706957115" lon="-1.1863203807206908"><ele>14.0</ele><time>2026-04-12T15:56:31.999Z</time></trkpt><trkpt lat="44.90756522572728" lon="-1.1863848248383022"><ele>14.0</ele><time>2026-04-12T15:56:33.999Z</time></trkpt><trkpt lat="44.907496437814665" lon="-1.1864316539360982"><ele>14.000000000000002</ele><time>2026-04-12T15:56:36.999Z</time></trkpt><trkpt lat="44.90737332398818" lon="-1.186497836538165"><ele>14.0</ele><time>2026-04-12T15:57:42Z</time></trkpt><trkpt lat="44.907383841227485" lon="-1.186611416974419"><ele>15.500000000000002</ele><time>2026-04-12T15:59:01.998Z</time></trkpt><trkpt lat="44.90734818177475" lon="-1.186701341947924"><ele>17.0</ele><time>2026-04-12T15:59:03.998Z</time></trkpt><trkpt lat="44.90736468448714" lon="-1.1867876381716287"><ele>18.5</ele><time>2026-04-12T15:59:04.998Z</time></trkpt><trkpt lat="44.90736377272652" lon="-1.1869010040252341"><ele>20.0</ele><time>2026-04-12T15:59:07.998Z</time></trkpt><trkpt lat="44.90738356769766" lon="-1.1870632873309346"><ele>21.5</ele><time>2026-04-12T15:59:09.998Z</time></trkpt><trkpt lat="44.907364185225724" lon="-1.187170202949354"><ele>23.0</ele><time>2026-04-12T15:59:11.998Z</time></trkpt><trkpt lat="44.907363532442034" lon="-1.1872998698441264"><ele>23.166666666666668</ele><time>2026-04-12T15:59:13.998Z</time></trkpt><trkpt lat="44.907354770931484" lon="-1.1874361484798892"><ele>23.333333333333336</ele><time>2026-04-12T15:59:16.998Z</time></trkpt><trkpt lat="44.90735158246593" lon="-1.1875300958517183"><ele>23.5</ele><time>2026-04-12T15:59:17.998Z</time></trkpt><trkpt lat="44.907358871638664" lon="-1.1876263242470595"><ele>23.666666666666668</ele><time>2026-04-12T15:59:19.998Z</time></trkpt><trkpt lat="44.90734926523823" lon="-1.1877516996423647"><ele>23.833333333333332</ele><time>2026-04-12T15:59:22.998Z</time></trkpt><trkpt lat="44.90733352058879" lon="-1.1878398295255252"><ele>24.0</ele><time>2026-04-12T15:59:25.998Z</time></trkpt><trkpt lat="44.90726880118576" lon="-1.1878495289546105"><ele>24.0</ele><time>2026-04-12T15:59:32.998Z</time></trkpt><trkpt lat="44.90716169374669" lon="-1.1878727764327173"><ele>24.0</ele><time>2026-04-12T15:59:41Z</time></trkpt><trkpt lat="44.90707424296281" lon="-1.1878808862085612"><ele>24.0</ele><time>2026-04-12T15:59:43Z</time></trkpt><trkpt lat="44.90699734828523" lon="-1.1878913732500591"><ele>24.0</ele><time>2026-04-12T15:59:45Z</time></trkpt><trkpt lat="44.9069213452279" lon="-1.187820690542639"><ele>24.0</ele><time>2026-04-12T15:59:48Z</time></trkpt><trkpt lat="44.90685826471912" lon="-1.1878340930292577"><ele>24.0</ele><time>2026-04-12T15:59:50Z</time></trkpt><trkpt lat="44.90679222463486" lon="-1.1878106139520712"><ele>25.5</ele><time>2026-04-12T15:59:51Z</time></trkpt><trkpt lat="44.906720916805085" lon="-1.18778810976068"><ele>27.0</ele><time>2026-04-12T15:59:53Z</time></trkpt><trkpt lat="44.90665424379978" lon="-1.1877592200377225"><ele>28.5</ele><time>2026-04-12T15:59:55Z</time></trkpt><trkpt lat="44.90657118680408" lon="-1.1876842405852146"><ele>30.0</ele><time>2026-04-12T15:59:57Z</time></trkpt><trkpt lat="44.90649595063376" lon="-1.187669397148693"><ele>31.5</ele><time>2026-04-12T15:59:59Z</time></trkpt><trkpt lat="44.90640135377329" lon="-1.1876697461478696"><ele>33.0</ele><time>2026-04-12T16:00:01Z</time></trkpt><trkpt lat="44.90632612563303" lon="-1.187622845509591"><ele>33.0</ele><time>2026-04-12T16:00:04Z</time></trkpt><trkpt lat="44.90625842790508" lon="-1.1876022801052812"><ele>33.0</ele><time>2026-04-12T16:00:06Z</time></trkpt><trkpt lat="44.90616999724341" lon="-1.1876116301179156"><ele>33.0</ele><time>2026-04-12T16:00:09Z</time></trkpt><trkpt lat="44.9060730516869" lon="-1.1876544626186922"><ele>33.0</ele><time>2026-04-12T16:00:11Z</time></trkpt><trkpt lat="44.90599520945069" lon="-1.1877142084170764"><ele>33.0</ele><time>2026-04-12T16:00:14.999Z</time></trkpt><trkpt lat="44.905914418491555" lon="-1.1877780792417536"><ele>33.0</ele><time>2026-04-12T16:00:16.999Z</time></trkpt><trkpt lat="44.90580603350636" lon="-1.1878008701735074"><ele>33.857142857142854</ele><time>2026-04-12T16:00:18.999Z</time></trkpt><trkpt lat="44.905728944065295" lon="-1.1878349427288142"><ele>34.714285714285715</ele><time>2026-04-12T16:00:22.999Z</time></trkpt><trkpt lat="44.90566211369462" lon="-1.187891685945123"><ele>35.57142857142857</ele><time>2026-04-12T16:00:25.999Z</time></trkpt><trkpt lat="44.90560390383711" lon="-1.1879273157508385"><ele>36.42857142857143</ele><time>2026-04-12T16:00:28.999Z</time></trkpt><trkpt lat="44.90553922565777" lon="-1.1879357182578345"><ele>37.285714285714285</ele><time>2026-04-12T16:00:30.999Z</time></trkpt><trkpt lat="44.90547646440539" lon="-1.1879688794323167"><ele>38.142857142857146</ele><time>2026-04-12T16:00:32.999Z</time></trkpt><trkpt lat="44.9054270253121" lon="-1.1880243304188176"><ele>39.0</ele><time>2026-04-12T16:00:34.999Z</time></trkpt><trkpt lat="44.90533600574552" lon="-1.188076728345983"><ele>39.0</ele><time>2026-04-12T16:00:36.999Z</time></trkpt><trkpt lat="44.90524614479503" lon="-1.1880998283938522"><ele>39.0</ele><time>2026-04-12T16:00:37.999Z</time></trkpt><trkpt lat="44.90513115624181" lon="-1.1881007856722405"><ele>39.0</ele><time>2026-04-12T16:00:38.999Z</time></trkpt><trkpt lat="44.9049896765615" lon="-1.1881188234129336"><ele>39.0</ele><time>2026-04-12T16:00:39.999Z</time></trkpt><trkpt lat="44.9048654192716" lon="-1.188130306686384"><ele>38.166666666666664</ele><time>2026-04-12T16:00:40.999Z</time></trkpt><trkpt lat="44.90478043781293" lon="-1.1881326837204318"><ele>37.333333333333336</ele><time>2026-04-12T16:00:41.999Z</time></trkpt><trkpt lat="44.90471680365458" lon="-1.188132586336127"><ele>36.5</ele><time>2026-04-12T16:00:42.999Z</time></trkpt><trkpt lat="44.90464037135464" lon="-1.1881365394600742"><ele>35.66666666666667</ele><time>2026-04-12T16:03:13.998Z</time></trkpt><trkpt lat="44.90455835782704" lon="-1.1881343741838761"><ele>34.833333333333336</ele><time>2026-04-12T16:03:15.998Z</time></trkpt><trkpt lat="44.90449236330757" lon="-1.1881623107290125"><ele>34.0</ele><time>2026-04-12T16:03:16.998Z</time></trkpt><trkpt lat="44.904377717514286" lon="-1.188221848534647"><ele>33.2</ele><time>2026-04-12T16:03:18.998Z</time></trkpt><trkpt lat="44.90429325544044" lon="-1.1882129348079193"><ele>32.4</ele><time>2026-04-12T16:03:19.998Z</time></trkpt><trkpt lat="44.90418976298962" lon="-1.1882272466392505"><ele>31.6</ele><time>2026-04-12T16:03:20.998Z</time></trkpt><trkpt lat="44.90407410381096" lon="-1.188221477521213"><ele>30.8</ele><time>2026-04-12T16:03:21.998Z</time></trkpt><trkpt lat="44.903939772397976" lon="-1.1882448955044127"><ele>30.0</ele><time>2026-04-12T16:03:22.998Z</time></trkpt><trkpt lat="44.9038405667408" lon="-1.1882715838298301"><ele>29.6</ele><time>2026-04-12T16:03:23.998Z</time></trkpt><trkpt lat="44.90375587081818" lon="-1.1882859612259031"><ele>29.2</ele><time>2026-04-12T16:03:24.998Z</time></trkpt><trkpt lat="44.90363692371666" lon="-1.1882895771860438"><ele>28.799999999999997</ele><time>2026-04-12T16:03:26.998Z</time></trkpt><trkpt lat="44.90354529554462" lon="-1.1882882507485168"><ele>28.4</ele><time>2026-04-12T16:03:28.998Z</time></trkpt><trkpt lat="44.90344647543933" lon="-1.188312374101599"><ele>28.0</ele><time>2026-04-12T16:03:34.998Z</time></trkpt><trkpt lat="44.903368199646906" lon="-1.1883326841202535"><ele>26.799999999999997</ele><time>2026-04-12T16:03:36.998Z</time></trkpt><trkpt lat="44.90327264783294" lon="-1.1883620806840776"><ele>25.599999999999998</ele><time>2026-04-12T16:03:38.998Z</time></trkpt><trkpt lat="44.903164820770876" lon="-1.188340105842518"><ele>24.4</ele><time>2026-04-12T16:03:41.998Z</time></trkpt><trkpt lat="44.90305263701285" lon="-1.1883741775094556"><ele>23.200000000000003</ele><time>2026-04-12T16:03:43.998Z</time></trkpt><trkpt lat="44.9029771930268" lon="-1.1883905528360141"><ele>22.0</ele><time>2026-04-12T16:03:44.998Z</time></trkpt><trkpt lat="44.90289165284983" lon="-1.1883973369796312"><ele>22.0</ele><time>2026-04-12T16:03:45.998Z</time></trkpt><trkpt lat="44.90280515367039" lon="-1.1883975660837212"><ele>22.0</ele><time>2026-04-12T16:03:47Z</time></trkpt><trkpt lat="44.90271881592103" lon="-1.18839981107253"><ele>22.0</ele><time>2026-04-12T16:03:48Z</time></trkpt><trkpt lat="44.90264910493564" lon="-1.188407068382202"><ele>22.0</ele><time>2026-04-12T16:03:49Z</time></trkpt><trkpt lat="44.90257486562735" lon="-1.188438997888518"><ele>22.0</ele><time>2026-04-12T16:03:50Z</time></trkpt><trkpt lat="44.90250373883767" lon="-1.1884429549593878"><ele>22.0</ele><time>2026-04-12T16:03:51Z</time></trkpt><trkpt lat="44.90240284731843" lon="-1.1884583622110256"><ele>20.25</ele><time>2026-04-12T16:03:52Z</time></trkpt><trkpt lat="44.902282285404354" lon="-1.188466420061215"><ele>18.5</ele><time>2026-04-12T16:03:53Z</time></trkpt><trkpt lat="44.902159398599075" lon="-1.1884768476623049"><ele>16.75</ele><time>2026-04-12T16:03:54Z</time></trkpt><trkpt lat="44.90204874229275" lon="-1.1884847228214042"><ele>15.0</ele><time>2026-04-12T16:03:55Z</time></trkpt><trkpt lat="44.90194331949073" lon="-1.1884917654194092"><ele>15.0</ele><time>2026-04-12T16:03:56Z</time></trkpt><trkpt lat="44.90185777480393" lon="-1.1885035906710397"><ele>15.0</ele><time>2026-04-12T16:03:57Z</time></trkpt><trkpt lat="44.90173691691546" lon="-1.1885289730249051"><ele>15.0</ele><time>2026-04-12T16:03:58Z</time></trkpt><trkpt lat="44.901650971097986" lon="-1.1885360722627452"><ele>15.0</ele><time>2026-04-12T16:03:59Z</time></trkpt><trkpt lat="44.90157261966751" lon="-1.1885420266317457"><ele>15.0</ele><time>2026-04-12T16:04:00Z</time></trkpt><trkpt lat="44.90143830051773" lon="-1.1885585095555313"><ele>15.2</ele><time>2026-04-12T16:04:02Z</time></trkpt><trkpt lat="44.901315196086905" lon="-1.1885544130778656"><ele>15.4</ele><time>2026-04-12T16:04:04Z</time></trkpt><trkpt lat="44.901235561379934" lon="-1.1885520520854618"><ele>15.600000000000001</ele><time>2026-04-12T16:04:05Z</time></trkpt><trkpt lat="44.90112346992116" lon="-1.188559440080536"><ele>15.8</ele><time>2026-04-12T16:04:07Z</time></trkpt><trkpt lat="44.9010263861141" lon="-1.1885735810242781"><ele>16.0</ele><time>2026-04-12T16:04:09Z</time></trkpt><trkpt lat="44.900894525393916" lon="-1.1885928432265576"><ele>15.5</ele><time>2026-04-12T16:05:10.998Z</time></trkpt><trkpt lat="44.900772695572996" lon="-1.1886174845147317"><ele>15.0</ele><time>2026-04-12T16:05:11.998Z</time></trkpt><trkpt lat="44.900630018258234" lon="-1.188635925991875"><ele>14.5</ele><time>2026-04-12T16:05:12.998Z</time></trkpt><trkpt lat="44.90046176124223" lon="-1.1886553027198457"><ele>14.0</ele><time>2026-04-12T16:05:13.998Z</time></trkpt><trkpt lat="44.90029873765318" lon="-1.1886810036076765"><ele>14.0</ele><time>2026-04-12T16:05:14.998Z</time></trkpt><trkpt lat="44.90014252658604" lon="-1.1886882926142184"><ele>14.0</ele><time>2026-04-12T16:05:15.998Z</time></trkpt><trkpt lat="44.89996422544482" lon="-1.1887064201961026"><ele>14.0</ele><time>2026-04-12T16:05:16.998Z</time></trkpt><trkpt lat="44.899789186586695" lon="-1.1887339593333326"><ele>14.0</ele><time>2026-04-12T16:05:17.998Z</time></trkpt><trkpt lat="44.899632689274966" lon="-1.1887561265791746"><ele>14.0</ele><time>2026-04-12T16:05:18.998Z</time></trkpt><trkpt lat="44.89950738619971" lon="-1.1887659163020092"><ele>14.0</ele><time>2026-04-12T16:05:19.998Z</time></trkpt><trkpt lat="44.899237180579505" lon="-1.1887931223244164"><ele>14.0</ele><time>2026-04-12T16:05:20.998Z</time></trkpt><trkpt lat="44.899057602078976" lon="-1.1888117355601668"><ele>14.0</ele><time>2026-04-12T16:05:21.998Z</time></trkpt><trkpt lat="44.89887442584336" lon="-1.1888293022701513"><ele>14.0</ele><time>2026-04-12T16:05:22.998Z</time></trkpt><trkpt lat="44.898696783416476" lon="-1.1888466487385718"><ele>14.0</ele><time>2026-04-12T16:05:23.998Z</time></trkpt><trkpt lat="44.89853356603157" lon="-1.1888667125361159"><ele>14.0</ele><time>2026-04-12T16:05:24.998Z</time></trkpt><trkpt lat="44.89837417799573" lon="-1.1888802714376243"><ele>14.0</ele><time>2026-04-12T16:05:25.998Z</time></trkpt><trkpt lat="44.898243671004785" lon="-1.1889063716691735"><ele>14.000000000000002</ele><time>2026-04-12T16:05:26.998Z</time></trkpt><trkpt lat="44.89812939717296" lon="-1.188917481245288"><ele>14.0</ele><time>2026-04-12T16:05:27.998Z</time></trkpt><trkpt lat="44.89804077083016" lon="-1.188931432090865"><ele>14.0</ele><time>2026-04-12T16:05:28.998Z</time></trkpt><trkpt lat="44.897964865505294" lon="-1.1889461597460347"><ele>14.0</ele><time>2026-04-12T16:05:29.998Z</time></trkpt><trkpt lat="44.897867065340854" lon="-1.1889431284434187"><ele>14.000000000000002</ele><time>2026-04-12T16:05:30.998Z</time></trkpt><trkpt lat="44.89780293061035" lon="-1.1889502160630456"><ele>14.0</ele><time>2026-04-12T16:05:31.998Z</time></trkpt><trkpt lat="44.89774730644378" lon="-1.189002653561844"><ele>13.799999999999999</ele><time>2026-04-12T16:05:33.998Z</time></trkpt><trkpt lat="44.897753774489935" lon="-1.1891060196380439"><ele>13.599999999999998</ele><time>2026-04-12T16:05:34.998Z</time></trkpt><trkpt lat="44.89778550324588" lon="-1.1892255497261428"><ele>13.4</ele><time>2026-04-12T16:05:35.998Z</time></trkpt><trkpt lat="44.89780478144094" lon="-1.1893738955686235"><ele>13.2</ele><time>2026-04-12T16:05:36.998Z</time></trkpt><trkpt lat="44.8978148631056" lon="-1.189550650520266"><ele>13.0</ele><time>2026-04-12T16:05:37.998Z</time></trkpt><trkpt lat="44.897826151953396" lon="-1.1897527486859636"><ele>12.333333333333332</ele><time>2026-04-12T16:05:38.998Z</time></trkpt><trkpt lat="44.89785097836415" lon="-1.1899909514749043"><ele>11.666666666666666</ele><time>2026-04-12T16:05:39.998Z</time></trkpt><trkpt lat="44.897872485224994" lon="-1.1902549736187145"><ele>11.0</ele><time>2026-04-12T16:05:40.998Z</time></trkpt><trkpt lat="44.89788842909041" lon="-1.1904688489432949"><ele>11.333333333333332</ele><time>2026-04-12T16:05:41.998Z</time></trkpt><trkpt lat="44.89790346987187" lon="-1.190687346974478"><ele>11.666666666666666</ele><time>2026-04-12T16:05:42.998Z</time></trkpt><trkpt lat="44.897923846938376" lon="-1.1909183611634175"><ele>12.0</ele><time>2026-04-12T16:05:43.998Z</time></trkpt><trkpt lat="44.89793631720271" lon="-1.1911131222172613"><ele>12.0</ele><time>2026-04-12T16:05:44.998Z</time></trkpt><trkpt lat="44.89794544278836" lon="-1.1912715280657347"><ele>12.0</ele><time>2026-04-12T16:05:45.998Z</time></trkpt><trkpt lat="44.897954454630806" lon="-1.1914010931172565"><ele>12.0</ele><time>2026-04-12T16:05:46.998Z</time></trkpt><trkpt lat="44.89797825644354" lon="-1.1915680929444017"><ele>12.0</ele><time>2026-04-12T16:05:47.998Z</time></trkpt><trkpt lat="44.89799284302404" lon="-1.1917199417841142"><ele>12.0</ele><time>2026-04-12T16:05:48.998Z</time></trkpt><trkpt lat="44.89800680629717" lon="-1.1918568997521701"><ele>12.6</ele><time>2026-04-12T16:05:49.998Z</time></trkpt><trkpt lat="44.89803649342836" lon="-1.1919987513401156"><ele>13.2</ele><time>2026-04-12T16:05:50.998Z</time></trkpt><trkpt lat="44.89804786691561" lon="-1.1920977722270165"><ele>13.8</ele><time>2026-04-12T16:05:52Z</time></trkpt><trkpt lat="44.898023603764585" lon="-1.192209399032745"><ele>14.4</ele><time>2026-04-12T16:05:55Z</time></trkpt><trkpt lat="44.89805942912451" lon="-1.1923737985853522"><ele>15.0</ele><time>2026-04-12T16:05:57Z</time></trkpt><trkpt lat="44.89807256818467" lon="-1.1924812971506529"><ele>15.0</ele><time>2026-04-12T16:05:59Z</time></trkpt><trkpt lat="44.89803442291143" lon="-1.1925589983711138"><ele>15.0</ele><time>2026-04-12T16:06:01Z</time></trkpt><trkpt lat="44.89800202890749" lon="-1.192418438652157"><ele>15.0</ele><time>2026-04-12T16:06:03Z</time></trkpt><trkpt lat="44.89804216883129" lon="-1.1923059894715848"><ele>15.0</ele><time>2026-04-12T16:06:06Z</time></trkpt><trkpt lat="44.89808924518907" lon="-1.192235017309244"><ele>15.0</ele><time>2026-04-12T16:06:08Z</time></trkpt><trkpt lat="44.898063774425076" lon="-1.1923691240747063"><ele>15.0</ele><time>2026-04-12T16:06:37.999Z</time></trkpt><trkpt lat="44.89808289936003" lon="-1.1925205023849177"><ele>16.2</ele><time>2026-04-12T16:06:39.999Z</time></trkpt><trkpt lat="44.89807958041032" lon="-1.1926139198242114"><ele>17.4</ele><time>2026-04-12T16:06:40.999Z</time></trkpt><trkpt lat="44.89808289326125" lon="-1.1927487245251818"><ele>18.6</ele><time>2026-04-12T16:06:41.999Z</time></trkpt><trkpt lat="44.89808681401431" lon="-1.1928862724996512"><ele>19.8</ele><time>2026-04-12T16:06:42.999Z</time></trkpt><trkpt lat="44.898098575630044" lon="-1.1930636139861932"><ele>21.0</ele><time>2026-04-12T16:06:43.999Z</time></trkpt><trkpt lat="44.89810961249646" lon="-1.1931746750367127"><ele>21.0</ele><time>2026-04-12T16:06:44.999Z</time></trkpt><trkpt lat="44.89805910110323" lon="-1.1931053907179359"><ele>21.0</ele><time>2026-04-12T16:06:47.999Z</time></trkpt><trkpt lat="44.898043421128946" lon="-1.193001405172798"><ele>21.0</ele><time>2026-04-12T16:06:58.999Z</time></trkpt><trkpt lat="44.89804147990536" lon="-1.1928975948422935"><ele>21.0</ele><time>2026-04-12T16:07:00.999Z</time></trkpt><trkpt lat="44.898084855737366" lon="-1.1928317726154392"><ele>21.0</ele><time>2026-04-12T16:07:09.999Z</time></trkpt><trkpt lat="44.89810691323371" lon="-1.1930245595905813"><ele>21.0</ele><time>2026-04-12T16:07:12.998Z</time></trkpt><trkpt lat="44.8980917561378" lon="-1.1931425324332678"><ele>21.0</ele><time>2026-04-12T16:07:13.998Z</time></trkpt><trkpt lat="44.89810740742283" lon="-1.1932796662115468"><ele>21.0</ele><time>2026-04-12T16:07:14.998Z</time></trkpt><trkpt lat="44.89811456879349" lon="-1.1933707887694538"><ele>21.0</ele><time>2026-04-12T16:07:15.998Z</time></trkpt><trkpt lat="44.89813293169353" lon="-1.1934841644598286"><ele>21.0</ele><time>2026-04-12T16:07:16.998Z</time></trkpt><trkpt lat="44.8981374801116" lon="-1.1936208929663177"><ele>21.0</ele><time>2026-04-12T16:07:17.998Z</time></trkpt><trkpt lat="44.89814887302564" lon="-1.1937619973539484"><ele>21.0</ele><time>2026-04-12T16:07:18.998Z</time></trkpt><trkpt lat="44.89816502750453" lon="-1.1939416336989117"><ele>20.0</ele><time>2026-04-12T16:07:19.998Z</time></trkpt><trkpt lat="44.89818949105204" lon="-1.194174533832834"><ele>19.0</ele><time>2026-04-12T16:07:20.998Z</time></trkpt><trkpt lat="44.898200401659274" lon="-1.1943658198413198"><ele>18.0</ele><time>2026-04-12T16:07:21.998Z</time></trkpt><trkpt lat="44.89820282898041" lon="-1.194562646416267"><ele>17.0</ele><time>2026-04-12T16:07:22.998Z</time></trkpt><trkpt lat="44.898215119503035" lon="-1.1947233500129375"><ele>16.0</ele><time>2026-04-12T16:07:23.998Z</time></trkpt><trkpt lat="44.89823437401236" lon="-1.1948870613713576"><ele>15.0</ele><time>2026-04-12T16:07:24.998Z</time></trkpt><trkpt lat="44.89824390838806" lon="-1.1950808977699932"><ele>14.0</ele><time>2026-04-12T16:07:25.998Z</time></trkpt><trkpt lat="44.89827186210589" lon="-1.1952945964557051"><ele>13.0</ele><time>2026-04-12T16:07:26.998Z</time></trkpt><trkpt lat="44.89829292835221" lon="-1.1955183030526637"><ele>12.333333333333332</ele><time>2026-04-12T16:07:27.998Z</time></trkpt><trkpt lat="44.89831904134721" lon="-1.1957923109441042"><ele>11.666666666666666</ele><time>2026-04-12T16:07:28.998Z</time></trkpt><trkpt lat="44.89834448057277" lon="-1.1961340145265837"><ele>11.0</ele><time>2026-04-12T16:07:29.998Z</time></trkpt><trkpt lat="44.89837131963119" lon="-1.1964509893398043"><ele>11.0</ele><time>2026-04-12T16:07:30.998Z</time></trkpt><trkpt lat="44.89839722013755" lon="-1.196765099466996"><ele>11.0</ele><time>2026-04-12T16:07:31.998Z</time></trkpt><trkpt lat="44.89842146955367" lon="-1.1972123694575856"><ele>12.5</ele><time>2026-04-12T16:07:32.998Z</time></trkpt><trkpt lat="44.898446696249344" lon="-1.1975678341242968"><ele>14.0</ele><time>2026-04-12T16:07:33.998Z</time></trkpt><trkpt lat="44.89847935652234" lon="-1.1979183053737468"><ele>14.5</ele><time>2026-04-12T16:07:34.998Z</time></trkpt><trkpt lat="44.89850518834002" lon="-1.1982898338605499"><ele>15.0</ele><time>2026-04-12T16:07:35.998Z</time></trkpt><trkpt lat="44.8985294673207" lon="-1.19867538255736"><ele>15.0</ele><time>2026-04-12T16:07:36.998Z</time></trkpt><trkpt lat="44.89855485228607" lon="-1.1989782346777877"><ele>15.0</ele><time>2026-04-12T16:07:37.998Z</time></trkpt><trkpt lat="44.89857580430327" lon="-1.1992059832389363"><ele>15.0</ele><time>2026-04-12T16:07:38.998Z</time></trkpt><trkpt lat="44.8985998672512" lon="-1.1994551311495492"><ele>14.333333333333332</ele><time>2026-04-12T16:07:39.998Z</time></trkpt><trkpt lat="44.898600828073505" lon="-1.1997605427256377"><ele>13.666666666666666</ele><time>2026-04-12T16:07:40.998Z</time></trkpt><trkpt lat="44.89861438956479" lon="-1.2000331488766505"><ele>13.0</ele><time>2026-04-12T16:07:41.998Z</time></trkpt><trkpt lat="44.898638041851285" lon="-1.2002457828584239"><ele>12.666666666666666</ele><time>2026-04-12T16:07:42.998Z</time></trkpt><trkpt lat="44.898670169412526" lon="-1.2004464163732114"><ele>12.333333333333332</ele><time>2026-04-12T16:07:43.998Z</time></trkpt><trkpt lat="44.89866957463895" lon="-1.2006794085882917"><ele>12.0</ele><time>2026-04-12T16:07:44.998Z</time></trkpt><trkpt lat="44.898670918426006" lon="-1.200881905978016"><ele>12.0</ele><time>2026-04-12T16:07:45.998Z</time></trkpt><trkpt lat="44.89869771338678" lon="-1.2010329070854406"><ele>12.0</ele><time>2026-04-12T16:07:46.998Z</time></trkpt><trkpt lat="44.89869652519522" lon="-1.2011700796343954"><ele>12.0</ele><time>2026-04-12T16:07:47.998Z</time></trkpt><trkpt lat="44.89867667564554" lon="-1.2013150051180324"><ele>12.0</ele><time>2026-04-12T16:07:48.998Z</time></trkpt><trkpt lat="44.89870006292396" lon="-1.2015092353844505"><ele>11.666666666666666</ele><time>2026-04-12T16:07:49.998Z</time></trkpt><trkpt lat="44.89874549685087" lon="-1.2017522558873346"><ele>11.333333333333332</ele><time>2026-04-12T16:07:50.998Z</time></trkpt><trkpt lat="44.89878288428475" lon="-1.2019576269409726"><ele>11.0</ele><time>2026-04-12T16:07:51.998Z</time></trkpt><trkpt lat="44.89880030161854" lon="-1.2021822993976263"><ele>10.5</ele><time>2026-04-12T16:07:52.998Z</time></trkpt><trkpt lat="44.898831395157046" lon="-1.2024133957040577"><ele>10.0</ele><time>2026-04-12T16:07:53.998Z</time></trkpt><trkpt lat="44.8988636244785" lon="-1.2025969785044424"><ele>9.5</ele><time>2026-04-12T16:07:54.998Z</time></trkpt><trkpt lat="44.89888458820016" lon="-1.2027982134552297"><ele>9.0</ele><time>2026-04-12T16:07:55.998Z</time></trkpt><trkpt lat="44.898890656639665" lon="-1.2030415792005227"><ele>9.0</ele><time>2026-04-12T16:07:56.998Z</time></trkpt><trkpt lat="44.89891459306057" lon="-1.203282975767152"><ele>9.0</ele><time>2026-04-12T16:07:58Z</time></trkpt><trkpt lat="44.89891478728299" lon="-1.2035674754452315"><ele>9.0</ele><time>2026-04-12T16:07:59Z</time></trkpt><trkpt lat="44.898924765158235" lon="-1.2038881264270345"><ele>9.0</ele><time>2026-04-12T16:08:00Z</time></trkpt><trkpt lat="44.89896236574735" lon="-1.2041817874278666"><ele>9.0</ele><time>2026-04-12T16:08:01Z</time></trkpt><trkpt lat="44.8989864542838" lon="-1.2044587605396697"><ele>9.0</ele><time>2026-04-12T16:08:02Z</time></trkpt><trkpt lat="44.89900566104219" lon="-1.2046987569463115"><ele>9.0</ele><time>2026-04-12T16:08:03Z</time></trkpt><trkpt lat="44.89902162829986" lon="-1.204942283465974"><ele>9.0</ele><time>2026-04-12T16:08:04Z</time></trkpt><trkpt lat="44.89903184481664" lon="-1.2051496334264011"><ele>9.0</ele><time>2026-04-12T16:08:05Z</time></trkpt><trkpt lat="44.89906096521248" lon="-1.2053662044831421"><ele>9.0</ele><time>2026-04-12T16:08:06Z</time></trkpt><trkpt lat="44.89907704723105" lon="-1.205603175430842"><ele>9.0</ele><time>2026-04-12T16:08:07Z</time></trkpt><trkpt lat="44.899094031108234" lon="-1.2058016220102845"><ele>9.0</ele><time>2026-04-12T16:08:08Z</time></trkpt><trkpt lat="44.8991232943182" lon="-1.2060401847392472"><ele>10.0</ele><time>2026-04-12T16:08:09Z</time></trkpt><trkpt lat="44.899149115975966" lon="-1.2062420374188734"><ele>11.0</ele><time>2026-04-12T16:08:10Z</time></trkpt><trkpt lat="44.89916949733275" lon="-1.206424061204408"><ele>12.0</ele><time>2026-04-12T16:08:11Z</time></trkpt><trkpt lat="44.8991833110168" lon="-1.2065358082880073"><ele>13.0</ele><time>2026-04-12T16:08:12Z</time></trkpt><trkpt lat="44.89918176205211" lon="-1.2066714555571272"><ele>14.0</ele><time>2026-04-12T16:08:13Z</time></trkpt><trkpt lat="44.899187086245405" lon="-1.2068395854445058"><ele>15.0</ele><time>2026-04-12T16:08:14Z</time></trkpt><trkpt lat="44.89918856250122" lon="-1.2070261059652123"><ele>16.0</ele><time>2026-04-12T16:08:15Z</time></trkpt><trkpt lat="44.89919497209916" lon="-1.2071529207170575"><ele>17.0</ele><time>2026-04-12T16:08:16Z</time></trkpt><trkpt lat="44.8992047878878" lon="-1.2072575272325183"><ele>18.0</ele><time>2026-04-12T16:08:17Z</time></trkpt><trkpt lat="44.89921084027739" lon="-1.2071600845861352"><ele>18.0</ele><time>2026-04-12T16:08:32.999Z</time></trkpt><trkpt lat="44.89922798224468" lon="-1.2072754933316945"><ele>18.0</ele><time>2026-04-12T16:08:41.999Z</time></trkpt><trkpt lat="44.899243541119475" lon="-1.2074381109815588"><ele>18.0</ele><time>2026-04-12T16:08:43.999Z</time></trkpt><trkpt lat="44.89925594641423" lon="-1.2075867067490604"><ele>18.0</ele><time>2026-04-12T16:09:45.998Z</time></trkpt><trkpt lat="44.89926879183098" lon="-1.2076922355393496"><ele>18.0</ele><time>2026-04-12T16:09:46.998Z</time></trkpt><trkpt lat="44.89928095392991" lon="-1.2078390534737045"><ele>16.75</ele><time>2026-04-12T16:09:47.998Z</time></trkpt><trkpt lat="44.89927027444679" lon="-1.2080064765771603"><ele>15.5</ele><time>2026-04-12T16:09:48.998Z</time></trkpt><trkpt lat="44.89927040376902" lon="-1.2081944718615345"><ele>14.25</ele><time>2026-04-12T16:09:49.998Z</time></trkpt><trkpt lat="44.899283669843726" lon="-1.2083829757565043"><ele>13.0</ele><time>2026-04-12T16:09:50.998Z</time></trkpt><trkpt lat="44.89928640625728" lon="-1.2085052872225415"><ele>12.600000000000001</ele><time>2026-04-12T16:09:51.998Z</time></trkpt><trkpt lat="44.89929869109653" lon="-1.2086039981136596"><ele>12.200000000000001</ele><time>2026-04-12T16:09:52.998Z</time></trkpt><trkpt lat="44.899309192806264" lon="-1.2087590129476462"><ele>11.8</ele><time>2026-04-12T16:09:53.998Z</time></trkpt><trkpt lat="44.89932923279202" lon="-1.2088952338419074"><ele>11.4</ele><time>2026-04-12T16:09:54.998Z</time></trkpt><trkpt lat="44.89934543208109" lon="-1.2090558447822868"><ele>11.0</ele><time>2026-04-12T16:09:55.998Z</time></trkpt><trkpt lat="44.899362657242" lon="-1.2092910723518102"><ele>10.5</ele><time>2026-04-12T16:09:56.998Z</time></trkpt><trkpt lat="44.899384815531675" lon="-1.2095443019639944"><ele>10.0</ele><time>2026-04-12T16:09:57.998Z</time></trkpt><trkpt lat="44.899401580869394" lon="-1.2097276352974504"><ele>9.5</ele><time>2026-04-12T16:09:58.997Z</time></trkpt><trkpt lat="44.89941505130374" lon="-1.2098733788300984"><ele>9.0</ele><time>2026-04-12T16:09:59.997Z</time></trkpt><trkpt lat="44.899432212036935" lon="-1.2100620806814115"><ele>8.8</ele><time>2026-04-12T16:10:00.997Z</time></trkpt><trkpt lat="44.89943872645595" lon="-1.2102260122250517"><ele>8.600000000000001</ele><time>2026-04-12T16:10:01.997Z</time></trkpt><trkpt lat="44.8994437541469" lon="-1.2103574119139866"><ele>8.4</ele><time>2026-04-12T16:10:02.997Z</time></trkpt><trkpt lat="44.89946704377423" lon="-1.2104832067763762"><ele>8.200000000000001</ele><time>2026-04-12T16:10:04Z</time></trkpt><trkpt lat="44.89948551313046" lon="-1.2106152029075725"><ele>8.0</ele><time>2026-04-12T16:10:05Z</time></trkpt><trkpt lat="44.89948459577711" lon="-1.2107274247955053"><ele>8.333333333333332</ele><time>2026-04-12T16:10:06Z</time></trkpt><trkpt lat="44.89949011150422" lon="-1.2108574348492969"><ele>8.666666666666666</ele><time>2026-04-12T16:10:08Z</time></trkpt><trkpt lat="44.89949550592659" lon="-1.2109875844222524"><ele>9.0</ele><time>2026-04-12T16:10:12Z</time></trkpt><trkpt lat="44.89950557666289" lon="-1.2110862383880303"><ele>9.333333333333334</ele><time>2026-04-12T16:10:13Z</time></trkpt><trkpt lat="44.89953243797406" lon="-1.2112298119457185"><ele>9.666666666666668</ele><time>2026-04-12T16:10:15Z</time></trkpt><trkpt lat="44.899548365300916" lon="-1.2113184709797218"><ele>10.0</ele><time>2026-04-12T16:10:16Z</time></trkpt><trkpt lat="44.89952005213805" lon="-1.211443181713906"><ele>10.4</ele><time>2026-04-12T16:10:19Z</time></trkpt><trkpt lat="44.89953886923196" lon="-1.211565429462177"><ele>10.8</ele><time>2026-04-12T16:10:20.999Z</time></trkpt><trkpt lat="44.89959240288518" lon="-1.2116644599045898"><ele>11.2</ele><time>2026-04-12T16:10:23.999Z</time></trkpt><trkpt lat="44.89968355036822" lon="-1.2116413806380555"><ele>11.6</ele><time>2026-04-12T16:10:25.999Z</time></trkpt><trkpt lat="44.89979147367398" lon="-1.211579160607677"><ele>12.0</ele><time>2026-04-12T16:10:27.999Z</time></trkpt><trkpt lat="44.89986922382631" lon="-1.2115353736832708"><ele>12.0</ele><time>2026-04-12T16:10:29.999Z</time></trkpt><trkpt lat="44.89994757457055" lon="-1.2115256327984987"><ele>12.0</ele><time>2026-04-12T16:10:31.999Z</time></trkpt><trkpt lat="44.90003994657227" lon="-1.2114818230394244"><ele>12.0</ele><time>2026-04-12T16:10:33.999Z</time></trkpt><trkpt lat="44.900125108527874" lon="-1.211472801889406"><ele>12.0</ele><time>2026-04-12T16:10:35.999Z</time></trkpt><trkpt lat="44.90022049228756" lon="-1.2114661500399366"><ele>12.0</ele><time>2026-04-12T16:10:37.999Z</time></trkpt><trkpt lat="44.90030316281218" lon="-1.2114636714493887"><ele>12.0</ele><time>2026-04-12T16:10:39.999Z</time></trkpt><trkpt lat="44.90036613362943" lon="-1.2114601998924401"><ele>12.0</ele><time>2026-04-12T16:10:40.999Z</time></trkpt><trkpt lat="44.900456353948975" lon="-1.2114522908479317"><ele>12.0</ele><time>2026-04-12T16:10:42.999Z</time></trkpt><trkpt lat="44.90055874503793" lon="-1.2114394327325346"><ele>12.0</ele><time>2026-04-12T16:10:44.999Z</time></trkpt><trkpt lat="44.90064241483021" lon="-1.2114206562348915"><ele>12.0</ele><time>2026-04-12T16:10:46.999Z</time></trkpt><trkpt lat="44.900757470203885" lon="-1.211413573327993"><ele>12.0</ele><time>2026-04-12T16:10:48.999Z</time></trkpt><trkpt lat="44.90086479614527" lon="-1.2113934426321786"><ele>12.0</ele><time>2026-04-12T16:10:50.999Z</time></trkpt><trkpt lat="44.90093037862622" lon="-1.211386797788318"><ele>12.0</ele><time>2026-04-12T16:10:51.999Z</time></trkpt><trkpt lat="44.90104283886051" lon="-1.2113682638928842"><ele>12.0</ele><time>2026-04-12T16:10:53.999Z</time></trkpt><trkpt lat="44.9011655858961" lon="-1.2113441819940838"><ele>12.0</ele><time>2026-04-12T16:10:55.999Z</time></trkpt><trkpt lat="44.901242649842544" lon="-1.2113314983779615"><ele>12.0</ele><time>2026-04-12T16:10:56.999Z</time></trkpt><trkpt lat="44.90131285123655" lon="-1.2113465726821326"><ele>12.0</ele><time>2026-04-12T16:10:57.999Z</time></trkpt><trkpt lat="44.90137493727919" lon="-1.21137567204028"><ele>12.0</ele><time>2026-04-12T16:10:58.999Z</time></trkpt><trkpt lat="44.90150616524012" lon="-1.2114163700643843"><ele>12.0</ele><time>2026-04-12T16:11:00.999Z</time></trkpt><trkpt lat="44.901572204631364" lon="-1.2114176035782178"><ele>12.0</ele><time>2026-04-12T16:11:01.999Z</time></trkpt><trkpt lat="44.90164427636649" lon="-1.2114171338573358"><ele>12.0</ele><time>2026-04-12T16:11:02.999Z</time></trkpt><trkpt lat="44.90171094502099" lon="-1.21142196766316"><ele>12.0</ele><time>2026-04-12T16:11:03.999Z</time></trkpt><trkpt lat="44.901788665250145" lon="-1.211433596540274"><ele>12.2</ele><time>2026-04-12T16:11:04.999Z</time></trkpt><trkpt lat="44.9018733942075" lon="-1.2114524493846566"><ele>12.399999999999999</ele><time>2026-04-12T16:11:05.999Z</time></trkpt><trkpt lat="44.90196508555298" lon="-1.211473023177563"><ele>12.600000000000001</ele><time>2026-04-12T16:11:06.999Z</time></trkpt><trkpt lat="44.90206666990601" lon="-1.21148218889344"><ele>12.8</ele><time>2026-04-12T16:11:07.998Z</time></trkpt><trkpt lat="44.90218053514367" lon="-1.211460557445939"><ele>13.0</ele><time>2026-04-12T16:11:08.998Z</time></trkpt><trkpt lat="44.902266453388705" lon="-1.2114398870887992"><ele>12.999999999999998</ele><time>2026-04-12T16:11:09.998Z</time></trkpt><trkpt lat="44.90235494677075" lon="-1.2114151542999965"><ele>13.0</ele><time>2026-04-12T16:11:10.998Z</time></trkpt><trkpt lat="44.90245791608645" lon="-1.2113896237211792"><ele>13.0</ele><time>2026-04-12T16:11:11.998Z</time></trkpt><trkpt lat="44.90254778083962" lon="-1.2113716226268108"><ele>13.0</ele><time>2026-04-12T16:11:12.998Z</time></trkpt><trkpt lat="44.90262870596815" lon="-1.2113531282627596"><ele>12.999999999999998</ele><time>2026-04-12T16:11:13.998Z</time></trkpt><trkpt lat="44.902708060617236" lon="-1.2113410476970905"><ele>13.0</ele><time>2026-04-12T16:11:14.998Z</time></trkpt><trkpt lat="44.902799257682574" lon="-1.2113170270640095"><ele>12.999999999999998</ele><time>2026-04-12T16:11:15.998Z</time></trkpt><trkpt lat="44.90290090925558" lon="-1.211288142369807"><ele>13.0</ele><time>2026-04-12T16:11:16.998Z</time></trkpt><trkpt lat="44.902978138553394" lon="-1.2112672696147098"><ele>13.0</ele><time>2026-04-12T16:11:17.998Z</time></trkpt><trkpt lat="44.90305044126424" lon="-1.2112375977013838"><ele>13.0</ele><time>2026-04-12T16:11:18.998Z</time></trkpt><trkpt lat="44.903121408541466" lon="-1.2111844586060716"><ele>12.999999999999998</ele><time>2026-04-12T16:11:19.998Z</time></trkpt><trkpt lat="44.903184116099006" lon="-1.211096181440922"><ele>13.0</ele><time>2026-04-12T16:11:20.999Z</time></trkpt><trkpt lat="44.90324777872035" lon="-1.2110063758490979"><ele>12.999999999999998</ele><time>2026-04-12T16:11:21.999Z</time></trkpt><trkpt lat="44.90331536322961" lon="-1.2109396907565158"><ele>13.0</ele><time>2026-04-12T16:11:22.999Z</time></trkpt><trkpt lat="44.90339420393386" lon="-1.2108695271897811"><ele>13.0</ele><time>2026-04-12T16:11:23.999Z</time></trkpt><trkpt lat="44.90346525063111" lon="-1.2108174453263496"><ele>13.0</ele><time>2026-04-12T16:11:24.999Z</time></trkpt><trkpt lat="44.90353405917583" lon="-1.210762446273048"><ele>12.999999999999998</ele><time>2026-04-12T16:11:25.999Z</time></trkpt><trkpt lat="44.903608430716034" lon="-1.2106991970359997"><ele>13.0</ele><time>2026-04-12T16:11:26.999Z</time></trkpt><trkpt lat="44.90368959877722" lon="-1.210642291360245"><ele>12.0</ele><time>2026-04-12T16:11:27.999Z</time></trkpt><trkpt lat="44.903755362604976" lon="-1.2105920448203387"><ele>11.0</ele><time>2026-04-12T16:11:28.999Z</time></trkpt><trkpt lat="44.90380806483966" lon="-1.2105385848983448"><ele>10.0</ele><time>2026-04-12T16:11:29.999Z</time></trkpt><trkpt lat="44.90390235028709" lon="-1.2104561135128642"><ele>9.0</ele><time>2026-04-12T16:11:31.999Z</time></trkpt><trkpt lat="44.9040039531076" lon="-1.2104914846388475"><ele>8.0</ele><time>2026-04-12T16:11:34.999Z</time></trkpt><trkpt lat="44.904098734262966" lon="-1.210559356700201"><ele>8.0</ele><time>2026-04-12T16:11:36.999Z</time></trkpt><trkpt lat="44.90419134156517" lon="-1.2106284436570294"><ele>8.0</ele><time>2026-04-12T16:11:38.999Z</time></trkpt><trkpt lat="44.90424992020333" lon="-1.2106646725724806"><ele>8.0</ele><time>2026-04-12T16:11:39.999Z</time></trkpt><trkpt lat="44.90434952558119" lon="-1.2107056861086534"><ele>8.0</ele><time>2026-04-12T16:11:41.999Z</time></trkpt><trkpt lat="44.90444326609484" lon="-1.2107506337204748"><ele>8.0</ele><time>2026-04-12T16:11:43.999Z</time></trkpt><trkpt lat="44.904517616024954" lon="-1.2108538473689487"><ele>8.4</ele><time>2026-04-12T16:11:46.999Z</time></trkpt><trkpt lat="44.904583212264576" lon="-1.2108927411294266"><ele>8.8</ele><time>2026-04-12T16:11:48.999Z</time></trkpt><trkpt lat="44.90467635760682" lon="-1.2109789767491876"><ele>9.2</ele><time>2026-04-12T16:11:50.999Z</time></trkpt><trkpt lat="44.904720336430884" lon="-1.211085204232337"><ele>9.6</ele><time>2026-04-12T16:11:53.999Z</time></trkpt><trkpt lat="44.90478372201269" lon="-1.2112182372153812"><ele>10.0</ele><time>2026-04-12T16:11:55.998Z</time></trkpt><trkpt lat="44.904837219444914" lon="-1.2112983054697646"><ele>10.0</ele><time>2026-04-12T16:11:56.998Z</time></trkpt><trkpt lat="44.904917734615594" lon="-1.2113490333304717"><ele>10.0</ele><time>2026-04-12T16:11:59.998Z</time></trkpt><trkpt lat="44.90498747038327" lon="-1.211378078946102"><ele>10.0</ele><time>2026-04-12T16:12:00.998Z</time></trkpt><trkpt lat="44.905030582240386" lon="-1.2114742251287818"><ele>10.0</ele><time>2026-04-12T16:12:02.998Z</time></trkpt><trkpt lat="44.90496864083285" lon="-1.2115581992253344"><ele>10.0</ele><time>2026-04-12T16:12:05.998Z</time></trkpt><trkpt lat="44.90494322773593" lon="-1.2116459557130592"><ele>10.0</ele><time>2026-04-12T16:12:07.998Z</time></trkpt><trkpt lat="44.905003202557715" lon="-1.2116968852586758"><ele>10.0</ele><time>2026-04-12T16:12:10Z</time></trkpt><trkpt lat="44.905045129992644" lon="-1.2117986446736013"><ele>10.0</ele><time>2026-04-12T16:12:12Z</time></trkpt><trkpt lat="44.905126380621404" lon="-1.2118037141177187"><ele>10.0</ele><time>2026-04-12T16:12:14Z</time></trkpt><trkpt lat="44.905061709954644" lon="-1.211744473673628"><ele>10.0</ele><time>2026-04-12T16:19:02Z</time></trkpt><trkpt lat="44.90499868314787" lon="-1.2117462060311448"><ele>10.0</ele><time>2026-04-12T16:19:06Z</time></trkpt><trkpt lat="44.90498673749663" lon="-1.21164189669157"><ele>10.0</ele><time>2026-04-12T16:19:10.999Z</time></trkpt><trkpt lat="44.904926963722154" lon="-1.2115576512618749"><ele>10.0</ele><time>2026-04-12T16:19:12.999Z</time></trkpt><trkpt lat="44.9048589416229" lon="-1.2114756135535982"><ele>10.0</ele><time>2026-04-12T16:19:14.999Z</time></trkpt><trkpt lat="44.90477527463766" lon="-1.2114561404267192"><ele>10.0</ele><time>2026-04-12T16:19:16.999Z</time></trkpt><trkpt lat="44.90468283846274" lon="-1.2114784134072898"><ele>10.0</ele><time>2026-04-12T16:19:18.999Z</time></trkpt><trkpt lat="44.90462133383106" lon="-1.211422624043555"><ele>10.0</ele><time>2026-04-12T16:19:20.999Z</time></trkpt><trkpt lat="44.904638087238766" lon="-1.211307736680007"><ele>10.0</ele><time>2026-04-12T16:19:22.999Z</time></trkpt><trkpt lat="44.90464970351348" lon="-1.2112118481746843"><ele>10.0</ele><time>2026-04-12T16:19:23.999Z</time></trkpt><trkpt lat="44.90466658428657" lon="-1.211115689941719"><ele>10.0</ele><time>2026-04-12T16:19:25.999Z</time></trkpt><trkpt lat="44.904691935757725" lon="-1.211011536575168"><ele>10.0</ele><time>2026-04-12T16:19:27.999Z</time></trkpt><trkpt lat="44.90469364314909" lon="-1.2108794936443854"><ele>10.0</ele><time>2026-04-12T16:19:30.999Z</time></trkpt><trkpt lat="44.904634281803474" lon="-1.21080961228221"><ele>10.0</ele><time>2026-04-12T16:19:32.999Z</time></trkpt><trkpt lat="44.90455731278797" lon="-1.2107716054725035"><ele>10.0</ele><time>2026-04-12T16:19:34.999Z</time></trkpt><trkpt lat="44.90450226793278" lon="-1.2107211077259767"><ele>10.0</ele><time>2026-04-12T16:19:36.999Z</time></trkpt><trkpt lat="44.90445302206085" lon="-1.2107946566752374"><ele>10.0</ele><time>2026-04-12T16:19:41.999Z</time></trkpt><trkpt lat="44.9043900373956" lon="-1.2107187573200446"><ele>10.0</ele><time>2026-04-12T16:19:43.999Z</time></trkpt><trkpt lat="44.904331464311" lon="-1.2106749403686212"><ele>10.0</ele><time>2026-04-12T16:19:46.999Z</time></trkpt><trkpt lat="44.90421053322084" lon="-1.2106314191182386"><ele>10.0</ele><time>2026-04-12T16:19:48.999Z</time></trkpt><trkpt lat="44.90414854797446" lon="-1.2105978084191549"><ele>10.0</ele><time>2026-04-12T16:19:49.999Z</time></trkpt><trkpt lat="44.90407565583254" lon="-1.2105417129228382"><ele>9.666666666666668</ele><time>2026-04-12T16:19:51.999Z</time></trkpt><trkpt lat="44.9040010519151" lon="-1.2104830761438146"><ele>9.333333333333334</ele><time>2026-04-12T16:19:53.999Z</time></trkpt><trkpt lat="44.90394090710513" lon="-1.2104444899986015"><ele>9.0</ele><time>2026-04-12T16:19:55.999Z</time></trkpt><trkpt lat="44.90385737779342" lon="-1.210422152178088"><ele>8.666666666666666</ele><time>2026-04-12T16:19:59.998Z</time></trkpt><trkpt lat="44.903788143916124" lon="-1.2104216032517803"><ele>8.333333333333332</ele><time>2026-04-12T16:20:00.998Z</time></trkpt><trkpt lat="44.9037065481293" lon="-1.210428793129259"><ele>8.0</ele><time>2026-04-12T16:20:01.998Z</time></trkpt><trkpt lat="44.903618377525326" lon="-1.2104500634462936"><ele>8.0</ele><time>2026-04-12T16:20:02.998Z</time></trkpt><trkpt lat="44.903523958347584" lon="-1.2104640578661416"><ele>8.0</ele><time>2026-04-12T16:20:03.998Z</time></trkpt><trkpt lat="44.90343939067912" lon="-1.2104836584221366"><ele>8.0</ele><time>2026-04-12T16:20:04.998Z</time></trkpt><trkpt lat="44.90331887938655" lon="-1.210510008321618"><ele>8.0</ele><time>2026-04-12T16:20:06.998Z</time></trkpt><trkpt lat="44.90319519159776" lon="-1.2105271577629202"><ele>8.0</ele><time>2026-04-12T16:20:08.998Z</time></trkpt><trkpt lat="44.903109159070496" lon="-1.2105487317615093"><ele>8.333333333333332</ele><time>2026-04-12T16:20:10.998Z</time></trkpt><trkpt lat="44.903096030356316" lon="-1.2104402384227715"><ele>8.666666666666666</ele><time>2026-04-12T16:20:18.998Z</time></trkpt><trkpt lat="44.90313149143126" lon="-1.2103000455690411"><ele>9.0</ele><time>2026-04-12T16:20:20.998Z</time></trkpt><trkpt lat="44.903162197025146" lon="-1.2101838734919612"><ele>9.333333333333334</ele><time>2026-04-12T16:20:21.998Z</time></trkpt><trkpt lat="44.90319348424497" lon="-1.2100434535908953"><ele>9.666666666666668</ele><time>2026-04-12T16:20:22.998Z</time></trkpt><trkpt lat="44.903207908730884" lon="-1.2099494050375528"><ele>10.0</ele><time>2026-04-12T16:20:23.998Z</time></trkpt><trkpt lat="44.9032221761218" lon="-1.2098418735631435"><ele>10.0</ele><time>2026-04-12T16:20:24.998Z</time></trkpt><trkpt lat="44.90321214711177" lon="-1.209681658605781"><ele>10.0</ele><time>2026-04-12T16:20:26.998Z</time></trkpt><trkpt lat="44.90316265371798" lon="-1.209600170830575"><ele>10.0</ele><time>2026-04-12T16:20:29.998Z</time></trkpt><trkpt lat="44.90307436034352" lon="-1.209519315946621"><ele>10.0</ele><time>2026-04-12T16:20:32Z</time></trkpt><trkpt lat="44.90299476477865" lon="-1.2094815175694715"><ele>10.0</ele><time>2026-04-12T16:20:34Z</time></trkpt><trkpt lat="44.902945422515636" lon="-1.2093885756612117"><ele>10.0</ele><time>2026-04-12T16:20:36Z</time></trkpt><trkpt lat="44.90292394863274" lon="-1.2092136980791937"><ele>10.0</ele><time>2026-04-12T16:20:38Z</time></trkpt><trkpt lat="44.90294853357073" lon="-1.2090711091775308"><ele>10.0</ele><time>2026-04-12T16:20:40Z</time></trkpt><trkpt lat="44.90294864856009" lon="-1.208977840127608"><ele>10.0</ele><time>2026-04-12T16:20:41Z</time></trkpt><trkpt lat="44.90292841982879" lon="-1.208802976335834"><ele>10.0</ele><time>2026-04-12T16:20:43Z</time></trkpt><trkpt lat="44.90294094279252" lon="-1.2086702322023593"><ele>10.333333333333334</ele><time>2026-04-12T16:20:44Z</time></trkpt><trkpt lat="44.902941671772076" lon="-1.208578590880603"><ele>10.666666666666668</ele><time>2026-04-12T16:20:45Z</time></trkpt><trkpt lat="44.90294236162544" lon="-1.2084757159997697"><ele>11.0</ele><time>2026-04-12T16:20:46Z</time></trkpt><trkpt lat="44.90294944864165" lon="-1.2083089574209982"><ele>11.333333333333334</ele><time>2026-04-12T16:20:48Z</time></trkpt><trkpt lat="44.90302281577936" lon="-1.208182565118691"><ele>11.666666666666666</ele><time>2026-04-12T16:20:51Z</time></trkpt><trkpt lat="44.903064986869516" lon="-1.2081140380887727"><ele>12.0</ele><time>2026-04-12T16:20:52Z</time></trkpt><trkpt lat="44.90297951174418" lon="-1.2080781382276002"><ele>13.0</ele><time>2026-04-12T16:21:14.999Z</time></trkpt><trkpt lat="44.90291850223046" lon="-1.2081191440638976"><ele>14.0</ele><time>2026-04-12T16:21:15.999Z</time></trkpt><trkpt lat="44.90283517831627" lon="-1.208144454706699"><ele>15.0</ele><time>2026-04-12T16:21:16.999Z</time></trkpt><trkpt lat="44.90273882025837" lon="-1.2081493324228612"><ele>16.0</ele><time>2026-04-12T16:21:17.999Z</time></trkpt><trkpt lat="44.90260339621903" lon="-1.2081518169740215"><ele>17.0</ele><time>2026-04-12T16:21:18.999Z</time></trkpt><trkpt lat="44.90246682614194" lon="-1.2081589389242047"><ele>17.0</ele><time>2026-04-12T16:21:19.999Z</time></trkpt><trkpt lat="44.90236574997438" lon="-1.2081782019074945"><ele>17.0</ele><time>2026-04-12T16:21:20.999Z</time></trkpt><trkpt lat="44.902258848292405" lon="-1.2082095043418501"><ele>17.0</ele><time>2026-04-12T16:21:21.999Z</time></trkpt><trkpt lat="44.90215003448402" lon="-1.208224433978291"><ele>17.0</ele><time>2026-04-12T16:21:22.999Z</time></trkpt><trkpt lat="44.902034371691634" lon="-1.2082380639602126"><ele>17.0</ele><time>2026-04-12T16:21:23.999Z</time></trkpt><trkpt lat="44.90192888662661" lon="-1.2082559214517843"><ele>17.0</ele><time>2026-04-12T16:21:24.999Z</time></trkpt><trkpt lat="44.90181691632416" lon="-1.2082829788498601"><ele>17.0</ele><time>2026-04-12T16:21:25.999Z</time></trkpt><trkpt lat="44.90171215587154" lon="-1.2083013825653697"><ele>17.0</ele><time>2026-04-12T16:21:26.999Z</time></trkpt><trkpt lat="44.901614536716735" lon="-1.2083119596254777"><ele>17.0</ele><time>2026-04-12T16:21:27.999Z</time></trkpt><trkpt lat="44.901499287191626" lon="-1.2083278820267442"><ele>17.0</ele><time>2026-04-12T16:21:28.999Z</time></trkpt><trkpt lat="44.901378032452946" lon="-1.2083435344151596"><ele>17.0</ele><time>2026-04-12T16:21:29.999Z</time></trkpt><trkpt lat="44.90125755318557" lon="-1.2083630192739738"><ele>17.0</ele><time>2026-04-12T16:21:30.999Z</time></trkpt><trkpt lat="44.901129366010636" lon="-1.2083874495445242"><ele>17.0</ele><time>2026-04-12T16:21:31.999Z</time></trkpt><trkpt lat="44.90099782238308" lon="-1.2084121762120175"><ele>17.0</ele><time>2026-04-12T16:21:32.999Z</time></trkpt><trkpt lat="44.90086887209024" lon="-1.2084328499680885"><ele>15.25</ele><time>2026-04-12T16:21:33.999Z</time></trkpt><trkpt lat="44.9007350951629" lon="-1.208456723172203"><ele>13.5</ele><time>2026-04-12T16:21:34.999Z</time></trkpt><trkpt lat="44.90059920252441" lon="-1.2084772996988453"><ele>11.75</ele><time>2026-04-12T16:21:35.999Z</time></trkpt><trkpt lat="44.900460838168314" lon="-1.2085036809708292"><ele>10.0</ele><time>2026-04-12T16:21:36.999Z</time></trkpt><trkpt lat="44.90031476515733" lon="-1.2085291171768746"><ele>10.0</ele><time>2026-04-12T16:21:37.999Z</time></trkpt><trkpt lat="44.90017081876856" lon="-1.2085503699399158"><ele>10.0</ele><time>2026-04-12T16:21:38.999Z</time></trkpt><trkpt lat="44.90001669224958" lon="-1.2085882939988437"><ele>10.0</ele><time>2026-04-12T16:21:39.999Z</time></trkpt><trkpt lat="44.89986076657349" lon="-1.2086170706434674"><ele>10.25</ele><time>2026-04-12T16:21:40.999Z</time></trkpt><trkpt lat="44.899694944652886" lon="-1.2086518981660592"><ele>10.5</ele><time>2026-04-12T16:21:41.999Z</time></trkpt><trkpt lat="44.89954206690117" lon="-1.2086593028572195"><ele>10.75</ele><time>2026-04-12T16:21:42.999Z</time></trkpt><trkpt lat="44.89944966213588" lon="-1.208687219476879"><ele>11.0</ele><time>2026-04-12T16:21:43.999Z</time></trkpt><trkpt lat="44.899365679407616" lon="-1.2087121071475133"><ele>11.0</ele><time>2026-04-12T16:21:44.999Z</time></trkpt><trkpt lat="44.89931576837526" lon="-1.2085989759143665"><ele>11.0</ele><time>2026-04-12T16:21:47.999Z</time></trkpt><trkpt lat="44.8992910728457" lon="-1.2084960725494105"><ele>11.0</ele><time>2026-04-12T16:21:48.999Z</time></trkpt><trkpt lat="44.89927014824627" lon="-1.208406678138177"><ele>11.0</ele><time>2026-04-12T16:21:49.999Z</time></trkpt><trkpt lat="44.8992789536151" lon="-1.2082407611415578"><ele>11.0</ele><time>2026-04-12T16:21:51.999Z</time></trkpt><trkpt lat="44.89928299235164" lon="-1.2081142853791544"><ele>11.0</ele><time>2026-04-12T16:21:53.999Z</time></trkpt><trkpt lat="44.899257733397754" lon="-1.2080095457016784"><ele>11.4</ele><time>2026-04-12T16:21:55.999Z</time></trkpt><trkpt lat="44.89924140685502" lon="-1.2078909743949"><ele>11.8</ele><time>2026-04-12T16:21:57.999Z</time></trkpt><trkpt lat="44.899263136199636" lon="-1.2077535889756497"><ele>12.200000000000001</ele><time>2026-04-12T16:21:58.999Z</time></trkpt><trkpt lat="44.89927315746346" lon="-1.2075966406471854"><ele>12.600000000000001</ele><time>2026-04-12T16:21:59.998Z</time></trkpt><trkpt lat="44.89925399999975" lon="-1.207416925143909"><ele>13.0</ele><time>2026-04-12T16:22:00.998Z</time></trkpt><trkpt lat="44.89922531277578" lon="-1.207241770647623"><ele>14.0</ele><time>2026-04-12T16:22:01.998Z</time></trkpt><trkpt lat="44.89920359721132" lon="-1.2070838165418387"><ele>15.0</ele><time>2026-04-12T16:22:02.998Z</time></trkpt><trkpt lat="44.89920308883461" lon="-1.2069496566303162"><ele>16.0</ele><time>2026-04-12T16:22:03.998Z</time></trkpt><trkpt lat="44.8991921307548" lon="-1.206809649555851"><ele>17.0</ele><time>2026-04-12T16:22:04.998Z</time></trkpt><trkpt lat="44.899167027429385" lon="-1.2066704896102414"><ele>18.0</ele><time>2026-04-12T16:22:05.998Z</time></trkpt><trkpt lat="44.89914066917135" lon="-1.2065614629676882"><ele>17.166666666666668</ele><time>2026-04-12T16:22:06.998Z</time></trkpt><trkpt lat="44.8991327912827" lon="-1.2064588365941051"><ele>16.333333333333332</ele><time>2026-04-12T16:22:07.998Z</time></trkpt><trkpt lat="44.899110897777945" lon="-1.2063299143295338"><ele>15.5</ele><time>2026-04-12T16:22:08.998Z</time></trkpt><trkpt lat="44.89910125039187" lon="-1.2061711945011626"><ele>14.666666666666666</ele><time>2026-04-12T16:22:10.998Z</time></trkpt><trkpt lat="44.89910840240054" lon="-1.2060401771778615"><ele>13.833333333333332</ele><time>2026-04-12T16:22:12.998Z</time></trkpt><trkpt lat="44.899102077191806" lon="-1.2059402488043784"><ele>13.0</ele><time>2026-04-12T16:22:13.998Z</time></trkpt><trkpt lat="44.89908250901977" lon="-1.2057973471026124"><ele>12.0</ele><time>2026-04-12T16:22:14.998Z</time></trkpt><trkpt lat="44.899064628884254" lon="-1.2056180400462921"><ele>11.0</ele><time>2026-04-12T16:22:15.998Z</time></trkpt><trkpt lat="44.899056785491496" lon="-1.2054274427030618"><ele>10.0</ele><time>2026-04-12T16:22:16.998Z</time></trkpt><trkpt lat="44.899041593705945" lon="-1.2052373962284564"><ele>9.0</ele><time>2026-04-12T16:22:17.998Z</time></trkpt><trkpt lat="44.89902240037881" lon="-1.2050342629918687"><ele>9.0</ele><time>2026-04-12T16:22:18.998Z</time></trkpt><trkpt lat="44.89900590034562" lon="-1.2047947959293213"><ele>9.0</ele><time>2026-04-12T16:22:19.998Z</time></trkpt><trkpt lat="44.898995532761106" lon="-1.2045450581736652"><ele>9.0</ele><time>2026-04-12T16:22:20.998Z</time></trkpt><trkpt lat="44.898981070113535" lon="-1.2043028364655897"><ele>9.0</ele><time>2026-04-12T16:22:21.998Z</time></trkpt><trkpt lat="44.89897324110757" lon="-1.2040897601898555"><ele>9.0</ele><time>2026-04-12T16:22:22.998Z</time></trkpt><trkpt lat="44.89893918467856" lon="-1.203772772278553"><ele>9.0</ele><time>2026-04-12T16:22:23.998Z</time></trkpt><trkpt lat="44.89889876982215" lon="-1.203582706489583"><ele>9.0</ele><time>2026-04-12T16:22:24.998Z</time></trkpt><trkpt lat="44.89891596915071" lon="-1.2034085337144926"><ele>9.0</ele><time>2026-04-12T16:22:25.998Z</time></trkpt><trkpt lat="44.89891935448495" lon="-1.20326883011324"><ele>9.0</ele><time>2026-04-12T16:22:26.998Z</time></trkpt><trkpt lat="44.89892170428267" lon="-1.2031558532343107"><ele>9.0</ele><time>2026-04-12T16:22:27.998Z</time></trkpt><trkpt lat="44.89890444967137" lon="-1.20298234542047"><ele>9.0</ele><time>2026-04-12T16:22:28.998Z</time></trkpt><trkpt lat="44.89888749573234" lon="-1.2028065385068678"><ele>9.0</ele><time>2026-04-12T16:22:29.998Z</time></trkpt><trkpt lat="44.898882820393176" lon="-1.2026318080702636"><ele>9.0</ele><time>2026-04-12T16:22:30.998Z</time></trkpt><trkpt lat="44.89886808695069" lon="-1.2024966445521366"><ele>9.0</ele><time>2026-04-12T16:22:31.998Z</time></trkpt><trkpt lat="44.89886062540938" lon="-1.2023747770183706"><ele>9.0</ele><time>2026-04-12T16:22:32.998Z</time></trkpt><trkpt lat="44.89885252397826" lon="-1.202222507755244"><ele>9.0</ele><time>2026-04-12T16:22:33.998Z</time></trkpt><trkpt lat="44.89884413660533" lon="-1.2020507304574697"><ele>9.5</ele><time>2026-04-12T16:22:34.998Z</time></trkpt><trkpt lat="44.898822892382015" lon="-1.2018785342916993"><ele>10.0</ele><time>2026-04-12T16:22:36Z</time></trkpt><trkpt lat="44.89879508163679" lon="-1.2017128101476884"><ele>10.5</ele><time>2026-04-12T16:22:37Z</time></trkpt><trkpt lat="44.89877752718057" lon="-1.2015749598699392"><ele>11.0</ele><time>2026-04-12T16:22:38Z</time></trkpt><trkpt lat="44.89875754119585" lon="-1.201425755160467"><ele>11.25</ele><time>2026-04-12T16:22:39Z</time></trkpt><trkpt lat="44.89872787359584" lon="-1.2012805123946886"><ele>11.5</ele><time>2026-04-12T16:22:40Z</time></trkpt><trkpt lat="44.89869771559653" lon="-1.2011115348987023"><ele>11.75</ele><time>2026-04-12T16:22:41Z</time></trkpt><trkpt lat="44.89869037656011" lon="-1.2009592670790126"><ele>12.0</ele><time>2026-04-12T16:22:42Z</time></trkpt><trkpt lat="44.898700924876714" lon="-1.2007833377400625"><ele>11.8</ele><time>2026-04-12T16:22:43Z</time></trkpt><trkpt lat="44.89869392722522" lon="-1.2006650676384814"><ele>11.6</ele><time>2026-04-12T16:22:44Z</time></trkpt><trkpt lat="44.89867613035248" lon="-1.200527845909192"><ele>11.4</ele><time>2026-04-12T16:22:45Z</time></trkpt><trkpt lat="44.89866181806802" lon="-1.2003523739489153"><ele>11.200000000000001</ele><time>2026-04-12T16:22:46Z</time></trkpt><trkpt lat="44.89864681707621" lon="-1.2001546162902126"><ele>11.0</ele><time>2026-04-12T16:22:47Z</time></trkpt><trkpt lat="44.89863289962889" lon="-1.1999486592881623"><ele>11.666666666666666</ele><time>2026-04-12T16:22:48Z</time></trkpt><trkpt lat="44.89861572991233" lon="-1.1997416538644714"><ele>12.333333333333332</ele><time>2026-04-12T16:22:49Z</time></trkpt><trkpt lat="44.89860206587931" lon="-1.199529996247332"><ele>13.0</ele><time>2026-04-12T16:22:50Z</time></trkpt><trkpt lat="44.898581332193196" lon="-1.1992807790844435"><ele>13.0</ele><time>2026-04-12T16:22:51Z</time></trkpt><trkpt lat="44.89857792284271" lon="-1.1990902314814862"><ele>13.0</ele><time>2026-04-12T16:22:52Z</time></trkpt><trkpt lat="44.89856897525934" lon="-1.1989532921419315"><ele>13.0</ele><time>2026-04-12T16:22:53Z</time></trkpt><trkpt lat="44.89856102543855" lon="-1.1988213376710715"><ele>13.0</ele><time>2026-04-12T16:22:54Z</time></trkpt><trkpt lat="44.89855374910642" lon="-1.198626602777823"><ele>13.166666666666666</ele><time>2026-04-12T16:22:56Z</time></trkpt><trkpt lat="44.898545149738034" lon="-1.1985328357414824"><ele>13.333333333333332</ele><time>2026-04-12T16:22:57Z</time></trkpt><trkpt lat="44.89853518826527" lon="-1.198361614124372"><ele>13.5</ele><time>2026-04-12T16:22:59Z</time></trkpt><trkpt lat="44.89851529271158" lon="-1.1982225825598778"><ele>13.666666666666668</ele><time>2026-04-12T16:23:01Z</time></trkpt><trkpt lat="44.8985372816802" lon="-1.1981235503575007"><ele>13.833333333333334</ele><time>2026-04-12T16:23:03Z</time></trkpt><trkpt lat="44.89853008648523" lon="-1.1980218971340364"><ele>14.0</ele><time>2026-04-12T16:23:26.999Z</time></trkpt><trkpt lat="44.89852389956646" lon="-1.1979084169976215"><ele>14.0</ele><time>2026-04-12T16:23:27.999Z</time></trkpt><trkpt lat="44.89851978706682" lon="-1.1977909014861228"><ele>13.999999999999998</ele><time>2026-04-12T16:23:28.999Z</time></trkpt><trkpt lat="44.898497941935965" lon="-1.1976241023477492"><ele>13.999999999999998</ele><time>2026-04-12T16:23:29.999Z</time></trkpt><trkpt lat="44.89847735341028" lon="-1.197453143439591"><ele>14.0</ele><time>2026-04-12T16:23:30.999Z</time></trkpt><trkpt lat="44.89846405750293" lon="-1.1973126653659976"><ele>14.0</ele><time>2026-04-12T16:23:31.999Z</time></trkpt><trkpt lat="44.89844856807221" lon="-1.1970998825764843"><ele>13.333333333333334</ele><time>2026-04-12T16:23:32.999Z</time></trkpt><trkpt lat="44.89842644897656" lon="-1.1968810429331938"><ele>12.666666666666668</ele><time>2026-04-12T16:23:33.999Z</time></trkpt><trkpt lat="44.89840637223608" lon="-1.1966146046085455"><ele>12.0</ele><time>2026-04-12T16:23:34.999Z</time></trkpt><trkpt lat="44.89837405324727" lon="-1.1963068006039808"><ele>11.666666666666666</ele><time>2026-04-12T16:23:35.999Z</time></trkpt><trkpt lat="44.898350462202785" lon="-1.1960025026772954"><ele>11.333333333333332</ele><time>2026-04-12T16:23:36.999Z</time></trkpt><trkpt lat="44.898340435054024" lon="-1.195690019325347"><ele>11.0</ele><time>2026-04-12T16:23:37.999Z</time></trkpt><trkpt lat="44.89832129752596" lon="-1.1953950210174076"><ele>11.666666666666666</ele><time>2026-04-12T16:23:38.999Z</time></trkpt><trkpt lat="44.89828688766335" lon="-1.1951395403651435"><ele>12.333333333333332</ele><time>2026-04-12T16:23:39.999Z</time></trkpt><trkpt lat="44.89825375984552" lon="-1.1948865889356566"><ele>13.0</ele><time>2026-04-12T16:23:40.999Z</time></trkpt><trkpt lat="44.89823261943246" lon="-1.1946377974495788"><ele>14.0</ele><time>2026-04-12T16:23:41.999Z</time></trkpt><trkpt lat="44.89821976152047" lon="-1.1944383956540783"><ele>15.0</ele><time>2026-04-12T16:23:42.999Z</time></trkpt><trkpt lat="44.89821734485381" lon="-1.194245706831062"><ele>16.0</ele><time>2026-04-12T16:23:43.999Z</time></trkpt><trkpt lat="44.89820104417135" lon="-1.1940459841360607"><ele>17.0</ele><time>2026-04-12T16:23:44.999Z</time></trkpt><trkpt lat="44.898183129095706" lon="-1.193824186809656"><ele>18.0</ele><time>2026-04-12T16:23:45.999Z</time></trkpt><trkpt lat="44.898164756619394" lon="-1.193646321683417"><ele>19.0</ele><time>2026-04-12T16:23:46.999Z</time></trkpt><trkpt lat="44.89814392334525" lon="-1.1934589373111053"><ele>20.0</ele><time>2026-04-12T16:23:47.999Z</time></trkpt><trkpt lat="44.898118835450916" lon="-1.1932916708417298"><ele>21.0</ele><time>2026-04-12T16:23:48.999Z</time></trkpt><trkpt lat="44.89809799587321" lon="-1.1930897142165702"><ele>21.0</ele><time>2026-04-12T16:23:49.999Z</time></trkpt><trkpt lat="44.8980820361541" lon="-1.1928894809241977"><ele>21.0</ele><time>2026-04-12T16:23:50.999Z</time></trkpt><trkpt lat="44.89807222326073" lon="-1.1927154781356704"><ele>21.0</ele><time>2026-04-12T16:23:51.999Z</time></trkpt><trkpt lat="44.89806321706098" lon="-1.1925643691147543"><ele>21.0</ele><time>2026-04-12T16:23:52.999Z</time></trkpt><trkpt lat="44.89805638886585" lon="-1.192460728093913"><ele>21.0</ele><time>2026-04-12T16:23:53.999Z</time></trkpt><trkpt lat="44.898073388668024" lon="-1.1923614364102613"><ele>19.8</ele><time>2026-04-12T16:23:55.999Z</time></trkpt><trkpt lat="44.89805887813927" lon="-1.1922122961457524"><ele>18.6</ele><time>2026-04-12T16:23:57.999Z</time></trkpt><trkpt lat="44.8980500549027" lon="-1.1920752846946927"><ele>17.4</ele><time>2026-04-12T16:23:59.999Z</time></trkpt><trkpt lat="44.89803306849143" lon="-1.1919138813497023"><ele>16.2</ele><time>2026-04-12T16:24:03.998Z</time></trkpt><trkpt lat="44.89801431624356" lon="-1.1918133403485547"><ele>15.0</ele><time>2026-04-12T16:24:04.998Z</time></trkpt><trkpt lat="44.89800514264288" lon="-1.191718162154685"><ele>15.0</ele><time>2026-04-12T16:24:05.998Z</time></trkpt><trkpt lat="44.89800019318147" lon="-1.1916035104582716"><ele>15.0</ele><time>2026-04-12T16:24:06.998Z</time></trkpt><trkpt lat="44.897990250399225" lon="-1.19147373898395"><ele>15.0</ele><time>2026-04-12T16:24:07.998Z</time></trkpt><trkpt lat="44.89794987520184" lon="-1.1913350311075364"><ele>15.0</ele><time>2026-04-12T16:24:09.998Z</time></trkpt><trkpt lat="44.89791980486617" lon="-1.1912444091766867"><ele>15.0</ele><time>2026-04-12T16:24:11.998Z</time></trkpt><trkpt lat="44.897870062737454" lon="-1.1911704567970842"><ele>15.0</ele><time>2026-04-12T16:24:15.998Z</time></trkpt><trkpt lat="44.89788054229916" lon="-1.1910524675216851"><ele>14.5</ele><time>2026-04-12T16:24:18.998Z</time></trkpt><trkpt lat="44.89792203442225" lon="-1.1909703134314262"><ele>14.0</ele><time>2026-04-12T16:24:21.998Z</time></trkpt><trkpt lat="44.897924486627375" lon="-1.1908642803436158"><ele>13.5</ele><time>2026-04-12T16:24:23.998Z</time></trkpt><trkpt lat="44.89792266988258" lon="-1.1907318118546664"><ele>13.0</ele><time>2026-04-12T16:24:25.998Z</time></trkpt><trkpt lat="44.897910312757666" lon="-1.190566638872233"><ele>12.5</ele><time>2026-04-12T16:24:27.998Z</time></trkpt><trkpt lat="44.89790248703014" lon="-1.1904701603836672"><ele>12.0</ele><time>2026-04-12T16:24:28.998Z</time></trkpt><trkpt lat="44.8978814210013" lon="-1.1903209136067718"><ele>11.8</ele><time>2026-04-12T16:24:30.998Z</time></trkpt><trkpt lat="44.897861013341554" lon="-1.1901325988366451"><ele>11.6</ele><time>2026-04-12T16:24:32.998Z</time></trkpt><trkpt lat="44.8978519564679" lon="-1.1900046937253894"><ele>11.4</ele><time>2026-04-12T16:24:33.998Z</time></trkpt><trkpt lat="44.89785205597917" lon="-1.189903751253009"><ele>11.200000000000001</ele><time>2026-04-12T16:24:34.998Z</time></trkpt><trkpt lat="44.89784004374856" lon="-1.1897903000291985"><ele>11.0</ele><time>2026-04-12T16:24:35.998Z</time></trkpt><trkpt lat="44.89782964046893" lon="-1.189657066165116"><ele>11.333333333333332</ele><time>2026-04-12T16:24:37.998Z</time></trkpt><trkpt lat="44.897821088153705" lon="-1.1895645464480187"><ele>11.666666666666666</ele><time>2026-04-12T16:24:38.998Z</time></trkpt><trkpt lat="44.897813151366236" lon="-1.18947594693827"><ele>12.0</ele><time>2026-04-12T16:24:39.998Z</time></trkpt><trkpt lat="44.89779751083601" lon="-1.1893720917616921"><ele>12.333333333333332</ele><time>2026-04-12T16:24:42Z</time></trkpt><trkpt lat="44.89778958795265" lon="-1.1892280752222915"><ele>12.666666666666666</ele><time>2026-04-12T16:24:44Z</time></trkpt><trkpt lat="44.89777986953978" lon="-1.1891260300092377"><ele>13.0</ele><time>2026-04-12T16:24:46Z</time></trkpt><trkpt lat="44.8976974019829" lon="-1.1890396688069225"><ele>13.0</ele><time>2026-04-12T16:25:33.999Z</time></trkpt><trkpt lat="44.897620839335865" lon="-1.1890402093528631"><ele>13.0</ele><time>2026-04-12T16:25:34.999Z</time></trkpt><trkpt lat="44.89751752559282" lon="-1.1890600628580295"><ele>13.0</ele><time>2026-04-12T16:25:35.999Z</time></trkpt><trkpt lat="44.89741359950044" lon="-1.18908303890405"><ele>13.0</ele><time>2026-04-12T16:25:36.999Z</time></trkpt><trkpt lat="44.89729405258345" lon="-1.1891036199583374"><ele>13.0</ele><time>2026-04-12T16:25:37.999Z</time></trkpt><trkpt lat="44.89715100169953" lon="-1.1891144294288252"><ele>13.2</ele><time>2026-04-12T16:25:38.999Z</time></trkpt><trkpt lat="44.89703753366139" lon="-1.1891238799139074"><ele>13.4</ele><time>2026-04-12T16:25:39.999Z</time></trkpt><trkpt lat="44.896942938887406" lon="-1.1891364283956243"><ele>13.599999999999998</ele><time>2026-04-12T16:25:40.999Z</time></trkpt><trkpt lat="44.896813629516046" lon="-1.189131378985046"><ele>13.799999999999999</ele><time>2026-04-12T16:25:41.999Z</time></trkpt><trkpt lat="44.89670294254932" lon="-1.1891393785671167"><ele>14.0</ele><time>2026-04-12T16:25:42.999Z</time></trkpt><trkpt lat="44.896589987600976" lon="-1.189157555740921"><ele>14.0</ele><time>2026-04-12T16:25:43.999Z</time></trkpt><trkpt lat="44.89648151419427" lon="-1.189165117871633"><ele>13.999999999999998</ele><time>2026-04-12T16:25:44.999Z</time></trkpt><trkpt lat="44.89637425028432" lon="-1.1891651894873918"><ele>13.999999999999998</ele><time>2026-04-12T16:25:45.999Z</time></trkpt><trkpt lat="44.89627638503607" lon="-1.1891830824626153"><ele>14.0</ele><time>2026-04-12T16:25:46.999Z</time></trkpt><trkpt lat="44.89618475523392" lon="-1.1891939357809695"><ele>14.0</ele><time>2026-04-12T16:25:47.999Z</time></trkpt><trkpt lat="44.89608390194277" lon="-1.1892043747628707"><ele>14.0</ele><time>2026-04-12T16:25:48.999Z</time></trkpt><trkpt lat="44.89597549331445" lon="-1.1891927161084779"><ele>13.999999999999998</ele><time>2026-04-12T16:25:49.999Z</time></trkpt><trkpt lat="44.89587755207995" lon="-1.1891662744836426"><ele>13.999999999999998</ele><time>2026-04-12T16:25:50.999Z</time></trkpt><trkpt lat="44.89578516954085" lon="-1.1891600711145447"><ele>14.0</ele><time>2026-04-12T16:25:51.999Z</time></trkpt><trkpt lat="44.89567604160408" lon="-1.189166321080379"><ele>14.0</ele><time>2026-04-12T16:25:52.999Z</time></trkpt><trkpt lat="44.895575832443534" lon="-1.1891887749898167"><ele>13.75</ele><time>2026-04-12T16:25:53.999Z</time></trkpt><trkpt lat="44.8954661585582" lon="-1.1892242864132678"><ele>13.5</ele><time>2026-04-12T16:25:54.999Z</time></trkpt><trkpt lat="44.89533070385818" lon="-1.1892420360661975"><ele>13.25</ele><time>2026-04-12T16:25:55.999Z</time></trkpt><trkpt lat="44.895161607583034" lon="-1.189255276892384"><ele>13.0</ele><time>2026-04-12T16:25:56.999Z</time></trkpt><trkpt lat="44.894963833087765" lon="-1.1892731364153537"><ele>13.0</ele><time>2026-04-12T16:25:57.999Z</time></trkpt><trkpt lat="44.894787300304635" lon="-1.1892853324102528"><ele>13.0</ele><time>2026-04-12T16:25:58.999Z</time></trkpt><trkpt lat="44.89465197543553" lon="-1.1892921772349287"><ele>13.0</ele><time>2026-04-12T16:25:59.999Z</time></trkpt><trkpt lat="44.894535399987916" lon="-1.1893122612184384"><ele>13.0</ele><time>2026-04-12T16:26:00.998Z</time></trkpt><trkpt lat="44.89443037144621" lon="-1.1893202692285276"><ele>12.999999999999998</ele><time>2026-04-12T16:26:01.998Z</time></trkpt><trkpt lat="44.89434661107152" lon="-1.189327996203739"><ele>13.0</ele><time>2026-04-12T16:26:02.998Z</time></trkpt><trkpt lat="44.89426987536332" lon="-1.1893469703459085"><ele>13.0</ele><time>2026-04-12T16:26:04.998Z</time></trkpt><trkpt lat="44.894196331930644" lon="-1.1893582832245004"><ele>13.0</ele><time>2026-04-12T16:26:05.998Z</time></trkpt><trkpt lat="44.894110360232446" lon="-1.189370828290451"><ele>12.999999999999998</ele><time>2026-04-12T16:26:06.998Z</time></trkpt><trkpt lat="44.89402530315394" lon="-1.1893835986416164"><ele>13.0</ele><time>2026-04-12T16:26:07.998Z</time></trkpt><trkpt lat="44.89395923441993" lon="-1.1893941016612728"><ele>13.2</ele><time>2026-04-12T16:26:08.998Z</time></trkpt><trkpt lat="44.89383810144997" lon="-1.189434887590779"><ele>13.4</ele><time>2026-04-12T16:26:10.998Z</time></trkpt><trkpt lat="44.89376924093793" lon="-1.1894514641675145"><ele>13.599999999999998</ele><time>2026-04-12T16:26:11.998Z</time></trkpt><trkpt lat="44.893675117456134" lon="-1.189419184472284"><ele>13.799999999999999</ele><time>2026-04-12T16:26:13.998Z</time></trkpt><trkpt lat="44.89360899313015" lon="-1.1892679931732035"><ele>14.0</ele><time>2026-04-12T16:26:15.998Z</time></trkpt><trkpt lat="44.893583085063995" lon="-1.1891654271831766"><ele>14.0</ele><time>2026-04-12T16:26:16.998Z</time></trkpt><trkpt lat="44.893558797325454" lon="-1.189022370340761"><ele>14.0</ele><time>2026-04-12T16:26:17.998Z</time></trkpt><trkpt lat="44.89353032106545" lon="-1.1888775798340188"><ele>14.0</ele><time>2026-04-12T16:26:18.998Z</time></trkpt><trkpt lat="44.893486580948306" lon="-1.1887003120322521"><ele>14.0</ele><time>2026-04-12T16:26:19.998Z</time></trkpt><trkpt lat="44.89344045289978" lon="-1.188542898830688"><ele>14.399999999999999</ele><time>2026-04-12T16:26:20.998Z</time></trkpt><trkpt lat="44.893392228010605" lon="-1.1883700803352277"><ele>14.799999999999999</ele><time>2026-04-12T16:26:21.998Z</time></trkpt><trkpt lat="44.893331394293405" lon="-1.188240756643956"><ele>15.200000000000001</ele><time>2026-04-12T16:26:22.998Z</time></trkpt><trkpt lat="44.89329719283852" lon="-1.1881376823717402"><ele>15.600000000000001</ele><time>2026-04-12T16:26:23.998Z</time></trkpt><trkpt lat="44.89328731853559" lon="-1.188009000333655"><ele>16.0</ele><time>2026-04-12T16:26:24.998Z</time></trkpt><trkpt lat="44.8932377381153" lon="-1.1879306217765915"><ele>16.8</ele><time>2026-04-12T16:26:25.998Z</time></trkpt><trkpt lat="44.89320865840561" lon="-1.187830283758476"><ele>17.6</ele><time>2026-04-12T16:26:26.998Z</time></trkpt><trkpt lat="44.89318689834617" lon="-1.1877081527606117"><ele>18.4</ele><time>2026-04-12T16:26:27.998Z</time></trkpt><trkpt lat="44.893140790530026" lon="-1.1875807021267957"><ele>19.2</ele><time>2026-04-12T16:26:28.998Z</time></trkpt><trkpt lat="44.89310432827388" lon="-1.1874487714046615"><ele>20.0</ele><time>2026-04-12T16:26:29.998Z</time></trkpt><trkpt lat="44.893057078494905" lon="-1.187320107801894"><ele>20.4</ele><time>2026-04-12T16:26:30.998Z</time></trkpt><trkpt lat="44.89301362733384" lon="-1.1871732577357572"><ele>20.8</ele><time>2026-04-12T16:26:31.998Z</time></trkpt><trkpt lat="44.89298253433012" lon="-1.1870711497833417"><ele>21.200000000000003</ele><time>2026-04-12T16:26:32.998Z</time></trkpt><trkpt lat="44.89295367700128" lon="-1.1869765425313195"><ele>21.6</ele><time>2026-04-12T16:26:33.998Z</time></trkpt><trkpt lat="44.892927059123465" lon="-1.1868321269657343"><ele>22.0</ele><time>2026-04-12T16:26:35.998Z</time></trkpt><trkpt lat="44.8928962260694" lon="-1.1867077240833066"><ele>22.0</ele><time>2026-04-12T16:26:37.998Z</time></trkpt><trkpt lat="44.89287197095392" lon="-1.1866231825585136"><ele>22.0</ele><time>2026-04-12T16:26:38.998Z</time></trkpt><trkpt lat="44.89286443267825" lon="-1.186481068556386"><ele>22.0</ele><time>2026-04-12T16:26:40.998Z</time></trkpt><trkpt lat="44.89284472605608" lon="-1.186338582570017"><ele>22.0</ele><time>2026-04-12T16:26:42.998Z</time></trkpt><trkpt lat="44.89281612134384" lon="-1.1862418475129777"><ele>22.0</ele><time>2026-04-12T16:26:44.998Z</time></trkpt><trkpt lat="44.89281932790385" lon="-1.1861487008614893"><ele>22.0</ele><time>2026-04-12T16:26:46.998Z</time></trkpt><trkpt lat="44.89288457745408" lon="-1.186144416253042"><ele>21.6</ele><time>2026-04-12T16:26:54Z</time></trkpt><trkpt lat="44.89300002907535" lon="-1.1861428256055504"><ele>21.200000000000003</ele><time>2026-04-12T16:26:56Z</time></trkpt><trkpt lat="44.89310644847209" lon="-1.1860646405640773"><ele>20.8</ele><time>2026-04-12T16:26:58Z</time></trkpt><trkpt lat="44.89315839847144" lon="-1.1859653449688177"><ele>20.4</ele><time>2026-04-12T16:27:00Z</time></trkpt><trkpt lat="44.89315157358394" lon="-1.18587216405939"><ele>20.0</ele><time>2026-04-12T16:27:01Z</time></trkpt><trkpt lat="44.89309065567201" lon="-1.185718860355573"><ele>19.5</ele><time>2026-04-12T16:27:03Z</time></trkpt><trkpt lat="44.893054565339014" lon="-1.1855996926797001"><ele>19.0</ele><time>2026-04-12T16:27:04Z</time></trkpt><trkpt lat="44.893011984966805" lon="-1.18546601416753"><ele>18.5</ele><time>2026-04-12T16:27:05Z</time></trkpt><trkpt lat="44.89298088813052" lon="-1.1853750570897326"><ele>18.0</ele><time>2026-04-12T16:27:06Z</time></trkpt><trkpt lat="44.89294581456811" lon="-1.1852625064837718"><ele>17.5</ele><time>2026-04-12T16:27:08Z</time></trkpt><trkpt lat="44.8929221409006" lon="-1.1851739825162784"><ele>17.0</ele><time>2026-04-12T16:27:10Z</time></trkpt><trkpt lat="44.89298013648265" lon="-1.1851329107706037"><ele>17.0</ele><time>2026-04-12T16:27:27.999Z</time></trkpt><trkpt lat="44.89307806542621" lon="-1.1852071121190326"><ele>17.0</ele><time>2026-04-12T16:27:30.999Z</time></trkpt><trkpt lat="44.893138559492215" lon="-1.1852383457104736"><ele>17.0</ele><time>2026-04-12T16:27:31.999Z</time></trkpt><trkpt lat="44.893206231605355" lon="-1.185218498800237"><ele>17.0</ele><time>2026-04-12T16:27:32.999Z</time></trkpt><trkpt lat="44.893281687652824" lon="-1.185171021861254"><ele>17.0</ele><time>2026-04-12T16:27:33.999Z</time></trkpt><trkpt lat="44.89336966107711" lon="-1.1851336135997377"><ele>17.0</ele><time>2026-04-12T16:27:34.999Z</time></trkpt><trkpt lat="44.89343457832217" lon="-1.1850766510461819"><ele>17.0</ele><time>2026-04-12T16:27:35.999Z</time></trkpt><trkpt lat="44.893519427191194" lon="-1.1850189750220752"><ele>17.0</ele><time>2026-04-12T16:27:37.999Z</time></trkpt><trkpt lat="44.893615192648376" lon="-1.1850038241484262"><ele>17.0</ele><time>2026-04-12T16:27:39.999Z</time></trkpt><trkpt lat="44.89371210117876" lon="-1.1850169695372172"><ele>17.0</ele><time>2026-04-12T16:27:41.999Z</time></trkpt><trkpt lat="44.8937800509296" lon="-1.1849916813571595"><ele>17.0</ele><time>2026-04-12T16:27:45.999Z</time></trkpt><trkpt lat="44.89385008176319" lon="-1.1849153439016744"><ele>17.0</ele><time>2026-04-12T16:28:10.998Z</time></trkpt><trkpt lat="44.893881391204076" lon="-1.1848154926250138"><ele>17.0</ele><time>2026-04-12T16:28:12.998Z</time></trkpt><trkpt lat="44.893878294204654" lon="-1.184660895860732"><ele>17.0</ele><time>2026-04-12T16:28:17.998Z</time></trkpt><trkpt lat="44.89384584438724" lon="-1.184563489806726"><ele>17.0</ele><time>2026-04-12T16:28:18.998Z</time></trkpt><trkpt lat="44.89381518296842" lon="-1.1843869665690008"><ele>17.0</ele><time>2026-04-12T16:28:20.998Z</time></trkpt><trkpt lat="44.89379003243091" lon="-1.1842791163735535"><ele>17.0</ele><time>2026-04-12T16:28:21.998Z</time></trkpt><trkpt lat="44.893771589889376" lon="-1.1841779338186116"><ele>17.0</ele><time>2026-04-12T16:28:22.998Z</time></trkpt><trkpt lat="44.89374447516157" lon="-1.1840505106462709"><ele>17.0</ele><time>2026-04-12T16:28:23.998Z</time></trkpt><trkpt lat="44.893704756534106" lon="-1.1839014253575437"><ele>17.0</ele><time>2026-04-12T16:28:24.998Z</time></trkpt><trkpt lat="44.893678727303296" lon="-1.1838016495445924"><ele>17.0</ele><time>2026-04-12T16:28:25.998Z</time></trkpt><trkpt lat="44.89366335976838" lon="-1.1837144407956712"><ele>17.0</ele><time>2026-04-12T16:28:27.998Z</time></trkpt><trkpt lat="44.8936524504409" lon="-1.1836248265876612"><ele>17.0</ele><time>2026-04-12T16:28:29.998Z</time></trkpt><trkpt lat="44.89363637447391" lon="-1.183524962590084"><ele>16.4</ele><time>2026-04-12T16:28:30.998Z</time></trkpt><trkpt lat="44.893647394988406" lon="-1.1834079190255002"><ele>15.799999999999999</ele><time>2026-04-12T16:28:32.998Z</time></trkpt><trkpt lat="44.8936111491728" lon="-1.183296414941195"><ele>15.2</ele><time>2026-04-12T16:28:34.998Z</time></trkpt><trkpt lat="44.89360228822516" lon="-1.1831641212593513"><ele>14.6</ele><time>2026-04-12T16:28:35.998Z</time></trkpt><trkpt lat="44.89359665565592" lon="-1.183036915436138"><ele>14.0</ele><time>2026-04-12T16:28:36.998Z</time></trkpt><trkpt lat="44.893575051793455" lon="-1.1828876097926395"><ele>14.0</ele><time>2026-04-12T16:28:37.998Z</time></trkpt><trkpt lat="44.89356323818137" lon="-1.1827761193144135"><ele>13.999999999999998</ele><time>2026-04-12T16:28:38.998Z</time></trkpt><trkpt lat="44.89354895910515" lon="-1.1826577305965535"><ele>13.999999999999998</ele><time>2026-04-12T16:28:39.998Z</time></trkpt><trkpt lat="44.89353348724651" lon="-1.182477659322918"><ele>14.0</ele><time>2026-04-12T16:28:41.998Z</time></trkpt><trkpt lat="44.89352899416461" lon="-1.1823589656870068"><ele>14.0</ele><time>2026-04-12T16:28:42.998Z</time></trkpt><trkpt lat="44.89347844198574" lon="-1.1821093906995088"><ele>14.0</ele><time>2026-04-12T16:28:44.998Z</time></trkpt><trkpt lat="44.89344704320232" lon="-1.181999515222497"><ele>14.0</ele><time>2026-04-12T16:28:46.998Z</time></trkpt><trkpt lat="44.893404168047454" lon="-1.181848651403786"><ele>14.0</ele><time>2026-04-12T16:28:48.998Z</time></trkpt><trkpt lat="44.89336993255326" lon="-1.1816438189935476"><ele>14.0</ele><time>2026-04-12T16:28:50.997Z</time></trkpt><trkpt lat="44.89334984176721" lon="-1.181477271251664"><ele>14.500000000000002</ele><time>2026-04-12T16:28:51.997Z</time></trkpt><trkpt lat="44.893334700603845" lon="-1.181386148066174"><ele>15.0</ele><time>2026-04-12T16:28:53Z</time></trkpt><trkpt lat="44.89328564424989" lon="-1.1812541729689643"><ele>15.5</ele><time>2026-04-12T16:28:55Z</time></trkpt><trkpt lat="44.89325754077887" lon="-1.181164196111383"><ele>16.0</ele><time>2026-04-12T16:28:56Z</time></trkpt><trkpt lat="44.8932807463121" lon="-1.181077734968977"><ele>16.5</ele><time>2026-04-12T16:28:58Z</time></trkpt><trkpt lat="44.893346439785965" lon="-1.1809752481081317"><ele>17.0</ele><time>2026-04-12T16:29:00Z</time></trkpt><trkpt lat="44.89337101697804" lon="-1.1808802911988139"><ele>17.0</ele><time>2026-04-12T16:29:01Z</time></trkpt><trkpt lat="44.89338036875999" lon="-1.1807740430783193"><ele>17.0</ele><time>2026-04-12T16:29:03Z</time></trkpt><trkpt lat="44.89340261534827" lon="-1.1806452401824878"><ele>17.0</ele><time>2026-04-12T16:29:26.999Z</time></trkpt><trkpt lat="44.89339223810567" lon="-1.1805076624111264"><ele>17.0</ele><time>2026-04-12T16:29:28.999Z</time></trkpt><trkpt lat="44.89335802876338" lon="-1.1804226926789008"><ele>17.0</ele><time>2026-04-12T16:29:29.999Z</time></trkpt><trkpt lat="44.89328457137392" lon="-1.1802929356335194"><ele>16.8</ele><time>2026-04-12T16:29:30.999Z</time></trkpt><trkpt lat="44.893217966598726" lon="-1.1801591440174117"><ele>16.6</ele><time>2026-04-12T16:29:31.999Z</time></trkpt><trkpt lat="44.89314265278357" lon="-1.1800295731492585"><ele>16.400000000000002</ele><time>2026-04-12T16:29:32.999Z</time></trkpt><trkpt lat="44.89308408307287" lon="-1.1799135083079133"><ele>16.2</ele><time>2026-04-12T16:29:33.999Z</time></trkpt><trkpt lat="44.89304331150054" lon="-1.1798275773736175"><ele>16.0</ele><time>2026-04-12T16:29:34.999Z</time></trkpt><trkpt lat="44.892972816021754" lon="-1.1797025659418696"><ele>15.75</ele><time>2026-04-12T16:29:35.999Z</time></trkpt><trkpt lat="44.89287503310671" lon="-1.1795665909917867"><ele>15.5</ele><time>2026-04-12T16:29:36.999Z</time></trkpt><trkpt lat="44.89279000194762" lon="-1.179412880533278"><ele>15.25</ele><time>2026-04-12T16:29:37.999Z</time></trkpt><trkpt lat="44.89273556100975" lon="-1.1792952258532365"><ele>15.0</ele><time>2026-04-12T16:29:38.999Z</time></trkpt><trkpt lat="44.89267101463836" lon="-1.1791786634145622"><ele>15.0</ele><time>2026-04-12T16:29:39.999Z</time></trkpt><trkpt lat="44.892576082216074" lon="-1.1790592746889728"><ele>15.0</ele><time>2026-04-12T16:29:40.999Z</time></trkpt><trkpt lat="44.89247877133887" lon="-1.178948674417483"><ele>15.0</ele><time>2026-04-12T16:29:41.999Z</time></trkpt><trkpt lat="44.892396975530836" lon="-1.1788539898426753"><ele>15.0</ele><time>2026-04-12T16:29:42.999Z</time></trkpt><trkpt lat="44.89230084114872" lon="-1.1787507715158179"><ele>14.8</ele><time>2026-04-12T16:29:43.999Z</time></trkpt><trkpt lat="44.89220104454994" lon="-1.178647192197046"><ele>14.6</ele><time>2026-04-12T16:29:44.999Z</time></trkpt><trkpt lat="44.89210910356519" lon="-1.1785539775359086"><ele>14.399999999999999</ele><time>2026-04-12T16:29:45.999Z</time></trkpt><trkpt lat="44.892029379339554" lon="-1.1784566988711798"><ele>14.2</ele><time>2026-04-12T16:29:46.999Z</time></trkpt><trkpt lat="44.891945189406705" lon="-1.1783739323401319"><ele>14.0</ele><time>2026-04-12T16:29:47.999Z</time></trkpt><trkpt lat="44.891857403071285" lon="-1.1783036512035574"><ele>14.0</ele><time>2026-04-12T16:29:48.999Z</time></trkpt><trkpt lat="44.89176551475562" lon="-1.1782239724525696"><ele>13.999999999999998</ele><time>2026-04-12T16:29:50.999Z</time></trkpt><trkpt lat="44.89169332312743" lon="-1.1781618869750734"><ele>13.999999999999998</ele><time>2026-04-12T16:29:51.999Z</time></trkpt><trkpt lat="44.89159793536396" lon="-1.1780668543940276"><ele>14.0</ele><time>2026-04-12T16:29:52.999Z</time></trkpt><trkpt lat="44.89151135220647" lon="-1.1779911348038021"><ele>14.0</ele><time>2026-04-12T16:29:53.999Z</time></trkpt><trkpt lat="44.89141774155442" lon="-1.1779251038486716"><ele>14.799999999999999</ele><time>2026-04-12T16:29:54.999Z</time></trkpt><trkpt lat="44.89132138091288" lon="-1.1778197511526982"><ele>15.599999999999998</ele><time>2026-04-12T16:29:55.999Z</time></trkpt><trkpt lat="44.89122719784838" lon="-1.177759106057482"><ele>16.4</ele><time>2026-04-12T16:29:56.999Z</time></trkpt><trkpt lat="44.89114983617272" lon="-1.1777092135507705"><ele>17.2</ele><time>2026-04-12T16:29:57.999Z</time></trkpt><trkpt lat="44.89108796447333" lon="-1.1776620536982372"><ele>18.0</ele><time>2026-04-12T16:29:58.999Z</time></trkpt><trkpt lat="44.89099703189031" lon="-1.1775922268532728"><ele>18.0</ele><time>2026-04-12T16:30:00.999Z</time></trkpt><trkpt lat="44.89102171803346" lon="-1.1774792162125651"><ele>18.0</ele><time>2026-04-12T16:30:02.998Z</time></trkpt><trkpt lat="44.89106771440693" lon="-1.1773772440101644"><ele>18.0</ele><time>2026-04-12T16:30:03.998Z</time></trkpt><trkpt lat="44.8910869482717" lon="-1.1772530716784078"><ele>18.0</ele><time>2026-04-12T16:30:05.998Z</time></trkpt><trkpt lat="44.89106409135153" lon="-1.1771617672085732"><ele>18.0</ele><time>2026-04-12T16:30:06.998Z</time></trkpt><trkpt lat="44.89099385971791" lon="-1.1770602410921973"><ele>18.0</ele><time>2026-04-12T16:30:07.998Z</time></trkpt><trkpt lat="44.890916501945426" lon="-1.1770163872112647"><ele>18.333333333333332</ele><time>2026-04-12T16:30:08.998Z</time></trkpt><trkpt lat="44.89083868355791" lon="-1.1770177492594054"><ele>18.666666666666668</ele><time>2026-04-12T16:30:09.998Z</time></trkpt><trkpt lat="44.8907747902581" lon="-1.177015417247655"><ele>19.0</ele><time>2026-04-12T16:30:10.998Z</time></trkpt><trkpt lat="44.89069195185611" lon="-1.176949542574003"><ele>19.333333333333336</ele><time>2026-04-12T16:30:11.998Z</time></trkpt><trkpt lat="44.890629228367445" lon="-1.1768716514192408"><ele>19.666666666666668</ele><time>2026-04-12T16:30:12.998Z</time></trkpt><trkpt lat="44.890600053948" lon="-1.1767836516395622"><ele>20.0</ele><time>2026-04-12T16:30:13.998Z</time></trkpt><trkpt lat="44.89057491296676" lon="-1.1766700593824506"><ele>22.0</ele><time>2026-04-12T16:30:14.998Z</time></trkpt><trkpt lat="44.89056461064818" lon="-1.1765119960092352"><ele>24.0</ele><time>2026-04-12T16:30:15.998Z</time></trkpt><trkpt lat="44.890530197562995" lon="-1.1763211115738947"><ele>26.0</ele><time>2026-04-12T16:30:16.998Z</time></trkpt><trkpt lat="44.890457361741866" lon="-1.1761570805162147"><ele>28.0</ele><time>2026-04-12T16:30:17.998Z</time></trkpt><trkpt lat="44.89037988126202" lon="-1.176000778404084"><ele>28.0</ele><time>2026-04-12T16:30:18.998Z</time></trkpt><trkpt lat="44.89031569857392" lon="-1.1758630476560903"><ele>28.0</ele><time>2026-04-12T16:30:19.998Z</time></trkpt><trkpt lat="44.89023667976902" lon="-1.1757677928638264"><ele>28.0</ele><time>2026-04-12T16:30:20.998Z</time></trkpt><trkpt lat="44.890150040620036" lon="-1.1756332835983114"><ele>28.0</ele><time>2026-04-12T16:30:21.998Z</time></trkpt><trkpt lat="44.8900864470478" lon="-1.175505637854639"><ele>28.2</ele><time>2026-04-12T16:30:22.998Z</time></trkpt><trkpt lat="44.89001007990739" lon="-1.1754629254028615"><ele>28.4</ele><time>2026-04-12T16:30:23.998Z</time></trkpt><trkpt lat="44.889942680760996" lon="-1.175452256238002"><ele>28.599999999999998</ele><time>2026-04-12T16:30:24.998Z</time></trkpt><trkpt lat="44.889872968268" lon="-1.1754008083987533"><ele>28.799999999999997</ele><time>2026-04-12T16:30:25.998Z</time></trkpt><trkpt lat="44.88979804293973" lon="-1.1753105514092435"><ele>29.0</ele><time>2026-04-12T16:30:26.998Z</time></trkpt><trkpt lat="44.8897907318816" lon="-1.1751135263739436"><ele>29.0</ele><time>2026-04-12T16:30:27.998Z</time></trkpt><trkpt lat="44.88969822970411" lon="-1.174991195540951"><ele>29.0</ele><time>2026-04-12T16:30:28.998Z</time></trkpt><trkpt lat="44.88966892270503" lon="-1.174835378989108"><ele>29.0</ele><time>2026-04-12T16:30:30.998Z</time></trkpt><trkpt lat="44.88967577261039" lon="-1.1747371449951771"><ele>29.0</ele><time>2026-04-12T16:30:31.998Z</time></trkpt><trkpt lat="44.88964981105877" lon="-1.1745643249703888"><ele>29.0</ele><time>2026-04-12T16:30:32.998Z</time></trkpt><trkpt lat="44.889632429181155" lon="-1.1743502671768073"><ele>30.75</ele><time>2026-04-12T16:30:34.998Z</time></trkpt><trkpt lat="44.88970802302483" lon="-1.1742021081569742"><ele>32.5</ele><time>2026-04-12T16:30:36.998Z</time></trkpt><trkpt lat="44.889760212690135" lon="-1.174070538484928"><ele>34.25</ele><time>2026-04-12T16:30:37.998Z</time></trkpt><trkpt lat="44.889796599842064" lon="-1.1738614826122287"><ele>36.0</ele><time>2026-04-12T16:30:39.998Z</time></trkpt><trkpt lat="44.88981200819218" lon="-1.1737649987835856"><ele>36.666666666666664</ele><time>2026-04-12T16:30:40.998Z</time></trkpt><trkpt lat="44.889792360670796" lon="-1.173661080124996"><ele>37.333333333333336</ele><time>2026-04-12T16:30:41.998Z</time></trkpt><trkpt lat="44.88971891994642" lon="-1.1736179997265586"><ele>38.0</ele><time>2026-04-12T16:30:43.998Z</time></trkpt><trkpt lat="44.88965492337398" lon="-1.173625353327171"><ele>38.66666666666667</ele><time>2026-04-12T16:30:44.998Z</time></trkpt><trkpt lat="44.88958772435222" lon="-1.1736524695521802"><ele>39.333333333333336</ele><time>2026-04-12T16:30:45.998Z</time></trkpt><trkpt lat="44.88953620565066" lon="-1.1737350986661133"><ele>40.0</ele><time>2026-04-12T16:31:40.999Z</time></trkpt><trkpt lat="44.889449055502084" lon="-1.1737405455070447"><ele>40.0</ele><time>2026-04-12T16:31:42.999Z</time></trkpt><trkpt lat="44.88938962718804" lon="-1.1736726784536329"><ele>40.0</ele><time>2026-04-12T16:31:44.999Z</time></trkpt><trkpt lat="44.88933811458115" lon="-1.1736172821366735"><ele>40.0</ele><time>2026-04-12T16:31:45.999Z</time></trkpt><trkpt lat="44.889284499746516" lon="-1.173505582600027"><ele>40.0</ele><time>2026-04-12T16:31:47.999Z</time></trkpt><trkpt lat="44.88924896878439" lon="-1.1734321969637247"><ele>40.0</ele><time>2026-04-12T16:31:48.999Z</time></trkpt><trkpt lat="44.889208033287964" lon="-1.1733270232312294"><ele>40.0</ele><time>2026-04-12T16:31:49.999Z</time></trkpt><trkpt lat="44.889160683600814" lon="-1.173193773161375"><ele>39.8</ele><time>2026-04-12T16:31:50.999Z</time></trkpt><trkpt lat="44.88913830073773" lon="-1.1730942123660082"><ele>39.6</ele><time>2026-04-12T16:31:51.999Z</time></trkpt><trkpt lat="44.8891195758205" lon="-1.1729820198847112"><ele>39.4</ele><time>2026-04-12T16:31:52.999Z</time></trkpt><trkpt lat="44.889116977749616" lon="-1.1728405142654157"><ele>39.2</ele><time>2026-04-12T16:31:53.999Z</time></trkpt><trkpt lat="44.889114738059014" lon="-1.172696230746049"><ele>39.0</ele><time>2026-04-12T16:31:54.999Z</time></trkpt><trkpt lat="44.88910350475797" lon="-1.1725568159688362"><ele>39.0</ele><time>2026-04-12T16:31:55.999Z</time></trkpt><trkpt lat="44.88909257785928" lon="-1.172435675198705"><ele>39.0</ele><time>2026-04-12T16:31:56.999Z</time></trkpt><trkpt lat="44.889078898711986" lon="-1.1723041519234945"><ele>39.0</ele><time>2026-04-12T16:31:57.999Z</time></trkpt><trkpt lat="44.88906956675176" lon="-1.172172371662321"><ele>39.0</ele><time>2026-04-12T16:31:58.999Z</time></trkpt><trkpt lat="44.88906657130369" lon="-1.1720262508868013"><ele>39.0</ele><time>2026-04-12T16:31:59.999Z</time></trkpt><trkpt lat="44.8890671009817" lon="-1.1719189342922265"><ele>37.8</ele><time>2026-04-12T16:32:00.999Z</time></trkpt><trkpt lat="44.88901304020164" lon="-1.1718189729001651"><ele>36.599999999999994</ele><time>2026-04-12T16:32:02.999Z</time></trkpt><trkpt lat="44.888908721212964" lon="-1.1717713172979412"><ele>35.4</ele><time>2026-04-12T16:32:04.998Z</time></trkpt><trkpt lat="44.88882956082226" lon="-1.1717383559240844"><ele>34.199999999999996</ele><time>2026-04-12T16:32:08.998Z</time></trkpt><trkpt lat="44.88875871956453" lon="-1.1716573466894247"><ele>33.0</ele><time>2026-04-12T16:32:11.998Z</time></trkpt><trkpt lat="44.88868878729422" lon="-1.1715866746118977"><ele>33.0</ele><time>2026-04-12T16:32:14.998Z</time></trkpt><trkpt lat="44.88861468290025" lon="-1.1715275932542017"><ele>33.0</ele><time>2026-04-12T16:32:16.998Z</time></trkpt><trkpt lat="44.88850412791689" lon="-1.171551934759106"><ele>33.0</ele><time>2026-04-12T16:32:18.998Z</time></trkpt><trkpt lat="44.88842712102337" lon="-1.1715405913618118"><ele>33.0</ele><time>2026-04-12T16:32:19.998Z</time></trkpt><trkpt lat="44.888350860374956" lon="-1.1715267092574173"><ele>33.0</ele><time>2026-04-12T16:32:20.998Z</time></trkpt><trkpt lat="44.88820647504817" lon="-1.1715539244438171"><ele>33.0</ele><time>2026-04-12T16:32:22.998Z</time></trkpt><trkpt lat="44.88813990162443" lon="-1.1715719826668805"><ele>33.0</ele><time>2026-04-12T16:32:23.998Z</time></trkpt><trkpt lat="44.888059383694795" lon="-1.1715809275148343"><ele>33.0</ele><time>2026-04-12T16:32:24.998Z</time></trkpt><trkpt lat="44.88797237966172" lon="-1.1715839654559754"><ele>33.0</ele><time>2026-04-12T16:32:25.998Z</time></trkpt><trkpt lat="44.887906535032634" lon="-1.1715935625184957"><ele>33.0</ele><time>2026-04-12T16:32:26.998Z</time></trkpt><trkpt lat="44.88783956844692" lon="-1.171593151457035"><ele>33.0</ele><time>2026-04-12T16:32:27.998Z</time></trkpt><trkpt lat="44.88776088820689" lon="-1.1716045550535732"><ele>33.0</ele><time>2026-04-12T16:32:28.998Z</time></trkpt><trkpt lat="44.8876914959413" lon="-1.17160600644679"><ele>33.0</ele><time>2026-04-12T16:32:29.998Z</time></trkpt><trkpt lat="44.88762392555203" lon="-1.1716071951319083"><ele>33.0</ele><time>2026-04-12T16:32:30.998Z</time></trkpt><trkpt lat="44.88754987166059" lon="-1.1716166966563628"><ele>33.0</ele><time>2026-04-12T16:32:31.998Z</time></trkpt><trkpt lat="44.88741294449083" lon="-1.171640513639307"><ele>33.0</ele><time>2026-04-12T16:32:33.998Z</time></trkpt><trkpt lat="44.887288363592255" lon="-1.171665271167862"><ele>33.0</ele><time>2026-04-12T16:32:34.998Z</time></trkpt><trkpt lat="44.887091491928615" lon="-1.1716806901578432"><ele>31.0</ele><time>2026-04-12T16:32:35.998Z</time></trkpt><trkpt lat="44.886913133613895" lon="-1.1716915049777137"><ele>29.0</ele><time>2026-04-12T16:32:36.998Z</time></trkpt><trkpt lat="44.886793793463944" lon="-1.1717023229152612"><ele>27.0</ele><time>2026-04-12T16:32:37.998Z</time></trkpt><trkpt lat="44.88671161252071" lon="-1.171716614023808"><ele>25.0</ele><time>2026-04-12T16:32:38.998Z</time></trkpt><trkpt lat="44.886597449742524" lon="-1.1717280026408687"><ele>23.833333333333336</ele><time>2026-04-12T16:32:39.998Z</time></trkpt><trkpt lat="44.8865204070483" lon="-1.171737743475548"><ele>22.666666666666668</ele><time>2026-04-12T16:32:40.998Z</time></trkpt><trkpt lat="44.88643674414282" lon="-1.171743802427831"><ele>21.5</ele><time>2026-04-12T16:32:41.998Z</time></trkpt><trkpt lat="44.88635850316265" lon="-1.171724965039813"><ele>20.333333333333336</ele><time>2026-04-12T16:32:42.998Z</time></trkpt><trkpt lat="44.8862671377111" lon="-1.171698543329625"><ele>19.166666666666668</ele><time>2026-04-12T16:32:43.998Z</time></trkpt><trkpt lat="44.88619466049169" lon="-1.171708815116447"><ele>18.0</ele><time>2026-04-12T16:32:45.998Z</time></trkpt><trkpt lat="44.886105630836305" lon="-1.171743380476564"><ele>18.0</ele><time>2026-04-12T16:32:47.998Z</time></trkpt><trkpt lat="44.88602700479708" lon="-1.171749312116002"><ele>18.0</ele><time>2026-04-12T16:32:50.998Z</time></trkpt><trkpt lat="44.88595278283635" lon="-1.1717674592530183"><ele>18.0</ele><time>2026-04-12T16:32:51.998Z</time></trkpt><trkpt lat="44.8858595665852" lon="-1.171792572611199"><ele>18.0</ele><time>2026-04-12T16:32:53.997Z</time></trkpt><trkpt lat="44.885781926229114" lon="-1.1717880956019215"><ele>18.0</ele><time>2026-04-12T16:32:55.997Z</time></trkpt><trkpt lat="44.88571051620799" lon="-1.171791835833532"><ele>18.0</ele><time>2026-04-12T16:32:57.997Z</time></trkpt><trkpt lat="44.88561234981871" lon="-1.1718063659502922"><ele>17.4</ele><time>2026-04-12T16:33:00.997Z</time></trkpt><trkpt lat="44.88553804919811" lon="-1.171807599152093"><ele>16.8</ele><time>2026-04-12T16:33:02.997Z</time></trkpt><trkpt lat="44.88544917664572" lon="-1.1718098125780718"><ele>16.2</ele><time>2026-04-12T16:33:04.999Z</time></trkpt><trkpt lat="44.885330755504384" lon="-1.171813626215134"><ele>15.6</ele><time>2026-04-12T16:33:06.999Z</time></trkpt><trkpt lat="44.88523478558022" lon="-1.171820138843575"><ele>15.0</ele><time>2026-04-12T16:33:08.999Z</time></trkpt><trkpt lat="44.88516023488078" lon="-1.171849025165575"><ele>15.4</ele><time>2026-04-12T16:33:11.999Z</time></trkpt><trkpt lat="44.88508145645099" lon="-1.1718705419514452"><ele>15.8</ele><time>2026-04-12T16:33:12.999Z</time></trkpt><trkpt lat="44.884972232781784" lon="-1.1718790949903557"><ele>16.2</ele><time>2026-04-12T16:33:13.999Z</time></trkpt><trkpt lat="44.88485331058323" lon="-1.1718899184187466"><ele>16.6</ele><time>2026-04-12T16:33:14.999Z</time></trkpt><trkpt lat="44.88478238300085" lon="-1.1718811730774716"><ele>17.0</ele><time>2026-04-12T16:33:15.999Z</time></trkpt><trkpt lat="44.88466780669788" lon="-1.1718684566465525"><ele>17.0</ele><time>2026-04-12T16:33:17.999Z</time></trkpt><trkpt lat="44.88460199393039" lon="-1.1718063921274502"><ele>17.0</ele><time>2026-04-12T16:33:19.999Z</time></trkpt><trkpt lat="44.884571777308736" lon="-1.17169228978795"><ele>17.0</ele><time>2026-04-12T16:33:21.999Z</time></trkpt><trkpt lat="44.88458637007361" lon="-1.1715775321084854"><ele>17.0</ele><time>2026-04-12T16:33:22.999Z</time></trkpt><trkpt lat="44.88458723777772" lon="-1.171425023484132"><ele>17.0</ele><time>2026-04-12T16:33:23.999Z</time></trkpt><trkpt lat="44.88456678070689" lon="-1.1712373209629336"><ele>16.333333333333336</ele><time>2026-04-12T16:33:24.999Z</time></trkpt><trkpt lat="44.88453916728711" lon="-1.1710391214436204"><ele>15.666666666666668</ele><time>2026-04-12T16:33:25.999Z</time></trkpt><trkpt lat="44.88451725108678" lon="-1.170830330664059"><ele>15.0</ele><time>2026-04-12T16:33:26.999Z</time></trkpt><trkpt lat="44.88449784148642" lon="-1.1705455926312123"><ele>15.0</ele><time>2026-04-12T16:33:27.999Z</time></trkpt><trkpt lat="44.88447067113739" lon="-1.1703157811591967"><ele>15.0</ele><time>2026-04-12T16:33:29Z</time></trkpt><trkpt lat="44.88446725904834" lon="-1.1701907849205018"><ele>15.0</ele><time>2026-04-12T16:33:30Z</time></trkpt><trkpt lat="44.88444577879734" lon="-1.1699648201679356"><ele>15.0</ele><time>2026-04-12T16:33:32Z</time></trkpt><trkpt lat="44.884424819019195" lon="-1.1697915462529995"><ele>15.25</ele><time>2026-04-12T16:33:33Z</time></trkpt><trkpt lat="44.884408994415544" lon="-1.1695911351032096"><ele>15.5</ele><time>2026-04-12T16:33:34Z</time></trkpt><trkpt lat="44.88439043199158" lon="-1.169381258070352"><ele>15.75</ele><time>2026-04-12T16:33:35Z</time></trkpt><trkpt lat="44.88435434676746" lon="-1.169179090085355"><ele>16.0</ele><time>2026-04-12T16:33:36Z</time></trkpt><trkpt lat="44.88434129178706" lon="-1.1689613543956114"><ele>16.5</ele><time>2026-04-12T16:33:37Z</time></trkpt><trkpt lat="44.8843256178533" lon="-1.1687872140196274"><ele>17.0</ele><time>2026-04-12T16:33:38Z</time></trkpt><trkpt lat="44.8843155125532" lon="-1.168639290047878"><ele>17.5</ele><time>2026-04-12T16:33:39Z</time></trkpt><trkpt lat="44.884311589882714" lon="-1.1684612609774314"><ele>18.0</ele><time>2026-04-12T16:33:40Z</time></trkpt><trkpt lat="44.884311800098175" lon="-1.1683190887302843"><ele>18.2</ele><time>2026-04-12T16:33:41Z</time></trkpt><trkpt lat="44.88427459127274" lon="-1.1681555100044159"><ele>18.4</ele><time>2026-04-12T16:33:43Z</time></trkpt><trkpt lat="44.884257926624116" lon="-1.1680510522040943"><ele>18.599999999999998</ele><time>2026-04-12T16:33:46Z</time></trkpt><trkpt lat="44.8842544107598" lon="-1.1678683678060122"><ele>18.8</ele><time>2026-04-12T16:33:54Z</time></trkpt><trkpt lat="44.88425612460649" lon="-1.167762293785225"><ele>19.0</ele><time>2026-04-12T16:33:55Z</time></trkpt><trkpt lat="44.88424274776828" lon="-1.1676271562649574"><ele>18.0</ele><time>2026-04-12T16:33:56Z</time></trkpt><trkpt lat="44.88423520574926" lon="-1.1675041402748627"><ele>17.0</ele><time>2026-04-12T16:33:57Z</time></trkpt><trkpt lat="44.88418899203061" lon="-1.1673408775654386"><ele>15.999999999999998</ele><time>2026-04-12T16:33:59Z</time></trkpt><trkpt lat="44.88418754115327" lon="-1.167226081703985"><ele>15.0</ele><time>2026-04-12T16:34:00Z</time></trkpt><trkpt lat="44.88418732501286" lon="-1.16709124115131"><ele>14.0</ele><time>2026-04-12T16:34:01Z</time></trkpt><trkpt lat="44.88416240108765" lon="-1.1669216486758962"><ele>14.0</ele><time>2026-04-12T16:34:02Z</time></trkpt><trkpt lat="44.884132802336886" lon="-1.1667159606706328"><ele>14.0</ele><time>2026-04-12T16:34:03Z</time></trkpt><trkpt lat="44.884111918681874" lon="-1.1664742588318922"><ele>14.0</ele><time>2026-04-12T16:34:04Z</time></trkpt><trkpt lat="44.88410098344798" lon="-1.1662045815227162"><ele>14.399999999999999</ele><time>2026-04-12T16:34:05Z</time></trkpt><trkpt lat="44.884033394743" lon="-1.1660472535706834"><ele>14.799999999999999</ele><time>2026-04-12T16:34:06Z</time></trkpt><trkpt lat="44.88401552793222" lon="-1.1659001846785315"><ele>15.200000000000001</ele><time>2026-04-12T16:34:07Z</time></trkpt><trkpt lat="44.884013733459824" lon="-1.1657668064856366"><ele>15.600000000000001</ele><time>2026-04-12T16:34:07.999Z</time></trkpt><trkpt lat="44.884013331754154" lon="-1.1656160604651205"><ele>16.0</ele><time>2026-04-12T16:34:08.999Z</time></trkpt><trkpt lat="44.88401254097855" lon="-1.1654522469764172"><ele>16.25</ele><time>2026-04-12T16:34:09.999Z</time></trkpt><trkpt lat="44.88399524808482" lon="-1.1652782831375375"><ele>16.5</ele><time>2026-04-12T16:34:10.999Z</time></trkpt><trkpt lat="44.88396303886831" lon="-1.1650989197068014"><ele>16.75</ele><time>2026-04-12T16:34:11.999Z</time></trkpt><trkpt lat="44.883945169553336" lon="-1.1649092032796127"><ele>17.0</ele><time>2026-04-12T16:34:12.999Z</time></trkpt><trkpt lat="44.883935470890165" lon="-1.164695084120908"><ele>17.6</ele><time>2026-04-12T16:34:13.999Z</time></trkpt><trkpt lat="44.88391903273994" lon="-1.164546496908475"><ele>18.2</ele><time>2026-04-12T16:34:14.999Z</time></trkpt><trkpt lat="44.88390796986429" lon="-1.1643932641592474"><ele>18.8</ele><time>2026-04-12T16:34:15.999Z</time></trkpt><trkpt lat="44.883896939041556" lon="-1.1642572911631335"><ele>19.4</ele><time>2026-04-12T16:34:16.999Z</time></trkpt><trkpt lat="44.883854767273284" lon="-1.1641765730117772"><ele>20.0</ele><time>2026-04-12T16:34:18.999Z</time></trkpt><trkpt lat="44.8837879028631" lon="-1.1640789968579603"><ele>21.6</ele><time>2026-04-12T16:34:20.999Z</time></trkpt><trkpt lat="44.883724804700684" lon="-1.1639759877439846"><ele>23.2</ele><time>2026-04-12T16:34:23.999Z</time></trkpt><trkpt lat="44.883693870638126" lon="-1.1638764773306631"><ele>24.799999999999997</ele><time>2026-04-12T16:34:25.999Z</time></trkpt><trkpt lat="44.88365803517336" lon="-1.1637376094151335"><ele>26.4</ele><time>2026-04-12T16:34:27.999Z</time></trkpt><trkpt lat="44.883627084419835" lon="-1.163655142611627"><ele>28.0</ele><time>2026-04-12T16:34:28.999Z</time></trkpt><trkpt lat="44.883590822566234" lon="-1.1634846498626334"><ele>28.0</ele><time>2026-04-12T16:34:29.999Z</time></trkpt><trkpt lat="44.88355696574104" lon="-1.1633371824577206"><ele>27.999999999999996</ele><time>2026-04-12T16:34:30.999Z</time></trkpt><trkpt lat="44.88352972944824" lon="-1.1632123836720492"><ele>27.999999999999996</ele><time>2026-04-12T16:34:31.999Z</time></trkpt><trkpt lat="44.8835011710791" lon="-1.1630837210974057"><ele>28.0</ele><time>2026-04-12T16:34:32.999Z</time></trkpt><trkpt lat="44.88345161823835" lon="-1.162931309116593"><ele>28.0</ele><time>2026-04-12T16:34:33.999Z</time></trkpt><trkpt lat="44.88341320088137" lon="-1.162825270612459"><ele>26.500000000000004</ele><time>2026-04-12T16:34:34.999Z</time></trkpt><trkpt lat="44.883391406611224" lon="-1.1627199771344692"><ele>25.0</ele><time>2026-04-12T16:34:35.999Z</time></trkpt><trkpt lat="44.8833674337714" lon="-1.1626213744620058"><ele>23.5</ele><time>2026-04-12T16:34:36.999Z</time></trkpt><trkpt lat="44.88334085717015" lon="-1.1625393540019602"><ele>22.0</ele><time>2026-04-12T16:34:37.999Z</time></trkpt><trkpt lat="44.88331246054186" lon="-1.1624440914393797"><ele>20.5</ele><time>2026-04-12T16:34:38.999Z</time></trkpt><trkpt lat="44.88327848598018" lon="-1.1623226739782684"><ele>19.0</ele><time>2026-04-12T16:34:39.999Z</time></trkpt><trkpt lat="44.88324376143733" lon="-1.1622078454817628"><ele>19.0</ele><time>2026-04-12T16:34:40.999Z</time></trkpt><trkpt lat="44.88320814129784" lon="-1.1620720542598868"><ele>19.0</ele><time>2026-04-12T16:34:41.999Z</time></trkpt><trkpt lat="44.88317215769617" lon="-1.1619161957101016"><ele>19.0</ele><time>2026-04-12T16:34:42.999Z</time></trkpt><trkpt lat="44.88312937818458" lon="-1.1617661560279298"><ele>19.0</ele><time>2026-04-12T16:34:43.999Z</time></trkpt><trkpt lat="44.883088734258415" lon="-1.1615599581350993"><ele>19.0</ele><time>2026-04-12T16:34:44.999Z</time></trkpt><trkpt lat="44.883031422024416" lon="-1.1613523704273352"><ele>19.0</ele><time>2026-04-12T16:34:45.999Z</time></trkpt><trkpt lat="44.88298639582888" lon="-1.16120244110682"><ele>19.0</ele><time>2026-04-12T16:34:46.999Z</time></trkpt><trkpt lat="44.88295096252556" lon="-1.1610628245409746"><ele>19.0</ele><time>2026-04-12T16:34:47.999Z</time></trkpt><trkpt lat="44.882916128720815" lon="-1.1609218442047"><ele>19.0</ele><time>2026-04-12T16:34:48.999Z</time></trkpt><trkpt lat="44.882888128020284" lon="-1.1607826984895413"><ele>19.0</ele><time>2026-04-12T16:34:49.999Z</time></trkpt><trkpt lat="44.88284885686077" lon="-1.1606514512646215"><ele>19.0</ele><time>2026-04-12T16:34:50.999Z</time></trkpt><trkpt lat="44.88280575652596" lon="-1.1605361940502772"><ele>19.0</ele><time>2026-04-12T16:34:51.999Z</time></trkpt><trkpt lat="44.882765271848605" lon="-1.1603757956989098"><ele>19.0</ele><time>2026-04-12T16:34:52.999Z</time></trkpt><trkpt lat="44.882725332494005" lon="-1.160179482931029"><ele>19.2</ele><time>2026-04-12T16:34:53.999Z</time></trkpt><trkpt lat="44.88267197948846" lon="-1.1600177604372655"><ele>19.4</ele><time>2026-04-12T16:34:54.999Z</time></trkpt><trkpt lat="44.882643327685756" lon="-1.1599016649899634"><ele>19.6</ele><time>2026-04-12T16:34:55.999Z</time></trkpt><trkpt lat="44.882626590089174" lon="-1.1598124047699245"><ele>19.8</ele><time>2026-04-12T16:34:56.998Z</time></trkpt><trkpt lat="44.88258224810268" lon="-1.159691794097608"><ele>20.0</ele><time>2026-04-12T16:34:57.998Z</time></trkpt><trkpt lat="44.882543946167445" lon="-1.1595183418168622"><ele>19.6</ele><time>2026-04-12T16:34:58.998Z</time></trkpt><trkpt lat="44.882501156257966" lon="-1.1593675527905964"><ele>19.2</ele><time>2026-04-12T16:34:59.998Z</time></trkpt><trkpt lat="44.88247243040233" lon="-1.1592544932912834"><ele>18.8</ele><time>2026-04-12T16:35:00.998Z</time></trkpt><trkpt lat="44.882439553320275" lon="-1.159098235201759"><ele>18.4</ele><time>2026-04-12T16:35:01.998Z</time></trkpt><trkpt lat="44.88238595505748" lon="-1.1589346542073042"><ele>18.0</ele><time>2026-04-12T16:35:02.998Z</time></trkpt><trkpt lat="44.88235678116086" lon="-1.1587898927407874"><ele>18.0</ele><time>2026-04-12T16:35:03.998Z</time></trkpt><trkpt lat="44.8823254390621" lon="-1.1586792355149256"><ele>18.0</ele><time>2026-04-12T16:35:04.998Z</time></trkpt><trkpt lat="44.882300013518346" lon="-1.1585544882192345"><ele>18.0</ele><time>2026-04-12T16:35:05.998Z</time></trkpt><trkpt lat="44.88227465805294" lon="-1.1584088484433754"><ele>18.0</ele><time>2026-04-12T16:35:06.998Z</time></trkpt><trkpt lat="44.882237585954684" lon="-1.158261978200594"><ele>18.0</ele><time>2026-04-12T16:35:07.998Z</time></trkpt><trkpt lat="44.88219226235644" lon="-1.1581224232639469"><ele>18.0</ele><time>2026-04-12T16:35:08.998Z</time></trkpt><trkpt lat="44.88214091955707" lon="-1.1579293159428963"><ele>18.0</ele><time>2026-04-12T16:35:09.998Z</time></trkpt><trkpt lat="44.88210674795239" lon="-1.1577883961716315"><ele>18.0</ele><time>2026-04-12T16:35:11Z</time></trkpt><trkpt lat="44.88207530259118" lon="-1.1576553621986005"><ele>18.0</ele><time>2026-04-12T16:35:12Z</time></trkpt><trkpt lat="44.88205219927484" lon="-1.1575130213730311"><ele>18.0</ele><time>2026-04-12T16:35:13Z</time></trkpt><trkpt lat="44.88200689581251" lon="-1.1573495884344032"><ele>18.0</ele><time>2026-04-12T16:35:14Z</time></trkpt><trkpt lat="44.88196045204538" lon="-1.1572092484804373"><ele>18.0</ele><time>2026-04-12T16:35:15Z</time></trkpt><trkpt lat="44.881912942549356" lon="-1.1570418111638878"><ele>18.0</ele><time>2026-04-12T16:35:16Z</time></trkpt><trkpt lat="44.88186623479416" lon="-1.1568805902916512"><ele>18.0</ele><time>2026-04-12T16:35:17Z</time></trkpt><trkpt lat="44.88183044226326" lon="-1.1567340880369346"><ele>18.0</ele><time>2026-04-12T16:35:18Z</time></trkpt><trkpt lat="44.88180773599369" lon="-1.1566127791785545"><ele>18.0</ele><time>2026-04-12T16:35:19Z</time></trkpt><trkpt lat="44.881777437788124" lon="-1.15650556604563"><ele>18.0</ele><time>2026-04-12T16:35:20Z</time></trkpt><trkpt lat="44.88173243107654" lon="-1.1563676837439059"><ele>18.0</ele><time>2026-04-12T16:35:21Z</time></trkpt><trkpt lat="44.88169322487296" lon="-1.1562299789854316"><ele>17.8</ele><time>2026-04-12T16:35:22Z</time></trkpt><trkpt lat="44.881661855018905" lon="-1.1560694114531596"><ele>17.6</ele><time>2026-04-12T16:35:23Z</time></trkpt><trkpt lat="44.881626121045706" lon="-1.1559216494712856"><ele>17.4</ele><time>2026-04-12T16:35:24Z</time></trkpt><trkpt lat="44.8815929840091" lon="-1.155795052648073"><ele>17.2</ele><time>2026-04-12T16:35:25Z</time></trkpt><trkpt lat="44.88157028393166" lon="-1.1557089800849734"><ele>17.0</ele><time>2026-04-12T16:35:26Z</time></trkpt><trkpt lat="44.88154009516769" lon="-1.1555810244058484"><ele>17.333333333333336</ele><time>2026-04-12T16:35:27Z</time></trkpt><trkpt lat="44.88151057317418" lon="-1.1554642336911731"><ele>17.666666666666668</ele><time>2026-04-12T16:35:29Z</time></trkpt><trkpt lat="44.88148588781462" lon="-1.1553771283531358"><ele>18.0</ele><time>2026-04-12T16:35:31Z</time></trkpt><trkpt lat="44.88145067080667" lon="-1.1552709415614817"><ele>18.333333333333332</ele><time>2026-04-12T16:35:33Z</time></trkpt><trkpt lat="44.881388049207516" lon="-1.1552243921408734"><ele>18.666666666666664</ele><time>2026-04-12T16:35:37Z</time></trkpt><trkpt lat="44.88134924350115" lon="-1.1551080314560698"><ele>19.0</ele><time>2026-04-12T16:35:41Z</time></trkpt><trkpt lat="44.881391679037236" lon="-1.1549986158075094"><ele>19.0</ele><time>2026-04-12T16:35:43Z</time></trkpt><trkpt lat="44.88136401366294" lon="-1.1549066437800402"><ele>19.0</ele><time>2026-04-12T16:35:45Z</time></trkpt><trkpt lat="44.88130532289823" lon="-1.1547926957391232"><ele>19.0</ele><time>2026-04-12T16:35:48Z</time></trkpt><trkpt lat="44.881252281325615" lon="-1.1546114425868992"><ele>19.0</ele><time>2026-04-12T16:35:50Z</time></trkpt><trkpt lat="44.881220333147525" lon="-1.154496883065182"><ele>19.0</ele><time>2026-04-12T16:35:52Z</time></trkpt><trkpt lat="44.88121658254723" lon="-1.1543976621039251"><ele>19.333333333333332</ele><time>2026-04-12T16:35:54Z</time></trkpt><trkpt lat="44.88115854127895" lon="-1.1543609201691638"><ele>19.666666666666664</ele><time>2026-04-12T16:35:57Z</time></trkpt><trkpt lat="44.881107933561" lon="-1.1542823447213608"><ele>20.0</ele><time>2026-04-12T16:36:00Z</time></trkpt><trkpt lat="44.881132702053264" lon="-1.1541987756033103"><ele>20.333333333333332</ele><time>2026-04-12T16:36:02Z</time></trkpt><trkpt lat="44.88113544071723" lon="-1.1540857787339853"><ele>20.666666666666668</ele><time>2026-04-12T16:36:05Z</time></trkpt><trkpt lat="44.88107850854823" lon="-1.153921074137436"><ele>21.0</ele><time>2026-04-12T16:36:07.999Z</time></trkpt><trkpt lat="44.88104137967764" lon="-1.1538132909528003"><ele>21.166666666666668</ele><time>2026-04-12T16:36:09.999Z</time></trkpt><trkpt lat="44.88101945273861" lon="-1.1536961182424332"><ele>21.333333333333332</ele><time>2026-04-12T16:36:18.999Z</time></trkpt><trkpt lat="44.88099382034061" lon="-1.1535920717181456"><ele>21.5</ele><time>2026-04-12T16:36:19.999Z</time></trkpt><trkpt lat="44.88095256081842" lon="-1.1534953026425834"><ele>21.666666666666664</ele><time>2026-04-12T16:36:20.999Z</time></trkpt><trkpt lat="44.88094522162673" lon="-1.1533788679526096"><ele>21.833333333333332</ele><time>2026-04-12T16:36:21.999Z</time></trkpt><trkpt lat="44.880891354655176" lon="-1.1532637913867245"><ele>22.0</ele><time>2026-04-12T16:36:23.999Z</time></trkpt><trkpt lat="44.8808663852843" lon="-1.1530843857480728"><ele>21.0</ele><time>2026-04-12T16:36:25.999Z</time></trkpt><trkpt lat="44.8808409492491" lon="-1.1529640433069932"><ele>20.0</ele><time>2026-04-12T16:36:26.999Z</time></trkpt><trkpt lat="44.88080468724579" lon="-1.1528569305925171"><ele>19.0</ele><time>2026-04-12T16:36:27.999Z</time></trkpt><trkpt lat="44.880764587168635" lon="-1.1527448005650518"><ele>18.0</ele><time>2026-04-12T16:36:28.999Z</time></trkpt><trkpt lat="44.880731521350214" lon="-1.1525913806386887"><ele>17.0</ele><time>2026-04-12T16:36:29.999Z</time></trkpt><trkpt lat="44.88069065188512" lon="-1.1524596614798013"><ele>17.333333333333336</ele><time>2026-04-12T16:36:30.999Z</time></trkpt><trkpt lat="44.880662549888314" lon="-1.1523548097108254"><ele>17.666666666666668</ele><time>2026-04-12T16:36:31.999Z</time></trkpt><trkpt lat="44.88062437145765" lon="-1.1522326613120872"><ele>18.0</ele><time>2026-04-12T16:36:32.999Z</time></trkpt><trkpt lat="44.880603086482274" lon="-1.1521362908433321"><ele>18.333333333333332</ele><time>2026-04-12T16:36:33.999Z</time></trkpt><trkpt lat="44.88055691725786" lon="-1.1520042403025175"><ele>18.666666666666664</ele><time>2026-04-12T16:36:35.999Z</time></trkpt><trkpt lat="44.88054195894931" lon="-1.1518890106396877"><ele>19.0</ele><time>2026-04-12T16:36:37.999Z</time></trkpt><trkpt lat="44.880540135877176" lon="-1.1517683046915075"><ele>19.0</ele><time>2026-04-12T16:36:38.999Z</time></trkpt><trkpt lat="44.880509327344825" lon="-1.1516708509385343"><ele>19.0</ele><time>2026-04-12T16:36:39.999Z</time></trkpt><trkpt lat="44.88045716334698" lon="-1.1515224532176678"><ele>19.0</ele><time>2026-04-12T16:36:40.999Z</time></trkpt><trkpt lat="44.880423352311134" lon="-1.151406948199668"><ele>19.0</ele><time>2026-04-12T16:36:41.999Z</time></trkpt><trkpt lat="44.880401310235584" lon="-1.1513138366113107"><ele>19.0</ele><time>2026-04-12T16:36:42.999Z</time></trkpt><trkpt lat="44.88037420157792" lon="-1.1512149249094767"><ele>19.0</ele><time>2026-04-12T16:36:43.999Z</time></trkpt><trkpt lat="44.88032838132086" lon="-1.151068858839205"><ele>19.4</ele><time>2026-04-12T16:36:46.999Z</time></trkpt><trkpt lat="44.8802858193782" lon="-1.150964796318179"><ele>19.799999999999997</ele><time>2026-04-12T16:36:48.999Z</time></trkpt><trkpt lat="44.88027614286628" lon="-1.1508699777816755"><ele>20.200000000000003</ele><time>2026-04-12T16:36:49.999Z</time></trkpt><trkpt lat="44.88026531786985" lon="-1.1507635914510383"><ele>20.6</ele><time>2026-04-12T16:36:50.999Z</time></trkpt><trkpt lat="44.88019752613201" lon="-1.1506579168717086"><ele>21.0</ele><time>2026-04-12T16:36:52.999Z</time></trkpt><trkpt lat="44.88015710653937" lon="-1.1504887372952386"><ele>20.75</ele><time>2026-04-12T16:36:54.999Z</time></trkpt><trkpt lat="44.88012697064552" lon="-1.1503280438909698"><ele>20.5</ele><time>2026-04-12T16:36:55.999Z</time></trkpt><trkpt lat="44.88006514601066" lon="-1.1501626401468308"><ele>20.25</ele><time>2026-04-12T16:36:56.998Z</time></trkpt><trkpt lat="44.88001300293553" lon="-1.1499717286220614"><ele>20.0</ele><time>2026-04-12T16:36:57.998Z</time></trkpt><trkpt lat="44.879955547481316" lon="-1.1497973508567665"><ele>20.0</ele><time>2026-04-12T16:36:58.998Z</time></trkpt><trkpt lat="44.87991654594445" lon="-1.1496501655493028"><ele>20.0</ele><time>2026-04-12T16:36:59.998Z</time></trkpt><trkpt lat="44.87986958133765" lon="-1.1494811182410278"><ele>20.0</ele><time>2026-04-12T16:37:00.998Z</time></trkpt><trkpt lat="44.879829886053145" lon="-1.1493165501766431"><ele>20.0</ele><time>2026-04-12T16:37:01.998Z</time></trkpt><trkpt lat="44.879787919265766" lon="-1.149148658579968"><ele>20.75</ele><time>2026-04-12T16:37:02.998Z</time></trkpt><trkpt lat="44.87974000781714" lon="-1.148979061708919"><ele>21.5</ele><time>2026-04-12T16:37:03.998Z</time></trkpt><trkpt lat="44.87970090975472" lon="-1.1488256740857126"><ele>22.25</ele><time>2026-04-12T16:37:04.998Z</time></trkpt><trkpt lat="44.87965905712138" lon="-1.1486644987460326"><ele>23.0</ele><time>2026-04-12T16:37:05.998Z</time></trkpt><trkpt lat="44.87960989342784" lon="-1.1485009720830923"><ele>23.0</ele><time>2026-04-12T16:37:06.998Z</time></trkpt><trkpt lat="44.879568269820304" lon="-1.1483409269740814"><ele>23.0</ele><time>2026-04-12T16:37:07.998Z</time></trkpt><trkpt lat="44.879533119818596" lon="-1.14818399904293"><ele>23.0</ele><time>2026-04-12T16:37:08.998Z</time></trkpt><trkpt lat="44.879494075358096" lon="-1.1480209731173434"><ele>23.0</ele><time>2026-04-12T16:37:09.998Z</time></trkpt><trkpt lat="44.87946391145483" lon="-1.1478763969478363"><ele>23.2</ele><time>2026-04-12T16:37:10.998Z</time></trkpt><trkpt lat="44.879434511886046" lon="-1.1477708104998714"><ele>23.4</ele><time>2026-04-12T16:37:11.998Z</time></trkpt><trkpt lat="44.87939863523952" lon="-1.147617981123474"><ele>23.599999999999998</ele><time>2026-04-12T16:37:14.998Z</time></trkpt><trkpt lat="44.87936080101441" lon="-1.1474673853940982"><ele>23.799999999999997</ele><time>2026-04-12T16:37:17Z</time></trkpt><trkpt lat="44.87934458466338" lon="-1.147375379597568"><ele>24.0</ele><time>2026-04-12T16:37:19Z</time></trkpt><trkpt lat="44.8793033668736" lon="-1.1472389442198478"><ele>23.5</ele><time>2026-04-12T16:37:21Z</time></trkpt><trkpt lat="44.87927603836968" lon="-1.1471582767056772"><ele>23.0</ele><time>2026-04-12T16:37:23Z</time></trkpt><trkpt lat="44.87922144165902" lon="-1.1471032016249876"><ele>22.5</ele><time>2026-04-12T16:37:25Z</time></trkpt><trkpt lat="44.879165822860536" lon="-1.1470580051219286"><ele>22.0</ele><time>2026-04-12T16:37:26Z</time></trkpt><trkpt lat="44.87911237894011" lon="-1.1470015399576792"><ele>21.5</ele><time>2026-04-12T16:37:27Z</time></trkpt><trkpt lat="44.87900662378" lon="-1.146983248317161"><ele>21.0</ele><time>2026-04-12T16:37:30Z</time></trkpt><trkpt lat="44.87890977692141" lon="-1.1469448096702304"><ele>15.0</ele><time>2026-04-12T16:37:32Z</time></trkpt><trkpt lat="44.87882233241883" lon="-1.1468988084161442"><ele>15.0</ele><time>2026-04-12T16:37:34Z</time></trkpt></trkseg></trk></gpx>